<?xml version="1.0" encoding="UTF-8"?>
<gpx version="1.1" creator="https://www.youtrack.es" xsi:schemaLocation="http://www.topografix.com/GPX/1/1 http://www.topografix.com/GPX/1/1/gpx.xsd http://www.garmin.com/xmlschemas/GpxExtensions/v3 http://www.garmin.com/xmlschemas/GpxExtensionsv3.xsd http://www.garmin.com/xmlschemas/TrackPointExtension/v1 http://www.garmin.com/xmlschemas/TrackPointExtensionv1.xsd" xmlns:gpxtpx="http://www.garmin.com/xmlschemas/TrackPointExtension/v1" xmlns:gpxx="http://www.garmin.com/xmlschemas/GpxExtensions/v3" xmlns:xsi="http://www.w3.org/2001/XMLSchema-instance">
  <metadata>
    <link href="https://www.youtrack.es">
      <text>YouTrack.es</text>
    </link>
    <time>2026-05-09T01:13:26Z</time>
  </metadata>
  <trk>
    <src>https://www.youtrack.es</src>
    <link href="https://www.youtrack.es/ruta/393-caminata">
      <text>YouTrack.es</text>
    </link>
    <trkseg>
      <trkpt lat="36.68946333" lon="-4.45111">
        <ele>20</ele>
        <time>2018-04-23T13:35:57Z</time>
      </trkpt>
      <trkpt lat="36.68946833" lon="-4.45109833">
        <ele>20</ele>
        <time>2018-04-23T13:35:57Z</time>
      </trkpt>
      <trkpt lat="36.68947" lon="-4.451095">
        <ele>20</ele>
        <time>2018-04-23T13:35:57Z</time>
      </trkpt>
      <trkpt lat="36.68946833" lon="-4.45109667">
        <ele>20</ele>
        <time>2018-04-23T13:35:57Z</time>
      </trkpt>
      <trkpt lat="36.68947333" lon="-4.45107833">
        <ele>20</ele>
        <time>2018-04-23T13:35:57Z</time>
      </trkpt>
      <trkpt lat="36.68947333" lon="-4.45105833">
        <ele>20</ele>
        <time>2018-04-23T13:35:57Z</time>
      </trkpt>
      <trkpt lat="36.68947833" lon="-4.45104333">
        <ele>20</ele>
        <time>2018-04-23T13:35:57Z</time>
      </trkpt>
      <trkpt lat="36.68948167" lon="-4.45102667">
        <ele>20</ele>
        <time>2018-04-23T13:35:57Z</time>
      </trkpt>
      <trkpt lat="36.68948833" lon="-4.45101667">
        <ele>20</ele>
        <time>2018-04-23T13:35:57Z</time>
      </trkpt>
      <trkpt lat="36.68949167" lon="-4.45100333">
        <ele>13</ele>
        <time>2018-04-23T13:35:57Z</time>
      </trkpt>
      <trkpt lat="36.68948667" lon="-4.45099833">
        <ele>13</ele>
        <time>2018-04-23T13:35:57Z</time>
      </trkpt>
      <trkpt lat="36.689485" lon="-4.450995">
        <ele>18</ele>
        <time>2018-04-23T13:35:57Z</time>
      </trkpt>
      <trkpt lat="36.68948667" lon="-4.45099667">
        <ele>23</ele>
        <time>2018-04-23T13:35:57Z</time>
      </trkpt>
      <trkpt lat="36.68948167" lon="-4.45099333">
        <ele>23</ele>
        <time>2018-04-23T13:35:57Z</time>
      </trkpt>
      <trkpt lat="36.68948" lon="-4.45098833">
        <ele>23</ele>
        <time>2018-04-23T13:35:57Z</time>
      </trkpt>
      <trkpt lat="36.689485" lon="-4.45098167">
        <ele>23</ele>
        <time>2018-04-23T13:35:57Z</time>
      </trkpt>
      <trkpt lat="36.689495" lon="-4.45096667">
        <ele>23</ele>
        <time>2018-04-23T13:35:57Z</time>
      </trkpt>
      <trkpt lat="36.689495" lon="-4.45095333">
        <ele>23</ele>
        <time>2018-04-23T13:35:57Z</time>
      </trkpt>
      <trkpt lat="36.68949833" lon="-4.450935">
        <ele>22</ele>
        <time>2018-04-23T13:35:57Z</time>
      </trkpt>
      <trkpt lat="36.689495" lon="-4.45092">
        <ele>22</ele>
        <time>2018-04-23T13:35:57Z</time>
      </trkpt>
      <trkpt lat="36.68949" lon="-4.45090167">
        <ele>22</ele>
        <time>2018-04-23T13:35:57Z</time>
      </trkpt>
      <trkpt lat="36.68948167" lon="-4.45088833">
        <ele>23</ele>
        <time>2018-04-23T13:35:57Z</time>
      </trkpt>
      <trkpt lat="36.68946833" lon="-4.450875">
        <ele>23</ele>
        <time>2018-04-23T13:35:57Z</time>
      </trkpt>
      <trkpt lat="36.689465" lon="-4.450855">
        <ele>23</ele>
        <time>2018-04-23T13:35:57Z</time>
      </trkpt>
      <trkpt lat="36.689465" lon="-4.45083833">
        <ele>23</ele>
        <time>2018-04-23T13:35:57Z</time>
      </trkpt>
      <trkpt lat="36.68947" lon="-4.45082333">
        <ele>23</ele>
        <time>2018-04-23T13:35:57Z</time>
      </trkpt>
      <trkpt lat="36.68947833" lon="-4.45080833">
        <ele>23</ele>
        <time>2018-04-23T13:35:57Z</time>
      </trkpt>
      <trkpt lat="36.68948" lon="-4.45079333">
        <ele>23</ele>
        <time>2018-04-23T13:35:57Z</time>
      </trkpt>
      <trkpt lat="36.68948" lon="-4.45077833">
        <ele>23</ele>
        <time>2018-04-23T13:35:57Z</time>
      </trkpt>
      <trkpt lat="36.68948167" lon="-4.45075833">
        <ele>23</ele>
        <time>2018-04-23T13:35:57Z</time>
      </trkpt>
      <trkpt lat="36.68947333" lon="-4.45073667">
        <ele>23</ele>
        <time>2018-04-23T13:35:57Z</time>
      </trkpt>
      <trkpt lat="36.68947667" lon="-4.45071667">
        <ele>23</ele>
        <time>2018-04-23T13:35:58Z</time>
      </trkpt>
      <trkpt lat="36.689485" lon="-4.45069833">
        <ele>23</ele>
        <time>2018-04-23T13:35:59Z</time>
      </trkpt>
      <trkpt lat="36.68949167" lon="-4.45067833">
        <ele>23</ele>
        <time>2018-04-23T13:36:00Z</time>
      </trkpt>
      <trkpt lat="36.689493" lon="-4.45066333">
        <ele>23</ele>
        <time>2018-04-23T13:36:01Z</time>
      </trkpt>
      <trkpt lat="36.68949233" lon="-4.45064833">
        <ele>23</ele>
        <time>2018-04-23T13:36:02Z</time>
      </trkpt>
      <trkpt lat="36.68949067" lon="-4.45063333">
        <ele>23</ele>
        <time>2018-04-23T13:36:03Z</time>
      </trkpt>
      <trkpt lat="36.68948733" lon="-4.45061667">
        <ele>23</ele>
        <time>2018-04-23T13:36:04Z</time>
      </trkpt>
      <trkpt lat="36.68948467" lon="-4.4506">
        <ele>23</ele>
        <time>2018-04-23T13:36:05Z</time>
      </trkpt>
      <trkpt lat="36.68948333" lon="-4.45058667">
        <ele>23</ele>
        <time>2018-04-23T13:36:06Z</time>
      </trkpt>
      <trkpt lat="36.689482" lon="-4.45056667">
        <ele>23</ele>
        <time>2018-04-23T13:36:07Z</time>
      </trkpt>
      <trkpt lat="36.68948233" lon="-4.45054667">
        <ele>23</ele>
        <time>2018-04-23T13:36:08Z</time>
      </trkpt>
      <trkpt lat="36.689483" lon="-4.45053">
        <ele>23</ele>
        <time>2018-04-23T13:36:09Z</time>
      </trkpt>
      <trkpt lat="36.68948533" lon="-4.45051833">
        <ele>23</ele>
        <time>2018-04-23T13:36:10Z</time>
      </trkpt>
      <trkpt lat="36.689487" lon="-4.45050833">
        <ele>23</ele>
        <time>2018-04-23T13:36:11Z</time>
      </trkpt>
      <trkpt lat="36.68948667" lon="-4.450495">
        <ele>23</ele>
        <time>2018-04-23T13:36:12Z</time>
      </trkpt>
      <trkpt lat="36.68948633" lon="-4.45048167">
        <ele>23</ele>
        <time>2018-04-23T13:36:13Z</time>
      </trkpt>
      <trkpt lat="36.689486" lon="-4.45047">
        <ele>23</ele>
        <time>2018-04-23T13:36:14Z</time>
      </trkpt>
      <trkpt lat="36.68948833" lon="-4.45045667">
        <ele>23</ele>
        <time>2018-04-23T13:36:15Z</time>
      </trkpt>
      <trkpt lat="36.68948967" lon="-4.45045333">
        <ele>23</ele>
        <time>2018-04-23T13:36:16Z</time>
      </trkpt>
      <trkpt lat="36.68950833" lon="-4.45044333">
        <ele>23</ele>
        <time>2018-04-23T13:36:17Z</time>
      </trkpt>
      <trkpt lat="36.68951633" lon="-4.450415">
        <ele>23</ele>
        <time>2018-04-23T13:36:18Z</time>
      </trkpt>
      <trkpt lat="36.689524" lon="-4.45039833">
        <ele>23</ele>
        <time>2018-04-23T13:36:19Z</time>
      </trkpt>
      <trkpt lat="36.689535" lon="-4.45041167">
        <ele>23</ele>
        <time>2018-04-23T13:36:20Z</time>
      </trkpt>
      <trkpt lat="36.68954167" lon="-4.450413">
        <ele>23</ele>
        <time>2018-04-23T13:36:21Z</time>
      </trkpt>
      <trkpt lat="36.68954833" lon="-4.45040833">
        <ele>23</ele>
        <time>2018-04-23T13:36:22Z</time>
      </trkpt>
      <trkpt lat="36.68955667" lon="-4.45039667">
        <ele>23</ele>
        <time>2018-04-23T13:36:23Z</time>
      </trkpt>
      <trkpt lat="36.68956833" lon="-4.450378">
        <ele>23</ele>
        <time>2018-04-23T13:36:24Z</time>
      </trkpt>
      <trkpt lat="36.689585" lon="-4.45036367">
        <ele>23</ele>
        <time>2018-04-23T13:36:25Z</time>
      </trkpt>
      <trkpt lat="36.68960167" lon="-4.45035233">
        <ele>23</ele>
        <time>2018-04-23T13:36:26Z</time>
      </trkpt>
      <trkpt lat="36.68961833" lon="-4.45034433">
        <ele>23</ele>
        <time>2018-04-23T13:36:27Z</time>
      </trkpt>
      <trkpt lat="36.68963" lon="-4.45033933">
        <ele>23</ele>
        <time>2018-04-23T13:36:28Z</time>
      </trkpt>
      <trkpt lat="36.689635" lon="-4.450337">
        <ele>23</ele>
        <time>2018-04-23T13:36:29Z</time>
      </trkpt>
      <trkpt lat="36.68964167" lon="-4.45033367">
        <ele>23</ele>
        <time>2018-04-23T13:36:30Z</time>
      </trkpt>
      <trkpt lat="36.68964667" lon="-4.450331">
        <ele>23</ele>
        <time>2018-04-23T13:36:31Z</time>
      </trkpt>
      <trkpt lat="36.68965833" lon="-4.450326">
        <ele>23</ele>
        <time>2018-04-23T13:36:32Z</time>
      </trkpt>
      <trkpt lat="36.68967167" lon="-4.45032">
        <ele>23</ele>
        <time>2018-04-23T13:36:33Z</time>
      </trkpt>
      <trkpt lat="36.689685" lon="-4.45031567">
        <ele>23</ele>
        <time>2018-04-23T13:36:34Z</time>
      </trkpt>
      <trkpt lat="36.68969833" lon="-4.45031067">
        <ele>23</ele>
        <time>2018-04-23T13:36:35Z</time>
      </trkpt>
      <trkpt lat="36.68970833" lon="-4.45030633">
        <ele>23</ele>
        <time>2018-04-23T13:36:36Z</time>
      </trkpt>
      <trkpt lat="36.68972167" lon="-4.45029967">
        <ele>23</ele>
        <time>2018-04-23T13:36:37Z</time>
      </trkpt>
      <trkpt lat="36.68973333" lon="-4.450294">
        <ele>23</ele>
        <time>2018-04-23T13:36:38Z</time>
      </trkpt>
      <trkpt lat="36.689745" lon="-4.45028767">
        <ele>23</ele>
        <time>2018-04-23T13:36:39Z</time>
      </trkpt>
      <trkpt lat="36.68976167" lon="-4.45028033">
        <ele>23</ele>
        <time>2018-04-23T13:36:40Z</time>
      </trkpt>
      <trkpt lat="36.689775" lon="-4.45027467">
        <ele>23</ele>
        <time>2018-04-23T13:36:41Z</time>
      </trkpt>
      <trkpt lat="36.68979" lon="-4.45026933">
        <ele>23</ele>
        <time>2018-04-23T13:36:42Z</time>
      </trkpt>
      <trkpt lat="36.689805" lon="-4.45026367">
        <ele>23</ele>
        <time>2018-04-23T13:36:43Z</time>
      </trkpt>
      <trkpt lat="36.68981667" lon="-4.45025967">
        <ele>23</ele>
        <time>2018-04-23T13:36:44Z</time>
      </trkpt>
      <trkpt lat="36.68982833" lon="-4.450254">
        <ele>23</ele>
        <time>2018-04-23T13:36:45Z</time>
      </trkpt>
      <trkpt lat="36.68983333" lon="-4.450252">
        <ele>23</ele>
        <time>2018-04-23T13:36:46Z</time>
      </trkpt>
      <trkpt lat="36.689845" lon="-4.45024567">
        <ele>23</ele>
        <time>2018-04-23T13:36:47Z</time>
      </trkpt>
      <trkpt lat="36.689855" lon="-4.450241">
        <ele>23</ele>
        <time>2018-04-23T13:36:48Z</time>
      </trkpt>
      <trkpt lat="36.68987" lon="-4.45023333">
        <ele>23</ele>
        <time>2018-04-23T13:36:49Z</time>
      </trkpt>
      <trkpt lat="36.68988167" lon="-4.45022767">
        <ele>23</ele>
        <time>2018-04-23T13:36:50Z</time>
      </trkpt>
      <trkpt lat="36.68989333" lon="-4.45022233">
        <ele>23</ele>
        <time>2018-04-23T13:36:51Z</time>
      </trkpt>
      <trkpt lat="36.68990333" lon="-4.45021767">
        <ele>23</ele>
        <time>2018-04-23T13:36:52Z</time>
      </trkpt>
      <trkpt lat="36.68991333" lon="-4.45021267">
        <ele>23</ele>
        <time>2018-04-23T13:36:53Z</time>
      </trkpt>
      <trkpt lat="36.68992833" lon="-4.45020567">
        <ele>23</ele>
        <time>2018-04-23T13:36:54Z</time>
      </trkpt>
      <trkpt lat="36.68993833" lon="-4.4502">
        <ele>23</ele>
        <time>2018-04-23T13:36:55Z</time>
      </trkpt>
      <trkpt lat="36.68994667" lon="-4.450195">
        <ele>23</ele>
        <time>2018-04-23T13:36:56Z</time>
      </trkpt>
      <trkpt lat="36.68995833" lon="-4.45018867">
        <ele>23</ele>
        <time>2018-04-23T13:36:57Z</time>
      </trkpt>
      <trkpt lat="36.68997167" lon="-4.450182">
        <ele>23</ele>
        <time>2018-04-23T13:36:58Z</time>
      </trkpt>
      <trkpt lat="36.68999" lon="-4.45017233">
        <ele>23</ele>
        <time>2018-04-23T13:36:59Z</time>
      </trkpt>
      <trkpt lat="36.69" lon="-4.45016733">
        <ele>23</ele>
        <time>2018-04-23T13:37:00Z</time>
      </trkpt>
      <trkpt lat="36.69001" lon="-4.450161">
        <ele>23</ele>
        <time>2018-04-23T13:37:01Z</time>
      </trkpt>
      <trkpt lat="36.69002" lon="-4.45015633">
        <ele>23</ele>
        <time>2018-04-23T13:37:02Z</time>
      </trkpt>
      <trkpt lat="36.69003167" lon="-4.45014933">
        <ele>23</ele>
        <time>2018-04-23T13:37:03Z</time>
      </trkpt>
      <trkpt lat="36.69004333" lon="-4.45014367">
        <ele>23</ele>
        <time>2018-04-23T13:37:04Z</time>
      </trkpt>
      <trkpt lat="36.69004833" lon="-4.45014">
        <ele>23</ele>
        <time>2018-04-23T13:37:05Z</time>
      </trkpt>
      <trkpt lat="36.69006167" lon="-4.450132">
        <ele>23</ele>
        <time>2018-04-23T13:37:06Z</time>
      </trkpt>
      <trkpt lat="36.69007333" lon="-4.45012567">
        <ele>23</ele>
        <time>2018-04-23T13:37:07Z</time>
      </trkpt>
      <trkpt lat="36.69008333" lon="-4.45011967">
        <ele>23</ele>
        <time>2018-04-23T13:37:08Z</time>
      </trkpt>
      <trkpt lat="36.690095" lon="-4.45011233">
        <ele>23</ele>
        <time>2018-04-23T13:37:09Z</time>
      </trkpt>
      <trkpt lat="36.69010333" lon="-4.45010667">
        <ele>23</ele>
        <time>2018-04-23T13:37:10Z</time>
      </trkpt>
      <trkpt lat="36.69011" lon="-4.450102">
        <ele>23</ele>
        <time>2018-04-23T13:37:11Z</time>
      </trkpt>
      <trkpt lat="36.69012167" lon="-4.45009433">
        <ele>23</ele>
        <time>2018-04-23T13:37:12Z</time>
      </trkpt>
      <trkpt lat="36.69013333" lon="-4.45008667">
        <ele>23</ele>
        <time>2018-04-23T13:37:13Z</time>
      </trkpt>
      <trkpt lat="36.690145" lon="-4.45007933">
        <ele>23</ele>
        <time>2018-04-23T13:37:14Z</time>
      </trkpt>
      <trkpt lat="36.69015333" lon="-4.45007367">
        <ele>23</ele>
        <time>2018-04-23T13:37:15Z</time>
      </trkpt>
      <trkpt lat="36.69016833" lon="-4.45006333">
        <ele>23</ele>
        <time>2018-04-23T13:37:16Z</time>
      </trkpt>
      <trkpt lat="36.69018333" lon="-4.450054">
        <ele>23</ele>
        <time>2018-04-23T13:37:17Z</time>
      </trkpt>
      <trkpt lat="36.69019667" lon="-4.45004567">
        <ele>23</ele>
        <time>2018-04-23T13:37:18Z</time>
      </trkpt>
      <trkpt lat="36.69020833" lon="-4.45003867">
        <ele>23</ele>
        <time>2018-04-23T13:37:19Z</time>
      </trkpt>
      <trkpt lat="36.69022167" lon="-4.450029">
        <ele>23</ele>
        <time>2018-04-23T13:37:20Z</time>
      </trkpt>
      <trkpt lat="36.690235" lon="-4.45002067">
        <ele>23</ele>
        <time>2018-04-23T13:37:21Z</time>
      </trkpt>
      <trkpt lat="36.69024833" lon="-4.45001233">
        <ele>23</ele>
        <time>2018-04-23T13:37:22Z</time>
      </trkpt>
      <trkpt lat="36.69026" lon="-4.45000467">
        <ele>23</ele>
        <time>2018-04-23T13:37:23Z</time>
      </trkpt>
      <trkpt lat="36.690275" lon="-4.44999667">
        <ele>23</ele>
        <time>2018-04-23T13:37:24Z</time>
      </trkpt>
      <trkpt lat="36.690285" lon="-4.449991">
        <ele>23</ele>
        <time>2018-04-23T13:37:25Z</time>
      </trkpt>
      <trkpt lat="36.69029833" lon="-4.44998267">
        <ele>23</ele>
        <time>2018-04-23T13:37:26Z</time>
      </trkpt>
      <trkpt lat="36.69031167" lon="-4.44997433">
        <ele>23</ele>
        <time>2018-04-23T13:37:27Z</time>
      </trkpt>
      <trkpt lat="36.69032167" lon="-4.44996733">
        <ele>23</ele>
        <time>2018-04-23T13:37:28Z</time>
      </trkpt>
      <trkpt lat="36.690335" lon="-4.44995867">
        <ele>23</ele>
        <time>2018-04-23T13:37:29Z</time>
      </trkpt>
      <trkpt lat="36.69034667" lon="-4.44995233">
        <ele>23</ele>
        <time>2018-04-23T13:37:30Z</time>
      </trkpt>
      <trkpt lat="36.69035667" lon="-4.44994567">
        <ele>23</ele>
        <time>2018-04-23T13:37:31Z</time>
      </trkpt>
      <trkpt lat="36.690365" lon="-4.44994033">
        <ele>23</ele>
        <time>2018-04-23T13:37:32Z</time>
      </trkpt>
      <trkpt lat="36.69037667" lon="-4.44993333">
        <ele>23</ele>
        <time>2018-04-23T13:37:33Z</time>
      </trkpt>
      <trkpt lat="36.690385" lon="-4.449927">
        <ele>23</ele>
        <time>2018-04-23T13:37:34Z</time>
      </trkpt>
      <trkpt lat="36.69039" lon="-4.44990333">
        <ele>23</ele>
        <time>2018-04-23T13:37:35Z</time>
      </trkpt>
      <trkpt lat="36.6904" lon="-4.44989167">
        <ele>23</ele>
        <time>2018-04-23T13:37:36Z</time>
      </trkpt>
      <trkpt lat="36.69040667" lon="-4.44988167">
        <ele>23</ele>
        <time>2018-04-23T13:37:37Z</time>
      </trkpt>
      <trkpt lat="36.69041333" lon="-4.44987">
        <ele>23</ele>
        <time>2018-04-23T13:37:38Z</time>
      </trkpt>
      <trkpt lat="36.69042333" lon="-4.44985667">
        <ele>23</ele>
        <time>2018-04-23T13:37:39Z</time>
      </trkpt>
      <trkpt lat="36.69043467" lon="-4.44984333">
        <ele>23</ele>
        <time>2018-04-23T13:37:40Z</time>
      </trkpt>
      <trkpt lat="36.690444" lon="-4.44983">
        <ele>23</ele>
        <time>2018-04-23T13:37:41Z</time>
      </trkpt>
      <trkpt lat="36.690453" lon="-4.449815">
        <ele>23</ele>
        <time>2018-04-23T13:37:42Z</time>
      </trkpt>
      <trkpt lat="36.69046167" lon="-4.449805">
        <ele>23</ele>
        <time>2018-04-23T13:37:43Z</time>
      </trkpt>
      <trkpt lat="36.69046833" lon="-4.4498">
        <ele>23</ele>
        <time>2018-04-23T13:37:44Z</time>
      </trkpt>
      <trkpt lat="36.69047767" lon="-4.44979">
        <ele>23</ele>
        <time>2018-04-23T13:37:45Z</time>
      </trkpt>
      <trkpt lat="36.69048733" lon="-4.44977667">
        <ele>23</ele>
        <time>2018-04-23T13:37:46Z</time>
      </trkpt>
      <trkpt lat="36.690496" lon="-4.44976333">
        <ele>23</ele>
        <time>2018-04-23T13:37:47Z</time>
      </trkpt>
      <trkpt lat="36.690502" lon="-4.44975167">
        <ele>23</ele>
        <time>2018-04-23T13:37:48Z</time>
      </trkpt>
      <trkpt lat="36.69051033" lon="-4.44973667">
        <ele>23</ele>
        <time>2018-04-23T13:37:49Z</time>
      </trkpt>
      <trkpt lat="36.690517" lon="-4.44972333">
        <ele>23</ele>
        <time>2018-04-23T13:37:50Z</time>
      </trkpt>
      <trkpt lat="36.69052267" lon="-4.44971">
        <ele>23</ele>
        <time>2018-04-23T13:37:51Z</time>
      </trkpt>
      <trkpt lat="36.690529" lon="-4.44969833">
        <ele>23</ele>
        <time>2018-04-23T13:37:52Z</time>
      </trkpt>
      <trkpt lat="36.690538" lon="-4.449685">
        <ele>23</ele>
        <time>2018-04-23T13:37:53Z</time>
      </trkpt>
      <trkpt lat="36.69054533" lon="-4.449675">
        <ele>23</ele>
        <time>2018-04-23T13:37:54Z</time>
      </trkpt>
      <trkpt lat="36.69054967" lon="-4.44967167">
        <ele>23</ele>
        <time>2018-04-23T13:37:55Z</time>
      </trkpt>
      <trkpt lat="36.690555" lon="-4.44966833">
        <ele>23</ele>
        <time>2018-04-23T13:37:56Z</time>
      </trkpt>
      <trkpt lat="36.69058333" lon="-4.44966">
        <ele>23</ele>
        <time>2018-04-23T13:37:57Z</time>
      </trkpt>
      <trkpt lat="36.69059667" lon="-4.44965167">
        <ele>23</ele>
        <time>2018-04-23T13:37:58Z</time>
      </trkpt>
      <trkpt lat="36.69061" lon="-4.44963967">
        <ele>23</ele>
        <time>2018-04-23T13:37:59Z</time>
      </trkpt>
      <trkpt lat="36.69061833" lon="-4.44962933">
        <ele>23</ele>
        <time>2018-04-23T13:38:00Z</time>
      </trkpt>
      <trkpt lat="36.69062" lon="-4.44962267">
        <ele>23</ele>
        <time>2018-04-23T13:38:01Z</time>
      </trkpt>
      <trkpt lat="36.69062667" lon="-4.44961">
        <ele>23</ele>
        <time>2018-04-23T13:38:02Z</time>
      </trkpt>
      <trkpt lat="36.69063333" lon="-4.44959167">
        <ele>23</ele>
        <time>2018-04-23T13:38:03Z</time>
      </trkpt>
      <trkpt lat="36.69064" lon="-4.44958">
        <ele>23</ele>
        <time>2018-04-23T13:38:04Z</time>
      </trkpt>
      <trkpt lat="36.690649" lon="-4.44957">
        <ele>23</ele>
        <time>2018-04-23T13:38:05Z</time>
      </trkpt>
      <trkpt lat="36.690657" lon="-4.44955833">
        <ele>23</ele>
        <time>2018-04-23T13:38:06Z</time>
      </trkpt>
      <trkpt lat="36.69066467" lon="-4.44954833">
        <ele>23</ele>
        <time>2018-04-23T13:38:07Z</time>
      </trkpt>
      <trkpt lat="36.690674" lon="-4.44953833">
        <ele>23</ele>
        <time>2018-04-23T13:38:08Z</time>
      </trkpt>
      <trkpt lat="36.69068833" lon="-4.44953">
        <ele>23</ele>
        <time>2018-04-23T13:38:09Z</time>
      </trkpt>
      <trkpt lat="36.69069667" lon="-4.44952133">
        <ele>23</ele>
        <time>2018-04-23T13:38:10Z</time>
      </trkpt>
      <trkpt lat="36.69071" lon="-4.44951567">
        <ele>23</ele>
        <time>2018-04-23T13:38:11Z</time>
      </trkpt>
      <trkpt lat="36.69072" lon="-4.449511">
        <ele>23</ele>
        <time>2018-04-23T13:38:12Z</time>
      </trkpt>
      <trkpt lat="36.69073" lon="-4.44951167">
        <ele>23</ele>
        <time>2018-04-23T13:38:13Z</time>
      </trkpt>
      <trkpt lat="36.69074167" lon="-4.44950833">
        <ele>23</ele>
        <time>2018-04-23T13:38:14Z</time>
      </trkpt>
      <trkpt lat="36.690755" lon="-4.44950067">
        <ele>23</ele>
        <time>2018-04-23T13:38:15Z</time>
      </trkpt>
      <trkpt lat="36.690765" lon="-4.44949267">
        <ele>23</ele>
        <time>2018-04-23T13:38:16Z</time>
      </trkpt>
      <trkpt lat="36.69077667" lon="-4.44948567">
        <ele>23</ele>
        <time>2018-04-23T13:38:17Z</time>
      </trkpt>
      <trkpt lat="36.690785" lon="-4.44947833">
        <ele>23</ele>
        <time>2018-04-23T13:38:18Z</time>
      </trkpt>
      <trkpt lat="36.69079667" lon="-4.44947033">
        <ele>23</ele>
        <time>2018-04-23T13:38:19Z</time>
      </trkpt>
      <trkpt lat="36.69081" lon="-4.44946167">
        <ele>23</ele>
        <time>2018-04-23T13:38:20Z</time>
      </trkpt>
      <trkpt lat="36.69082833" lon="-4.44945567">
        <ele>23</ele>
        <time>2018-04-23T13:38:21Z</time>
      </trkpt>
      <trkpt lat="36.69084333" lon="-4.449452">
        <ele>23</ele>
        <time>2018-04-23T13:38:22Z</time>
      </trkpt>
      <trkpt lat="36.69086167" lon="-4.44944933">
        <ele>23</ele>
        <time>2018-04-23T13:38:23Z</time>
      </trkpt>
      <trkpt lat="36.69087667" lon="-4.44944567">
        <ele>23</ele>
        <time>2018-04-23T13:38:24Z</time>
      </trkpt>
      <trkpt lat="36.69088667" lon="-4.449438">
        <ele>23</ele>
        <time>2018-04-23T13:38:25Z</time>
      </trkpt>
      <trkpt lat="36.6909" lon="-4.44942867">
        <ele>23</ele>
        <time>2018-04-23T13:38:26Z</time>
      </trkpt>
      <trkpt lat="36.69090833" lon="-4.449405">
        <ele>23</ele>
        <time>2018-04-23T13:38:27Z</time>
      </trkpt>
      <trkpt lat="36.69091833" lon="-4.44938833">
        <ele>23</ele>
        <time>2018-04-23T13:38:28Z</time>
      </trkpt>
      <trkpt lat="36.690925" lon="-4.44936833">
        <ele>23</ele>
        <time>2018-04-23T13:38:29Z</time>
      </trkpt>
      <trkpt lat="36.69092667" lon="-4.44934">
        <ele>23</ele>
        <time>2018-04-23T13:38:30Z</time>
      </trkpt>
      <trkpt lat="36.69094167" lon="-4.44933667">
        <ele>23</ele>
        <time>2018-04-23T13:38:31Z</time>
      </trkpt>
      <trkpt lat="36.69095667" lon="-4.449335">
        <ele>23</ele>
        <time>2018-04-23T13:38:32Z</time>
      </trkpt>
      <trkpt lat="36.69098" lon="-4.449345">
        <ele>23</ele>
        <time>2018-04-23T13:38:33Z</time>
      </trkpt>
      <trkpt lat="36.69099833" lon="-4.44935833">
        <ele>23</ele>
        <time>2018-04-23T13:38:34Z</time>
      </trkpt>
      <trkpt lat="36.69100333" lon="-4.44935833">
        <ele>23</ele>
        <time>2018-04-23T13:38:35Z</time>
      </trkpt>
      <trkpt lat="36.69101333" lon="-4.449353">
        <ele>23</ele>
        <time>2018-04-23T13:38:36Z</time>
      </trkpt>
      <trkpt lat="36.69102833" lon="-4.44934933">
        <ele>23</ele>
        <time>2018-04-23T13:38:37Z</time>
      </trkpt>
      <trkpt lat="36.69103833" lon="-4.44934867">
        <ele>23</ele>
        <time>2018-04-23T13:38:38Z</time>
      </trkpt>
      <trkpt lat="36.69104333" lon="-4.449347">
        <ele>23</ele>
        <time>2018-04-23T13:38:39Z</time>
      </trkpt>
      <trkpt lat="36.69105333" lon="-4.44934333">
        <ele>23</ele>
        <time>2018-04-23T13:38:40Z</time>
      </trkpt>
      <trkpt lat="36.69106333" lon="-4.44933867">
        <ele>23</ele>
        <time>2018-04-23T13:38:41Z</time>
      </trkpt>
      <trkpt lat="36.691075" lon="-4.44933567">
        <ele>23</ele>
        <time>2018-04-23T13:38:42Z</time>
      </trkpt>
      <trkpt lat="36.69108" lon="-4.44933333">
        <ele>23</ele>
        <time>2018-04-23T13:38:43Z</time>
      </trkpt>
      <trkpt lat="36.69109667" lon="-4.44932867">
        <ele>23</ele>
        <time>2018-04-23T13:38:44Z</time>
      </trkpt>
      <trkpt lat="36.69110833" lon="-4.44932267">
        <ele>23</ele>
        <time>2018-04-23T13:38:45Z</time>
      </trkpt>
      <trkpt lat="36.69112" lon="-4.44931567">
        <ele>23</ele>
        <time>2018-04-23T13:38:46Z</time>
      </trkpt>
      <trkpt lat="36.691135" lon="-4.44930767">
        <ele>23</ele>
        <time>2018-04-23T13:38:47Z</time>
      </trkpt>
      <trkpt lat="36.69114833" lon="-4.44929967">
        <ele>23</ele>
        <time>2018-04-23T13:38:48Z</time>
      </trkpt>
      <trkpt lat="36.69116" lon="-4.449293">
        <ele>23</ele>
        <time>2018-04-23T13:38:49Z</time>
      </trkpt>
      <trkpt lat="36.691175" lon="-4.44928567">
        <ele>23</ele>
        <time>2018-04-23T13:38:50Z</time>
      </trkpt>
      <trkpt lat="36.69118667" lon="-4.44928">
        <ele>23</ele>
        <time>2018-04-23T13:38:51Z</time>
      </trkpt>
      <trkpt lat="36.6912" lon="-4.44927467">
        <ele>23</ele>
        <time>2018-04-23T13:38:52Z</time>
      </trkpt>
      <trkpt lat="36.69121" lon="-4.44926967">
        <ele>23</ele>
        <time>2018-04-23T13:38:53Z</time>
      </trkpt>
      <trkpt lat="36.69122167" lon="-4.449264">
        <ele>23</ele>
        <time>2018-04-23T13:38:54Z</time>
      </trkpt>
      <trkpt lat="36.69123667" lon="-4.44925733">
        <ele>23</ele>
        <time>2018-04-23T13:38:55Z</time>
      </trkpt>
      <trkpt lat="36.69124667" lon="-4.449252">
        <ele>23</ele>
        <time>2018-04-23T13:38:56Z</time>
      </trkpt>
      <trkpt lat="36.69125667" lon="-4.44924667">
        <ele>23</ele>
        <time>2018-04-23T13:38:57Z</time>
      </trkpt>
      <trkpt lat="36.69126333" lon="-4.44924233">
        <ele>23</ele>
        <time>2018-04-23T13:38:58Z</time>
      </trkpt>
      <trkpt lat="36.69127333" lon="-4.44923567">
        <ele>23</ele>
        <time>2018-04-23T13:38:59Z</time>
      </trkpt>
      <trkpt lat="36.69128" lon="-4.44923">
        <ele>23</ele>
        <time>2018-04-23T13:39:00Z</time>
      </trkpt>
      <trkpt lat="36.69128833" lon="-4.44922333">
        <ele>23</ele>
        <time>2018-04-23T13:39:01Z</time>
      </trkpt>
      <trkpt lat="36.69129833" lon="-4.44921567">
        <ele>23</ele>
        <time>2018-04-23T13:39:02Z</time>
      </trkpt>
      <trkpt lat="36.69131" lon="-4.44920633">
        <ele>23</ele>
        <time>2018-04-23T13:39:03Z</time>
      </trkpt>
      <trkpt lat="36.69132333" lon="-4.44919633">
        <ele>23</ele>
        <time>2018-04-23T13:39:04Z</time>
      </trkpt>
      <trkpt lat="36.69133167" lon="-4.44918933">
        <ele>23</ele>
        <time>2018-04-23T13:39:05Z</time>
      </trkpt>
      <trkpt lat="36.69134167" lon="-4.44918167">
        <ele>23</ele>
        <time>2018-04-23T13:39:06Z</time>
      </trkpt>
      <trkpt lat="36.69134667" lon="-4.449176">
        <ele>23</ele>
        <time>2018-04-23T13:39:07Z</time>
      </trkpt>
      <trkpt lat="36.69134667" lon="-4.44917233">
        <ele>23</ele>
        <time>2018-04-23T13:39:08Z</time>
      </trkpt>
      <trkpt lat="36.69135667" lon="-4.44912">
        <ele>23</ele>
        <time>2018-04-23T13:39:09Z</time>
      </trkpt>
      <trkpt lat="36.69135667" lon="-4.44910333">
        <ele>23</ele>
        <time>2018-04-23T13:39:10Z</time>
      </trkpt>
      <trkpt lat="36.69136" lon="-4.44908667">
        <ele>23</ele>
        <time>2018-04-23T13:39:11Z</time>
      </trkpt>
      <trkpt lat="36.69135833" lon="-4.44907">
        <ele>23</ele>
        <time>2018-04-23T13:39:12Z</time>
      </trkpt>
      <trkpt lat="36.69135667" lon="-4.449055">
        <ele>23</ele>
        <time>2018-04-23T13:39:13Z</time>
      </trkpt>
      <trkpt lat="36.69135667" lon="-4.44903833">
        <ele>23</ele>
        <time>2018-04-23T13:39:14Z</time>
      </trkpt>
      <trkpt lat="36.69136333" lon="-4.449025">
        <ele>23</ele>
        <time>2018-04-23T13:39:15Z</time>
      </trkpt>
      <trkpt lat="36.69137133" lon="-4.44900833">
        <ele>23</ele>
        <time>2018-04-23T13:39:16Z</time>
      </trkpt>
      <trkpt lat="36.69137733" lon="-4.44899333">
        <ele>23</ele>
        <time>2018-04-23T13:39:17Z</time>
      </trkpt>
      <trkpt lat="36.691383" lon="-4.44897667">
        <ele>23</ele>
        <time>2018-04-23T13:39:18Z</time>
      </trkpt>
      <trkpt lat="36.69138233" lon="-4.44896167">
        <ele>23</ele>
        <time>2018-04-23T13:39:19Z</time>
      </trkpt>
      <trkpt lat="36.691375" lon="-4.44894833">
        <ele>23</ele>
        <time>2018-04-23T13:39:20Z</time>
      </trkpt>
      <trkpt lat="36.69135167" lon="-4.44893167">
        <ele>23</ele>
        <time>2018-04-23T13:39:21Z</time>
      </trkpt>
      <trkpt lat="36.69134167" lon="-4.448915">
        <ele>23</ele>
        <time>2018-04-23T13:39:22Z</time>
      </trkpt>
      <trkpt lat="36.69133" lon="-4.448905">
        <ele>23</ele>
        <time>2018-04-23T13:39:23Z</time>
      </trkpt>
      <trkpt lat="36.69132667" lon="-4.4489">
        <ele>23</ele>
        <time>2018-04-23T13:39:24Z</time>
      </trkpt>
      <trkpt lat="36.69131667" lon="-4.44888833">
        <ele>23</ele>
        <time>2018-04-23T13:39:25Z</time>
      </trkpt>
      <trkpt lat="36.69131333" lon="-4.44887167">
        <ele>23</ele>
        <time>2018-04-23T13:39:26Z</time>
      </trkpt>
      <trkpt lat="36.69131533" lon="-4.44885667">
        <ele>23</ele>
        <time>2018-04-23T13:39:27Z</time>
      </trkpt>
      <trkpt lat="36.691316" lon="-4.44883833">
        <ele>23</ele>
        <time>2018-04-23T13:39:28Z</time>
      </trkpt>
      <trkpt lat="36.69131867" lon="-4.44882167">
        <ele>23</ele>
        <time>2018-04-23T13:39:29Z</time>
      </trkpt>
      <trkpt lat="36.69132167" lon="-4.44880333">
        <ele>23</ele>
        <time>2018-04-23T13:39:30Z</time>
      </trkpt>
      <trkpt lat="36.691325" lon="-4.44878667">
        <ele>23</ele>
        <time>2018-04-23T13:39:31Z</time>
      </trkpt>
      <trkpt lat="36.69133" lon="-4.44876833">
        <ele>23</ele>
        <time>2018-04-23T13:39:32Z</time>
      </trkpt>
      <trkpt lat="36.69133333" lon="-4.44875">
        <ele>23</ele>
        <time>2018-04-23T13:39:33Z</time>
      </trkpt>
      <trkpt lat="36.691335" lon="-4.44873667">
        <ele>23</ele>
        <time>2018-04-23T13:39:34Z</time>
      </trkpt>
      <trkpt lat="36.69134067" lon="-4.448725">
        <ele>23</ele>
        <time>2018-04-23T13:39:35Z</time>
      </trkpt>
      <trkpt lat="36.69134633" lon="-4.44870833">
        <ele>23</ele>
        <time>2018-04-23T13:39:36Z</time>
      </trkpt>
      <trkpt lat="36.69134667" lon="-4.44869">
        <ele>23</ele>
        <time>2018-04-23T13:39:37Z</time>
      </trkpt>
      <trkpt lat="36.691346" lon="-4.44867">
        <ele>23</ele>
        <time>2018-04-23T13:39:38Z</time>
      </trkpt>
      <trkpt lat="36.691343" lon="-4.448655">
        <ele>23</ele>
        <time>2018-04-23T13:39:39Z</time>
      </trkpt>
      <trkpt lat="36.69134167" lon="-4.44864">
        <ele>23</ele>
        <time>2018-04-23T13:39:40Z</time>
      </trkpt>
      <trkpt lat="36.69134133" lon="-4.448625">
        <ele>23</ele>
        <time>2018-04-23T13:39:41Z</time>
      </trkpt>
      <trkpt lat="36.69134033" lon="-4.44861333">
        <ele>23</ele>
        <time>2018-04-23T13:39:41Z</time>
      </trkpt>
      <trkpt lat="36.69134067" lon="-4.44860833">
        <ele>23</ele>
        <time>2018-04-23T13:39:42Z</time>
      </trkpt>
      <trkpt lat="36.691342" lon="-4.44860333">
        <ele>23</ele>
        <time>2018-04-23T13:39:43Z</time>
      </trkpt>
      <trkpt lat="36.69134333" lon="-4.448595">
        <ele>23</ele>
        <time>2018-04-23T13:39:44Z</time>
      </trkpt>
      <trkpt lat="36.69134667" lon="-4.44859">
        <ele>23</ele>
        <time>2018-04-23T13:39:45Z</time>
      </trkpt>
      <trkpt lat="36.69134667" lon="-4.44858333">
        <ele>23</ele>
        <time>2018-04-23T13:39:46Z</time>
      </trkpt>
      <trkpt lat="36.69135167" lon="-4.448575">
        <ele>23</ele>
        <time>2018-04-23T13:39:47Z</time>
      </trkpt>
      <trkpt lat="36.691355" lon="-4.44856">
        <ele>23</ele>
        <time>2018-04-23T13:39:48Z</time>
      </trkpt>
      <trkpt lat="36.69135667" lon="-4.44855167">
        <ele>23</ele>
        <time>2018-04-23T13:39:49Z</time>
      </trkpt>
      <trkpt lat="36.691355" lon="-4.44854">
        <ele>23</ele>
        <time>2018-04-23T13:39:50Z</time>
      </trkpt>
      <trkpt lat="36.69135167" lon="-4.44853167">
        <ele>23</ele>
        <time>2018-04-23T13:39:51Z</time>
      </trkpt>
      <trkpt lat="36.691375" lon="-4.44852833">
        <ele>23</ele>
        <time>2018-04-23T13:39:52Z</time>
      </trkpt>
      <trkpt lat="36.69138167" lon="-4.44852167">
        <ele>23</ele>
        <time>2018-04-23T13:39:53Z</time>
      </trkpt>
      <trkpt lat="36.69139" lon="-4.44851833">
        <ele>23</ele>
        <time>2018-04-23T13:39:54Z</time>
      </trkpt>
      <trkpt lat="36.69138333" lon="-4.448505">
        <ele>23</ele>
        <time>2018-04-23T13:39:55Z</time>
      </trkpt>
      <trkpt lat="36.69137333" lon="-4.44849333">
        <ele>23</ele>
        <time>2018-04-23T13:39:56Z</time>
      </trkpt>
      <trkpt lat="36.691364" lon="-4.44848333">
        <ele>23</ele>
        <time>2018-04-23T13:39:57Z</time>
      </trkpt>
      <trkpt lat="36.69135833" lon="-4.44847">
        <ele>23</ele>
        <time>2018-04-23T13:39:58Z</time>
      </trkpt>
      <trkpt lat="36.69135167" lon="-4.44845833">
        <ele>23</ele>
        <time>2018-04-23T13:39:59Z</time>
      </trkpt>
      <trkpt lat="36.69135633" lon="-4.44845333">
        <ele>23</ele>
        <time>2018-04-23T13:40:00Z</time>
      </trkpt>
      <trkpt lat="36.69135233" lon="-4.448435">
        <ele>23</ele>
        <time>2018-04-23T13:40:01Z</time>
      </trkpt>
      <trkpt lat="36.69134867" lon="-4.44843">
        <ele>23</ele>
        <time>2018-04-23T13:40:02Z</time>
      </trkpt>
      <trkpt lat="36.691349" lon="-4.44842833">
        <ele>23</ele>
        <time>2018-04-23T13:40:03Z</time>
      </trkpt>
      <trkpt lat="36.69134933" lon="-4.44842">
        <ele>23</ele>
        <time>2018-04-23T13:40:04Z</time>
      </trkpt>
      <trkpt lat="36.69134767" lon="-4.44841">
        <ele>23</ele>
        <time>2018-04-23T13:40:05Z</time>
      </trkpt>
      <trkpt lat="36.69134467" lon="-4.44841">
        <ele>23</ele>
        <time>2018-04-23T13:40:06Z</time>
      </trkpt>
      <trkpt lat="36.69134067" lon="-4.4484">
        <ele>23</ele>
        <time>2018-04-23T13:40:07Z</time>
      </trkpt>
      <trkpt lat="36.691343" lon="-4.448385">
        <ele>23</ele>
        <time>2018-04-23T13:40:08Z</time>
      </trkpt>
      <trkpt lat="36.691346" lon="-4.44837833">
        <ele>23</ele>
        <time>2018-04-23T13:40:09Z</time>
      </trkpt>
      <trkpt lat="36.69134733" lon="-4.44836333">
        <ele>23</ele>
        <time>2018-04-23T13:40:10Z</time>
      </trkpt>
      <trkpt lat="36.69135233" lon="-4.44835">
        <ele>23</ele>
        <time>2018-04-23T13:40:11Z</time>
      </trkpt>
      <trkpt lat="36.69137167" lon="-4.44833167">
        <ele>23</ele>
        <time>2018-04-23T13:40:12Z</time>
      </trkpt>
      <trkpt lat="36.691365" lon="-4.44832667">
        <ele>23</ele>
        <time>2018-04-23T13:40:13Z</time>
      </trkpt>
      <trkpt lat="36.691352" lon="-4.448315">
        <ele>23</ele>
        <time>2018-04-23T13:40:14Z</time>
      </trkpt>
      <trkpt lat="36.69133333" lon="-4.448295">
        <ele>23</ele>
        <time>2018-04-23T13:40:15Z</time>
      </trkpt>
      <trkpt lat="36.691323" lon="-4.44827333">
        <ele>23</ele>
        <time>2018-04-23T13:40:16Z</time>
      </trkpt>
      <trkpt lat="36.69132333" lon="-4.44825">
        <ele>23</ele>
        <time>2018-04-23T13:40:17Z</time>
      </trkpt>
      <trkpt lat="36.69133" lon="-4.448225">
        <ele>23</ele>
        <time>2018-04-23T13:40:18Z</time>
      </trkpt>
      <trkpt lat="36.69134667" lon="-4.448195">
        <ele>23</ele>
        <time>2018-04-23T13:40:19Z</time>
      </trkpt>
      <trkpt lat="36.691361" lon="-4.44817167">
        <ele>23</ele>
        <time>2018-04-23T13:40:20Z</time>
      </trkpt>
      <trkpt lat="36.69137167" lon="-4.44814833">
        <ele>23</ele>
        <time>2018-04-23T13:40:21Z</time>
      </trkpt>
      <trkpt lat="36.691373" lon="-4.44812667">
        <ele>23</ele>
        <time>2018-04-23T13:40:22Z</time>
      </trkpt>
      <trkpt lat="36.69137967" lon="-4.44811333">
        <ele>23</ele>
        <time>2018-04-23T13:40:23Z</time>
      </trkpt>
      <trkpt lat="36.691389" lon="-4.448095">
        <ele>23</ele>
        <time>2018-04-23T13:40:24Z</time>
      </trkpt>
      <trkpt lat="36.69141167" lon="-4.44807333">
        <ele>23</ele>
        <time>2018-04-23T13:40:25Z</time>
      </trkpt>
      <trkpt lat="36.69141967" lon="-4.44805333">
        <ele>23</ele>
        <time>2018-04-23T13:40:26Z</time>
      </trkpt>
      <trkpt lat="36.69142967" lon="-4.44803167">
        <ele>23</ele>
        <time>2018-04-23T13:40:27Z</time>
      </trkpt>
      <trkpt lat="36.69144133" lon="-4.44801833">
        <ele>23</ele>
        <time>2018-04-23T13:40:28Z</time>
      </trkpt>
      <trkpt lat="36.69144967" lon="-4.44799667">
        <ele>23</ele>
        <time>2018-04-23T13:40:29Z</time>
      </trkpt>
      <trkpt lat="36.69145" lon="-4.44798167">
        <ele>23</ele>
        <time>2018-04-23T13:40:30Z</time>
      </trkpt>
      <trkpt lat="36.691456" lon="-4.44796667">
        <ele>23</ele>
        <time>2018-04-23T13:40:31Z</time>
      </trkpt>
      <trkpt lat="36.691465" lon="-4.44795167">
        <ele>23</ele>
        <time>2018-04-23T13:40:32Z</time>
      </trkpt>
      <trkpt lat="36.691475" lon="-4.44793833">
        <ele>23</ele>
        <time>2018-04-23T13:40:33Z</time>
      </trkpt>
      <trkpt lat="36.69148467" lon="-4.44793167">
        <ele>23</ele>
        <time>2018-04-23T13:40:34Z</time>
      </trkpt>
      <trkpt lat="36.691496" lon="-4.44792333">
        <ele>23</ele>
        <time>2018-04-23T13:40:35Z</time>
      </trkpt>
      <trkpt lat="36.69150633" lon="-4.44791833">
        <ele>23</ele>
        <time>2018-04-23T13:40:36Z</time>
      </trkpt>
      <trkpt lat="36.69151767" lon="-4.44791167">
        <ele>23</ele>
        <time>2018-04-23T13:40:37Z</time>
      </trkpt>
      <trkpt lat="36.691565" lon="-4.44790167">
        <ele>23</ele>
        <time>2018-04-23T13:40:38Z</time>
      </trkpt>
      <trkpt lat="36.69157667" lon="-4.44789833">
        <ele>23</ele>
        <time>2018-04-23T13:40:39Z</time>
      </trkpt>
      <trkpt lat="36.691595" lon="-4.44789333">
        <ele>23</ele>
        <time>2018-04-23T13:40:40Z</time>
      </trkpt>
      <trkpt lat="36.69160667" lon="-4.44788633">
        <ele>23</ele>
        <time>2018-04-23T13:40:41Z</time>
      </trkpt>
      <trkpt lat="36.69162167" lon="-4.44787633">
        <ele>23</ele>
        <time>2018-04-23T13:40:42Z</time>
      </trkpt>
      <trkpt lat="36.69163833" lon="-4.447861">
        <ele>23</ele>
        <time>2018-04-23T13:40:43Z</time>
      </trkpt>
      <trkpt lat="36.69165" lon="-4.44784967">
        <ele>23</ele>
        <time>2018-04-23T13:40:44Z</time>
      </trkpt>
      <trkpt lat="36.69166" lon="-4.44784233">
        <ele>23</ele>
        <time>2018-04-23T13:40:45Z</time>
      </trkpt>
      <trkpt lat="36.69167333" lon="-4.447834">
        <ele>23</ele>
        <time>2018-04-23T13:40:46Z</time>
      </trkpt>
      <trkpt lat="36.69169" lon="-4.447827">
        <ele>23</ele>
        <time>2018-04-23T13:40:47Z</time>
      </trkpt>
      <trkpt lat="36.691705" lon="-4.447822">
        <ele>23</ele>
        <time>2018-04-23T13:40:48Z</time>
      </trkpt>
      <trkpt lat="36.69172333" lon="-4.44781633">
        <ele>23</ele>
        <time>2018-04-23T13:40:49Z</time>
      </trkpt>
      <trkpt lat="36.691735" lon="-4.44781433">
        <ele>23</ele>
        <time>2018-04-23T13:40:50Z</time>
      </trkpt>
      <trkpt lat="36.69174833" lon="-4.44781267">
        <ele>23</ele>
        <time>2018-04-23T13:40:51Z</time>
      </trkpt>
      <trkpt lat="36.69176167" lon="-4.447811">
        <ele>23</ele>
        <time>2018-04-23T13:40:52Z</time>
      </trkpt>
      <trkpt lat="36.69177333" lon="-4.44780967">
        <ele>23</ele>
        <time>2018-04-23T13:40:53Z</time>
      </trkpt>
      <trkpt lat="36.69178167" lon="-4.44780867">
        <ele>23</ele>
        <time>2018-04-23T13:40:54Z</time>
      </trkpt>
      <trkpt lat="36.691795" lon="-4.44780633">
        <ele>23</ele>
        <time>2018-04-23T13:40:55Z</time>
      </trkpt>
      <trkpt lat="36.69180833" lon="-4.44780333">
        <ele>23</ele>
        <time>2018-04-23T13:40:56Z</time>
      </trkpt>
      <trkpt lat="36.69181667" lon="-4.44780267">
        <ele>23</ele>
        <time>2018-04-23T13:40:57Z</time>
      </trkpt>
      <trkpt lat="36.69182833" lon="-4.4478">
        <ele>23</ele>
        <time>2018-04-23T13:40:58Z</time>
      </trkpt>
      <trkpt lat="36.69184" lon="-4.44779767">
        <ele>23</ele>
        <time>2018-04-23T13:40:59Z</time>
      </trkpt>
      <trkpt lat="36.69185667" lon="-4.44779367">
        <ele>23</ele>
        <time>2018-04-23T13:41:00Z</time>
      </trkpt>
      <trkpt lat="36.69187" lon="-4.447791">
        <ele>23</ele>
        <time>2018-04-23T13:41:01Z</time>
      </trkpt>
      <trkpt lat="36.691885" lon="-4.44778767">
        <ele>23</ele>
        <time>2018-04-23T13:41:02Z</time>
      </trkpt>
      <trkpt lat="36.6919" lon="-4.44778533">
        <ele>23</ele>
        <time>2018-04-23T13:41:03Z</time>
      </trkpt>
      <trkpt lat="36.69190667" lon="-4.44778467">
        <ele>23</ele>
        <time>2018-04-23T13:41:04Z</time>
      </trkpt>
      <trkpt lat="36.69192333" lon="-4.447782">
        <ele>23</ele>
        <time>2018-04-23T13:41:05Z</time>
      </trkpt>
      <trkpt lat="36.69194167" lon="-4.44778">
        <ele>23</ele>
        <time>2018-04-23T13:41:06Z</time>
      </trkpt>
      <trkpt lat="36.69195167" lon="-4.44778">
        <ele>23</ele>
        <time>2018-04-23T13:41:07Z</time>
      </trkpt>
      <trkpt lat="36.69196333" lon="-4.44778">
        <ele>23</ele>
        <time>2018-04-23T13:41:08Z</time>
      </trkpt>
      <trkpt lat="36.691975" lon="-4.44777867">
        <ele>23</ele>
        <time>2018-04-23T13:41:09Z</time>
      </trkpt>
      <trkpt lat="36.69198833" lon="-4.44777733">
        <ele>23</ele>
        <time>2018-04-23T13:41:10Z</time>
      </trkpt>
      <trkpt lat="36.692005" lon="-4.44777433">
        <ele>23</ele>
        <time>2018-04-23T13:41:11Z</time>
      </trkpt>
      <trkpt lat="36.69202333" lon="-4.44777167">
        <ele>23</ele>
        <time>2018-04-23T13:41:12Z</time>
      </trkpt>
      <trkpt lat="36.692035" lon="-4.44777">
        <ele>20</ele>
        <time>2018-04-23T13:41:13Z</time>
      </trkpt>
      <trkpt lat="36.69204833" lon="-4.44776733">
        <ele>20</ele>
        <time>2018-04-23T13:41:14Z</time>
      </trkpt>
      <trkpt lat="36.69206" lon="-4.44776567">
        <ele>22</ele>
        <time>2018-04-23T13:41:15Z</time>
      </trkpt>
      <trkpt lat="36.692075" lon="-4.44776233">
        <ele>22</ele>
        <time>2018-04-23T13:41:16Z</time>
      </trkpt>
      <trkpt lat="36.69209167" lon="-4.447759">
        <ele>22</ele>
        <time>2018-04-23T13:41:17Z</time>
      </trkpt>
      <trkpt lat="36.69210667" lon="-4.44775533">
        <ele>22</ele>
        <time>2018-04-23T13:41:18Z</time>
      </trkpt>
      <trkpt lat="36.69212167" lon="-4.44775233">
        <ele>22</ele>
        <time>2018-04-23T13:41:19Z</time>
      </trkpt>
      <trkpt lat="36.69213667" lon="-4.44774867">
        <ele>22</ele>
        <time>2018-04-23T13:41:20Z</time>
      </trkpt>
      <trkpt lat="36.69215" lon="-4.447746">
        <ele>22</ele>
        <time>2018-04-23T13:41:21Z</time>
      </trkpt>
      <trkpt lat="36.69216833" lon="-4.447742">
        <ele>22</ele>
        <time>2018-04-23T13:41:22Z</time>
      </trkpt>
      <trkpt lat="36.69218167" lon="-4.44773733">
        <ele>22</ele>
        <time>2018-04-23T13:41:23Z</time>
      </trkpt>
      <trkpt lat="36.692195" lon="-4.447733">
        <ele>22</ele>
        <time>2018-04-23T13:41:24Z</time>
      </trkpt>
      <trkpt lat="36.69220667" lon="-4.44773">
        <ele>22</ele>
        <time>2018-04-23T13:41:25Z</time>
      </trkpt>
      <trkpt lat="36.69222" lon="-4.44772533">
        <ele>22</ele>
        <time>2018-04-23T13:41:26Z</time>
      </trkpt>
      <trkpt lat="36.69223333" lon="-4.44772067">
        <ele>22</ele>
        <time>2018-04-23T13:41:27Z</time>
      </trkpt>
      <trkpt lat="36.692245" lon="-4.44771667">
        <ele>22</ele>
        <time>2018-04-23T13:41:28Z</time>
      </trkpt>
      <trkpt lat="36.69225833" lon="-4.44771267">
        <ele>22</ele>
        <time>2018-04-23T13:41:29Z</time>
      </trkpt>
      <trkpt lat="36.69226833" lon="-4.44770933">
        <ele>22</ele>
        <time>2018-04-23T13:41:30Z</time>
      </trkpt>
      <trkpt lat="36.69228167" lon="-4.44770533">
        <ele>22</ele>
        <time>2018-04-23T13:41:31Z</time>
      </trkpt>
      <trkpt lat="36.69229333" lon="-4.4477">
        <ele>22</ele>
        <time>2018-04-23T13:41:32Z</time>
      </trkpt>
      <trkpt lat="36.69230333" lon="-4.44769467">
        <ele>22</ele>
        <time>2018-04-23T13:41:33Z</time>
      </trkpt>
      <trkpt lat="36.69231667" lon="-4.44768833">
        <ele>22</ele>
        <time>2018-04-23T13:41:34Z</time>
      </trkpt>
      <trkpt lat="36.69232167" lon="-4.447684">
        <ele>22</ele>
        <time>2018-04-23T13:41:35Z</time>
      </trkpt>
      <trkpt lat="36.692335" lon="-4.447678">
        <ele>22</ele>
        <time>2018-04-23T13:41:36Z</time>
      </trkpt>
      <trkpt lat="36.69235167" lon="-4.44766933">
        <ele>22</ele>
        <time>2018-04-23T13:41:37Z</time>
      </trkpt>
      <trkpt lat="36.692365" lon="-4.44766267">
        <ele>22</ele>
        <time>2018-04-23T13:41:38Z</time>
      </trkpt>
      <trkpt lat="36.69238" lon="-4.44765433">
        <ele>22</ele>
        <time>2018-04-23T13:41:39Z</time>
      </trkpt>
      <trkpt lat="36.69239333" lon="-4.44764733">
        <ele>22</ele>
        <time>2018-04-23T13:41:40Z</time>
      </trkpt>
      <trkpt lat="36.69240333" lon="-4.44764167">
        <ele>22</ele>
        <time>2018-04-23T13:41:41Z</time>
      </trkpt>
      <trkpt lat="36.692415" lon="-4.44763533">
        <ele>22</ele>
        <time>2018-04-23T13:41:42Z</time>
      </trkpt>
      <trkpt lat="36.692425" lon="-4.44762967">
        <ele>22</ele>
        <time>2018-04-23T13:41:43Z</time>
      </trkpt>
      <trkpt lat="36.69243833" lon="-4.44762267">
        <ele>22</ele>
        <time>2018-04-23T13:41:44Z</time>
      </trkpt>
      <trkpt lat="36.69245" lon="-4.447615">
        <ele>22</ele>
        <time>2018-04-23T13:41:45Z</time>
      </trkpt>
      <trkpt lat="36.69246" lon="-4.447609">
        <ele>22</ele>
        <time>2018-04-23T13:41:46Z</time>
      </trkpt>
      <trkpt lat="36.69247167" lon="-4.44760133">
        <ele>22</ele>
        <time>2018-04-23T13:41:47Z</time>
      </trkpt>
      <trkpt lat="36.692485" lon="-4.44759433">
        <ele>22</ele>
        <time>2018-04-23T13:41:48Z</time>
      </trkpt>
      <trkpt lat="36.69250333" lon="-4.44758567">
        <ele>22</ele>
        <time>2018-04-23T13:41:49Z</time>
      </trkpt>
      <trkpt lat="36.69251667" lon="-4.44757967">
        <ele>22</ele>
        <time>2018-04-23T13:41:50Z</time>
      </trkpt>
      <trkpt lat="36.69253167" lon="-4.447572">
        <ele>22</ele>
        <time>2018-04-23T13:41:51Z</time>
      </trkpt>
      <trkpt lat="36.692545" lon="-4.44756767">
        <ele>22</ele>
        <time>2018-04-23T13:41:52Z</time>
      </trkpt>
      <trkpt lat="36.69255833" lon="-4.44756233">
        <ele>22</ele>
        <time>2018-04-23T13:41:53Z</time>
      </trkpt>
      <trkpt lat="36.692575" lon="-4.44755533">
        <ele>22</ele>
        <time>2018-04-23T13:41:54Z</time>
      </trkpt>
      <trkpt lat="36.69259" lon="-4.44755">
        <ele>22</ele>
        <time>2018-04-23T13:41:55Z</time>
      </trkpt>
      <trkpt lat="36.69260333" lon="-4.44754667">
        <ele>22</ele>
        <time>2018-04-23T13:41:56Z</time>
      </trkpt>
      <trkpt lat="36.692615" lon="-4.44754433">
        <ele>22</ele>
        <time>2018-04-23T13:41:57Z</time>
      </trkpt>
      <trkpt lat="36.69262833" lon="-4.447541">
        <ele>22</ele>
        <time>2018-04-23T13:41:58Z</time>
      </trkpt>
      <trkpt lat="36.69264167" lon="-4.44753767">
        <ele>22</ele>
        <time>2018-04-23T13:41:59Z</time>
      </trkpt>
      <trkpt lat="36.69265333" lon="-4.447535">
        <ele>22</ele>
        <time>2018-04-23T13:42:00Z</time>
      </trkpt>
      <trkpt lat="36.69266667" lon="-4.447531">
        <ele>22</ele>
        <time>2018-04-23T13:42:01Z</time>
      </trkpt>
      <trkpt lat="36.69267833" lon="-4.447527">
        <ele>22</ele>
        <time>2018-04-23T13:42:02Z</time>
      </trkpt>
      <trkpt lat="36.69269167" lon="-4.44752333">
        <ele>22</ele>
        <time>2018-04-23T13:42:03Z</time>
      </trkpt>
      <trkpt lat="36.69270333" lon="-4.44751867">
        <ele>22</ele>
        <time>2018-04-23T13:42:04Z</time>
      </trkpt>
      <trkpt lat="36.69271333" lon="-4.44751467">
        <ele>22</ele>
        <time>2018-04-23T13:42:05Z</time>
      </trkpt>
      <trkpt lat="36.69272167" lon="-4.447511">
        <ele>22</ele>
        <time>2018-04-23T13:42:06Z</time>
      </trkpt>
      <trkpt lat="36.69272667" lon="-4.447485">
        <ele>22</ele>
        <time>2018-04-23T13:42:07Z</time>
      </trkpt>
      <trkpt lat="36.69273667" lon="-4.44747333">
        <ele>22</ele>
        <time>2018-04-23T13:42:08Z</time>
      </trkpt>
      <trkpt lat="36.69274333" lon="-4.44746333">
        <ele>22</ele>
        <time>2018-04-23T13:42:09Z</time>
      </trkpt>
      <trkpt lat="36.69275" lon="-4.44745167">
        <ele>22</ele>
        <time>2018-04-23T13:42:10Z</time>
      </trkpt>
      <trkpt lat="36.69275" lon="-4.44743833">
        <ele>22</ele>
        <time>2018-04-23T13:42:11Z</time>
      </trkpt>
      <trkpt lat="36.692758" lon="-4.44742667">
        <ele>22</ele>
        <time>2018-04-23T13:42:12Z</time>
      </trkpt>
      <trkpt lat="36.692768" lon="-4.44741333">
        <ele>22</ele>
        <time>2018-04-23T13:42:13Z</time>
      </trkpt>
      <trkpt lat="36.69277867" lon="-4.447405">
        <ele>22</ele>
        <time>2018-04-23T13:42:14Z</time>
      </trkpt>
      <trkpt lat="36.69279167" lon="-4.447395">
        <ele>22</ele>
        <time>2018-04-23T13:42:15Z</time>
      </trkpt>
      <trkpt lat="36.69280167" lon="-4.44738833">
        <ele>22</ele>
        <time>2018-04-23T13:42:16Z</time>
      </trkpt>
      <trkpt lat="36.69281167" lon="-4.44738167">
        <ele>22</ele>
        <time>2018-04-23T13:42:17Z</time>
      </trkpt>
      <trkpt lat="36.69281667" lon="-4.44737433">
        <ele>22</ele>
        <time>2018-04-23T13:42:18Z</time>
      </trkpt>
      <trkpt lat="36.69282333" lon="-4.447365">
        <ele>22</ele>
        <time>2018-04-23T13:42:19Z</time>
      </trkpt>
      <trkpt lat="36.69283667" lon="-4.44735133">
        <ele>22</ele>
        <time>2018-04-23T13:42:20Z</time>
      </trkpt>
      <trkpt lat="36.69284667" lon="-4.44733967">
        <ele>22</ele>
        <time>2018-04-23T13:42:21Z</time>
      </trkpt>
      <trkpt lat="36.69286" lon="-4.44732667">
        <ele>22</ele>
        <time>2018-04-23T13:42:22Z</time>
      </trkpt>
      <trkpt lat="36.69286667" lon="-4.44731967">
        <ele>22</ele>
        <time>2018-04-23T13:42:23Z</time>
      </trkpt>
      <trkpt lat="36.69287833" lon="-4.44730933">
        <ele>22</ele>
        <time>2018-04-23T13:42:24Z</time>
      </trkpt>
      <trkpt lat="36.69288667" lon="-4.44730167">
        <ele>22</ele>
        <time>2018-04-23T13:42:25Z</time>
      </trkpt>
      <trkpt lat="36.692895" lon="-4.447294">
        <ele>22</ele>
        <time>2018-04-23T13:42:26Z</time>
      </trkpt>
      <trkpt lat="36.692905" lon="-4.447286">
        <ele>22</ele>
        <time>2018-04-23T13:42:27Z</time>
      </trkpt>
      <trkpt lat="36.69291667" lon="-4.447276">
        <ele>22</ele>
        <time>2018-04-23T13:42:28Z</time>
      </trkpt>
      <trkpt lat="36.69292333" lon="-4.44726933">
        <ele>22</ele>
        <time>2018-04-23T13:42:29Z</time>
      </trkpt>
      <trkpt lat="36.69293167" lon="-4.44725967">
        <ele>22</ele>
        <time>2018-04-23T13:42:30Z</time>
      </trkpt>
      <trkpt lat="36.69294" lon="-4.44724933">
        <ele>22</ele>
        <time>2018-04-23T13:42:31Z</time>
      </trkpt>
      <trkpt lat="36.69294833" lon="-4.44723833">
        <ele>22</ele>
        <time>2018-04-23T13:42:32Z</time>
      </trkpt>
      <trkpt lat="36.692955" lon="-4.44721833">
        <ele>22</ele>
        <time>2018-04-23T13:42:33Z</time>
      </trkpt>
      <trkpt lat="36.692963" lon="-4.44720667">
        <ele>22</ele>
        <time>2018-04-23T13:42:34Z</time>
      </trkpt>
      <trkpt lat="36.69296767" lon="-4.447195">
        <ele>22</ele>
        <time>2018-04-23T13:42:35Z</time>
      </trkpt>
      <trkpt lat="36.69297367" lon="-4.44718667">
        <ele>22</ele>
        <time>2018-04-23T13:42:36Z</time>
      </trkpt>
      <trkpt lat="36.69297967" lon="-4.44717667">
        <ele>22</ele>
        <time>2018-04-23T13:42:37Z</time>
      </trkpt>
      <trkpt lat="36.692986" lon="-4.44716667">
        <ele>22</ele>
        <time>2018-04-23T13:42:38Z</time>
      </trkpt>
      <trkpt lat="36.69299233" lon="-4.44715833">
        <ele>23</ele>
        <time>2018-04-23T13:42:39Z</time>
      </trkpt>
      <trkpt lat="36.69300267" lon="-4.44714333">
        <ele>23</ele>
        <time>2018-04-23T13:42:40Z</time>
      </trkpt>
      <trkpt lat="36.693008" lon="-4.447135">
        <ele>23</ele>
        <time>2018-04-23T13:42:41Z</time>
      </trkpt>
      <trkpt lat="36.69301533" lon="-4.44712833">
        <ele>23</ele>
        <time>2018-04-23T13:42:42Z</time>
      </trkpt>
      <trkpt lat="36.693026" lon="-4.44711667">
        <ele>23</ele>
        <time>2018-04-23T13:42:43Z</time>
      </trkpt>
      <trkpt lat="36.69304167" lon="-4.44711667">
        <ele>23</ele>
        <time>2018-04-23T13:42:44Z</time>
      </trkpt>
      <trkpt lat="36.69304" lon="-4.44710833">
        <ele>23</ele>
        <time>2018-04-23T13:42:45Z</time>
      </trkpt>
      <trkpt lat="36.69305133" lon="-4.44709833">
        <ele>23</ele>
        <time>2018-04-23T13:42:46Z</time>
      </trkpt>
      <trkpt lat="36.69306167" lon="-4.44708833">
        <ele>23</ele>
        <time>2018-04-23T13:42:47Z</time>
      </trkpt>
      <trkpt lat="36.693065" lon="-4.44707667">
        <ele>23</ele>
        <time>2018-04-23T13:42:48Z</time>
      </trkpt>
      <trkpt lat="36.69306667" lon="-4.44706167">
        <ele>23</ele>
        <time>2018-04-23T13:42:49Z</time>
      </trkpt>
      <trkpt lat="36.69306333" lon="-4.44705">
        <ele>23</ele>
        <time>2018-04-23T13:42:50Z</time>
      </trkpt>
      <trkpt lat="36.69305833" lon="-4.44703833">
        <ele>23</ele>
        <time>2018-04-23T13:42:51Z</time>
      </trkpt>
      <trkpt lat="36.69305667" lon="-4.44702333">
        <ele>23</ele>
        <time>2018-04-23T13:42:52Z</time>
      </trkpt>
      <trkpt lat="36.69305667" lon="-4.44701">
        <ele>23</ele>
        <time>2018-04-23T13:42:53Z</time>
      </trkpt>
      <trkpt lat="36.69305333" lon="-4.44699833">
        <ele>23</ele>
        <time>2018-04-23T13:42:54Z</time>
      </trkpt>
      <trkpt lat="36.69305" lon="-4.44698667">
        <ele>23</ele>
        <time>2018-04-23T13:42:55Z</time>
      </trkpt>
      <trkpt lat="36.69304833" lon="-4.44697667">
        <ele>23</ele>
        <time>2018-04-23T13:42:56Z</time>
      </trkpt>
      <trkpt lat="36.693045" lon="-4.44696333">
        <ele>23</ele>
        <time>2018-04-23T13:42:57Z</time>
      </trkpt>
      <trkpt lat="36.69304167" lon="-4.44694667">
        <ele>23</ele>
        <time>2018-04-23T13:42:58Z</time>
      </trkpt>
      <trkpt lat="36.69303867" lon="-4.44693333">
        <ele>23</ele>
        <time>2018-04-23T13:42:59Z</time>
      </trkpt>
      <trkpt lat="36.69303633" lon="-4.44691833">
        <ele>23</ele>
        <time>2018-04-23T13:43:00Z</time>
      </trkpt>
      <trkpt lat="36.69303467" lon="-4.44690667">
        <ele>23</ele>
        <time>2018-04-23T13:43:01Z</time>
      </trkpt>
      <trkpt lat="36.693033" lon="-4.446895">
        <ele>23</ele>
        <time>2018-04-23T13:43:02Z</time>
      </trkpt>
      <trkpt lat="36.69303067" lon="-4.44688667">
        <ele>23</ele>
        <time>2018-04-23T13:43:03Z</time>
      </trkpt>
      <trkpt lat="36.69302833" lon="-4.44687667">
        <ele>23</ele>
        <time>2018-04-23T13:43:04Z</time>
      </trkpt>
      <trkpt lat="36.693026" lon="-4.44686833">
        <ele>23</ele>
        <time>2018-04-23T13:43:05Z</time>
      </trkpt>
      <trkpt lat="36.69302267" lon="-4.44686">
        <ele>23</ele>
        <time>2018-04-23T13:43:06Z</time>
      </trkpt>
      <trkpt lat="36.69301733" lon="-4.446845">
        <ele>23</ele>
        <time>2018-04-23T13:43:07Z</time>
      </trkpt>
      <trkpt lat="36.69301267" lon="-4.44683333">
        <ele>23</ele>
        <time>2018-04-23T13:43:08Z</time>
      </trkpt>
      <trkpt lat="36.69301033" lon="-4.446825">
        <ele>23</ele>
        <time>2018-04-23T13:43:09Z</time>
      </trkpt>
      <trkpt lat="36.69300633" lon="-4.44681">
        <ele>23</ele>
        <time>2018-04-23T13:43:10Z</time>
      </trkpt>
      <trkpt lat="36.693002" lon="-4.44679833">
        <ele>23</ele>
        <time>2018-04-23T13:43:11Z</time>
      </trkpt>
      <trkpt lat="36.69299767" lon="-4.44678333">
        <ele>23</ele>
        <time>2018-04-23T13:43:12Z</time>
      </trkpt>
      <trkpt lat="36.69299367" lon="-4.44676833">
        <ele>23</ele>
        <time>2018-04-23T13:43:13Z</time>
      </trkpt>
      <trkpt lat="36.69299033" lon="-4.446755">
        <ele>23</ele>
        <time>2018-04-23T13:43:14Z</time>
      </trkpt>
      <trkpt lat="36.69298633" lon="-4.44673833">
        <ele>23</ele>
        <time>2018-04-23T13:43:15Z</time>
      </trkpt>
      <trkpt lat="36.69298133" lon="-4.44672">
        <ele>23</ele>
        <time>2018-04-23T13:43:16Z</time>
      </trkpt>
      <trkpt lat="36.692978" lon="-4.44670667">
        <ele>23</ele>
        <time>2018-04-23T13:43:17Z</time>
      </trkpt>
      <trkpt lat="36.692975" lon="-4.446695">
        <ele>23</ele>
        <time>2018-04-23T13:43:18Z</time>
      </trkpt>
      <trkpt lat="36.69297067" lon="-4.44668333">
        <ele>23</ele>
        <time>2018-04-23T13:43:19Z</time>
      </trkpt>
      <trkpt lat="36.69296533" lon="-4.44666833">
        <ele>23</ele>
        <time>2018-04-23T13:43:20Z</time>
      </trkpt>
      <trkpt lat="36.69296067" lon="-4.44665667">
        <ele>23</ele>
        <time>2018-04-23T13:43:21Z</time>
      </trkpt>
      <trkpt lat="36.69295667" lon="-4.44664333">
        <ele>23</ele>
        <time>2018-04-23T13:43:22Z</time>
      </trkpt>
      <trkpt lat="36.69295267" lon="-4.44663333">
        <ele>23</ele>
        <time>2018-04-23T13:43:23Z</time>
      </trkpt>
      <trkpt lat="36.69294833" lon="-4.44662">
        <ele>23</ele>
        <time>2018-04-23T13:43:24Z</time>
      </trkpt>
      <trkpt lat="36.692944" lon="-4.44660333">
        <ele>23</ele>
        <time>2018-04-23T13:43:25Z</time>
      </trkpt>
      <trkpt lat="36.69293967" lon="-4.44658833">
        <ele>23</ele>
        <time>2018-04-23T13:43:26Z</time>
      </trkpt>
      <trkpt lat="36.69293567" lon="-4.446575">
        <ele>23</ele>
        <time>2018-04-23T13:43:27Z</time>
      </trkpt>
      <trkpt lat="36.69293033" lon="-4.44656">
        <ele>23</ele>
        <time>2018-04-23T13:43:28Z</time>
      </trkpt>
      <trkpt lat="36.69292667" lon="-4.44655167">
        <ele>23</ele>
        <time>2018-04-23T13:43:29Z</time>
      </trkpt>
      <trkpt lat="36.69292467" lon="-4.446545">
        <ele>23</ele>
        <time>2018-04-23T13:43:30Z</time>
      </trkpt>
      <trkpt lat="36.692923" lon="-4.44654">
        <ele>23</ele>
        <time>2018-04-23T13:43:31Z</time>
      </trkpt>
      <trkpt lat="36.692918" lon="-4.44652667">
        <ele>23</ele>
        <time>2018-04-23T13:43:32Z</time>
      </trkpt>
      <trkpt lat="36.692914" lon="-4.44651333">
        <ele>23</ele>
        <time>2018-04-23T13:43:33Z</time>
      </trkpt>
      <trkpt lat="36.692909" lon="-4.44649667">
        <ele>23</ele>
        <time>2018-04-23T13:43:34Z</time>
      </trkpt>
      <trkpt lat="36.69290433" lon="-4.44647833">
        <ele>23</ele>
        <time>2018-04-23T13:43:35Z</time>
      </trkpt>
      <trkpt lat="36.69290067" lon="-4.446465">
        <ele>23</ele>
        <time>2018-04-23T13:43:36Z</time>
      </trkpt>
      <trkpt lat="36.69289667" lon="-4.44645167">
        <ele>23</ele>
        <time>2018-04-23T13:43:37Z</time>
      </trkpt>
      <trkpt lat="36.69289433" lon="-4.44644">
        <ele>23</ele>
        <time>2018-04-23T13:43:38Z</time>
      </trkpt>
      <trkpt lat="36.69289133" lon="-4.446425">
        <ele>23</ele>
        <time>2018-04-23T13:43:39Z</time>
      </trkpt>
      <trkpt lat="36.69288867" lon="-4.44641167">
        <ele>23</ele>
        <time>2018-04-23T13:43:40Z</time>
      </trkpt>
      <trkpt lat="36.69288533" lon="-4.4464">
        <ele>23</ele>
        <time>2018-04-23T13:43:41Z</time>
      </trkpt>
      <trkpt lat="36.69288133" lon="-4.446385">
        <ele>23</ele>
        <time>2018-04-23T13:43:42Z</time>
      </trkpt>
      <trkpt lat="36.69287767" lon="-4.44637333">
        <ele>23</ele>
        <time>2018-04-23T13:43:43Z</time>
      </trkpt>
      <trkpt lat="36.69287567" lon="-4.44636667">
        <ele>23</ele>
        <time>2018-04-23T13:43:44Z</time>
      </trkpt>
      <trkpt lat="36.69286167" lon="-4.44635833">
        <ele>23</ele>
        <time>2018-04-23T13:43:45Z</time>
      </trkpt>
      <trkpt lat="36.69285333" lon="-4.44634333">
        <ele>23</ele>
        <time>2018-04-23T13:43:46Z</time>
      </trkpt>
      <trkpt lat="36.69284833" lon="-4.44633333">
        <ele>23</ele>
        <time>2018-04-23T13:43:47Z</time>
      </trkpt>
      <trkpt lat="36.69284333" lon="-4.44632367">
        <ele>23</ele>
        <time>2018-04-23T13:43:48Z</time>
      </trkpt>
      <trkpt lat="36.69283667" lon="-4.44631">
        <ele>23</ele>
        <time>2018-04-23T13:43:49Z</time>
      </trkpt>
      <trkpt lat="36.69283333" lon="-4.44630033">
        <ele>23</ele>
        <time>2018-04-23T13:43:50Z</time>
      </trkpt>
      <trkpt lat="36.69282667" lon="-4.446283">
        <ele>23</ele>
        <time>2018-04-23T13:43:51Z</time>
      </trkpt>
      <trkpt lat="36.69282167" lon="-4.44626867">
        <ele>23</ele>
        <time>2018-04-23T13:43:52Z</time>
      </trkpt>
      <trkpt lat="36.69281167" lon="-4.446248">
        <ele>23</ele>
        <time>2018-04-23T13:43:53Z</time>
      </trkpt>
      <trkpt lat="36.69280167" lon="-4.44623633">
        <ele>23</ele>
        <time>2018-04-23T13:43:54Z</time>
      </trkpt>
      <trkpt lat="36.69279833" lon="-4.44623467">
        <ele>23</ele>
        <time>2018-04-23T13:43:55Z</time>
      </trkpt>
      <trkpt lat="36.69279333" lon="-4.44623667">
        <ele>23</ele>
        <time>2018-04-23T13:43:56Z</time>
      </trkpt>
      <trkpt lat="36.69279" lon="-4.44623">
        <ele>23</ele>
        <time>2018-04-23T13:43:56Z</time>
      </trkpt>
      <trkpt lat="36.692785" lon="-4.446225">
        <ele>23</ele>
        <time>2018-04-23T13:43:57Z</time>
      </trkpt>
      <trkpt lat="36.69278167" lon="-4.44621933">
        <ele>23</ele>
        <time>2018-04-23T13:43:58Z</time>
      </trkpt>
      <trkpt lat="36.69278" lon="-4.44621333">
        <ele>23</ele>
        <time>2018-04-23T13:43:59Z</time>
      </trkpt>
      <trkpt lat="36.69277667" lon="-4.446204">
        <ele>23</ele>
        <time>2018-04-23T13:44:00Z</time>
      </trkpt>
      <trkpt lat="36.69276667" lon="-4.44618533">
        <ele>23</ele>
        <time>2018-04-23T13:44:01Z</time>
      </trkpt>
      <trkpt lat="36.69275833" lon="-4.44617">
        <ele>23</ele>
        <time>2018-04-23T13:44:02Z</time>
      </trkpt>
      <trkpt lat="36.69275" lon="-4.44615167">
        <ele>23</ele>
        <time>2018-04-23T13:44:03Z</time>
      </trkpt>
      <trkpt lat="36.69274667" lon="-4.44613667">
        <ele>23</ele>
        <time>2018-04-23T13:44:04Z</time>
      </trkpt>
      <trkpt lat="36.69274333" lon="-4.44612333">
        <ele>23</ele>
        <time>2018-04-23T13:44:05Z</time>
      </trkpt>
      <trkpt lat="36.69274167" lon="-4.44611167">
        <ele>23</ele>
        <time>2018-04-23T13:44:06Z</time>
      </trkpt>
      <trkpt lat="36.69274333" lon="-4.44610333">
        <ele>23</ele>
        <time>2018-04-23T13:44:07Z</time>
      </trkpt>
      <trkpt lat="36.69274333" lon="-4.44609">
        <ele>23</ele>
        <time>2018-04-23T13:44:08Z</time>
      </trkpt>
      <trkpt lat="36.69274167" lon="-4.44607667">
        <ele>23</ele>
        <time>2018-04-23T13:44:09Z</time>
      </trkpt>
      <trkpt lat="36.69273733" lon="-4.44606667">
        <ele>23</ele>
        <time>2018-04-23T13:44:10Z</time>
      </trkpt>
      <trkpt lat="36.692737" lon="-4.44605333">
        <ele>23</ele>
        <time>2018-04-23T13:44:11Z</time>
      </trkpt>
      <trkpt lat="36.692736" lon="-4.44604167">
        <ele>23</ele>
        <time>2018-04-23T13:44:12Z</time>
      </trkpt>
      <trkpt lat="36.69273267" lon="-4.446025">
        <ele>23</ele>
        <time>2018-04-23T13:44:13Z</time>
      </trkpt>
      <trkpt lat="36.69272733" lon="-4.44600833">
        <ele>25</ele>
        <time>2018-04-23T13:44:14Z</time>
      </trkpt>
      <trkpt lat="36.692723" lon="-4.44599833">
        <ele>25</ele>
        <time>2018-04-23T13:44:15Z</time>
      </trkpt>
      <trkpt lat="36.69271933" lon="-4.44598833">
        <ele>25</ele>
        <time>2018-04-23T13:44:16Z</time>
      </trkpt>
      <trkpt lat="36.692713" lon="-4.44597333">
        <ele>25</ele>
        <time>2018-04-23T13:44:17Z</time>
      </trkpt>
      <trkpt lat="36.692708" lon="-4.44596">
        <ele>25</ele>
        <time>2018-04-23T13:44:18Z</time>
      </trkpt>
      <trkpt lat="36.692703" lon="-4.445945">
        <ele>25</ele>
        <time>2018-04-23T13:44:19Z</time>
      </trkpt>
      <trkpt lat="36.69269967" lon="-4.445925">
        <ele>25</ele>
        <time>2018-04-23T13:44:20Z</time>
      </trkpt>
      <trkpt lat="36.69269933" lon="-4.44590167">
        <ele>25</ele>
        <time>2018-04-23T13:44:21Z</time>
      </trkpt>
      <trkpt lat="36.69272" lon="-4.44587833">
        <ele>25</ele>
        <time>2018-04-23T13:44:22Z</time>
      </trkpt>
      <trkpt lat="36.69272333" lon="-4.44585833">
        <ele>25</ele>
        <time>2018-04-23T13:44:23Z</time>
      </trkpt>
      <trkpt lat="36.692725" lon="-4.44584167">
        <ele>25</ele>
        <time>2018-04-23T13:44:24Z</time>
      </trkpt>
      <trkpt lat="36.69272833" lon="-4.44583167">
        <ele>25</ele>
        <time>2018-04-23T13:44:25Z</time>
      </trkpt>
      <trkpt lat="36.69273333" lon="-4.445825">
        <ele>25</ele>
        <time>2018-04-23T13:44:26Z</time>
      </trkpt>
      <trkpt lat="36.69274167" lon="-4.445825">
        <ele>23</ele>
        <time>2018-04-23T13:44:27Z</time>
      </trkpt>
      <trkpt lat="36.69274333" lon="-4.44582667">
        <ele>23</ele>
        <time>2018-04-23T13:44:28Z</time>
      </trkpt>
      <trkpt lat="36.69274833" lon="-4.44583367">
        <ele>23</ele>
        <time>2018-04-23T13:44:29Z</time>
      </trkpt>
      <trkpt lat="36.69275167" lon="-4.44583667">
        <ele>23</ele>
        <time>2018-04-23T13:44:30Z</time>
      </trkpt>
      <trkpt lat="36.69275833" lon="-4.445845">
        <ele>23</ele>
        <time>2018-04-23T13:44:31Z</time>
      </trkpt>
      <trkpt lat="36.69276333" lon="-4.44585167">
        <ele>23</ele>
        <time>2018-04-23T13:44:32Z</time>
      </trkpt>
      <trkpt lat="36.69277133" lon="-4.44586">
        <ele>23</ele>
        <time>2018-04-23T13:44:33Z</time>
      </trkpt>
      <trkpt lat="36.69277867" lon="-4.44586333">
        <ele>23</ele>
        <time>2018-04-23T13:44:34Z</time>
      </trkpt>
      <trkpt lat="36.69279133" lon="-4.44587333">
        <ele>23</ele>
        <time>2018-04-23T13:44:35Z</time>
      </trkpt>
      <trkpt lat="36.69279967" lon="-4.44588167">
        <ele>23</ele>
        <time>2018-04-23T13:44:36Z</time>
      </trkpt>
      <trkpt lat="36.69280833" lon="-4.44588833">
        <ele>23</ele>
        <time>2018-04-23T13:44:37Z</time>
      </trkpt>
      <trkpt lat="36.69282" lon="-4.44589333">
        <ele>23</ele>
        <time>2018-04-23T13:44:38Z</time>
      </trkpt>
      <trkpt lat="36.69283167" lon="-4.44589667">
        <ele>23</ele>
        <time>2018-04-23T13:44:39Z</time>
      </trkpt>
      <trkpt lat="36.69284333" lon="-4.4459">
        <ele>22</ele>
        <time>2018-04-23T13:44:40Z</time>
      </trkpt>
      <trkpt lat="36.69285833" lon="-4.445905">
        <ele>22</ele>
        <time>2018-04-23T13:44:41Z</time>
      </trkpt>
      <trkpt lat="36.69287167" lon="-4.44591033">
        <ele>22</ele>
        <time>2018-04-23T13:44:42Z</time>
      </trkpt>
      <trkpt lat="36.692885" lon="-4.44591433">
        <ele>22</ele>
        <time>2018-04-23T13:44:43Z</time>
      </trkpt>
      <trkpt lat="36.6929" lon="-4.44591433">
        <ele>22</ele>
        <time>2018-04-23T13:44:44Z</time>
      </trkpt>
      <trkpt lat="36.69291167" lon="-4.4459">
        <ele>22</ele>
        <time>2018-04-23T13:44:45Z</time>
      </trkpt>
      <trkpt lat="36.69292333" lon="-4.44589">
        <ele>22</ele>
        <time>2018-04-23T13:44:46Z</time>
      </trkpt>
      <trkpt lat="36.69293333" lon="-4.44588">
        <ele>22</ele>
        <time>2018-04-23T13:44:47Z</time>
      </trkpt>
      <trkpt lat="36.69294333" lon="-4.44587">
        <ele>22</ele>
        <time>2018-04-23T13:44:48Z</time>
      </trkpt>
      <trkpt lat="36.69295333" lon="-4.44586">
        <ele>22</ele>
        <time>2018-04-23T13:44:49Z</time>
      </trkpt>
      <trkpt lat="36.69296333" lon="-4.44585167">
        <ele>22</ele>
        <time>2018-04-23T13:44:50Z</time>
      </trkpt>
      <trkpt lat="36.692975" lon="-4.44584333">
        <ele>22</ele>
        <time>2018-04-23T13:44:51Z</time>
      </trkpt>
      <trkpt lat="36.692985" lon="-4.44583667">
        <ele>22</ele>
        <time>2018-04-23T13:44:52Z</time>
      </trkpt>
      <trkpt lat="36.69299333" lon="-4.44582867">
        <ele>22</ele>
        <time>2018-04-23T13:44:53Z</time>
      </trkpt>
      <trkpt lat="36.693005" lon="-4.44581967">
        <ele>22</ele>
        <time>2018-04-23T13:44:54Z</time>
      </trkpt>
      <trkpt lat="36.69301667" lon="-4.44580933">
        <ele>22</ele>
        <time>2018-04-23T13:44:55Z</time>
      </trkpt>
      <trkpt lat="36.69303" lon="-4.445798">
        <ele>22</ele>
        <time>2018-04-23T13:44:56Z</time>
      </trkpt>
      <trkpt lat="36.69304167" lon="-4.44578833">
        <ele>22</ele>
        <time>2018-04-23T13:44:57Z</time>
      </trkpt>
      <trkpt lat="36.693055" lon="-4.44577833">
        <ele>22</ele>
        <time>2018-04-23T13:44:58Z</time>
      </trkpt>
      <trkpt lat="36.693065" lon="-4.44577">
        <ele>22</ele>
        <time>2018-04-23T13:44:59Z</time>
      </trkpt>
      <trkpt lat="36.69307333" lon="-4.44576133">
        <ele>22</ele>
        <time>2018-04-23T13:45:00Z</time>
      </trkpt>
      <trkpt lat="36.69307333" lon="-4.445757">
        <ele>22</ele>
        <time>2018-04-23T13:45:01Z</time>
      </trkpt>
      <trkpt lat="36.69307" lon="-4.44573833">
        <ele>22</ele>
        <time>2018-04-23T13:45:02Z</time>
      </trkpt>
      <trkpt lat="36.69306333" lon="-4.44573">
        <ele>22</ele>
        <time>2018-04-23T13:45:03Z</time>
      </trkpt>
      <trkpt lat="36.693055" lon="-4.44572167">
        <ele>22</ele>
        <time>2018-04-23T13:45:04Z</time>
      </trkpt>
      <trkpt lat="36.69304667" lon="-4.44571">
        <ele>22</ele>
        <time>2018-04-23T13:45:05Z</time>
      </trkpt>
      <trkpt lat="36.69303833" lon="-4.44570167">
        <ele>22</ele>
        <time>2018-04-23T13:45:06Z</time>
      </trkpt>
      <trkpt lat="36.69302667" lon="-4.44569167">
        <ele>22</ele>
        <time>2018-04-23T13:45:07Z</time>
      </trkpt>
      <trkpt lat="36.693015" lon="-4.445685">
        <ele>22</ele>
        <time>2018-04-23T13:45:08Z</time>
      </trkpt>
      <trkpt lat="36.693005" lon="-4.44567333">
        <ele>22</ele>
        <time>2018-04-23T13:45:09Z</time>
      </trkpt>
      <trkpt lat="36.69299667" lon="-4.44565833">
        <ele>22</ele>
        <time>2018-04-23T13:45:10Z</time>
      </trkpt>
      <trkpt lat="36.69298933" lon="-4.44565">
        <ele>22</ele>
        <time>2018-04-23T13:45:11Z</time>
      </trkpt>
      <trkpt lat="36.69298267" lon="-4.44563667">
        <ele>22</ele>
        <time>2018-04-23T13:45:12Z</time>
      </trkpt>
      <trkpt lat="36.692977" lon="-4.44562333">
        <ele>22</ele>
        <time>2018-04-23T13:45:13Z</time>
      </trkpt>
      <trkpt lat="36.69297167" lon="-4.44561">
        <ele>22</ele>
        <time>2018-04-23T13:45:14Z</time>
      </trkpt>
      <trkpt lat="36.69296567" lon="-4.44559667">
        <ele>22</ele>
        <time>2018-04-23T13:45:15Z</time>
      </trkpt>
      <trkpt lat="36.69295967" lon="-4.44558333">
        <ele>22</ele>
        <time>2018-04-23T13:45:16Z</time>
      </trkpt>
      <trkpt lat="36.69295467" lon="-4.44557">
        <ele>22</ele>
        <time>2018-04-23T13:45:17Z</time>
      </trkpt>
      <trkpt lat="36.69295067" lon="-4.445555">
        <ele>22</ele>
        <time>2018-04-23T13:45:18Z</time>
      </trkpt>
      <trkpt lat="36.692948" lon="-4.44554">
        <ele>22</ele>
        <time>2018-04-23T13:45:19Z</time>
      </trkpt>
      <trkpt lat="36.69296333" lon="-4.44552833">
        <ele>22</ele>
        <time>2018-04-23T13:45:20Z</time>
      </trkpt>
      <trkpt lat="36.69297333" lon="-4.44552">
        <ele>22</ele>
        <time>2018-04-23T13:45:21Z</time>
      </trkpt>
      <trkpt lat="36.69298333" lon="-4.44551">
        <ele>22</ele>
        <time>2018-04-23T13:45:22Z</time>
      </trkpt>
      <trkpt lat="36.69299167" lon="-4.44550167">
        <ele>22</ele>
        <time>2018-04-23T13:45:23Z</time>
      </trkpt>
      <trkpt lat="36.693" lon="-4.445495">
        <ele>22</ele>
        <time>2018-04-23T13:45:24Z</time>
      </trkpt>
      <trkpt lat="36.69301167" lon="-4.44548833">
        <ele>23</ele>
        <time>2018-04-23T13:45:25Z</time>
      </trkpt>
      <trkpt lat="36.69302333" lon="-4.44548">
        <ele>23</ele>
        <time>2018-04-23T13:45:26Z</time>
      </trkpt>
      <trkpt lat="36.693035" lon="-4.44547167">
        <ele>23</ele>
        <time>2018-04-23T13:45:27Z</time>
      </trkpt>
      <trkpt lat="36.69304667" lon="-4.44546667">
        <ele>23</ele>
        <time>2018-04-23T13:45:28Z</time>
      </trkpt>
      <trkpt lat="36.69306" lon="-4.44546333">
        <ele>23</ele>
        <time>2018-04-23T13:45:29Z</time>
      </trkpt>
      <trkpt lat="36.69307333" lon="-4.44546">
        <ele>23</ele>
        <time>2018-04-23T13:45:30Z</time>
      </trkpt>
      <trkpt lat="36.69308667" lon="-4.445455">
        <ele>23</ele>
        <time>2018-04-23T13:45:31Z</time>
      </trkpt>
      <trkpt lat="36.6931" lon="-4.44545167">
        <ele>23</ele>
        <time>2018-04-23T13:45:32Z</time>
      </trkpt>
      <trkpt lat="36.69311333" lon="-4.44544633">
        <ele>23</ele>
        <time>2018-04-23T13:45:33Z</time>
      </trkpt>
      <trkpt lat="36.69312833" lon="-4.44544">
        <ele>23</ele>
        <time>2018-04-23T13:45:34Z</time>
      </trkpt>
      <trkpt lat="36.69314333" lon="-4.44543333">
        <ele>23</ele>
        <time>2018-04-23T13:45:35Z</time>
      </trkpt>
      <trkpt lat="36.69315333" lon="-4.44542967">
        <ele>23</ele>
        <time>2018-04-23T13:45:36Z</time>
      </trkpt>
      <trkpt lat="36.693165" lon="-4.44542567">
        <ele>23</ele>
        <time>2018-04-23T13:45:37Z</time>
      </trkpt>
      <trkpt lat="36.693175" lon="-4.445422">
        <ele>23</ele>
        <time>2018-04-23T13:45:38Z</time>
      </trkpt>
      <trkpt lat="36.693185" lon="-4.44541767">
        <ele>23</ele>
        <time>2018-04-23T13:45:39Z</time>
      </trkpt>
      <trkpt lat="36.69318833" lon="-4.445414">
        <ele>23</ele>
        <time>2018-04-23T13:45:40Z</time>
      </trkpt>
      <trkpt lat="36.69319333" lon="-4.44540833">
        <ele>23</ele>
        <time>2018-04-23T13:45:41Z</time>
      </trkpt>
      <trkpt lat="36.69320167" lon="-4.445385">
        <ele>23</ele>
        <time>2018-04-23T13:45:42Z</time>
      </trkpt>
      <trkpt lat="36.69321" lon="-4.44537167">
        <ele>23</ele>
        <time>2018-04-23T13:45:43Z</time>
      </trkpt>
      <trkpt lat="36.69321667" lon="-4.445355">
        <ele>23</ele>
        <time>2018-04-23T13:45:44Z</time>
      </trkpt>
      <trkpt lat="36.69322333" lon="-4.44534">
        <ele>23</ele>
        <time>2018-04-23T13:45:45Z</time>
      </trkpt>
      <trkpt lat="36.69323" lon="-4.445325">
        <ele>23</ele>
        <time>2018-04-23T13:45:46Z</time>
      </trkpt>
      <trkpt lat="36.693235" lon="-4.44531333">
        <ele>23</ele>
        <time>2018-04-23T13:45:47Z</time>
      </trkpt>
      <trkpt lat="36.693239" lon="-4.44530167">
        <ele>23</ele>
        <time>2018-04-23T13:45:48Z</time>
      </trkpt>
      <trkpt lat="36.69324267" lon="-4.44528833">
        <ele>23</ele>
        <time>2018-04-23T13:45:49Z</time>
      </trkpt>
      <trkpt lat="36.69324433" lon="-4.44527833">
        <ele>23</ele>
        <time>2018-04-23T13:45:50Z</time>
      </trkpt>
      <trkpt lat="36.69324767" lon="-4.44526">
        <ele>23</ele>
        <time>2018-04-23T13:45:51Z</time>
      </trkpt>
      <trkpt lat="36.693249" lon="-4.445245">
        <ele>23</ele>
        <time>2018-04-23T13:45:52Z</time>
      </trkpt>
      <trkpt lat="36.69325133" lon="-4.44522667">
        <ele>23</ele>
        <time>2018-04-23T13:45:53Z</time>
      </trkpt>
      <trkpt lat="36.69325233" lon="-4.445215">
        <ele>23</ele>
        <time>2018-04-23T13:45:54Z</time>
      </trkpt>
      <trkpt lat="36.69325233" lon="-4.44520333">
        <ele>23</ele>
        <time>2018-04-23T13:45:55Z</time>
      </trkpt>
      <trkpt lat="36.69325233" lon="-4.44519167">
        <ele>23</ele>
        <time>2018-04-23T13:45:56Z</time>
      </trkpt>
      <trkpt lat="36.693251" lon="-4.44517333">
        <ele>23</ele>
        <time>2018-04-23T13:45:57Z</time>
      </trkpt>
      <trkpt lat="36.69324767" lon="-4.44515833">
        <ele>23</ele>
        <time>2018-04-23T13:45:58Z</time>
      </trkpt>
      <trkpt lat="36.69322667" lon="-4.445145">
        <ele>23</ele>
        <time>2018-04-23T13:45:59Z</time>
      </trkpt>
      <trkpt lat="36.69322333" lon="-4.44514">
        <ele>23</ele>
        <time>2018-04-23T13:46:00Z</time>
      </trkpt>
      <trkpt lat="36.69321833" lon="-4.445135">
        <ele>23</ele>
        <time>2018-04-23T13:46:01Z</time>
      </trkpt>
      <trkpt lat="36.69321167" lon="-4.44512833">
        <ele>23</ele>
        <time>2018-04-23T13:46:02Z</time>
      </trkpt>
      <trkpt lat="36.69320833" lon="-4.44512">
        <ele>23</ele>
        <time>2018-04-23T13:46:03Z</time>
      </trkpt>
      <trkpt lat="36.69320767" lon="-4.44510833">
        <ele>23</ele>
        <time>2018-04-23T13:46:04Z</time>
      </trkpt>
      <trkpt lat="36.69321133" lon="-4.44509667">
        <ele>23</ele>
        <time>2018-04-23T13:46:05Z</time>
      </trkpt>
      <trkpt lat="36.69321833" lon="-4.44508333">
        <ele>23</ele>
        <time>2018-04-23T13:46:06Z</time>
      </trkpt>
      <trkpt lat="36.69322333" lon="-4.44507667">
        <ele>23</ele>
        <time>2018-04-23T13:46:07Z</time>
      </trkpt>
      <trkpt lat="36.69323333" lon="-4.44507">
        <ele>23</ele>
        <time>2018-04-23T13:46:08Z</time>
      </trkpt>
      <trkpt lat="36.69324333" lon="-4.445055">
        <ele>23</ele>
        <time>2018-04-23T13:46:09Z</time>
      </trkpt>
      <trkpt lat="36.69324667" lon="-4.445045">
        <ele>23</ele>
        <time>2018-04-23T13:46:10Z</time>
      </trkpt>
      <trkpt lat="36.69325133" lon="-4.44503333">
        <ele>23</ele>
        <time>2018-04-23T13:46:11Z</time>
      </trkpt>
      <trkpt lat="36.693257" lon="-4.44501667">
        <ele>23</ele>
        <time>2018-04-23T13:46:12Z</time>
      </trkpt>
      <trkpt lat="36.69326033" lon="-4.44500333">
        <ele>23</ele>
        <time>2018-04-23T13:46:13Z</time>
      </trkpt>
      <trkpt lat="36.693266" lon="-4.44499">
        <ele>23</ele>
        <time>2018-04-23T13:46:14Z</time>
      </trkpt>
      <trkpt lat="36.693273" lon="-4.444975">
        <ele>23</ele>
        <time>2018-04-23T13:46:15Z</time>
      </trkpt>
      <trkpt lat="36.69328233" lon="-4.44496">
        <ele>23</ele>
        <time>2018-04-23T13:46:16Z</time>
      </trkpt>
      <trkpt lat="36.69329133" lon="-4.44495">
        <ele>23</ele>
        <time>2018-04-23T13:46:17Z</time>
      </trkpt>
      <trkpt lat="36.693301" lon="-4.44493833">
        <ele>23</ele>
        <time>2018-04-23T13:46:18Z</time>
      </trkpt>
      <trkpt lat="36.69331067" lon="-4.44492667">
        <ele>23</ele>
        <time>2018-04-23T13:46:19Z</time>
      </trkpt>
      <trkpt lat="36.693323" lon="-4.44491167">
        <ele>23</ele>
        <time>2018-04-23T13:46:20Z</time>
      </trkpt>
      <trkpt lat="36.69333233" lon="-4.4449">
        <ele>23</ele>
        <time>2018-04-23T13:46:21Z</time>
      </trkpt>
      <trkpt lat="36.69334067" lon="-4.44488667">
        <ele>23</ele>
        <time>2018-04-23T13:46:22Z</time>
      </trkpt>
      <trkpt lat="36.693348" lon="-4.44487167">
        <ele>23</ele>
        <time>2018-04-23T13:46:23Z</time>
      </trkpt>
      <trkpt lat="36.69335333" lon="-4.44486167">
        <ele>23</ele>
        <time>2018-04-23T13:46:24Z</time>
      </trkpt>
      <trkpt lat="36.693357" lon="-4.444855">
        <ele>23</ele>
        <time>2018-04-23T13:46:25Z</time>
      </trkpt>
      <trkpt lat="36.693362" lon="-4.44485">
        <ele>23</ele>
        <time>2018-04-23T13:46:26Z</time>
      </trkpt>
      <trkpt lat="36.69337167" lon="-4.44483833">
        <ele>23</ele>
        <time>2018-04-23T13:46:27Z</time>
      </trkpt>
      <trkpt lat="36.69338267" lon="-4.44482167">
        <ele>23</ele>
        <time>2018-04-23T13:46:28Z</time>
      </trkpt>
      <trkpt lat="36.69339033" lon="-4.44481167">
        <ele>23</ele>
        <time>2018-04-23T13:46:29Z</time>
      </trkpt>
      <trkpt lat="36.693397" lon="-4.44480333">
        <ele>23</ele>
        <time>2018-04-23T13:46:30Z</time>
      </trkpt>
      <trkpt lat="36.693404" lon="-4.444795">
        <ele>23</ele>
        <time>2018-04-23T13:46:31Z</time>
      </trkpt>
      <trkpt lat="36.69341533" lon="-4.44478">
        <ele>23</ele>
        <time>2018-04-23T13:46:32Z</time>
      </trkpt>
      <trkpt lat="36.69342467" lon="-4.44476833">
        <ele>23</ele>
        <time>2018-04-23T13:46:33Z</time>
      </trkpt>
      <trkpt lat="36.69343467" lon="-4.444755">
        <ele>23</ele>
        <time>2018-04-23T13:46:34Z</time>
      </trkpt>
      <trkpt lat="36.693443" lon="-4.444745">
        <ele>23</ele>
        <time>2018-04-23T13:46:35Z</time>
      </trkpt>
      <trkpt lat="36.693449" lon="-4.44473833">
        <ele>23</ele>
        <time>2018-04-23T13:46:36Z</time>
      </trkpt>
      <trkpt lat="36.69345433" lon="-4.44473333">
        <ele>23</ele>
        <time>2018-04-23T13:46:37Z</time>
      </trkpt>
      <trkpt lat="36.69346333" lon="-4.44472333">
        <ele>23</ele>
        <time>2018-04-23T13:46:38Z</time>
      </trkpt>
      <trkpt lat="36.69347433" lon="-4.44471167">
        <ele>23</ele>
        <time>2018-04-23T13:46:39Z</time>
      </trkpt>
      <trkpt lat="36.69348333" lon="-4.44470333">
        <ele>23</ele>
        <time>2018-04-23T13:46:40Z</time>
      </trkpt>
      <trkpt lat="36.69349533" lon="-4.44469167">
        <ele>23</ele>
        <time>2018-04-23T13:46:41Z</time>
      </trkpt>
      <trkpt lat="36.693503" lon="-4.444685">
        <ele>23</ele>
        <time>2018-04-23T13:46:42Z</time>
      </trkpt>
      <trkpt lat="36.69351167" lon="-4.44467667">
        <ele>23</ele>
        <time>2018-04-23T13:46:43Z</time>
      </trkpt>
      <trkpt lat="36.69352" lon="-4.44466833">
        <ele>23</ele>
        <time>2018-04-23T13:46:44Z</time>
      </trkpt>
      <trkpt lat="36.693545" lon="-4.44465833">
        <ele>23</ele>
        <time>2018-04-23T13:46:45Z</time>
      </trkpt>
      <trkpt lat="36.69354833" lon="-4.44465">
        <ele>23</ele>
        <time>2018-04-23T13:46:46Z</time>
      </trkpt>
      <trkpt lat="36.69355" lon="-4.44464">
        <ele>23</ele>
        <time>2018-04-23T13:46:47Z</time>
      </trkpt>
      <trkpt lat="36.693555" lon="-4.44463167">
        <ele>23</ele>
        <time>2018-04-23T13:46:48Z</time>
      </trkpt>
      <trkpt lat="36.69355833" lon="-4.444625">
        <ele>23</ele>
        <time>2018-04-23T13:46:49Z</time>
      </trkpt>
      <trkpt lat="36.69356667" lon="-4.44461833">
        <ele>23</ele>
        <time>2018-04-23T13:46:50Z</time>
      </trkpt>
      <trkpt lat="36.69357633" lon="-4.44460833">
        <ele>23</ele>
        <time>2018-04-23T13:46:51Z</time>
      </trkpt>
      <trkpt lat="36.69358733" lon="-4.4446">
        <ele>23</ele>
        <time>2018-04-23T13:46:52Z</time>
      </trkpt>
      <trkpt lat="36.69359933" lon="-4.44458833">
        <ele>23</ele>
        <time>2018-04-23T13:46:53Z</time>
      </trkpt>
      <trkpt lat="36.69361067" lon="-4.44457667">
        <ele>23</ele>
        <time>2018-04-23T13:46:54Z</time>
      </trkpt>
      <trkpt lat="36.693622" lon="-4.44456833">
        <ele>23</ele>
        <time>2018-04-23T13:46:55Z</time>
      </trkpt>
      <trkpt lat="36.69363633" lon="-4.44455667">
        <ele>23</ele>
        <time>2018-04-23T13:46:56Z</time>
      </trkpt>
      <trkpt lat="36.693649" lon="-4.44454667">
        <ele>23</ele>
        <time>2018-04-23T13:46:57Z</time>
      </trkpt>
      <trkpt lat="36.69366367" lon="-4.444535">
        <ele>23</ele>
        <time>2018-04-23T13:46:58Z</time>
      </trkpt>
      <trkpt lat="36.69367933" lon="-4.44452333">
        <ele>23</ele>
        <time>2018-04-23T13:46:59Z</time>
      </trkpt>
      <trkpt lat="36.693693" lon="-4.44451167">
        <ele>23</ele>
        <time>2018-04-23T13:47:00Z</time>
      </trkpt>
      <trkpt lat="36.6937" lon="-4.444505">
        <ele>23</ele>
        <time>2018-04-23T13:47:01Z</time>
      </trkpt>
      <trkpt lat="36.693709" lon="-4.44449667">
        <ele>23</ele>
        <time>2018-04-23T13:47:02Z</time>
      </trkpt>
      <trkpt lat="36.69371867" lon="-4.44448833">
        <ele>23</ele>
        <time>2018-04-23T13:47:03Z</time>
      </trkpt>
      <trkpt lat="36.693727" lon="-4.44448167">
        <ele>23</ele>
        <time>2018-04-23T13:47:04Z</time>
      </trkpt>
      <trkpt lat="36.693739" lon="-4.44447167">
        <ele>23</ele>
        <time>2018-04-23T13:47:05Z</time>
      </trkpt>
      <trkpt lat="36.69375233" lon="-4.44446">
        <ele>23</ele>
        <time>2018-04-23T13:47:06Z</time>
      </trkpt>
      <trkpt lat="36.693763" lon="-4.44445">
        <ele>23</ele>
        <time>2018-04-23T13:47:07Z</time>
      </trkpt>
      <trkpt lat="36.69377633" lon="-4.44443667">
        <ele>23</ele>
        <time>2018-04-23T13:47:08Z</time>
      </trkpt>
      <trkpt lat="36.693785" lon="-4.44442667">
        <ele>23</ele>
        <time>2018-04-23T13:47:09Z</time>
      </trkpt>
      <trkpt lat="36.69379767" lon="-4.44441333">
        <ele>23</ele>
        <time>2018-04-23T13:47:10Z</time>
      </trkpt>
      <trkpt lat="36.69380733" lon="-4.44440333">
        <ele>23</ele>
        <time>2018-04-23T13:47:11Z</time>
      </trkpt>
      <trkpt lat="36.693819" lon="-4.44439167">
        <ele>23</ele>
        <time>2018-04-23T13:47:12Z</time>
      </trkpt>
      <trkpt lat="36.693828" lon="-4.44438333">
        <ele>23</ele>
        <time>2018-04-23T13:47:13Z</time>
      </trkpt>
      <trkpt lat="36.693839" lon="-4.44437333">
        <ele>23</ele>
        <time>2018-04-23T13:47:14Z</time>
      </trkpt>
      <trkpt lat="36.693845" lon="-4.44436833">
        <ele>23</ele>
        <time>2018-04-23T13:47:15Z</time>
      </trkpt>
      <trkpt lat="36.693851" lon="-4.444365">
        <ele>23</ele>
        <time>2018-04-23T13:47:16Z</time>
      </trkpt>
      <trkpt lat="36.69387833" lon="-4.44437">
        <ele>23</ele>
        <time>2018-04-23T13:47:17Z</time>
      </trkpt>
      <trkpt lat="36.69389" lon="-4.44436333">
        <ele>23</ele>
        <time>2018-04-23T13:47:18Z</time>
      </trkpt>
      <trkpt lat="36.69390833" lon="-4.44435833">
        <ele>23</ele>
        <time>2018-04-23T13:47:19Z</time>
      </trkpt>
      <trkpt lat="36.69392" lon="-4.444353">
        <ele>23</ele>
        <time>2018-04-23T13:47:20Z</time>
      </trkpt>
      <trkpt lat="36.693935" lon="-4.44434933">
        <ele>23</ele>
        <time>2018-04-23T13:47:21Z</time>
      </trkpt>
      <trkpt lat="36.69395167" lon="-4.444346">
        <ele>23</ele>
        <time>2018-04-23T13:47:22Z</time>
      </trkpt>
      <trkpt lat="36.69396833" lon="-4.44434067">
        <ele>23</ele>
        <time>2018-04-23T13:47:23Z</time>
      </trkpt>
      <trkpt lat="36.69398167" lon="-4.44433567">
        <ele>23</ele>
        <time>2018-04-23T13:47:24Z</time>
      </trkpt>
      <trkpt lat="36.69399833" lon="-4.44432867">
        <ele>23</ele>
        <time>2018-04-23T13:47:25Z</time>
      </trkpt>
      <trkpt lat="36.69401" lon="-4.44432233">
        <ele>23</ele>
        <time>2018-04-23T13:47:26Z</time>
      </trkpt>
      <trkpt lat="36.69402333" lon="-4.44431533">
        <ele>23</ele>
        <time>2018-04-23T13:47:27Z</time>
      </trkpt>
      <trkpt lat="36.69403667" lon="-4.444308">
        <ele>23</ele>
        <time>2018-04-23T13:47:28Z</time>
      </trkpt>
      <trkpt lat="36.69405333" lon="-4.44429833">
        <ele>23</ele>
        <time>2018-04-23T13:47:29Z</time>
      </trkpt>
      <trkpt lat="36.69406667" lon="-4.44429033">
        <ele>23</ele>
        <time>2018-04-23T13:47:30Z</time>
      </trkpt>
      <trkpt lat="36.69407667" lon="-4.44428267">
        <ele>23</ele>
        <time>2018-04-23T13:47:31Z</time>
      </trkpt>
      <trkpt lat="36.69408333" lon="-4.44427767">
        <ele>23</ele>
        <time>2018-04-23T13:47:32Z</time>
      </trkpt>
      <trkpt lat="36.69409833" lon="-4.44426767">
        <ele>23</ele>
        <time>2018-04-23T13:47:33Z</time>
      </trkpt>
      <trkpt lat="36.69411" lon="-4.44425933">
        <ele>23</ele>
        <time>2018-04-23T13:47:34Z</time>
      </trkpt>
      <trkpt lat="36.69412333" lon="-4.44424967">
        <ele>23</ele>
        <time>2018-04-23T13:47:35Z</time>
      </trkpt>
      <trkpt lat="36.69413333" lon="-4.444242">
        <ele>23</ele>
        <time>2018-04-23T13:47:36Z</time>
      </trkpt>
      <trkpt lat="36.69413833" lon="-4.44423633">
        <ele>23</ele>
        <time>2018-04-23T13:47:37Z</time>
      </trkpt>
      <trkpt lat="36.69414667" lon="-4.44421">
        <ele>23</ele>
        <time>2018-04-23T13:47:38Z</time>
      </trkpt>
      <trkpt lat="36.694148" lon="-4.4442">
        <ele>23</ele>
        <time>2018-04-23T13:47:39Z</time>
      </trkpt>
      <trkpt lat="36.69415433" lon="-4.44418833">
        <ele>23</ele>
        <time>2018-04-23T13:47:40Z</time>
      </trkpt>
      <trkpt lat="36.69416167" lon="-4.444175">
        <ele>23</ele>
        <time>2018-04-23T13:47:41Z</time>
      </trkpt>
      <trkpt lat="36.69417167" lon="-4.44416333">
        <ele>23</ele>
        <time>2018-04-23T13:47:42Z</time>
      </trkpt>
      <trkpt lat="36.694182" lon="-4.44414833">
        <ele>23</ele>
        <time>2018-04-23T13:47:43Z</time>
      </trkpt>
      <trkpt lat="36.69419333" lon="-4.44413167">
        <ele>23</ele>
        <time>2018-04-23T13:47:44Z</time>
      </trkpt>
      <trkpt lat="36.69419967" lon="-4.44411667">
        <ele>23</ele>
        <time>2018-04-23T13:47:45Z</time>
      </trkpt>
      <trkpt lat="36.694201" lon="-4.44411">
        <ele>23</ele>
        <time>2018-04-23T13:47:46Z</time>
      </trkpt>
      <trkpt lat="36.69420433" lon="-4.44410333">
        <ele>23</ele>
        <time>2018-04-23T13:47:47Z</time>
      </trkpt>
      <trkpt lat="36.694211" lon="-4.44409167">
        <ele>23</ele>
        <time>2018-04-23T13:47:48Z</time>
      </trkpt>
      <trkpt lat="36.69422667" lon="-4.444095">
        <ele>23</ele>
        <time>2018-04-23T13:47:49Z</time>
      </trkpt>
      <trkpt lat="36.69424333" lon="-4.44409967">
        <ele>23</ele>
        <time>2018-04-23T13:47:50Z</time>
      </trkpt>
      <trkpt lat="36.69425333" lon="-4.44410333">
        <ele>23</ele>
        <time>2018-04-23T13:47:51Z</time>
      </trkpt>
      <trkpt lat="36.69426" lon="-4.44409667">
        <ele>23</ele>
        <time>2018-04-23T13:47:52Z</time>
      </trkpt>
      <trkpt lat="36.69427333" lon="-4.44408933">
        <ele>23</ele>
        <time>2018-04-23T13:47:53Z</time>
      </trkpt>
      <trkpt lat="36.69428667" lon="-4.44408">
        <ele>23</ele>
        <time>2018-04-23T13:47:54Z</time>
      </trkpt>
      <trkpt lat="36.69429667" lon="-4.44406933">
        <ele>23</ele>
        <time>2018-04-23T13:47:55Z</time>
      </trkpt>
      <trkpt lat="36.6943" lon="-4.44406167">
        <ele>23</ele>
        <time>2018-04-23T13:47:56Z</time>
      </trkpt>
      <trkpt lat="36.69430667" lon="-4.444051">
        <ele>23</ele>
        <time>2018-04-23T13:47:57Z</time>
      </trkpt>
      <trkpt lat="36.69431667" lon="-4.44403167">
        <ele>23</ele>
        <time>2018-04-23T13:47:58Z</time>
      </trkpt>
      <trkpt lat="36.69432167" lon="-4.44402333">
        <ele>23</ele>
        <time>2018-04-23T13:47:59Z</time>
      </trkpt>
      <trkpt lat="36.69432833" lon="-4.44401333">
        <ele>23</ele>
        <time>2018-04-23T13:48:00Z</time>
      </trkpt>
      <trkpt lat="36.69433667" lon="-4.444">
        <ele>23</ele>
        <time>2018-04-23T13:48:01Z</time>
      </trkpt>
      <trkpt lat="36.69434333" lon="-4.44398833">
        <ele>23</ele>
        <time>2018-04-23T13:48:02Z</time>
      </trkpt>
      <trkpt lat="36.69435533" lon="-4.44397333">
        <ele>23</ele>
        <time>2018-04-23T13:48:03Z</time>
      </trkpt>
      <trkpt lat="36.69436733" lon="-4.44396167">
        <ele>23</ele>
        <time>2018-04-23T13:48:04Z</time>
      </trkpt>
      <trkpt lat="36.69438067" lon="-4.44395">
        <ele>23</ele>
        <time>2018-04-23T13:48:05Z</time>
      </trkpt>
      <trkpt lat="36.694391" lon="-4.44394">
        <ele>23</ele>
        <time>2018-04-23T13:48:06Z</time>
      </trkpt>
      <trkpt lat="36.69440167" lon="-4.44393">
        <ele>23</ele>
        <time>2018-04-23T13:48:07Z</time>
      </trkpt>
      <trkpt lat="36.694415" lon="-4.44391667">
        <ele>23</ele>
        <time>2018-04-23T13:48:08Z</time>
      </trkpt>
      <trkpt lat="36.69442567" lon="-4.44390167">
        <ele>23</ele>
        <time>2018-04-23T13:48:09Z</time>
      </trkpt>
      <trkpt lat="36.69443533" lon="-4.44388833">
        <ele>23</ele>
        <time>2018-04-23T13:48:10Z</time>
      </trkpt>
      <trkpt lat="36.69444233" lon="-4.44388167">
        <ele>23</ele>
        <time>2018-04-23T13:48:11Z</time>
      </trkpt>
      <trkpt lat="36.69446667" lon="-4.44387333">
        <ele>23</ele>
        <time>2018-04-23T13:48:11Z</time>
      </trkpt>
      <trkpt lat="36.69448" lon="-4.443865">
        <ele>23</ele>
        <time>2018-04-23T13:48:12Z</time>
      </trkpt>
      <trkpt lat="36.69449" lon="-4.443855">
        <ele>23</ele>
        <time>2018-04-23T13:48:13Z</time>
      </trkpt>
      <trkpt lat="36.69450333" lon="-4.44384733">
        <ele>23</ele>
        <time>2018-04-23T13:48:14Z</time>
      </trkpt>
      <trkpt lat="36.69451833" lon="-4.443839">
        <ele>25</ele>
        <time>2018-04-23T13:48:15Z</time>
      </trkpt>
      <trkpt lat="36.69452333" lon="-4.443833">
        <ele>25</ele>
        <time>2018-04-23T13:48:16Z</time>
      </trkpt>
      <trkpt lat="36.69453" lon="-4.44382567">
        <ele>25</ele>
        <time>2018-04-23T13:48:17Z</time>
      </trkpt>
      <trkpt lat="36.69454333" lon="-4.44381167">
        <ele>25</ele>
        <time>2018-04-23T13:48:18Z</time>
      </trkpt>
      <trkpt lat="36.69455467" lon="-4.4438">
        <ele>25</ele>
        <time>2018-04-23T13:48:19Z</time>
      </trkpt>
      <trkpt lat="36.69456367" lon="-4.44378667">
        <ele>25</ele>
        <time>2018-04-23T13:48:20Z</time>
      </trkpt>
      <trkpt lat="36.69457567" lon="-4.44377333">
        <ele>25</ele>
        <time>2018-04-23T13:48:21Z</time>
      </trkpt>
      <trkpt lat="36.69458567" lon="-4.44376333">
        <ele>25</ele>
        <time>2018-04-23T13:48:22Z</time>
      </trkpt>
      <trkpt lat="36.69459833" lon="-4.44375">
        <ele>25</ele>
        <time>2018-04-23T13:48:23Z</time>
      </trkpt>
      <trkpt lat="36.69461033" lon="-4.44373833">
        <ele>25</ele>
        <time>2018-04-23T13:48:24Z</time>
      </trkpt>
      <trkpt lat="36.69462267" lon="-4.44372667">
        <ele>25</ele>
        <time>2018-04-23T13:48:25Z</time>
      </trkpt>
      <trkpt lat="36.69463367" lon="-4.44371833">
        <ele>25</ele>
        <time>2018-04-23T13:48:26Z</time>
      </trkpt>
      <trkpt lat="36.69464533" lon="-4.44370833">
        <ele>25</ele>
        <time>2018-04-23T13:48:27Z</time>
      </trkpt>
      <trkpt lat="36.69465567" lon="-4.44369833">
        <ele>25</ele>
        <time>2018-04-23T13:48:28Z</time>
      </trkpt>
      <trkpt lat="36.69466333" lon="-4.44369167">
        <ele>25</ele>
        <time>2018-04-23T13:48:29Z</time>
      </trkpt>
      <trkpt lat="36.69467667" lon="-4.44367833">
        <ele>25</ele>
        <time>2018-04-23T13:48:30Z</time>
      </trkpt>
      <trkpt lat="36.69468333" lon="-4.44367">
        <ele>25</ele>
        <time>2018-04-23T13:48:31Z</time>
      </trkpt>
      <trkpt lat="36.69469533" lon="-4.44365667">
        <ele>25</ele>
        <time>2018-04-23T13:48:32Z</time>
      </trkpt>
      <trkpt lat="36.69470433" lon="-4.44364667">
        <ele>25</ele>
        <time>2018-04-23T13:48:33Z</time>
      </trkpt>
      <trkpt lat="36.694715" lon="-4.443635">
        <ele>25</ele>
        <time>2018-04-23T13:48:34Z</time>
      </trkpt>
      <trkpt lat="36.694723" lon="-4.44362667">
        <ele>25</ele>
        <time>2018-04-23T13:48:35Z</time>
      </trkpt>
      <trkpt lat="36.69473167" lon="-4.44361833">
        <ele>25</ele>
        <time>2018-04-23T13:48:36Z</time>
      </trkpt>
      <trkpt lat="36.69474333" lon="-4.44360667">
        <ele>25</ele>
        <time>2018-04-23T13:48:37Z</time>
      </trkpt>
      <trkpt lat="36.694753" lon="-4.44359667">
        <ele>25</ele>
        <time>2018-04-23T13:48:38Z</time>
      </trkpt>
      <trkpt lat="36.69476533" lon="-4.44358333">
        <ele>25</ele>
        <time>2018-04-23T13:48:39Z</time>
      </trkpt>
      <trkpt lat="36.69477433" lon="-4.44357333">
        <ele>25</ele>
        <time>2018-04-23T13:48:40Z</time>
      </trkpt>
      <trkpt lat="36.694784" lon="-4.44356333">
        <ele>25</ele>
        <time>2018-04-23T13:48:41Z</time>
      </trkpt>
      <trkpt lat="36.694793" lon="-4.443555">
        <ele>25</ele>
        <time>2018-04-23T13:48:42Z</time>
      </trkpt>
      <trkpt lat="36.694804" lon="-4.443545">
        <ele>25</ele>
        <time>2018-04-23T13:48:43Z</time>
      </trkpt>
      <trkpt lat="36.69481533" lon="-4.443535">
        <ele>25</ele>
        <time>2018-04-23T13:48:44Z</time>
      </trkpt>
      <trkpt lat="36.69482433" lon="-4.44352833">
        <ele>25</ele>
        <time>2018-04-23T13:48:45Z</time>
      </trkpt>
      <trkpt lat="36.69483967" lon="-4.44351333">
        <ele>25</ele>
        <time>2018-04-23T13:48:46Z</time>
      </trkpt>
      <trkpt lat="36.69485267" lon="-4.44350167">
        <ele>25</ele>
        <time>2018-04-23T13:48:47Z</time>
      </trkpt>
      <trkpt lat="36.69486267" lon="-4.44349333">
        <ele>25</ele>
        <time>2018-04-23T13:48:48Z</time>
      </trkpt>
      <trkpt lat="36.694872" lon="-4.443485">
        <ele>25</ele>
        <time>2018-04-23T13:48:49Z</time>
      </trkpt>
      <trkpt lat="36.69488833" lon="-4.44347">
        <ele>25</ele>
        <time>2018-04-23T13:48:50Z</time>
      </trkpt>
      <trkpt lat="36.69490167" lon="-4.44346">
        <ele>25</ele>
        <time>2018-04-23T13:48:51Z</time>
      </trkpt>
      <trkpt lat="36.69491167" lon="-4.443445">
        <ele>25</ele>
        <time>2018-04-23T13:48:52Z</time>
      </trkpt>
      <trkpt lat="36.69492833" lon="-4.44343667">
        <ele>25</ele>
        <time>2018-04-23T13:48:53Z</time>
      </trkpt>
      <trkpt lat="36.69494167" lon="-4.443428">
        <ele>25</ele>
        <time>2018-04-23T13:48:54Z</time>
      </trkpt>
      <trkpt lat="36.69495667" lon="-4.44342267">
        <ele>25</ele>
        <time>2018-04-23T13:48:55Z</time>
      </trkpt>
      <trkpt lat="36.694965" lon="-4.44341833">
        <ele>25</ele>
        <time>2018-04-23T13:48:56Z</time>
      </trkpt>
      <trkpt lat="36.69497833" lon="-4.443411">
        <ele>25</ele>
        <time>2018-04-23T13:48:57Z</time>
      </trkpt>
      <trkpt lat="36.69498833" lon="-4.44340367">
        <ele>25</ele>
        <time>2018-04-23T13:48:58Z</time>
      </trkpt>
      <trkpt lat="36.694995" lon="-4.443396">
        <ele>25</ele>
        <time>2018-04-23T13:48:59Z</time>
      </trkpt>
      <trkpt lat="36.69500667" lon="-4.44338633">
        <ele>25</ele>
        <time>2018-04-23T13:49:00Z</time>
      </trkpt>
      <trkpt lat="36.69502" lon="-4.44337667">
        <ele>25</ele>
        <time>2018-04-23T13:49:01Z</time>
      </trkpt>
      <trkpt lat="36.69503333" lon="-4.44336867">
        <ele>25</ele>
        <time>2018-04-23T13:49:02Z</time>
      </trkpt>
      <trkpt lat="36.69503833" lon="-4.44336267">
        <ele>25</ele>
        <time>2018-04-23T13:49:03Z</time>
      </trkpt>
      <trkpt lat="36.69504667" lon="-4.44334833">
        <ele>25</ele>
        <time>2018-04-23T13:49:04Z</time>
      </trkpt>
      <trkpt lat="36.69505833" lon="-4.44334167">
        <ele>25</ele>
        <time>2018-04-23T13:49:05Z</time>
      </trkpt>
      <trkpt lat="36.69506667" lon="-4.44333133">
        <ele>25</ele>
        <time>2018-04-23T13:49:06Z</time>
      </trkpt>
      <trkpt lat="36.69507167" lon="-4.44332233">
        <ele>25</ele>
        <time>2018-04-23T13:49:07Z</time>
      </trkpt>
      <trkpt lat="36.69507833" lon="-4.44330833">
        <ele>25</ele>
        <time>2018-04-23T13:49:08Z</time>
      </trkpt>
      <trkpt lat="36.69508667" lon="-4.44329467">
        <ele>25</ele>
        <time>2018-04-23T13:49:09Z</time>
      </trkpt>
      <trkpt lat="36.69509833" lon="-4.443282">
        <ele>25</ele>
        <time>2018-04-23T13:49:10Z</time>
      </trkpt>
      <trkpt lat="36.695115" lon="-4.44327">
        <ele>25</ele>
        <time>2018-04-23T13:49:11Z</time>
      </trkpt>
      <trkpt lat="36.69512" lon="-4.44326133">
        <ele>25</ele>
        <time>2018-04-23T13:49:12Z</time>
      </trkpt>
      <trkpt lat="36.695125" lon="-4.443245">
        <ele>25</ele>
        <time>2018-04-23T13:49:13Z</time>
      </trkpt>
      <trkpt lat="36.695135" lon="-4.443235">
        <ele>25</ele>
        <time>2018-04-23T13:49:14Z</time>
      </trkpt>
      <trkpt lat="36.69514333" lon="-4.44322667">
        <ele>25</ele>
        <time>2018-04-23T13:49:15Z</time>
      </trkpt>
      <trkpt lat="36.695155" lon="-4.44321667">
        <ele>25</ele>
        <time>2018-04-23T13:49:16Z</time>
      </trkpt>
      <trkpt lat="36.69517333" lon="-4.44321333">
        <ele>25</ele>
        <time>2018-04-23T13:49:17Z</time>
      </trkpt>
      <trkpt lat="36.69518667" lon="-4.443215">
        <ele>25</ele>
        <time>2018-04-23T13:49:18Z</time>
      </trkpt>
      <trkpt lat="36.6952" lon="-4.44321333">
        <ele>25</ele>
        <time>2018-04-23T13:49:19Z</time>
      </trkpt>
      <trkpt lat="36.69520833" lon="-4.44321167">
        <ele>25</ele>
        <time>2018-04-23T13:49:20Z</time>
      </trkpt>
      <trkpt lat="36.69522333" lon="-4.44321333">
        <ele>25</ele>
        <time>2018-04-23T13:49:21Z</time>
      </trkpt>
      <trkpt lat="36.695235" lon="-4.44321833">
        <ele>25</ele>
        <time>2018-04-23T13:49:22Z</time>
      </trkpt>
      <trkpt lat="36.69525333" lon="-4.44321833">
        <ele>25</ele>
        <time>2018-04-23T13:49:23Z</time>
      </trkpt>
      <trkpt lat="36.69526833" lon="-4.44322167">
        <ele>25</ele>
        <time>2018-04-23T13:49:24Z</time>
      </trkpt>
      <trkpt lat="36.69527333" lon="-4.44322667">
        <ele>25</ele>
        <time>2018-04-23T13:49:25Z</time>
      </trkpt>
      <trkpt lat="36.69528333" lon="-4.44322833">
        <ele>25</ele>
        <time>2018-04-23T13:49:26Z</time>
      </trkpt>
      <trkpt lat="36.69529667" lon="-4.44323167">
        <ele>25</ele>
        <time>2018-04-23T13:49:27Z</time>
      </trkpt>
      <trkpt lat="36.69530667" lon="-4.443235">
        <ele>25</ele>
        <time>2018-04-23T13:49:28Z</time>
      </trkpt>
      <trkpt lat="36.69531333" lon="-4.44323833">
        <ele>25</ele>
        <time>2018-04-23T13:49:29Z</time>
      </trkpt>
      <trkpt lat="36.69532" lon="-4.44324167">
        <ele>25</ele>
        <time>2018-04-23T13:49:30Z</time>
      </trkpt>
      <trkpt lat="36.695325" lon="-4.44324667">
        <ele>25</ele>
        <time>2018-04-23T13:49:31Z</time>
      </trkpt>
      <trkpt lat="36.69532833" lon="-4.44325333">
        <ele>25</ele>
        <time>2018-04-23T13:49:32Z</time>
      </trkpt>
      <trkpt lat="36.69533833" lon="-4.443258">
        <ele>25</ele>
        <time>2018-04-23T13:49:33Z</time>
      </trkpt>
      <trkpt lat="36.69534833" lon="-4.443259">
        <ele>25</ele>
        <time>2018-04-23T13:49:34Z</time>
      </trkpt>
      <trkpt lat="36.69536" lon="-4.44326033">
        <ele>25</ele>
        <time>2018-04-23T13:49:35Z</time>
      </trkpt>
      <trkpt lat="36.695375" lon="-4.44326">
        <ele>25</ele>
        <time>2018-04-23T13:49:36Z</time>
      </trkpt>
      <trkpt lat="36.695385" lon="-4.44325933">
        <ele>25</ele>
        <time>2018-04-23T13:49:37Z</time>
      </trkpt>
      <trkpt lat="36.69538667" lon="-4.443259">
        <ele>25</ele>
        <time>2018-04-23T13:49:38Z</time>
      </trkpt>
      <trkpt lat="36.695395" lon="-4.44325667">
        <ele>25</ele>
        <time>2018-04-23T13:49:40Z</time>
      </trkpt>
      <trkpt lat="36.69540167" lon="-4.44325333">
        <ele>25</ele>
        <time>2018-04-23T13:49:41Z</time>
      </trkpt>
      <trkpt lat="36.695405" lon="-4.44325133">
        <ele>25</ele>
        <time>2018-04-23T13:49:42Z</time>
      </trkpt>
      <trkpt lat="36.69541667" lon="-4.44324333">
        <ele>25</ele>
        <time>2018-04-23T13:49:49Z</time>
      </trkpt>
      <trkpt lat="36.695418" lon="-4.44324167">
        <ele>23</ele>
        <time>2018-04-23T13:49:50Z</time>
      </trkpt>
      <trkpt lat="36.69541933" lon="-4.44324167">
        <ele>23</ele>
        <time>2018-04-23T13:49:51Z</time>
      </trkpt>
      <trkpt lat="36.69542667" lon="-4.44324">
        <ele>23</ele>
        <time>2018-04-23T13:49:52Z</time>
      </trkpt>
      <trkpt lat="36.69542667" lon="-4.44323667">
        <ele>23</ele>
        <time>2018-04-23T13:49:53Z</time>
      </trkpt>
      <trkpt lat="36.69542667" lon="-4.44323333">
        <ele>22</ele>
        <time>2018-04-23T13:49:54Z</time>
      </trkpt>
      <trkpt lat="36.69543" lon="-4.44323167">
        <ele>22</ele>
        <time>2018-04-23T13:49:55Z</time>
      </trkpt>
      <trkpt lat="36.69543167" lon="-4.44322967">
        <ele>24</ele>
        <time>2018-04-23T13:49:56Z</time>
      </trkpt>
      <trkpt lat="36.69543167" lon="-4.44323">
        <ele>24</ele>
        <time>2018-04-23T13:49:57Z</time>
      </trkpt>
      <trkpt lat="36.69543" lon="-4.44322833">
        <ele>24</ele>
        <time>2018-04-23T13:50:00Z</time>
      </trkpt>
      <trkpt lat="36.69543167" lon="-4.44322833">
        <ele>24</ele>
        <time>2018-04-23T13:50:01Z</time>
      </trkpt>
      <trkpt lat="36.69543" lon="-4.44322667">
        <ele>24</ele>
        <time>2018-04-23T13:50:04Z</time>
      </trkpt>
      <trkpt lat="36.69543" lon="-4.44322667">
        <ele>24</ele>
        <time>2018-04-23T13:50:05Z</time>
      </trkpt>
      <trkpt lat="36.69543167" lon="-4.44322667">
        <ele>24</ele>
        <time>2018-04-23T13:50:06Z</time>
      </trkpt>
      <trkpt lat="36.69543267" lon="-4.44322667">
        <ele>24</ele>
        <time>2018-04-23T13:50:07Z</time>
      </trkpt>
      <trkpt lat="36.69543333" lon="-4.44322667">
        <ele>24</ele>
        <time>2018-04-23T13:50:08Z</time>
      </trkpt>
      <trkpt lat="36.695435" lon="-4.443225">
        <ele>24</ele>
        <time>2018-04-23T13:50:09Z</time>
      </trkpt>
      <trkpt lat="36.69543667" lon="-4.443225">
        <ele>24</ele>
        <time>2018-04-23T13:50:10Z</time>
      </trkpt>
      <trkpt lat="36.69544" lon="-4.44322633">
        <ele>24</ele>
        <time>2018-04-23T13:50:11Z</time>
      </trkpt>
      <trkpt lat="36.69544333" lon="-4.44322533">
        <ele>24</ele>
        <time>2018-04-23T13:50:12Z</time>
      </trkpt>
      <trkpt lat="36.695445" lon="-4.44322433">
        <ele>24</ele>
        <time>2018-04-23T13:50:13Z</time>
      </trkpt>
      <trkpt lat="36.695445" lon="-4.443224">
        <ele>24</ele>
        <time>2018-04-23T13:50:14Z</time>
      </trkpt>
      <trkpt lat="36.695445" lon="-4.44322367">
        <ele>24</ele>
        <time>2018-04-23T13:50:15Z</time>
      </trkpt>
      <trkpt lat="36.695445" lon="-4.44322333">
        <ele>24</ele>
        <time>2018-04-23T13:50:16Z</time>
      </trkpt>
      <trkpt lat="36.69544667" lon="-4.443223">
        <ele>24</ele>
        <time>2018-04-23T13:50:17Z</time>
      </trkpt>
      <trkpt lat="36.695445" lon="-4.443223">
        <ele>24</ele>
        <time>2018-04-23T13:50:18Z</time>
      </trkpt>
      <trkpt lat="36.695445" lon="-4.44322233">
        <ele>24</ele>
        <time>2018-04-23T13:50:19Z</time>
      </trkpt>
      <trkpt lat="36.695445" lon="-4.44322">
        <ele>24</ele>
        <time>2018-04-23T13:50:20Z</time>
      </trkpt>
      <trkpt lat="36.69544567" lon="-4.44322">
        <ele>24</ele>
        <time>2018-04-23T13:50:21Z</time>
      </trkpt>
      <trkpt lat="36.695445" lon="-4.44321833">
        <ele>24</ele>
        <time>2018-04-23T13:50:22Z</time>
      </trkpt>
      <trkpt lat="36.695446" lon="-4.44321667">
        <ele>24</ele>
        <time>2018-04-23T13:50:23Z</time>
      </trkpt>
      <trkpt lat="36.69544567" lon="-4.44321667">
        <ele>24</ele>
        <time>2018-04-23T13:50:24Z</time>
      </trkpt>
      <trkpt lat="36.69544333" lon="-4.44321833">
        <ele>24</ele>
        <time>2018-04-23T13:50:26Z</time>
      </trkpt>
      <trkpt lat="36.69544667" lon="-4.44322">
        <ele>24</ele>
        <time>2018-04-23T13:50:27Z</time>
      </trkpt>
      <trkpt lat="36.69545" lon="-4.44322133">
        <ele>24</ele>
        <time>2018-04-23T13:50:28Z</time>
      </trkpt>
      <trkpt lat="36.69545" lon="-4.44322167">
        <ele>24</ele>
        <time>2018-04-23T13:50:29Z</time>
      </trkpt>
      <trkpt lat="36.69545167" lon="-4.443221">
        <ele>24</ele>
        <time>2018-04-23T13:50:30Z</time>
      </trkpt>
      <trkpt lat="36.695455" lon="-4.44321933">
        <ele>24</ele>
        <time>2018-04-23T13:50:31Z</time>
      </trkpt>
      <trkpt lat="36.69545667" lon="-4.44321767">
        <ele>24</ele>
        <time>2018-04-23T13:50:32Z</time>
      </trkpt>
      <trkpt lat="36.69546333" lon="-4.443217">
        <ele>24</ele>
        <time>2018-04-23T13:50:33Z</time>
      </trkpt>
      <trkpt lat="36.695465" lon="-4.44321767">
        <ele>24</ele>
        <time>2018-04-23T13:50:34Z</time>
      </trkpt>
      <trkpt lat="36.69547333" lon="-4.44321633">
        <ele>24</ele>
        <time>2018-04-23T13:50:35Z</time>
      </trkpt>
      <trkpt lat="36.69547833" lon="-4.44321533">
        <ele>24</ele>
        <time>2018-04-23T13:50:36Z</time>
      </trkpt>
      <trkpt lat="36.695485" lon="-4.443215">
        <ele>24</ele>
        <time>2018-04-23T13:50:37Z</time>
      </trkpt>
      <trkpt lat="36.69548667" lon="-4.443215">
        <ele>24</ele>
        <time>2018-04-23T13:50:39Z</time>
      </trkpt>
      <trkpt lat="36.69549167" lon="-4.44321333">
        <ele>24</ele>
        <time>2018-04-23T13:50:40Z</time>
      </trkpt>
      <trkpt lat="36.69551333" lon="-4.44321167">
        <ele>24</ele>
        <time>2018-04-23T13:50:46Z</time>
      </trkpt>
      <trkpt lat="36.69551933" lon="-4.44321">
        <ele>24</ele>
        <time>2018-04-23T13:50:47Z</time>
      </trkpt>
      <trkpt lat="36.695525" lon="-4.443205">
        <ele>24</ele>
        <time>2018-04-23T13:50:48Z</time>
      </trkpt>
      <trkpt lat="36.69552833" lon="-4.44319667">
        <ele>24</ele>
        <time>2018-04-23T13:50:49Z</time>
      </trkpt>
      <trkpt lat="36.69553" lon="-4.44319">
        <ele>24</ele>
        <time>2018-04-23T13:50:50Z</time>
      </trkpt>
      <trkpt lat="36.69552933" lon="-4.443185">
        <ele>26</ele>
        <time>2018-04-23T13:50:51Z</time>
      </trkpt>
      <trkpt lat="36.69552933" lon="-4.443175">
        <ele>26</ele>
        <time>2018-04-23T13:50:52Z</time>
      </trkpt>
      <trkpt lat="36.695529" lon="-4.44316667">
        <ele>26</ele>
        <time>2018-04-23T13:50:53Z</time>
      </trkpt>
      <trkpt lat="36.69552967" lon="-4.44316">
        <ele>26</ele>
        <time>2018-04-23T13:50:54Z</time>
      </trkpt>
      <trkpt lat="36.69553067" lon="-4.44315">
        <ele>26</ele>
        <time>2018-04-23T13:50:55Z</time>
      </trkpt>
      <trkpt lat="36.69553067" lon="-4.44314167">
        <ele>26</ele>
        <time>2018-04-23T13:50:56Z</time>
      </trkpt>
      <trkpt lat="36.69553167" lon="-4.44313">
        <ele>26</ele>
        <time>2018-04-23T13:50:57Z</time>
      </trkpt>
      <trkpt lat="36.69553333" lon="-4.44311833">
        <ele>26</ele>
        <time>2018-04-23T13:50:58Z</time>
      </trkpt>
      <trkpt lat="36.695533" lon="-4.443105">
        <ele>26</ele>
        <time>2018-04-23T13:50:59Z</time>
      </trkpt>
      <trkpt lat="36.69553233" lon="-4.44309">
        <ele>26</ele>
        <time>2018-04-23T13:51:00Z</time>
      </trkpt>
      <trkpt lat="36.69553167" lon="-4.44308">
        <ele>26</ele>
        <time>2018-04-23T13:51:01Z</time>
      </trkpt>
      <trkpt lat="36.69553033" lon="-4.443065">
        <ele>26</ele>
        <time>2018-04-23T13:51:02Z</time>
      </trkpt>
      <trkpt lat="36.69552867" lon="-4.44305333">
        <ele>26</ele>
        <time>2018-04-23T13:51:03Z</time>
      </trkpt>
      <trkpt lat="36.695527" lon="-4.443035">
        <ele>26</ele>
        <time>2018-04-23T13:51:04Z</time>
      </trkpt>
      <trkpt lat="36.69552733" lon="-4.44302333">
        <ele>26</ele>
        <time>2018-04-23T13:51:05Z</time>
      </trkpt>
      <trkpt lat="36.69552967" lon="-4.44301333">
        <ele>26</ele>
        <time>2018-04-23T13:51:06Z</time>
      </trkpt>
      <trkpt lat="36.69554833" lon="-4.443005">
        <ele>23</ele>
        <time>2018-04-23T13:51:07Z</time>
      </trkpt>
      <trkpt lat="36.69555667" lon="-4.442995">
        <ele>23</ele>
        <time>2018-04-23T13:51:08Z</time>
      </trkpt>
      <trkpt lat="36.69556833" lon="-4.442985">
        <ele>25</ele>
        <time>2018-04-23T13:51:09Z</time>
      </trkpt>
      <trkpt lat="36.69557667" lon="-4.44297833">
        <ele>25</ele>
        <time>2018-04-23T13:51:10Z</time>
      </trkpt>
      <trkpt lat="36.69559" lon="-4.442975">
        <ele>25</ele>
        <time>2018-04-23T13:51:11Z</time>
      </trkpt>
      <trkpt lat="36.69560167" lon="-4.44296667">
        <ele>25</ele>
        <time>2018-04-23T13:51:12Z</time>
      </trkpt>
      <trkpt lat="36.69561333" lon="-4.44296">
        <ele>25</ele>
        <time>2018-04-23T13:51:13Z</time>
      </trkpt>
      <trkpt lat="36.69563" lon="-4.44295167">
        <ele>25</ele>
        <time>2018-04-23T13:51:14Z</time>
      </trkpt>
      <trkpt lat="36.695645" lon="-4.44294667">
        <ele>25</ele>
        <time>2018-04-23T13:51:15Z</time>
      </trkpt>
      <trkpt lat="36.69566" lon="-4.44294167">
        <ele>25</ele>
        <time>2018-04-23T13:51:16Z</time>
      </trkpt>
      <trkpt lat="36.69567167" lon="-4.44294">
        <ele>25</ele>
        <time>2018-04-23T13:51:17Z</time>
      </trkpt>
      <trkpt lat="36.695685" lon="-4.44294167">
        <ele>25</ele>
        <time>2018-04-23T13:51:18Z</time>
      </trkpt>
      <trkpt lat="36.69569833" lon="-4.44294167">
        <ele>25</ele>
        <time>2018-04-23T13:51:19Z</time>
      </trkpt>
      <trkpt lat="36.695705" lon="-4.44294167">
        <ele>25</ele>
        <time>2018-04-23T13:51:20Z</time>
      </trkpt>
      <trkpt lat="36.69571667" lon="-4.44294167">
        <ele>25</ele>
        <time>2018-04-23T13:51:21Z</time>
      </trkpt>
      <trkpt lat="36.69572333" lon="-4.44294033">
        <ele>25</ele>
        <time>2018-04-23T13:51:22Z</time>
      </trkpt>
      <trkpt lat="36.69572667" lon="-4.442939">
        <ele>25</ele>
        <time>2018-04-23T13:51:23Z</time>
      </trkpt>
      <trkpt lat="36.69573667" lon="-4.442937">
        <ele>25</ele>
        <time>2018-04-23T13:51:24Z</time>
      </trkpt>
      <trkpt lat="36.69574667" lon="-4.442934">
        <ele>25</ele>
        <time>2018-04-23T13:51:25Z</time>
      </trkpt>
      <trkpt lat="36.69575" lon="-4.442932">
        <ele>25</ele>
        <time>2018-04-23T13:51:26Z</time>
      </trkpt>
      <trkpt lat="36.69575167" lon="-4.44292333">
        <ele>25</ele>
        <time>2018-04-23T13:51:27Z</time>
      </trkpt>
      <trkpt lat="36.69575667" lon="-4.44291333">
        <ele>25</ele>
        <time>2018-04-23T13:51:28Z</time>
      </trkpt>
      <trkpt lat="36.69576" lon="-4.44290167">
        <ele>25</ele>
        <time>2018-04-23T13:51:29Z</time>
      </trkpt>
      <trkpt lat="36.695765" lon="-4.44289167">
        <ele>25</ele>
        <time>2018-04-23T13:51:30Z</time>
      </trkpt>
      <trkpt lat="36.695775" lon="-4.44287833">
        <ele>25</ele>
        <time>2018-04-23T13:51:31Z</time>
      </trkpt>
      <trkpt lat="36.695779" lon="-4.44286833">
        <ele>25</ele>
        <time>2018-04-23T13:51:32Z</time>
      </trkpt>
      <trkpt lat="36.695785" lon="-4.44286167">
        <ele>25</ele>
        <time>2018-04-23T13:51:33Z</time>
      </trkpt>
      <trkpt lat="36.69579233" lon="-4.44285667">
        <ele>25</ele>
        <time>2018-04-23T13:51:34Z</time>
      </trkpt>
      <trkpt lat="36.69580167" lon="-4.44284833">
        <ele>25</ele>
        <time>2018-04-23T13:51:35Z</time>
      </trkpt>
      <trkpt lat="36.695811" lon="-4.44283667">
        <ele>25</ele>
        <time>2018-04-23T13:51:36Z</time>
      </trkpt>
      <trkpt lat="36.695816" lon="-4.442825">
        <ele>25</ele>
        <time>2018-04-23T13:51:37Z</time>
      </trkpt>
      <trkpt lat="36.69582233" lon="-4.442805">
        <ele>25</ele>
        <time>2018-04-23T13:51:38Z</time>
      </trkpt>
      <trkpt lat="36.69582533" lon="-4.44279333">
        <ele>25</ele>
        <time>2018-04-23T13:51:39Z</time>
      </trkpt>
      <trkpt lat="36.695833" lon="-4.44277667">
        <ele>25</ele>
        <time>2018-04-23T13:51:40Z</time>
      </trkpt>
      <trkpt lat="36.69584033" lon="-4.44276833">
        <ele>25</ele>
        <time>2018-04-23T13:51:41Z</time>
      </trkpt>
      <trkpt lat="36.69584733" lon="-4.44276167">
        <ele>25</ele>
        <time>2018-04-23T13:51:42Z</time>
      </trkpt>
      <trkpt lat="36.69587333" lon="-4.44275167">
        <ele>25</ele>
        <time>2018-04-23T13:51:43Z</time>
      </trkpt>
      <trkpt lat="36.69589167" lon="-4.44274">
        <ele>25</ele>
        <time>2018-04-23T13:51:44Z</time>
      </trkpt>
      <trkpt lat="36.69590333" lon="-4.44272467">
        <ele>25</ele>
        <time>2018-04-23T13:51:45Z</time>
      </trkpt>
      <trkpt lat="36.69591333" lon="-4.44271033">
        <ele>25</ele>
        <time>2018-04-23T13:51:46Z</time>
      </trkpt>
      <trkpt lat="36.69592833" lon="-4.442692">
        <ele>25</ele>
        <time>2018-04-23T13:51:47Z</time>
      </trkpt>
      <trkpt lat="36.695945" lon="-4.44268033">
        <ele>25</ele>
        <time>2018-04-23T13:51:48Z</time>
      </trkpt>
      <trkpt lat="36.69595167" lon="-4.442678">
        <ele>25</ele>
        <time>2018-04-23T13:51:49Z</time>
      </trkpt>
      <trkpt lat="36.69595833" lon="-4.44268333">
        <ele>25</ele>
        <time>2018-04-23T13:51:50Z</time>
      </trkpt>
      <trkpt lat="36.69597" lon="-4.44268167">
        <ele>25</ele>
        <time>2018-04-23T13:51:51Z</time>
      </trkpt>
      <trkpt lat="36.69597667" lon="-4.44267667">
        <ele>25</ele>
        <time>2018-04-23T13:51:52Z</time>
      </trkpt>
      <trkpt lat="36.69598333" lon="-4.44267667">
        <ele>25</ele>
        <time>2018-04-23T13:51:53Z</time>
      </trkpt>
      <trkpt lat="36.69599" lon="-4.442675">
        <ele>25</ele>
        <time>2018-04-23T13:51:54Z</time>
      </trkpt>
      <trkpt lat="36.69599833" lon="-4.44266967">
        <ele>25</ele>
        <time>2018-04-23T13:51:55Z</time>
      </trkpt>
      <trkpt lat="36.69600667" lon="-4.44266367">
        <ele>25</ele>
        <time>2018-04-23T13:51:56Z</time>
      </trkpt>
      <trkpt lat="36.696015" lon="-4.44265333">
        <ele>25</ele>
        <time>2018-04-23T13:51:57Z</time>
      </trkpt>
      <trkpt lat="36.69602167" lon="-4.44264667">
        <ele>25</ele>
        <time>2018-04-23T13:51:58Z</time>
      </trkpt>
      <trkpt lat="36.696035" lon="-4.44264">
        <ele>25</ele>
        <time>2018-04-23T13:51:59Z</time>
      </trkpt>
      <trkpt lat="36.69604333" lon="-4.442634">
        <ele>25</ele>
        <time>2018-04-23T13:52:00Z</time>
      </trkpt>
      <trkpt lat="36.696055" lon="-4.44262667">
        <ele>25</ele>
        <time>2018-04-23T13:52:01Z</time>
      </trkpt>
      <trkpt lat="36.69605667" lon="-4.44262333">
        <ele>25</ele>
        <time>2018-04-23T13:52:02Z</time>
      </trkpt>
      <trkpt lat="36.69606333" lon="-4.44261733">
        <ele>25</ele>
        <time>2018-04-23T13:52:03Z</time>
      </trkpt>
      <trkpt lat="36.69607" lon="-4.44261133">
        <ele>25</ele>
        <time>2018-04-23T13:52:04Z</time>
      </trkpt>
      <trkpt lat="36.69608333" lon="-4.44260133">
        <ele>25</ele>
        <time>2018-04-23T13:52:05Z</time>
      </trkpt>
      <trkpt lat="36.69609333" lon="-4.442594">
        <ele>25</ele>
        <time>2018-04-23T13:52:06Z</time>
      </trkpt>
      <trkpt lat="36.69610833" lon="-4.44258467">
        <ele>25</ele>
        <time>2018-04-23T13:52:07Z</time>
      </trkpt>
      <trkpt lat="36.69612" lon="-4.44257533">
        <ele>25</ele>
        <time>2018-04-23T13:52:08Z</time>
      </trkpt>
      <trkpt lat="36.696135" lon="-4.44256467">
        <ele>25</ele>
        <time>2018-04-23T13:52:09Z</time>
      </trkpt>
      <trkpt lat="36.69615" lon="-4.44255533">
        <ele>25</ele>
        <time>2018-04-23T13:52:10Z</time>
      </trkpt>
      <trkpt lat="36.69615833" lon="-4.44254967">
        <ele>25</ele>
        <time>2018-04-23T13:52:11Z</time>
      </trkpt>
      <trkpt lat="36.69617167" lon="-4.44254033">
        <ele>25</ele>
        <time>2018-04-23T13:52:12Z</time>
      </trkpt>
      <trkpt lat="36.696185" lon="-4.442532">
        <ele>25</ele>
        <time>2018-04-23T13:52:14Z</time>
      </trkpt>
      <trkpt lat="36.6962" lon="-4.442524">
        <ele>25</ele>
        <time>2018-04-23T13:52:14Z</time>
      </trkpt>
      <trkpt lat="36.69621333" lon="-4.442517">
        <ele>25</ele>
        <time>2018-04-23T13:52:15Z</time>
      </trkpt>
      <trkpt lat="36.69622333" lon="-4.442514">
        <ele>25</ele>
        <time>2018-04-23T13:52:16Z</time>
      </trkpt>
      <trkpt lat="36.69623833" lon="-4.44250667">
        <ele>25</ele>
        <time>2018-04-23T13:52:17Z</time>
      </trkpt>
      <trkpt lat="36.696255" lon="-4.44250133">
        <ele>25</ele>
        <time>2018-04-23T13:52:18Z</time>
      </trkpt>
      <trkpt lat="36.69627" lon="-4.44249667">
        <ele>25</ele>
        <time>2018-04-23T13:52:19Z</time>
      </trkpt>
      <trkpt lat="36.69628333" lon="-4.44249267">
        <ele>25</ele>
        <time>2018-04-23T13:52:20Z</time>
      </trkpt>
      <trkpt lat="36.6963" lon="-4.44248633">
        <ele>25</ele>
        <time>2018-04-23T13:52:21Z</time>
      </trkpt>
      <trkpt lat="36.69631167" lon="-4.44248267">
        <ele>25</ele>
        <time>2018-04-23T13:52:22Z</time>
      </trkpt>
      <trkpt lat="36.696325" lon="-4.44247733">
        <ele>25</ele>
        <time>2018-04-23T13:52:23Z</time>
      </trkpt>
      <trkpt lat="36.696335" lon="-4.44247433">
        <ele>25</ele>
        <time>2018-04-23T13:52:24Z</time>
      </trkpt>
      <trkpt lat="36.69634" lon="-4.44247267">
        <ele>25</ele>
        <time>2018-04-23T13:52:25Z</time>
      </trkpt>
      <trkpt lat="36.69634833" lon="-4.442469">
        <ele>25</ele>
        <time>2018-04-23T13:52:26Z</time>
      </trkpt>
      <trkpt lat="36.69636333" lon="-4.44246133">
        <ele>25</ele>
        <time>2018-04-23T13:52:26Z</time>
      </trkpt>
      <trkpt lat="36.69637667" lon="-4.442455">
        <ele>25</ele>
        <time>2018-04-23T13:52:27Z</time>
      </trkpt>
      <trkpt lat="36.696385" lon="-4.44245067">
        <ele>25</ele>
        <time>2018-04-23T13:52:28Z</time>
      </trkpt>
      <trkpt lat="36.696395" lon="-4.44244567">
        <ele>25</ele>
        <time>2018-04-23T13:52:29Z</time>
      </trkpt>
      <trkpt lat="36.696405" lon="-4.44244067">
        <ele>25</ele>
        <time>2018-04-23T13:52:30Z</time>
      </trkpt>
      <trkpt lat="36.69641667" lon="-4.44243367">
        <ele>25</ele>
        <time>2018-04-23T13:52:31Z</time>
      </trkpt>
      <trkpt lat="36.69642833" lon="-4.44242">
        <ele>25</ele>
        <time>2018-04-23T13:52:32Z</time>
      </trkpt>
      <trkpt lat="36.69644167" lon="-4.44241133">
        <ele>25</ele>
        <time>2018-04-23T13:52:33Z</time>
      </trkpt>
      <trkpt lat="36.696455" lon="-4.44240167">
        <ele>25</ele>
        <time>2018-04-23T13:52:34Z</time>
      </trkpt>
      <trkpt lat="36.69646667" lon="-4.44239333">
        <ele>25</ele>
        <time>2018-04-23T13:52:35Z</time>
      </trkpt>
      <trkpt lat="36.69647667" lon="-4.44238667">
        <ele>25</ele>
        <time>2018-04-23T13:52:36Z</time>
      </trkpt>
      <trkpt lat="36.69649" lon="-4.442377">
        <ele>25</ele>
        <time>2018-04-23T13:52:37Z</time>
      </trkpt>
      <trkpt lat="36.696505" lon="-4.44236733">
        <ele>25</ele>
        <time>2018-04-23T13:52:38Z</time>
      </trkpt>
      <trkpt lat="36.69651667" lon="-4.44235933">
        <ele>25</ele>
        <time>2018-04-23T13:52:39Z</time>
      </trkpt>
      <trkpt lat="36.69653167" lon="-4.44235">
        <ele>25</ele>
        <time>2018-04-23T13:52:40Z</time>
      </trkpt>
      <trkpt lat="36.69655" lon="-4.442338">
        <ele>25</ele>
        <time>2018-04-23T13:52:41Z</time>
      </trkpt>
      <trkpt lat="36.69656" lon="-4.44233067">
        <ele>25</ele>
        <time>2018-04-23T13:52:42Z</time>
      </trkpt>
      <trkpt lat="36.69657" lon="-4.44232333">
        <ele>25</ele>
        <time>2018-04-23T13:52:43Z</time>
      </trkpt>
      <trkpt lat="36.69658333" lon="-4.442315">
        <ele>25</ele>
        <time>2018-04-23T13:52:44Z</time>
      </trkpt>
      <trkpt lat="36.6966" lon="-4.44230567">
        <ele>25</ele>
        <time>2018-04-23T13:52:45Z</time>
      </trkpt>
      <trkpt lat="36.69661333" lon="-4.442299">
        <ele>25</ele>
        <time>2018-04-23T13:52:46Z</time>
      </trkpt>
      <trkpt lat="36.69662667" lon="-4.44229267">
        <ele>25</ele>
        <time>2018-04-23T13:52:47Z</time>
      </trkpt>
      <trkpt lat="36.69663667" lon="-4.44228867">
        <ele>25</ele>
        <time>2018-04-23T13:52:48Z</time>
      </trkpt>
      <trkpt lat="36.69664833" lon="-4.442284">
        <ele>25</ele>
        <time>2018-04-23T13:52:49Z</time>
      </trkpt>
      <trkpt lat="36.696655" lon="-4.44227833">
        <ele>25</ele>
        <time>2018-04-23T13:52:50Z</time>
      </trkpt>
      <trkpt lat="36.69666333" lon="-4.44227033">
        <ele>25</ele>
        <time>2018-04-23T13:52:51Z</time>
      </trkpt>
      <trkpt lat="36.69667667" lon="-4.44226133">
        <ele>25</ele>
        <time>2018-04-23T13:52:52Z</time>
      </trkpt>
      <trkpt lat="36.69669" lon="-4.44225267">
        <ele>25</ele>
        <time>2018-04-23T13:52:53Z</time>
      </trkpt>
      <trkpt lat="36.6967" lon="-4.44225">
        <ele>25</ele>
        <time>2018-04-23T13:52:54Z</time>
      </trkpt>
      <trkpt lat="36.69670833" lon="-4.44223467">
        <ele>25</ele>
        <time>2018-04-23T13:52:55Z</time>
      </trkpt>
      <trkpt lat="36.69671833" lon="-4.44223367">
        <ele>25</ele>
        <time>2018-04-23T13:52:56Z</time>
      </trkpt>
      <trkpt lat="36.69672667" lon="-4.44222933">
        <ele>25</ele>
        <time>2018-04-23T13:52:57Z</time>
      </trkpt>
      <trkpt lat="36.69673333" lon="-4.44221767">
        <ele>25</ele>
        <time>2018-04-23T13:52:59Z</time>
      </trkpt>
      <trkpt lat="36.69674167" lon="-4.44220333">
        <ele>25</ele>
        <time>2018-04-23T13:52:59Z</time>
      </trkpt>
      <trkpt lat="36.69675833" lon="-4.44218167">
        <ele>25</ele>
        <time>2018-04-23T13:53:00Z</time>
      </trkpt>
      <trkpt lat="36.69676833" lon="-4.442168">
        <ele>25</ele>
        <time>2018-04-23T13:53:01Z</time>
      </trkpt>
      <trkpt lat="36.69678333" lon="-4.442153">
        <ele>25</ele>
        <time>2018-04-23T13:53:02Z</time>
      </trkpt>
      <trkpt lat="36.69679667" lon="-4.44214067">
        <ele>25</ele>
        <time>2018-04-23T13:53:03Z</time>
      </trkpt>
      <trkpt lat="36.696805" lon="-4.44213467">
        <ele>25</ele>
        <time>2018-04-23T13:53:04Z</time>
      </trkpt>
      <trkpt lat="36.69681333" lon="-4.442127">
        <ele>25</ele>
        <time>2018-04-23T13:53:05Z</time>
      </trkpt>
      <trkpt lat="36.696825" lon="-4.44211633">
        <ele>25</ele>
        <time>2018-04-23T13:53:06Z</time>
      </trkpt>
      <trkpt lat="36.69683333" lon="-4.44210933">
        <ele>25</ele>
        <time>2018-04-23T13:53:07Z</time>
      </trkpt>
      <trkpt lat="36.696845" lon="-4.44210133">
        <ele>25</ele>
        <time>2018-04-23T13:53:08Z</time>
      </trkpt>
      <trkpt lat="36.69685667" lon="-4.44209433">
        <ele>25</ele>
        <time>2018-04-23T13:53:09Z</time>
      </trkpt>
      <trkpt lat="36.69686667" lon="-4.44208867">
        <ele>25</ele>
        <time>2018-04-23T13:53:10Z</time>
      </trkpt>
      <trkpt lat="36.69688" lon="-4.44208067">
        <ele>25</ele>
        <time>2018-04-23T13:53:11Z</time>
      </trkpt>
      <trkpt lat="36.69689333" lon="-4.44207267">
        <ele>25</ele>
        <time>2018-04-23T13:53:12Z</time>
      </trkpt>
      <trkpt lat="36.696905" lon="-4.442066">
        <ele>25</ele>
        <time>2018-04-23T13:53:13Z</time>
      </trkpt>
      <trkpt lat="36.69691667" lon="-4.44205933">
        <ele>25</ele>
        <time>2018-04-23T13:53:14Z</time>
      </trkpt>
      <trkpt lat="36.69692833" lon="-4.442053">
        <ele>25</ele>
        <time>2018-04-23T13:53:15Z</time>
      </trkpt>
      <trkpt lat="36.69693667" lon="-4.44204867">
        <ele>25</ele>
        <time>2018-04-23T13:53:16Z</time>
      </trkpt>
      <trkpt lat="36.69693833" lon="-4.44204733">
        <ele>25</ele>
        <time>2018-04-23T13:53:17Z</time>
      </trkpt>
      <trkpt lat="36.69694833" lon="-4.44204067">
        <ele>25</ele>
        <time>2018-04-23T13:53:18Z</time>
      </trkpt>
      <trkpt lat="36.69695833" lon="-4.44203267">
        <ele>25</ele>
        <time>2018-04-23T13:53:19Z</time>
      </trkpt>
      <trkpt lat="36.696965" lon="-4.442027">
        <ele>25</ele>
        <time>2018-04-23T13:53:20Z</time>
      </trkpt>
      <trkpt lat="36.69698167" lon="-4.44201367">
        <ele>25</ele>
        <time>2018-04-23T13:53:21Z</time>
      </trkpt>
      <trkpt lat="36.69698667" lon="-4.44200833">
        <ele>25</ele>
        <time>2018-04-23T13:53:22Z</time>
      </trkpt>
      <trkpt lat="36.69699167" lon="-4.44200233">
        <ele>25</ele>
        <time>2018-04-23T13:53:23Z</time>
      </trkpt>
      <trkpt lat="36.69699833" lon="-4.44199433">
        <ele>25</ele>
        <time>2018-04-23T13:53:24Z</time>
      </trkpt>
      <trkpt lat="36.69701" lon="-4.44198433">
        <ele>25</ele>
        <time>2018-04-23T13:53:25Z</time>
      </trkpt>
      <trkpt lat="36.69701667" lon="-4.44196667">
        <ele>25</ele>
        <time>2018-04-23T13:53:26Z</time>
      </trkpt>
      <trkpt lat="36.69702333" lon="-4.44196667">
        <ele>25</ele>
        <time>2018-04-23T13:53:27Z</time>
      </trkpt>
      <trkpt lat="36.69703167" lon="-4.44196">
        <ele>25</ele>
        <time>2018-04-23T13:53:28Z</time>
      </trkpt>
      <trkpt lat="36.697045" lon="-4.44196833">
        <ele>25</ele>
        <time>2018-04-23T13:53:29Z</time>
      </trkpt>
      <trkpt lat="36.69705167" lon="-4.44197167">
        <ele>25</ele>
        <time>2018-04-23T13:53:30Z</time>
      </trkpt>
      <trkpt lat="36.69706" lon="-4.44196333">
        <ele>25</ele>
        <time>2018-04-23T13:53:31Z</time>
      </trkpt>
      <trkpt lat="36.69707" lon="-4.44196333">
        <ele>25</ele>
        <time>2018-04-23T13:53:32Z</time>
      </trkpt>
      <trkpt lat="36.69708167" lon="-4.44196133">
        <ele>25</ele>
        <time>2018-04-23T13:53:33Z</time>
      </trkpt>
      <trkpt lat="36.69709167" lon="-4.441957">
        <ele>25</ele>
        <time>2018-04-23T13:53:34Z</time>
      </trkpt>
      <trkpt lat="36.69709667" lon="-4.44195233">
        <ele>25</ele>
        <time>2018-04-23T13:53:35Z</time>
      </trkpt>
      <trkpt lat="36.6971" lon="-4.44194333">
        <ele>25</ele>
        <time>2018-04-23T13:53:36Z</time>
      </trkpt>
      <trkpt lat="36.69711167" lon="-4.44193667">
        <ele>25</ele>
        <time>2018-04-23T13:53:37Z</time>
      </trkpt>
      <trkpt lat="36.69712" lon="-4.44192833">
        <ele>25</ele>
        <time>2018-04-23T13:53:38Z</time>
      </trkpt>
      <trkpt lat="36.69712833" lon="-4.44192">
        <ele>25</ele>
        <time>2018-04-23T13:53:39Z</time>
      </trkpt>
      <trkpt lat="36.69713667" lon="-4.44191167">
        <ele>25</ele>
        <time>2018-04-23T13:53:40Z</time>
      </trkpt>
      <trkpt lat="36.697145" lon="-4.44190167">
        <ele>25</ele>
        <time>2018-04-23T13:53:41Z</time>
      </trkpt>
      <trkpt lat="36.69715333" lon="-4.44189333">
        <ele>25</ele>
        <time>2018-04-23T13:53:42Z</time>
      </trkpt>
      <trkpt lat="36.69716333" lon="-4.44188333">
        <ele>25</ele>
        <time>2018-04-23T13:53:43Z</time>
      </trkpt>
      <trkpt lat="36.697175" lon="-4.44187167">
        <ele>25</ele>
        <time>2018-04-23T13:53:44Z</time>
      </trkpt>
      <trkpt lat="36.69718667" lon="-4.44185967">
        <ele>25</ele>
        <time>2018-04-23T13:53:45Z</time>
      </trkpt>
      <trkpt lat="36.697195" lon="-4.441845">
        <ele>25</ele>
        <time>2018-04-23T13:53:46Z</time>
      </trkpt>
      <trkpt lat="36.69719333" lon="-4.44182833">
        <ele>25</ele>
        <time>2018-04-23T13:53:47Z</time>
      </trkpt>
      <trkpt lat="36.69720333" lon="-4.44181833">
        <ele>25</ele>
        <time>2018-04-23T13:53:48Z</time>
      </trkpt>
      <trkpt lat="36.69721333" lon="-4.441815">
        <ele>25</ele>
        <time>2018-04-23T13:53:49Z</time>
      </trkpt>
      <trkpt lat="36.69722333" lon="-4.44180967">
        <ele>25</ele>
        <time>2018-04-23T13:53:50Z</time>
      </trkpt>
      <trkpt lat="36.69723667" lon="-4.441805">
        <ele>25</ele>
        <time>2018-04-23T13:53:51Z</time>
      </trkpt>
      <trkpt lat="36.69725833" lon="-4.4418">
        <ele>23</ele>
        <time>2018-04-23T13:53:52Z</time>
      </trkpt>
      <trkpt lat="36.69727167" lon="-4.441788">
        <ele>23</ele>
        <time>2018-04-23T13:53:53Z</time>
      </trkpt>
      <trkpt lat="36.69728667" lon="-4.441779">
        <ele>25</ele>
        <time>2018-04-23T13:53:54Z</time>
      </trkpt>
      <trkpt lat="36.69729667" lon="-4.441772">
        <ele>25</ele>
        <time>2018-04-23T13:53:55Z</time>
      </trkpt>
      <trkpt lat="36.69731333" lon="-4.44176433">
        <ele>25</ele>
        <time>2018-04-23T13:53:56Z</time>
      </trkpt>
      <trkpt lat="36.69732" lon="-4.441757">
        <ele>25</ele>
        <time>2018-04-23T13:53:57Z</time>
      </trkpt>
      <trkpt lat="36.69732833" lon="-4.44174667">
        <ele>25</ele>
        <time>2018-04-23T13:53:58Z</time>
      </trkpt>
      <trkpt lat="36.69734167" lon="-4.44173367">
        <ele>25</ele>
        <time>2018-04-23T13:53:59Z</time>
      </trkpt>
      <trkpt lat="36.69735333" lon="-4.44172333">
        <ele>25</ele>
        <time>2018-04-23T13:54:00Z</time>
      </trkpt>
      <trkpt lat="36.697365" lon="-4.44171333">
        <ele>25</ele>
        <time>2018-04-23T13:54:01Z</time>
      </trkpt>
      <trkpt lat="36.69738" lon="-4.441701">
        <ele>25</ele>
        <time>2018-04-23T13:54:02Z</time>
      </trkpt>
      <trkpt lat="36.697395" lon="-4.44168933">
        <ele>25</ele>
        <time>2018-04-23T13:54:03Z</time>
      </trkpt>
      <trkpt lat="36.69741" lon="-4.441677">
        <ele>25</ele>
        <time>2018-04-23T13:54:04Z</time>
      </trkpt>
      <trkpt lat="36.69742333" lon="-4.44166733">
        <ele>25</ele>
        <time>2018-04-23T13:54:05Z</time>
      </trkpt>
      <trkpt lat="36.697435" lon="-4.44165867">
        <ele>25</ele>
        <time>2018-04-23T13:54:06Z</time>
      </trkpt>
      <trkpt lat="36.69744833" lon="-4.441649">
        <ele>25</ele>
        <time>2018-04-23T13:54:07Z</time>
      </trkpt>
      <trkpt lat="36.69746167" lon="-4.44163933">
        <ele>25</ele>
        <time>2018-04-23T13:54:08Z</time>
      </trkpt>
      <trkpt lat="36.69747667" lon="-4.44162867">
        <ele>25</ele>
        <time>2018-04-23T13:54:09Z</time>
      </trkpt>
      <trkpt lat="36.69749" lon="-4.44161867">
        <ele>25</ele>
        <time>2018-04-23T13:54:10Z</time>
      </trkpt>
      <trkpt lat="36.69750167" lon="-4.44161033">
        <ele>25</ele>
        <time>2018-04-23T13:54:11Z</time>
      </trkpt>
      <trkpt lat="36.69751667" lon="-4.44160033">
        <ele>25</ele>
        <time>2018-04-23T13:54:12Z</time>
      </trkpt>
      <trkpt lat="36.69752833" lon="-4.44159267">
        <ele>25</ele>
        <time>2018-04-23T13:54:13Z</time>
      </trkpt>
      <trkpt lat="36.69754" lon="-4.44158467">
        <ele>25</ele>
        <time>2018-04-23T13:54:14Z</time>
      </trkpt>
      <trkpt lat="36.69755333" lon="-4.441576">
        <ele>25</ele>
        <time>2018-04-23T13:54:15Z</time>
      </trkpt>
      <trkpt lat="36.69756833" lon="-4.44156667">
        <ele>25</ele>
        <time>2018-04-23T13:54:16Z</time>
      </trkpt>
      <trkpt lat="36.69758167" lon="-4.44155833">
        <ele>25</ele>
        <time>2018-04-23T13:54:17Z</time>
      </trkpt>
      <trkpt lat="36.69759333" lon="-4.44155067">
        <ele>25</ele>
        <time>2018-04-23T13:54:18Z</time>
      </trkpt>
      <trkpt lat="36.69760167" lon="-4.441546">
        <ele>25</ele>
        <time>2018-04-23T13:54:19Z</time>
      </trkpt>
      <trkpt lat="36.697615" lon="-4.441537">
        <ele>25</ele>
        <time>2018-04-23T13:54:20Z</time>
      </trkpt>
      <trkpt lat="36.69762667" lon="-4.44152867">
        <ele>25</ele>
        <time>2018-04-23T13:54:21Z</time>
      </trkpt>
      <trkpt lat="36.69763833" lon="-4.44152133">
        <ele>25</ele>
        <time>2018-04-23T13:54:22Z</time>
      </trkpt>
      <trkpt lat="36.69765167" lon="-4.44151267">
        <ele>25</ele>
        <time>2018-04-23T13:54:23Z</time>
      </trkpt>
      <trkpt lat="36.69766" lon="-4.44150667">
        <ele>25</ele>
        <time>2018-04-23T13:54:24Z</time>
      </trkpt>
      <trkpt lat="36.69766833" lon="-4.441502">
        <ele>25</ele>
        <time>2018-04-23T13:54:25Z</time>
      </trkpt>
      <trkpt lat="36.69768167" lon="-4.44149267">
        <ele>25</ele>
        <time>2018-04-23T13:54:26Z</time>
      </trkpt>
      <trkpt lat="36.69769167" lon="-4.44148533">
        <ele>25</ele>
        <time>2018-04-23T13:54:27Z</time>
      </trkpt>
      <trkpt lat="36.69770167" lon="-4.44147867">
        <ele>25</ele>
        <time>2018-04-23T13:54:28Z</time>
      </trkpt>
      <trkpt lat="36.697715" lon="-4.441469">
        <ele>25</ele>
        <time>2018-04-23T13:54:29Z</time>
      </trkpt>
      <trkpt lat="36.69772667" lon="-4.44146167">
        <ele>25</ele>
        <time>2018-04-23T13:54:30Z</time>
      </trkpt>
      <trkpt lat="36.69774" lon="-4.44145233">
        <ele>25</ele>
        <time>2018-04-23T13:54:31Z</time>
      </trkpt>
      <trkpt lat="36.69775167" lon="-4.44144433">
        <ele>25</ele>
        <time>2018-04-23T13:54:32Z</time>
      </trkpt>
      <trkpt lat="36.697765" lon="-4.441435">
        <ele>25</ele>
        <time>2018-04-23T13:54:33Z</time>
      </trkpt>
      <trkpt lat="36.69777667" lon="-4.44142667">
        <ele>25</ele>
        <time>2018-04-23T13:54:34Z</time>
      </trkpt>
      <trkpt lat="36.69779167" lon="-4.44141633">
        <ele>25</ele>
        <time>2018-04-23T13:54:35Z</time>
      </trkpt>
      <trkpt lat="36.69780333" lon="-4.44140833">
        <ele>25</ele>
        <time>2018-04-23T13:54:36Z</time>
      </trkpt>
      <trkpt lat="36.697815" lon="-4.4414">
        <ele>25</ele>
        <time>2018-04-23T13:54:37Z</time>
      </trkpt>
      <trkpt lat="36.69783" lon="-4.44139033">
        <ele>25</ele>
        <time>2018-04-23T13:54:38Z</time>
      </trkpt>
      <trkpt lat="36.69784333" lon="-4.44138133">
        <ele>25</ele>
        <time>2018-04-23T13:54:39Z</time>
      </trkpt>
      <trkpt lat="36.69785333" lon="-4.44137533">
        <ele>25</ele>
        <time>2018-04-23T13:54:40Z</time>
      </trkpt>
      <trkpt lat="36.69786667" lon="-4.44136667">
        <ele>25</ele>
        <time>2018-04-23T13:54:41Z</time>
      </trkpt>
      <trkpt lat="36.69788" lon="-4.44135867">
        <ele>25</ele>
        <time>2018-04-23T13:54:42Z</time>
      </trkpt>
      <trkpt lat="36.69789167" lon="-4.44135333">
        <ele>25</ele>
        <time>2018-04-23T13:54:43Z</time>
      </trkpt>
      <trkpt lat="36.697905" lon="-4.44134533">
        <ele>25</ele>
        <time>2018-04-23T13:54:44Z</time>
      </trkpt>
      <trkpt lat="36.69792167" lon="-4.44133667">
        <ele>25</ele>
        <time>2018-04-23T13:54:45Z</time>
      </trkpt>
      <trkpt lat="36.697935" lon="-4.44133">
        <ele>25</ele>
        <time>2018-04-23T13:54:46Z</time>
      </trkpt>
      <trkpt lat="36.69795" lon="-4.44132433">
        <ele>25</ele>
        <time>2018-04-23T13:54:47Z</time>
      </trkpt>
      <trkpt lat="36.69796167" lon="-4.441318">
        <ele>25</ele>
        <time>2018-04-23T13:54:48Z</time>
      </trkpt>
      <trkpt lat="36.69796667" lon="-4.44131733">
        <ele>25</ele>
        <time>2018-04-23T13:54:49Z</time>
      </trkpt>
      <trkpt lat="36.69798" lon="-4.44131">
        <ele>25</ele>
        <time>2018-04-23T13:54:50Z</time>
      </trkpt>
      <trkpt lat="36.69798667" lon="-4.44130667">
        <ele>25</ele>
        <time>2018-04-23T13:54:51Z</time>
      </trkpt>
      <trkpt lat="36.69799667" lon="-4.44130133">
        <ele>25</ele>
        <time>2018-04-23T13:54:52Z</time>
      </trkpt>
      <trkpt lat="36.69800667" lon="-4.441295">
        <ele>25</ele>
        <time>2018-04-23T13:54:53Z</time>
      </trkpt>
      <trkpt lat="36.698015" lon="-4.44129067">
        <ele>25</ele>
        <time>2018-04-23T13:54:54Z</time>
      </trkpt>
      <trkpt lat="36.69802167" lon="-4.44128633">
        <ele>25</ele>
        <time>2018-04-23T13:54:55Z</time>
      </trkpt>
      <trkpt lat="36.69803167" lon="-4.44127933">
        <ele>25</ele>
        <time>2018-04-23T13:54:56Z</time>
      </trkpt>
      <trkpt lat="36.69803667" lon="-4.441276">
        <ele>25</ele>
        <time>2018-04-23T13:54:57Z</time>
      </trkpt>
      <trkpt lat="36.698045" lon="-4.441269">
        <ele>25</ele>
        <time>2018-04-23T13:54:58Z</time>
      </trkpt>
      <trkpt lat="36.698055" lon="-4.441261">
        <ele>25</ele>
        <time>2018-04-23T13:54:59Z</time>
      </trkpt>
      <trkpt lat="36.698065" lon="-4.441252">
        <ele>25</ele>
        <time>2018-04-23T13:55:00Z</time>
      </trkpt>
      <trkpt lat="36.698075" lon="-4.441244">
        <ele>25</ele>
        <time>2018-04-23T13:55:01Z</time>
      </trkpt>
      <trkpt lat="36.69808333" lon="-4.441237">
        <ele>25</ele>
        <time>2018-04-23T13:55:02Z</time>
      </trkpt>
      <trkpt lat="36.69809" lon="-4.44123">
        <ele>25</ele>
        <time>2018-04-23T13:55:03Z</time>
      </trkpt>
      <trkpt lat="36.69809833" lon="-4.44122267">
        <ele>25</ele>
        <time>2018-04-23T13:55:04Z</time>
      </trkpt>
      <trkpt lat="36.69810833" lon="-4.441212">
        <ele>25</ele>
        <time>2018-04-23T13:55:05Z</time>
      </trkpt>
      <trkpt lat="36.69812167" lon="-4.44120133">
        <ele>25</ele>
        <time>2018-04-23T13:55:06Z</time>
      </trkpt>
      <trkpt lat="36.69813333" lon="-4.44119067">
        <ele>25</ele>
        <time>2018-04-23T13:55:07Z</time>
      </trkpt>
      <trkpt lat="36.69814333" lon="-4.44118">
        <ele>25</ele>
        <time>2018-04-23T13:55:08Z</time>
      </trkpt>
      <trkpt lat="36.69815333" lon="-4.44117033">
        <ele>25</ele>
        <time>2018-04-23T13:55:09Z</time>
      </trkpt>
      <trkpt lat="36.698165" lon="-4.44115867">
        <ele>25</ele>
        <time>2018-04-23T13:55:10Z</time>
      </trkpt>
      <trkpt lat="36.69817167" lon="-4.44115167">
        <ele>25</ele>
        <time>2018-04-23T13:55:11Z</time>
      </trkpt>
      <trkpt lat="36.698185" lon="-4.44113933">
        <ele>25</ele>
        <time>2018-04-23T13:55:12Z</time>
      </trkpt>
      <trkpt lat="36.6982" lon="-4.441126">
        <ele>25</ele>
        <time>2018-04-23T13:55:13Z</time>
      </trkpt>
      <trkpt lat="36.69821333" lon="-4.441115">
        <ele>25</ele>
        <time>2018-04-23T13:55:14Z</time>
      </trkpt>
      <trkpt lat="36.698225" lon="-4.44110433">
        <ele>25</ele>
        <time>2018-04-23T13:55:15Z</time>
      </trkpt>
      <trkpt lat="36.69823333" lon="-4.441096">
        <ele>25</ele>
        <time>2018-04-23T13:55:16Z</time>
      </trkpt>
      <trkpt lat="36.69824167" lon="-4.44108667">
        <ele>25</ele>
        <time>2018-04-23T13:55:17Z</time>
      </trkpt>
      <trkpt lat="36.69825" lon="-4.44107833">
        <ele>25</ele>
        <time>2018-04-23T13:55:18Z</time>
      </trkpt>
      <trkpt lat="36.69826" lon="-4.44106833">
        <ele>25</ele>
        <time>2018-04-23T13:55:19Z</time>
      </trkpt>
      <trkpt lat="36.69827167" lon="-4.44105733">
        <ele>25</ele>
        <time>2018-04-23T13:55:20Z</time>
      </trkpt>
      <trkpt lat="36.69828333" lon="-4.44104633">
        <ele>25</ele>
        <time>2018-04-23T13:55:21Z</time>
      </trkpt>
      <trkpt lat="36.69829667" lon="-4.44103533">
        <ele>25</ele>
        <time>2018-04-23T13:55:22Z</time>
      </trkpt>
      <trkpt lat="36.69830833" lon="-4.44102433">
        <ele>25</ele>
        <time>2018-04-23T13:55:23Z</time>
      </trkpt>
      <trkpt lat="36.69832" lon="-4.44101367">
        <ele>25</ele>
        <time>2018-04-23T13:55:24Z</time>
      </trkpt>
      <trkpt lat="36.69833" lon="-4.44100533">
        <ele>25</ele>
        <time>2018-04-23T13:55:25Z</time>
      </trkpt>
      <trkpt lat="36.69834" lon="-4.44099533">
        <ele>25</ele>
        <time>2018-04-23T13:55:26Z</time>
      </trkpt>
      <trkpt lat="36.69835167" lon="-4.44098467">
        <ele>25</ele>
        <time>2018-04-23T13:55:27Z</time>
      </trkpt>
      <trkpt lat="36.698365" lon="-4.44097333">
        <ele>25</ele>
        <time>2018-04-23T13:55:28Z</time>
      </trkpt>
      <trkpt lat="36.69837667" lon="-4.440963">
        <ele>25</ele>
        <time>2018-04-23T13:55:29Z</time>
      </trkpt>
      <trkpt lat="36.69838833" lon="-4.440953">
        <ele>25</ele>
        <time>2018-04-23T13:55:30Z</time>
      </trkpt>
      <trkpt lat="36.6984" lon="-4.44094267">
        <ele>25</ele>
        <time>2018-04-23T13:55:31Z</time>
      </trkpt>
      <trkpt lat="36.69841333" lon="-4.440933">
        <ele>25</ele>
        <time>2018-04-23T13:55:32Z</time>
      </trkpt>
      <trkpt lat="36.69842333" lon="-4.440925">
        <ele>25</ele>
        <time>2018-04-23T13:55:33Z</time>
      </trkpt>
      <trkpt lat="36.698435" lon="-4.44091667">
        <ele>25</ele>
        <time>2018-04-23T13:55:34Z</time>
      </trkpt>
      <trkpt lat="36.698445" lon="-4.44090967">
        <ele>25</ele>
        <time>2018-04-23T13:55:35Z</time>
      </trkpt>
      <trkpt lat="36.698455" lon="-4.44090333">
        <ele>25</ele>
        <time>2018-04-23T13:55:36Z</time>
      </trkpt>
      <trkpt lat="36.69846333" lon="-4.440898">
        <ele>25</ele>
        <time>2018-04-23T13:55:37Z</time>
      </trkpt>
      <trkpt lat="36.69847667" lon="-4.440889">
        <ele>25</ele>
        <time>2018-04-23T13:55:38Z</time>
      </trkpt>
      <trkpt lat="36.698485" lon="-4.440884">
        <ele>25</ele>
        <time>2018-04-23T13:55:39Z</time>
      </trkpt>
      <trkpt lat="36.69849167" lon="-4.44088">
        <ele>25</ele>
        <time>2018-04-23T13:55:40Z</time>
      </trkpt>
      <trkpt lat="36.6985" lon="-4.440875">
        <ele>25</ele>
        <time>2018-04-23T13:55:41Z</time>
      </trkpt>
      <trkpt lat="36.69851167" lon="-4.44086767">
        <ele>25</ele>
        <time>2018-04-23T13:55:42Z</time>
      </trkpt>
      <trkpt lat="36.698525" lon="-4.44085967">
        <ele>25</ele>
        <time>2018-04-23T13:55:43Z</time>
      </trkpt>
      <trkpt lat="36.698535" lon="-4.44085367">
        <ele>25</ele>
        <time>2018-04-23T13:55:44Z</time>
      </trkpt>
      <trkpt lat="36.69854833" lon="-4.44084633">
        <ele>25</ele>
        <time>2018-04-23T13:55:45Z</time>
      </trkpt>
      <trkpt lat="36.69855833" lon="-4.44084167">
        <ele>25</ele>
        <time>2018-04-23T13:55:46Z</time>
      </trkpt>
      <trkpt lat="36.69856667" lon="-4.440837">
        <ele>25</ele>
        <time>2018-04-23T13:55:47Z</time>
      </trkpt>
      <trkpt lat="36.69858333" lon="-4.44082833">
        <ele>25</ele>
        <time>2018-04-23T13:55:48Z</time>
      </trkpt>
      <trkpt lat="36.698595" lon="-4.440823">
        <ele>25</ele>
        <time>2018-04-23T13:55:49Z</time>
      </trkpt>
      <trkpt lat="36.69861333" lon="-4.440812">
        <ele>25</ele>
        <time>2018-04-23T13:55:50Z</time>
      </trkpt>
      <trkpt lat="36.69862667" lon="-4.44080567">
        <ele>25</ele>
        <time>2018-04-23T13:55:51Z</time>
      </trkpt>
      <trkpt lat="36.698635" lon="-4.44080333">
        <ele>25</ele>
        <time>2018-04-23T13:55:52Z</time>
      </trkpt>
      <trkpt lat="36.698645" lon="-4.44079733">
        <ele>25</ele>
        <time>2018-04-23T13:55:53Z</time>
      </trkpt>
      <trkpt lat="36.69865167" lon="-4.44079367">
        <ele>25</ele>
        <time>2018-04-23T13:55:54Z</time>
      </trkpt>
      <trkpt lat="36.698665" lon="-4.440785">
        <ele>25</ele>
        <time>2018-04-23T13:55:55Z</time>
      </trkpt>
      <trkpt lat="36.69867333" lon="-4.44077933">
        <ele>25</ele>
        <time>2018-04-23T13:55:56Z</time>
      </trkpt>
      <trkpt lat="36.69868333" lon="-4.440772">
        <ele>25</ele>
        <time>2018-04-23T13:55:57Z</time>
      </trkpt>
      <trkpt lat="36.69869" lon="-4.44076733">
        <ele>25</ele>
        <time>2018-04-23T13:55:58Z</time>
      </trkpt>
      <trkpt lat="36.698695" lon="-4.44075167">
        <ele>25</ele>
        <time>2018-04-23T13:55:59Z</time>
      </trkpt>
      <trkpt lat="36.69870667" lon="-4.44074333">
        <ele>25</ele>
        <time>2018-04-23T13:56:00Z</time>
      </trkpt>
      <trkpt lat="36.69871667" lon="-4.44073667">
        <ele>25</ele>
        <time>2018-04-23T13:56:01Z</time>
      </trkpt>
      <trkpt lat="36.69873167" lon="-4.440734">
        <ele>25</ele>
        <time>2018-04-23T13:56:02Z</time>
      </trkpt>
      <trkpt lat="36.69874333" lon="-4.44072867">
        <ele>25</ele>
        <time>2018-04-23T13:56:03Z</time>
      </trkpt>
      <trkpt lat="36.698755" lon="-4.440722">
        <ele>25</ele>
        <time>2018-04-23T13:56:04Z</time>
      </trkpt>
      <trkpt lat="36.69876333" lon="-4.44071333">
        <ele>25</ele>
        <time>2018-04-23T13:56:05Z</time>
      </trkpt>
      <trkpt lat="36.69877167" lon="-4.44070667">
        <ele>25</ele>
        <time>2018-04-23T13:56:06Z</time>
      </trkpt>
      <trkpt lat="36.69878333" lon="-4.44069633">
        <ele>25</ele>
        <time>2018-04-23T13:56:07Z</time>
      </trkpt>
      <trkpt lat="36.69879667" lon="-4.440686">
        <ele>25</ele>
        <time>2018-04-23T13:56:08Z</time>
      </trkpt>
      <trkpt lat="36.69880833" lon="-4.44067667">
        <ele>25</ele>
        <time>2018-04-23T13:56:09Z</time>
      </trkpt>
      <trkpt lat="36.69882" lon="-4.440667">
        <ele>25</ele>
        <time>2018-04-23T13:56:10Z</time>
      </trkpt>
      <trkpt lat="36.69883333" lon="-4.44065633">
        <ele>25</ele>
        <time>2018-04-23T13:56:11Z</time>
      </trkpt>
      <trkpt lat="36.698845" lon="-4.44064833">
        <ele>25</ele>
        <time>2018-04-23T13:56:12Z</time>
      </trkpt>
      <trkpt lat="36.698855" lon="-4.44064067">
        <ele>25</ele>
        <time>2018-04-23T13:56:13Z</time>
      </trkpt>
      <trkpt lat="36.69886667" lon="-4.44063267">
        <ele>25</ele>
        <time>2018-04-23T13:56:14Z</time>
      </trkpt>
      <trkpt lat="36.69888" lon="-4.44062367">
        <ele>25</ele>
        <time>2018-04-23T13:56:15Z</time>
      </trkpt>
      <trkpt lat="36.69889333" lon="-4.44061467">
        <ele>25</ele>
        <time>2018-04-23T13:56:16Z</time>
      </trkpt>
      <trkpt lat="36.69890667" lon="-4.44060567">
        <ele>25</ele>
        <time>2018-04-23T13:56:17Z</time>
      </trkpt>
      <trkpt lat="36.69892" lon="-4.44059733">
        <ele>25</ele>
        <time>2018-04-23T13:56:18Z</time>
      </trkpt>
      <trkpt lat="36.69893333" lon="-4.440589">
        <ele>25</ele>
        <time>2018-04-23T13:56:19Z</time>
      </trkpt>
      <trkpt lat="36.69894667" lon="-4.44058067">
        <ele>25</ele>
        <time>2018-04-23T13:56:20Z</time>
      </trkpt>
      <trkpt lat="36.69895667" lon="-4.44057333">
        <ele>25</ele>
        <time>2018-04-23T13:56:21Z</time>
      </trkpt>
      <trkpt lat="36.69896833" lon="-4.44056467">
        <ele>25</ele>
        <time>2018-04-23T13:56:22Z</time>
      </trkpt>
      <trkpt lat="36.69898" lon="-4.44055633">
        <ele>25</ele>
        <time>2018-04-23T13:56:23Z</time>
      </trkpt>
      <trkpt lat="36.69899333" lon="-4.44054767">
        <ele>25</ele>
        <time>2018-04-23T13:56:24Z</time>
      </trkpt>
      <trkpt lat="36.699005" lon="-4.44053933">
        <ele>25</ele>
        <time>2018-04-23T13:56:25Z</time>
      </trkpt>
      <trkpt lat="36.699015" lon="-4.44053167">
        <ele>25</ele>
        <time>2018-04-23T13:56:26Z</time>
      </trkpt>
      <trkpt lat="36.69902667" lon="-4.44052367">
        <ele>25</ele>
        <time>2018-04-23T13:56:27Z</time>
      </trkpt>
      <trkpt lat="36.69904" lon="-4.44051467">
        <ele>25</ele>
        <time>2018-04-23T13:56:28Z</time>
      </trkpt>
      <trkpt lat="36.69905167" lon="-4.440507">
        <ele>25</ele>
        <time>2018-04-23T13:56:29Z</time>
      </trkpt>
      <trkpt lat="36.69906" lon="-4.440502">
        <ele>25</ele>
        <time>2018-04-23T13:56:30Z</time>
      </trkpt>
      <trkpt lat="36.69907" lon="-4.440495">
        <ele>25</ele>
        <time>2018-04-23T13:56:31Z</time>
      </trkpt>
      <trkpt lat="36.69908167" lon="-4.44048667">
        <ele>25</ele>
        <time>2018-04-23T13:56:32Z</time>
      </trkpt>
      <trkpt lat="36.699095" lon="-4.44047733">
        <ele>25</ele>
        <time>2018-04-23T13:56:33Z</time>
      </trkpt>
      <trkpt lat="36.69910667" lon="-4.44046933">
        <ele>25</ele>
        <time>2018-04-23T13:56:34Z</time>
      </trkpt>
      <trkpt lat="36.699125" lon="-4.44045767">
        <ele>25</ele>
        <time>2018-04-23T13:56:35Z</time>
      </trkpt>
      <trkpt lat="36.699135" lon="-4.440451">
        <ele>25</ele>
        <time>2018-04-23T13:56:36Z</time>
      </trkpt>
      <trkpt lat="36.69914667" lon="-4.440443">
        <ele>25</ele>
        <time>2018-04-23T13:56:37Z</time>
      </trkpt>
      <trkpt lat="36.69915667" lon="-4.440436">
        <ele>25</ele>
        <time>2018-04-23T13:56:38Z</time>
      </trkpt>
      <trkpt lat="36.699165" lon="-4.44043033">
        <ele>25</ele>
        <time>2018-04-23T13:56:39Z</time>
      </trkpt>
      <trkpt lat="36.69917667" lon="-4.440421">
        <ele>25</ele>
        <time>2018-04-23T13:56:40Z</time>
      </trkpt>
      <trkpt lat="36.69919" lon="-4.440412">
        <ele>25</ele>
        <time>2018-04-23T13:56:41Z</time>
      </trkpt>
      <trkpt lat="36.69920667" lon="-4.44040067">
        <ele>25</ele>
        <time>2018-04-23T13:56:41Z</time>
      </trkpt>
      <trkpt lat="36.69922" lon="-4.44039233">
        <ele>25</ele>
        <time>2018-04-23T13:56:42Z</time>
      </trkpt>
      <trkpt lat="36.69923" lon="-4.44038533">
        <ele>25</ele>
        <time>2018-04-23T13:56:43Z</time>
      </trkpt>
      <trkpt lat="36.69924" lon="-4.44037867">
        <ele>25</ele>
        <time>2018-04-23T13:56:44Z</time>
      </trkpt>
      <trkpt lat="36.69925" lon="-4.44037067">
        <ele>25</ele>
        <time>2018-04-23T13:56:45Z</time>
      </trkpt>
      <trkpt lat="36.69925833" lon="-4.44036467">
        <ele>25</ele>
        <time>2018-04-23T13:56:46Z</time>
      </trkpt>
      <trkpt lat="36.69926667" lon="-4.44035867">
        <ele>25</ele>
        <time>2018-04-23T13:56:47Z</time>
      </trkpt>
      <trkpt lat="36.69927667" lon="-4.44035167">
        <ele>25</ele>
        <time>2018-04-23T13:56:48Z</time>
      </trkpt>
      <trkpt lat="36.69928667" lon="-4.440344">
        <ele>25</ele>
        <time>2018-04-23T13:56:49Z</time>
      </trkpt>
      <trkpt lat="36.69929667" lon="-4.44033667">
        <ele>25</ele>
        <time>2018-04-23T13:56:50Z</time>
      </trkpt>
      <trkpt lat="36.69930833" lon="-4.44032833">
        <ele>25</ele>
        <time>2018-04-23T13:56:51Z</time>
      </trkpt>
      <trkpt lat="36.69931667" lon="-4.44032233">
        <ele>25</ele>
        <time>2018-04-23T13:56:52Z</time>
      </trkpt>
      <trkpt lat="36.69932667" lon="-4.44031533">
        <ele>25</ele>
        <time>2018-04-23T13:56:53Z</time>
      </trkpt>
      <trkpt lat="36.699335" lon="-4.440309">
        <ele>25</ele>
        <time>2018-04-23T13:56:54Z</time>
      </trkpt>
      <trkpt lat="36.69934667" lon="-4.4403">
        <ele>25</ele>
        <time>2018-04-23T13:56:55Z</time>
      </trkpt>
      <trkpt lat="36.69936" lon="-4.44029033">
        <ele>25</ele>
        <time>2018-04-23T13:56:56Z</time>
      </trkpt>
      <trkpt lat="36.69937333" lon="-4.44028133">
        <ele>25</ele>
        <time>2018-04-23T13:56:57Z</time>
      </trkpt>
      <trkpt lat="36.69938333" lon="-4.440273">
        <ele>25</ele>
        <time>2018-04-23T13:56:58Z</time>
      </trkpt>
      <trkpt lat="36.699395" lon="-4.44026467">
        <ele>25</ele>
        <time>2018-04-23T13:56:59Z</time>
      </trkpt>
      <trkpt lat="36.69940667" lon="-4.44025533">
        <ele>25</ele>
        <time>2018-04-23T13:57:00Z</time>
      </trkpt>
      <trkpt lat="36.69941833" lon="-4.44024733">
        <ele>25</ele>
        <time>2018-04-23T13:57:01Z</time>
      </trkpt>
      <trkpt lat="36.69943333" lon="-4.44023567">
        <ele>25</ele>
        <time>2018-04-23T13:57:02Z</time>
      </trkpt>
      <trkpt lat="36.69944667" lon="-4.44022633">
        <ele>25</ele>
        <time>2018-04-23T13:57:03Z</time>
      </trkpt>
      <trkpt lat="36.69946" lon="-4.44021833">
        <ele>25</ele>
        <time>2018-04-23T13:57:04Z</time>
      </trkpt>
      <trkpt lat="36.69947" lon="-4.44021133">
        <ele>25</ele>
        <time>2018-04-23T13:57:05Z</time>
      </trkpt>
      <trkpt lat="36.69947833" lon="-4.440207">
        <ele>25</ele>
        <time>2018-04-23T13:57:06Z</time>
      </trkpt>
      <trkpt lat="36.69949" lon="-4.44019867">
        <ele>25</ele>
        <time>2018-04-23T13:57:07Z</time>
      </trkpt>
      <trkpt lat="36.6995" lon="-4.440192">
        <ele>25</ele>
        <time>2018-04-23T13:57:08Z</time>
      </trkpt>
      <trkpt lat="36.69951" lon="-4.44018467">
        <ele>25</ele>
        <time>2018-04-23T13:57:09Z</time>
      </trkpt>
      <trkpt lat="36.69952" lon="-4.44017767">
        <ele>25</ele>
        <time>2018-04-23T13:57:10Z</time>
      </trkpt>
      <trkpt lat="36.69953167" lon="-4.44016933">
        <ele>25</ele>
        <time>2018-04-23T13:57:11Z</time>
      </trkpt>
      <trkpt lat="36.69954167" lon="-4.44016267">
        <ele>25</ele>
        <time>2018-04-23T13:57:12Z</time>
      </trkpt>
      <trkpt lat="36.69955333" lon="-4.44015433">
        <ele>25</ele>
        <time>2018-04-23T13:57:13Z</time>
      </trkpt>
      <trkpt lat="36.699565" lon="-4.44014633">
        <ele>25</ele>
        <time>2018-04-23T13:57:14Z</time>
      </trkpt>
      <trkpt lat="36.699575" lon="-4.440139">
        <ele>25</ele>
        <time>2018-04-23T13:57:15Z</time>
      </trkpt>
      <trkpt lat="36.69958" lon="-4.44013467">
        <ele>25</ele>
        <time>2018-04-23T13:57:16Z</time>
      </trkpt>
      <trkpt lat="36.69959" lon="-4.44012733">
        <ele>25</ele>
        <time>2018-04-23T13:57:17Z</time>
      </trkpt>
      <trkpt lat="36.69959833" lon="-4.44012133">
        <ele>25</ele>
        <time>2018-04-23T13:57:18Z</time>
      </trkpt>
      <trkpt lat="36.69961167" lon="-4.44011067">
        <ele>25</ele>
        <time>2018-04-23T13:57:19Z</time>
      </trkpt>
      <trkpt lat="36.699625" lon="-4.440101">
        <ele>25</ele>
        <time>2018-04-23T13:57:20Z</time>
      </trkpt>
      <trkpt lat="36.69963833" lon="-4.440093">
        <ele>25</ele>
        <time>2018-04-23T13:57:21Z</time>
      </trkpt>
      <trkpt lat="36.69964667" lon="-4.440087">
        <ele>25</ele>
        <time>2018-04-23T13:57:22Z</time>
      </trkpt>
      <trkpt lat="36.69965333" lon="-4.44008233">
        <ele>25</ele>
        <time>2018-04-23T13:57:23Z</time>
      </trkpt>
      <trkpt lat="36.69966167" lon="-4.44007733">
        <ele>25</ele>
        <time>2018-04-23T13:57:24Z</time>
      </trkpt>
      <trkpt lat="36.69967" lon="-4.44007267">
        <ele>25</ele>
        <time>2018-04-23T13:57:25Z</time>
      </trkpt>
      <trkpt lat="36.69968167" lon="-4.44006567">
        <ele>25</ele>
        <time>2018-04-23T13:57:26Z</time>
      </trkpt>
      <trkpt lat="36.69969" lon="-4.440061">
        <ele>25</ele>
        <time>2018-04-23T13:57:27Z</time>
      </trkpt>
      <trkpt lat="36.69969667" lon="-4.44005667">
        <ele>25</ele>
        <time>2018-04-23T13:57:28Z</time>
      </trkpt>
      <trkpt lat="36.699705" lon="-4.440052">
        <ele>25</ele>
        <time>2018-04-23T13:57:29Z</time>
      </trkpt>
      <trkpt lat="36.69972" lon="-4.44004433">
        <ele>25</ele>
        <time>2018-04-23T13:57:30Z</time>
      </trkpt>
      <trkpt lat="36.69973333" lon="-4.44008667">
        <ele>25</ele>
        <time>2018-04-23T13:57:31Z</time>
      </trkpt>
      <trkpt lat="36.69974167" lon="-4.44009167">
        <ele>25</ele>
        <time>2018-04-23T13:57:32Z</time>
      </trkpt>
      <trkpt lat="36.69975333" lon="-4.44009833">
        <ele>25</ele>
        <time>2018-04-23T13:57:33Z</time>
      </trkpt>
      <trkpt lat="36.699755" lon="-4.44010667">
        <ele>25</ele>
        <time>2018-04-23T13:57:34Z</time>
      </trkpt>
      <trkpt lat="36.69975667" lon="-4.44011667">
        <ele>25</ele>
        <time>2018-04-23T13:57:35Z</time>
      </trkpt>
      <trkpt lat="36.69975833" lon="-4.440125">
        <ele>25</ele>
        <time>2018-04-23T13:57:36Z</time>
      </trkpt>
      <trkpt lat="36.69976167" lon="-4.44013333">
        <ele>25</ele>
        <time>2018-04-23T13:57:37Z</time>
      </trkpt>
      <trkpt lat="36.69976833" lon="-4.44014">
        <ele>25</ele>
        <time>2018-04-23T13:57:38Z</time>
      </trkpt>
      <trkpt lat="36.69976833" lon="-4.44014667">
        <ele>25</ele>
        <time>2018-04-23T13:57:39Z</time>
      </trkpt>
      <trkpt lat="36.69977367" lon="-4.44014833">
        <ele>25</ele>
        <time>2018-04-23T13:57:40Z</time>
      </trkpt>
      <trkpt lat="36.699779" lon="-4.44015167">
        <ele>25</ele>
        <time>2018-04-23T13:57:41Z</time>
      </trkpt>
      <trkpt lat="36.69978767" lon="-4.44015833">
        <ele>25</ele>
        <time>2018-04-23T13:57:43Z</time>
      </trkpt>
      <trkpt lat="36.69979333" lon="-4.440165">
        <ele>25</ele>
        <time>2018-04-23T13:57:43Z</time>
      </trkpt>
      <trkpt lat="36.69980333" lon="-4.44017333">
        <ele>25</ele>
        <time>2018-04-23T13:57:44Z</time>
      </trkpt>
      <trkpt lat="36.69981067" lon="-4.44018167">
        <ele>25</ele>
        <time>2018-04-23T13:57:45Z</time>
      </trkpt>
      <trkpt lat="36.69981433" lon="-4.44018667">
        <ele>25</ele>
        <time>2018-04-23T13:57:46Z</time>
      </trkpt>
      <trkpt lat="36.699811" lon="-4.44018833">
        <ele>25</ele>
        <time>2018-04-23T13:57:47Z</time>
      </trkpt>
      <trkpt lat="36.69981133" lon="-4.44019167">
        <ele>25</ele>
        <time>2018-04-23T13:57:48Z</time>
      </trkpt>
      <trkpt lat="36.69980667" lon="-4.44018667">
        <ele>25</ele>
        <time>2018-04-23T13:57:49Z</time>
      </trkpt>
      <trkpt lat="36.699801" lon="-4.44017833">
        <ele>25</ele>
        <time>2018-04-23T13:57:50Z</time>
      </trkpt>
      <trkpt lat="36.699805" lon="-4.44017167">
        <ele>25</ele>
        <time>2018-04-23T13:57:51Z</time>
      </trkpt>
      <trkpt lat="36.69980333" lon="-4.44016267">
        <ele>25</ele>
        <time>2018-04-23T13:57:52Z</time>
      </trkpt>
      <trkpt lat="36.69980167" lon="-4.44015433">
        <ele>25</ele>
        <time>2018-04-23T13:57:53Z</time>
      </trkpt>
      <trkpt lat="36.69980167" lon="-4.440153">
        <ele>25</ele>
        <time>2018-04-23T13:57:54Z</time>
      </trkpt>
      <trkpt lat="36.69980167" lon="-4.440148">
        <ele>25</ele>
        <time>2018-04-23T13:57:55Z</time>
      </trkpt>
      <trkpt lat="36.69980333" lon="-4.44015433">
        <ele>26</ele>
        <time>2018-04-23T13:57:56Z</time>
      </trkpt>
      <trkpt lat="36.69980333" lon="-4.44011833">
        <ele>26</ele>
        <time>2018-04-23T13:57:57Z</time>
      </trkpt>
      <trkpt lat="36.699805" lon="-4.44011333">
        <ele>26</ele>
        <time>2018-04-23T13:57:58Z</time>
      </trkpt>
      <trkpt lat="36.69981167" lon="-4.440105">
        <ele>26</ele>
        <time>2018-04-23T13:57:59Z</time>
      </trkpt>
      <trkpt lat="36.69981333" lon="-4.44009833">
        <ele>26</ele>
        <time>2018-04-23T13:58:00Z</time>
      </trkpt>
      <trkpt lat="36.69981667" lon="-4.44009667">
        <ele>26</ele>
        <time>2018-04-23T13:58:01Z</time>
      </trkpt>
      <trkpt lat="36.69982033" lon="-4.44009833">
        <ele>26</ele>
        <time>2018-04-23T13:58:02Z</time>
      </trkpt>
      <trkpt lat="36.69982033" lon="-4.44010167">
        <ele>26</ele>
        <time>2018-04-23T13:58:03Z</time>
      </trkpt>
      <trkpt lat="36.699822" lon="-4.44010167">
        <ele>26</ele>
        <time>2018-04-23T13:58:04Z</time>
      </trkpt>
      <trkpt lat="36.699827" lon="-4.44010833">
        <ele>26</ele>
        <time>2018-04-23T13:58:05Z</time>
      </trkpt>
      <trkpt lat="36.699832" lon="-4.440115">
        <ele>26</ele>
        <time>2018-04-23T13:58:06Z</time>
      </trkpt>
      <trkpt lat="36.69984033" lon="-4.44012333">
        <ele>26</ele>
        <time>2018-04-23T13:58:07Z</time>
      </trkpt>
      <trkpt lat="36.69984333" lon="-4.44012667">
        <ele>26</ele>
        <time>2018-04-23T13:58:08Z</time>
      </trkpt>
      <trkpt lat="36.69984433" lon="-4.44013167">
        <ele>26</ele>
        <time>2018-04-23T13:58:09Z</time>
      </trkpt>
      <trkpt lat="36.699847" lon="-4.44013667">
        <ele>26</ele>
        <time>2018-04-23T13:58:10Z</time>
      </trkpt>
      <trkpt lat="36.69984867" lon="-4.440135">
        <ele>26</ele>
        <time>2018-04-23T13:58:11Z</time>
      </trkpt>
      <trkpt lat="36.69986667" lon="-4.44012833">
        <ele>26</ele>
        <time>2018-04-23T13:58:12Z</time>
      </trkpt>
      <trkpt lat="36.69988167" lon="-4.44011667">
        <ele>26</ele>
        <time>2018-04-23T13:58:13Z</time>
      </trkpt>
      <trkpt lat="36.69989667" lon="-4.44010167">
        <ele>26</ele>
        <time>2018-04-23T13:58:14Z</time>
      </trkpt>
      <trkpt lat="36.69991167" lon="-4.44008667">
        <ele>26</ele>
        <time>2018-04-23T13:58:15Z</time>
      </trkpt>
      <trkpt lat="36.69992167" lon="-4.44007667">
        <ele>26</ele>
        <time>2018-04-23T13:58:16Z</time>
      </trkpt>
      <trkpt lat="36.69992833" lon="-4.44006833">
        <ele>26</ele>
        <time>2018-04-23T13:58:17Z</time>
      </trkpt>
      <trkpt lat="36.69993167" lon="-4.44006">
        <ele>26</ele>
        <time>2018-04-23T13:58:18Z</time>
      </trkpt>
      <trkpt lat="36.69993167" lon="-4.440055">
        <ele>26</ele>
        <time>2018-04-23T13:58:19Z</time>
      </trkpt>
      <trkpt lat="36.69993167" lon="-4.44005">
        <ele>26</ele>
        <time>2018-04-23T13:58:20Z</time>
      </trkpt>
      <trkpt lat="36.69993333" lon="-4.44003833">
        <ele>26</ele>
        <time>2018-04-23T13:58:21Z</time>
      </trkpt>
      <trkpt lat="36.69992833" lon="-4.440025">
        <ele>26</ele>
        <time>2018-04-23T13:58:22Z</time>
      </trkpt>
      <trkpt lat="36.699925" lon="-4.44000833">
        <ele>26</ele>
        <time>2018-04-23T13:58:23Z</time>
      </trkpt>
      <trkpt lat="36.69992167" lon="-4.43999333">
        <ele>26</ele>
        <time>2018-04-23T13:58:24Z</time>
      </trkpt>
      <trkpt lat="36.69992167" lon="-4.439985">
        <ele>26</ele>
        <time>2018-04-23T13:58:25Z</time>
      </trkpt>
      <trkpt lat="36.699927" lon="-4.439975">
        <ele>25</ele>
        <time>2018-04-23T13:58:26Z</time>
      </trkpt>
      <trkpt lat="36.69993233" lon="-4.439965">
        <ele>25</ele>
        <time>2018-04-23T13:58:27Z</time>
      </trkpt>
      <trkpt lat="36.69994" lon="-4.43995833">
        <ele>25</ele>
        <time>2018-04-23T13:58:28Z</time>
      </trkpt>
      <trkpt lat="36.699955" lon="-4.43995167">
        <ele>25</ele>
        <time>2018-04-23T13:58:29Z</time>
      </trkpt>
      <trkpt lat="36.69996833" lon="-4.43994333">
        <ele>25</ele>
        <time>2018-04-23T13:58:30Z</time>
      </trkpt>
      <trkpt lat="36.69998" lon="-4.439935">
        <ele>25</ele>
        <time>2018-04-23T13:58:31Z</time>
      </trkpt>
      <trkpt lat="36.699998" lon="-4.439915">
        <ele>26</ele>
        <time>2018-04-23T13:58:32Z</time>
      </trkpt>
      <trkpt lat="36.70001167" lon="-4.4399">
        <ele>26</ele>
        <time>2018-04-23T13:58:33Z</time>
      </trkpt>
      <trkpt lat="36.70002667" lon="-4.43989">
        <ele>26</ele>
        <time>2018-04-23T13:58:34Z</time>
      </trkpt>
      <trkpt lat="36.70003333" lon="-4.43988">
        <ele>26</ele>
        <time>2018-04-23T13:58:35Z</time>
      </trkpt>
      <trkpt lat="36.70004" lon="-4.43987167">
        <ele>26</ele>
        <time>2018-04-23T13:58:36Z</time>
      </trkpt>
      <trkpt lat="36.70004833" lon="-4.43986667">
        <ele>26</ele>
        <time>2018-04-23T13:58:37Z</time>
      </trkpt>
      <trkpt lat="36.700055" lon="-4.43986167">
        <ele>26</ele>
        <time>2018-04-23T13:58:38Z</time>
      </trkpt>
      <trkpt lat="36.70006667" lon="-4.43985667">
        <ele>26</ele>
        <time>2018-04-23T13:58:39Z</time>
      </trkpt>
      <trkpt lat="36.70007667" lon="-4.43984">
        <ele>26</ele>
        <time>2018-04-23T13:58:40Z</time>
      </trkpt>
      <trkpt lat="36.70008667" lon="-4.439833">
        <ele>26</ele>
        <time>2018-04-23T13:58:41Z</time>
      </trkpt>
      <trkpt lat="36.70009" lon="-4.439829">
        <ele>26</ele>
        <time>2018-04-23T13:58:42Z</time>
      </trkpt>
      <trkpt lat="36.7001" lon="-4.43982">
        <ele>26</ele>
        <time>2018-04-23T13:58:43Z</time>
      </trkpt>
      <trkpt lat="36.700105" lon="-4.43980833">
        <ele>26</ele>
        <time>2018-04-23T13:58:44Z</time>
      </trkpt>
      <trkpt lat="36.70010833" lon="-4.43979667">
        <ele>25</ele>
        <time>2018-04-23T13:58:45Z</time>
      </trkpt>
      <trkpt lat="36.70012" lon="-4.43978333">
        <ele>25</ele>
        <time>2018-04-23T13:58:46Z</time>
      </trkpt>
      <trkpt lat="36.70013" lon="-4.43976833">
        <ele>25</ele>
        <time>2018-04-23T13:58:47Z</time>
      </trkpt>
      <trkpt lat="36.70013667" lon="-4.439755">
        <ele>25</ele>
        <time>2018-04-23T13:58:48Z</time>
      </trkpt>
      <trkpt lat="36.70013967" lon="-4.439745">
        <ele>25</ele>
        <time>2018-04-23T13:58:49Z</time>
      </trkpt>
      <trkpt lat="36.700144" lon="-4.439735">
        <ele>25</ele>
        <time>2018-04-23T13:58:50Z</time>
      </trkpt>
      <trkpt lat="36.70014733" lon="-4.439725">
        <ele>25</ele>
        <time>2018-04-23T13:58:51Z</time>
      </trkpt>
      <trkpt lat="36.70015233" lon="-4.43970833">
        <ele>25</ele>
        <time>2018-04-23T13:58:52Z</time>
      </trkpt>
      <trkpt lat="36.70015867" lon="-4.43969167">
        <ele>25</ele>
        <time>2018-04-23T13:58:53Z</time>
      </trkpt>
      <trkpt lat="36.700164" lon="-4.439685">
        <ele>25</ele>
        <time>2018-04-23T13:58:54Z</time>
      </trkpt>
      <trkpt lat="36.700175" lon="-4.439665">
        <ele>25</ele>
        <time>2018-04-23T13:58:55Z</time>
      </trkpt>
      <trkpt lat="36.700185" lon="-4.439645">
        <ele>25</ele>
        <time>2018-04-23T13:58:56Z</time>
      </trkpt>
      <trkpt lat="36.70019333" lon="-4.43962833">
        <ele>25</ele>
        <time>2018-04-23T13:58:57Z</time>
      </trkpt>
      <trkpt lat="36.700201" lon="-4.43961333">
        <ele>25</ele>
        <time>2018-04-23T13:58:58Z</time>
      </trkpt>
      <trkpt lat="36.700209" lon="-4.43959667">
        <ele>25</ele>
        <time>2018-04-23T13:58:59Z</time>
      </trkpt>
      <trkpt lat="36.700217" lon="-4.43958333">
        <ele>25</ele>
        <time>2018-04-23T13:59:00Z</time>
      </trkpt>
      <trkpt lat="36.70022133" lon="-4.43957833">
        <ele>25</ele>
        <time>2018-04-23T13:59:01Z</time>
      </trkpt>
      <trkpt lat="36.700223" lon="-4.43957833">
        <ele>25</ele>
        <time>2018-04-23T13:59:02Z</time>
      </trkpt>
      <trkpt lat="36.700223" lon="-4.43958167">
        <ele>25</ele>
        <time>2018-04-23T13:59:03Z</time>
      </trkpt>
      <trkpt lat="36.70024667" lon="-4.43957167">
        <ele>25</ele>
        <time>2018-04-23T13:59:04Z</time>
      </trkpt>
      <trkpt lat="36.70025667" lon="-4.43956633">
        <ele>26</ele>
        <time>2018-04-23T13:59:05Z</time>
      </trkpt>
      <trkpt lat="36.70026333" lon="-4.439555">
        <ele>26</ele>
        <time>2018-04-23T13:59:06Z</time>
      </trkpt>
      <trkpt lat="36.70027833" lon="-4.43953967">
        <ele>26</ele>
        <time>2018-04-23T13:59:07Z</time>
      </trkpt>
      <trkpt lat="36.70029333" lon="-4.439522">
        <ele>26</ele>
        <time>2018-04-23T13:59:08Z</time>
      </trkpt>
      <trkpt lat="36.70030833" lon="-4.43951167">
        <ele>26</ele>
        <time>2018-04-23T13:59:09Z</time>
      </trkpt>
      <trkpt lat="36.70032167" lon="-4.439504">
        <ele>26</ele>
        <time>2018-04-23T13:59:10Z</time>
      </trkpt>
      <trkpt lat="36.70033" lon="-4.43949433">
        <ele>26</ele>
        <time>2018-04-23T13:59:11Z</time>
      </trkpt>
      <trkpt lat="36.70034" lon="-4.43948367">
        <ele>26</ele>
        <time>2018-04-23T13:59:12Z</time>
      </trkpt>
      <trkpt lat="36.700355" lon="-4.43946867">
        <ele>26</ele>
        <time>2018-04-23T13:59:13Z</time>
      </trkpt>
      <trkpt lat="36.70036833" lon="-4.43945567">
        <ele>26</ele>
        <time>2018-04-23T13:59:14Z</time>
      </trkpt>
      <trkpt lat="36.70038167" lon="-4.439445">
        <ele>26</ele>
        <time>2018-04-23T13:59:15Z</time>
      </trkpt>
      <trkpt lat="36.700395" lon="-4.43943467">
        <ele>26</ele>
        <time>2018-04-23T13:59:16Z</time>
      </trkpt>
      <trkpt lat="36.70040833" lon="-4.43942667">
        <ele>26</ele>
        <time>2018-04-23T13:59:17Z</time>
      </trkpt>
      <trkpt lat="36.70042167" lon="-4.43944167">
        <ele>26</ele>
        <time>2018-04-23T13:59:18Z</time>
      </trkpt>
      <trkpt lat="36.70043" lon="-4.43943833">
        <ele>26</ele>
        <time>2018-04-23T13:59:19Z</time>
      </trkpt>
      <trkpt lat="36.700445" lon="-4.439433">
        <ele>26</ele>
        <time>2018-04-23T13:59:20Z</time>
      </trkpt>
      <trkpt lat="36.70045833" lon="-4.43943367">
        <ele>26</ele>
        <time>2018-04-23T13:59:21Z</time>
      </trkpt>
      <trkpt lat="36.70047333" lon="-4.439434">
        <ele>26</ele>
        <time>2018-04-23T13:59:22Z</time>
      </trkpt>
      <trkpt lat="36.70049" lon="-4.43944167">
        <ele>26</ele>
        <time>2018-04-23T13:59:23Z</time>
      </trkpt>
      <trkpt lat="36.70050333" lon="-4.43943167">
        <ele>26</ele>
        <time>2018-04-23T13:59:24Z</time>
      </trkpt>
      <trkpt lat="36.70050667" lon="-4.43943467">
        <ele>26</ele>
        <time>2018-04-23T13:59:25Z</time>
      </trkpt>
      <trkpt lat="36.700515" lon="-4.43943067">
        <ele>26</ele>
        <time>2018-04-23T13:59:26Z</time>
      </trkpt>
      <trkpt lat="36.70052167" lon="-4.439435">
        <ele>26</ele>
        <time>2018-04-23T13:59:27Z</time>
      </trkpt>
      <trkpt lat="36.70054" lon="-4.439433">
        <ele>26</ele>
        <time>2018-04-23T13:59:28Z</time>
      </trkpt>
      <trkpt lat="36.70055667" lon="-4.43942867">
        <ele>26</ele>
        <time>2018-04-23T13:59:29Z</time>
      </trkpt>
      <trkpt lat="36.70057" lon="-4.43942667">
        <ele>26</ele>
        <time>2018-04-23T13:59:30Z</time>
      </trkpt>
      <trkpt lat="36.70058" lon="-4.43942333">
        <ele>26</ele>
        <time>2018-04-23T13:59:31Z</time>
      </trkpt>
      <trkpt lat="36.70058667" lon="-4.43942">
        <ele>26</ele>
        <time>2018-04-23T13:59:32Z</time>
      </trkpt>
      <trkpt lat="36.70059833" lon="-4.43941333">
        <ele>26</ele>
        <time>2018-04-23T13:59:33Z</time>
      </trkpt>
      <trkpt lat="36.70061" lon="-4.43940833">
        <ele>26</ele>
        <time>2018-04-23T13:59:34Z</time>
      </trkpt>
      <trkpt lat="36.70062167" lon="-4.439403">
        <ele>26</ele>
        <time>2018-04-23T13:59:35Z</time>
      </trkpt>
      <trkpt lat="36.70063" lon="-4.439397">
        <ele>26</ele>
        <time>2018-04-23T13:59:36Z</time>
      </trkpt>
      <trkpt lat="36.70064" lon="-4.439389">
        <ele>26</ele>
        <time>2018-04-23T13:59:37Z</time>
      </trkpt>
      <trkpt lat="36.70064833" lon="-4.43938">
        <ele>26</ele>
        <time>2018-04-23T13:59:38Z</time>
      </trkpt>
      <trkpt lat="36.70065333" lon="-4.43937167">
        <ele>26</ele>
        <time>2018-04-23T13:59:39Z</time>
      </trkpt>
      <trkpt lat="36.70065833" lon="-4.439365">
        <ele>26</ele>
        <time>2018-04-23T13:59:40Z</time>
      </trkpt>
      <trkpt lat="36.70067" lon="-4.439355">
        <ele>26</ele>
        <time>2018-04-23T13:59:41Z</time>
      </trkpt>
      <trkpt lat="36.700685" lon="-4.43934733">
        <ele>26</ele>
        <time>2018-04-23T13:59:42Z</time>
      </trkpt>
      <trkpt lat="36.70069333" lon="-4.43934167">
        <ele>26</ele>
        <time>2018-04-23T13:59:43Z</time>
      </trkpt>
      <trkpt lat="36.700705" lon="-4.43933667">
        <ele>26</ele>
        <time>2018-04-23T13:59:44Z</time>
      </trkpt>
      <trkpt lat="36.70071833" lon="-4.43932967">
        <ele>26</ele>
        <time>2018-04-23T13:59:45Z</time>
      </trkpt>
      <trkpt lat="36.70073167" lon="-4.43931933">
        <ele>26</ele>
        <time>2018-04-23T13:59:46Z</time>
      </trkpt>
      <trkpt lat="36.70074333" lon="-4.43931233">
        <ele>26</ele>
        <time>2018-04-23T13:59:47Z</time>
      </trkpt>
      <trkpt lat="36.70076167" lon="-4.43930533">
        <ele>26</ele>
        <time>2018-04-23T13:59:48Z</time>
      </trkpt>
      <trkpt lat="36.70077833" lon="-4.43929733">
        <ele>26</ele>
        <time>2018-04-23T13:59:49Z</time>
      </trkpt>
      <trkpt lat="36.70079667" lon="-4.439289">
        <ele>26</ele>
        <time>2018-04-23T13:59:50Z</time>
      </trkpt>
      <trkpt lat="36.70081167" lon="-4.43928467">
        <ele>26</ele>
        <time>2018-04-23T13:59:51Z</time>
      </trkpt>
      <trkpt lat="36.70082167" lon="-4.43928033">
        <ele>26</ele>
        <time>2018-04-23T13:59:52Z</time>
      </trkpt>
      <trkpt lat="36.70083167" lon="-4.43927567">
        <ele>26</ele>
        <time>2018-04-23T13:59:53Z</time>
      </trkpt>
      <trkpt lat="36.700845" lon="-4.43927167">
        <ele>26</ele>
        <time>2018-04-23T13:59:54Z</time>
      </trkpt>
      <trkpt lat="36.700855" lon="-4.439269">
        <ele>26</ele>
        <time>2018-04-23T13:59:55Z</time>
      </trkpt>
      <trkpt lat="36.70086833" lon="-4.43926633">
        <ele>26</ele>
        <time>2018-04-23T13:59:56Z</time>
      </trkpt>
      <trkpt lat="36.70087833" lon="-4.43926567">
        <ele>26</ele>
        <time>2018-04-23T13:59:57Z</time>
      </trkpt>
      <trkpt lat="36.70088333" lon="-4.43926633">
        <ele>26</ele>
        <time>2018-04-23T13:59:58Z</time>
      </trkpt>
      <trkpt lat="36.70087833" lon="-4.439269">
        <ele>26</ele>
        <time>2018-04-23T13:59:59Z</time>
      </trkpt>
      <trkpt lat="36.70087833" lon="-4.43926933">
        <ele>26</ele>
        <time>2018-04-23T14:00:00Z</time>
      </trkpt>
      <trkpt lat="36.70087833" lon="-4.439265">
        <ele>26</ele>
        <time>2018-04-23T14:00:01Z</time>
      </trkpt>
      <trkpt lat="36.700885" lon="-4.43926167">
        <ele>26</ele>
        <time>2018-04-23T14:00:02Z</time>
      </trkpt>
      <trkpt lat="36.70089467" lon="-4.439255">
        <ele>26</ele>
        <time>2018-04-23T14:00:03Z</time>
      </trkpt>
      <trkpt lat="36.700905" lon="-4.43924667">
        <ele>26</ele>
        <time>2018-04-23T14:00:04Z</time>
      </trkpt>
      <trkpt lat="36.70091667" lon="-4.43924">
        <ele>26</ele>
        <time>2018-04-23T14:00:05Z</time>
      </trkpt>
      <trkpt lat="36.70093" lon="-4.43923167">
        <ele>26</ele>
        <time>2018-04-23T14:00:06Z</time>
      </trkpt>
      <trkpt lat="36.70094" lon="-4.43923">
        <ele>26</ele>
        <time>2018-04-23T14:00:07Z</time>
      </trkpt>
      <trkpt lat="36.70095" lon="-4.439235">
        <ele>26</ele>
        <time>2018-04-23T14:00:08Z</time>
      </trkpt>
      <trkpt lat="36.70097167" lon="-4.43922667">
        <ele>26</ele>
        <time>2018-04-23T14:00:09Z</time>
      </trkpt>
      <trkpt lat="36.70099167" lon="-4.43922333">
        <ele>26</ele>
        <time>2018-04-23T14:00:10Z</time>
      </trkpt>
      <trkpt lat="36.700995" lon="-4.43921833">
        <ele>26</ele>
        <time>2018-04-23T14:00:11Z</time>
      </trkpt>
      <trkpt lat="36.70100333" lon="-4.43920833">
        <ele>26</ele>
        <time>2018-04-23T14:00:12Z</time>
      </trkpt>
      <trkpt lat="36.70101167" lon="-4.43921833">
        <ele>26</ele>
        <time>2018-04-23T14:00:13Z</time>
      </trkpt>
      <trkpt lat="36.70101833" lon="-4.43921">
        <ele>26</ele>
        <time>2018-04-23T14:00:14Z</time>
      </trkpt>
      <trkpt lat="36.70103167" lon="-4.439198">
        <ele>26</ele>
        <time>2018-04-23T14:00:15Z</time>
      </trkpt>
      <trkpt lat="36.70104833" lon="-4.43918633">
        <ele>26</ele>
        <time>2018-04-23T14:00:16Z</time>
      </trkpt>
      <trkpt lat="36.701065" lon="-4.43918767">
        <ele>26</ele>
        <time>2018-04-23T14:00:17Z</time>
      </trkpt>
      <trkpt lat="36.70107833" lon="-4.439193">
        <ele>26</ele>
        <time>2018-04-23T14:00:18Z</time>
      </trkpt>
      <trkpt lat="36.70109667" lon="-4.439197">
        <ele>26</ele>
        <time>2018-04-23T14:00:19Z</time>
      </trkpt>
      <trkpt lat="36.70112" lon="-4.43919967">
        <ele>26</ele>
        <time>2018-04-23T14:00:20Z</time>
      </trkpt>
      <trkpt lat="36.70113833" lon="-4.4392">
        <ele>26</ele>
        <time>2018-04-23T14:00:21Z</time>
      </trkpt>
      <trkpt lat="36.70115833" lon="-4.439199">
        <ele>26</ele>
        <time>2018-04-23T14:00:22Z</time>
      </trkpt>
      <trkpt lat="36.701175" lon="-4.439198">
        <ele>26</ele>
        <time>2018-04-23T14:00:23Z</time>
      </trkpt>
      <trkpt lat="36.70119167" lon="-4.43919667">
        <ele>26</ele>
        <time>2018-04-23T14:00:24Z</time>
      </trkpt>
      <trkpt lat="36.701205" lon="-4.439194">
        <ele>26</ele>
        <time>2018-04-23T14:00:25Z</time>
      </trkpt>
      <trkpt lat="36.70122" lon="-4.439192">
        <ele>26</ele>
        <time>2018-04-23T14:00:26Z</time>
      </trkpt>
      <trkpt lat="36.70123167" lon="-4.43919">
        <ele>26</ele>
        <time>2018-04-23T14:00:27Z</time>
      </trkpt>
      <trkpt lat="36.70125" lon="-4.43918767">
        <ele>26</ele>
        <time>2018-04-23T14:00:28Z</time>
      </trkpt>
      <trkpt lat="36.70126333" lon="-4.439185">
        <ele>26</ele>
        <time>2018-04-23T14:00:29Z</time>
      </trkpt>
      <trkpt lat="36.70127833" lon="-4.43918167">
        <ele>26</ele>
        <time>2018-04-23T14:00:30Z</time>
      </trkpt>
      <trkpt lat="36.70129333" lon="-4.43917667">
        <ele>26</ele>
        <time>2018-04-23T14:00:31Z</time>
      </trkpt>
      <trkpt lat="36.70130333" lon="-4.43915333">
        <ele>26</ele>
        <time>2018-04-23T14:00:32Z</time>
      </trkpt>
      <trkpt lat="36.70131333" lon="-4.43914167">
        <ele>26</ele>
        <time>2018-04-23T14:00:33Z</time>
      </trkpt>
      <trkpt lat="36.70131833" lon="-4.43913467">
        <ele>26</ele>
        <time>2018-04-23T14:00:34Z</time>
      </trkpt>
      <trkpt lat="36.70133167" lon="-4.43912433">
        <ele>26</ele>
        <time>2018-04-23T14:00:35Z</time>
      </trkpt>
      <trkpt lat="36.70134167" lon="-4.43912567">
        <ele>26</ele>
        <time>2018-04-23T14:00:36Z</time>
      </trkpt>
      <trkpt lat="36.701355" lon="-4.43912767">
        <ele>26</ele>
        <time>2018-04-23T14:00:37Z</time>
      </trkpt>
      <trkpt lat="36.70136667" lon="-4.43913833">
        <ele>26</ele>
        <time>2018-04-23T14:00:38Z</time>
      </trkpt>
      <trkpt lat="36.70138167" lon="-4.439113">
        <ele>26</ele>
        <time>2018-04-23T14:00:39Z</time>
      </trkpt>
      <trkpt lat="36.70139833" lon="-4.439109">
        <ele>26</ele>
        <time>2018-04-23T14:00:40Z</time>
      </trkpt>
      <trkpt lat="36.70141" lon="-4.43911167">
        <ele>26</ele>
        <time>2018-04-23T14:00:41Z</time>
      </trkpt>
      <trkpt lat="36.701415" lon="-4.43911467">
        <ele>26</ele>
        <time>2018-04-23T14:00:42Z</time>
      </trkpt>
      <trkpt lat="36.701425" lon="-4.43911433">
        <ele>26</ele>
        <time>2018-04-23T14:00:43Z</time>
      </trkpt>
      <trkpt lat="36.70144167" lon="-4.43912267">
        <ele>26</ele>
        <time>2018-04-23T14:00:44Z</time>
      </trkpt>
      <trkpt lat="36.70145667" lon="-4.439126">
        <ele>26</ele>
        <time>2018-04-23T14:00:45Z</time>
      </trkpt>
      <trkpt lat="36.70146667" lon="-4.43912767">
        <ele>26</ele>
        <time>2018-04-23T14:00:46Z</time>
      </trkpt>
      <trkpt lat="36.70148667" lon="-4.43913167">
        <ele>26</ele>
        <time>2018-04-23T14:00:47Z</time>
      </trkpt>
      <trkpt lat="36.701495" lon="-4.43913367">
        <ele>26</ele>
        <time>2018-04-23T14:00:48Z</time>
      </trkpt>
      <trkpt lat="36.701505" lon="-4.43913667">
        <ele>26</ele>
        <time>2018-04-23T14:00:49Z</time>
      </trkpt>
      <trkpt lat="36.70151667" lon="-4.43914033">
        <ele>26</ele>
        <time>2018-04-23T14:00:50Z</time>
      </trkpt>
      <trkpt lat="36.70153333" lon="-4.43914467">
        <ele>26</ele>
        <time>2018-04-23T14:00:51Z</time>
      </trkpt>
      <trkpt lat="36.70154833" lon="-4.43914733">
        <ele>26</ele>
        <time>2018-04-23T14:00:52Z</time>
      </trkpt>
      <trkpt lat="36.70156167" lon="-4.43915033">
        <ele>26</ele>
        <time>2018-04-23T14:00:53Z</time>
      </trkpt>
      <trkpt lat="36.701575" lon="-4.43915367">
        <ele>26</ele>
        <time>2018-04-23T14:00:54Z</time>
      </trkpt>
      <trkpt lat="36.70159167" lon="-4.43915733">
        <ele>26</ele>
        <time>2018-04-23T14:00:55Z</time>
      </trkpt>
      <trkpt lat="36.70161333" lon="-4.439161">
        <ele>26</ele>
        <time>2018-04-23T14:00:56Z</time>
      </trkpt>
      <trkpt lat="36.70162333" lon="-4.439162">
        <ele>26</ele>
        <time>2018-04-23T14:00:56Z</time>
      </trkpt>
      <trkpt lat="36.701625" lon="-4.43916367">
        <ele>26</ele>
        <time>2018-04-23T14:00:57Z</time>
      </trkpt>
      <trkpt lat="36.70162833" lon="-4.439165">
        <ele>26</ele>
        <time>2018-04-23T14:00:58Z</time>
      </trkpt>
      <trkpt lat="36.70164167" lon="-4.43916733">
        <ele>26</ele>
        <time>2018-04-23T14:00:59Z</time>
      </trkpt>
      <trkpt lat="36.701655" lon="-4.43916933">
        <ele>26</ele>
        <time>2018-04-23T14:01:00Z</time>
      </trkpt>
      <trkpt lat="36.70166833" lon="-4.439171">
        <ele>26</ele>
        <time>2018-04-23T14:01:01Z</time>
      </trkpt>
      <trkpt lat="36.701685" lon="-4.439174">
        <ele>26</ele>
        <time>2018-04-23T14:01:02Z</time>
      </trkpt>
      <trkpt lat="36.70169667" lon="-4.43917533">
        <ele>26</ele>
        <time>2018-04-23T14:01:03Z</time>
      </trkpt>
      <trkpt lat="36.70170833" lon="-4.43917767">
        <ele>26</ele>
        <time>2018-04-23T14:01:04Z</time>
      </trkpt>
      <trkpt lat="36.701715" lon="-4.43917867">
        <ele>26</ele>
        <time>2018-04-23T14:01:05Z</time>
      </trkpt>
      <trkpt lat="36.70173167" lon="-4.439181">
        <ele>26</ele>
        <time>2018-04-23T14:01:06Z</time>
      </trkpt>
      <trkpt lat="36.70174333" lon="-4.43918067">
        <ele>26</ele>
        <time>2018-04-23T14:01:07Z</time>
      </trkpt>
      <trkpt lat="36.701755" lon="-4.43918067">
        <ele>26</ele>
        <time>2018-04-23T14:01:08Z</time>
      </trkpt>
      <trkpt lat="36.70176333" lon="-4.439179">
        <ele>26</ele>
        <time>2018-04-23T14:01:09Z</time>
      </trkpt>
      <trkpt lat="36.70176667" lon="-4.43917733">
        <ele>26</ele>
        <time>2018-04-23T14:01:10Z</time>
      </trkpt>
      <trkpt lat="36.70177333" lon="-4.439176">
        <ele>26</ele>
        <time>2018-04-23T14:01:11Z</time>
      </trkpt>
      <trkpt lat="36.701775" lon="-4.43915">
        <ele>26</ele>
        <time>2018-04-23T14:01:12Z</time>
      </trkpt>
      <trkpt lat="36.701785" lon="-4.43915">
        <ele>26</ele>
        <time>2018-04-23T14:01:13Z</time>
      </trkpt>
      <trkpt lat="36.70179167" lon="-4.43914233">
        <ele>26</ele>
        <time>2018-04-23T14:01:14Z</time>
      </trkpt>
      <trkpt lat="36.701795" lon="-4.43914467">
        <ele>26</ele>
        <time>2018-04-23T14:01:15Z</time>
      </trkpt>
      <trkpt lat="36.701805" lon="-4.439149">
        <ele>26</ele>
        <time>2018-04-23T14:01:16Z</time>
      </trkpt>
      <trkpt lat="36.70181333" lon="-4.439165">
        <ele>26</ele>
        <time>2018-04-23T14:01:17Z</time>
      </trkpt>
      <trkpt lat="36.70183" lon="-4.43916967">
        <ele>26</ele>
        <time>2018-04-23T14:01:18Z</time>
      </trkpt>
      <trkpt lat="36.70184" lon="-4.43918067">
        <ele>26</ele>
        <time>2018-04-23T14:01:19Z</time>
      </trkpt>
      <trkpt lat="36.70185667" lon="-4.43919133">
        <ele>26</ele>
        <time>2018-04-23T14:01:20Z</time>
      </trkpt>
      <trkpt lat="36.70187" lon="-4.439203">
        <ele>26</ele>
        <time>2018-04-23T14:01:21Z</time>
      </trkpt>
      <trkpt lat="36.70188167" lon="-4.439215">
        <ele>26</ele>
        <time>2018-04-23T14:01:22Z</time>
      </trkpt>
      <trkpt lat="36.70189167" lon="-4.43922833">
        <ele>26</ele>
        <time>2018-04-23T14:01:23Z</time>
      </trkpt>
      <trkpt lat="36.7019" lon="-4.43924167">
        <ele>26</ele>
        <time>2018-04-23T14:01:24Z</time>
      </trkpt>
      <trkpt lat="36.70190833" lon="-4.439255">
        <ele>26</ele>
        <time>2018-04-23T14:01:25Z</time>
      </trkpt>
      <trkpt lat="36.70191833" lon="-4.43925633">
        <ele>26</ele>
        <time>2018-04-23T14:01:26Z</time>
      </trkpt>
      <trkpt lat="36.70192833" lon="-4.439251">
        <ele>26</ele>
        <time>2018-04-23T14:01:27Z</time>
      </trkpt>
      <trkpt lat="36.70194167" lon="-4.43923933">
        <ele>26</ele>
        <time>2018-04-23T14:01:28Z</time>
      </trkpt>
      <trkpt lat="36.70195" lon="-4.43922667">
        <ele>26</ele>
        <time>2018-04-23T14:01:29Z</time>
      </trkpt>
      <trkpt lat="36.70195833" lon="-4.43921333">
        <ele>26</ele>
        <time>2018-04-23T14:01:30Z</time>
      </trkpt>
      <trkpt lat="36.70196833" lon="-4.43920167">
        <ele>26</ele>
        <time>2018-04-23T14:01:31Z</time>
      </trkpt>
      <trkpt lat="36.70198333" lon="-4.43918667">
        <ele>26</ele>
        <time>2018-04-23T14:01:32Z</time>
      </trkpt>
      <trkpt lat="36.70199333" lon="-4.439175">
        <ele>26</ele>
        <time>2018-04-23T14:01:33Z</time>
      </trkpt>
      <trkpt lat="36.70201333" lon="-4.43915967">
        <ele>26</ele>
        <time>2018-04-23T14:01:34Z</time>
      </trkpt>
      <trkpt lat="36.70203" lon="-4.439148">
        <ele>26</ele>
        <time>2018-04-23T14:01:35Z</time>
      </trkpt>
      <trkpt lat="36.702045" lon="-4.439137">
        <ele>26</ele>
        <time>2018-04-23T14:01:36Z</time>
      </trkpt>
      <trkpt lat="36.70205667" lon="-4.43912667">
        <ele>26</ele>
        <time>2018-04-23T14:01:37Z</time>
      </trkpt>
      <trkpt lat="36.70206667" lon="-4.43911167">
        <ele>26</ele>
        <time>2018-04-23T14:01:38Z</time>
      </trkpt>
      <trkpt lat="36.702075" lon="-4.43909833">
        <ele>28</ele>
        <time>2018-04-23T14:01:39Z</time>
      </trkpt>
      <trkpt lat="36.702085" lon="-4.43908">
        <ele>28</ele>
        <time>2018-04-23T14:01:40Z</time>
      </trkpt>
      <trkpt lat="36.70209167" lon="-4.439065">
        <ele>28</ele>
        <time>2018-04-23T14:01:41Z</time>
      </trkpt>
      <trkpt lat="36.70209833" lon="-4.439045">
        <ele>28</ele>
        <time>2018-04-23T14:01:42Z</time>
      </trkpt>
      <trkpt lat="36.70210167" lon="-4.43903">
        <ele>28</ele>
        <time>2018-04-23T14:01:43Z</time>
      </trkpt>
      <trkpt lat="36.7021" lon="-4.43901833">
        <ele>28</ele>
        <time>2018-04-23T14:01:44Z</time>
      </trkpt>
      <trkpt lat="36.7021" lon="-4.43900667">
        <ele>28</ele>
        <time>2018-04-23T14:01:45Z</time>
      </trkpt>
      <trkpt lat="36.70210167" lon="-4.43898833">
        <ele>28</ele>
        <time>2018-04-23T14:01:46Z</time>
      </trkpt>
      <trkpt lat="36.70210167" lon="-4.43897333">
        <ele>28</ele>
        <time>2018-04-23T14:01:47Z</time>
      </trkpt>
      <trkpt lat="36.70210167" lon="-4.438955">
        <ele>28</ele>
        <time>2018-04-23T14:01:48Z</time>
      </trkpt>
      <trkpt lat="36.70210367" lon="-4.43894167">
        <ele>28</ele>
        <time>2018-04-23T14:01:49Z</time>
      </trkpt>
      <trkpt lat="36.70210767" lon="-4.43892667">
        <ele>28</ele>
        <time>2018-04-23T14:01:50Z</time>
      </trkpt>
      <trkpt lat="36.70211867" lon="-4.43891333">
        <ele>28</ele>
        <time>2018-04-23T14:01:51Z</time>
      </trkpt>
      <trkpt lat="36.70212733" lon="-4.4389">
        <ele>28</ele>
        <time>2018-04-23T14:01:52Z</time>
      </trkpt>
      <trkpt lat="36.70214" lon="-4.43888167">
        <ele>28</ele>
        <time>2018-04-23T14:01:53Z</time>
      </trkpt>
      <trkpt lat="36.70214667" lon="-4.43886833">
        <ele>28</ele>
        <time>2018-04-23T14:01:54Z</time>
      </trkpt>
      <trkpt lat="36.70214833" lon="-4.43885667">
        <ele>28</ele>
        <time>2018-04-23T14:01:55Z</time>
      </trkpt>
      <trkpt lat="36.70215833" lon="-4.43884">
        <ele>28</ele>
        <time>2018-04-23T14:01:56Z</time>
      </trkpt>
      <trkpt lat="36.70216633" lon="-4.43882667">
        <ele>28</ele>
        <time>2018-04-23T14:01:57Z</time>
      </trkpt>
      <trkpt lat="36.70217333" lon="-4.438815">
        <ele>28</ele>
        <time>2018-04-23T14:01:58Z</time>
      </trkpt>
      <trkpt lat="36.70218" lon="-4.4388">
        <ele>28</ele>
        <time>2018-04-23T14:01:59Z</time>
      </trkpt>
      <trkpt lat="36.702186" lon="-4.43878833">
        <ele>28</ele>
        <time>2018-04-23T14:02:00Z</time>
      </trkpt>
      <trkpt lat="36.70219233" lon="-4.43878">
        <ele>28</ele>
        <time>2018-04-23T14:02:01Z</time>
      </trkpt>
      <trkpt lat="36.70220167" lon="-4.43876667">
        <ele>28</ele>
        <time>2018-04-23T14:02:02Z</time>
      </trkpt>
      <trkpt lat="36.70221167" lon="-4.43875133">
        <ele>28</ele>
        <time>2018-04-23T14:02:03Z</time>
      </trkpt>
      <trkpt lat="36.70222167" lon="-4.43873533">
        <ele>28</ele>
        <time>2018-04-23T14:02:04Z</time>
      </trkpt>
      <trkpt lat="36.702235" lon="-4.43872333">
        <ele>28</ele>
        <time>2018-04-23T14:02:05Z</time>
      </trkpt>
      <trkpt lat="36.70224167" lon="-4.43871967">
        <ele>28</ele>
        <time>2018-04-23T14:02:06Z</time>
      </trkpt>
      <trkpt lat="36.70225167" lon="-4.43871267">
        <ele>28</ele>
        <time>2018-04-23T14:02:07Z</time>
      </trkpt>
      <trkpt lat="36.70225333" lon="-4.438712">
        <ele>28</ele>
        <time>2018-04-23T14:02:08Z</time>
      </trkpt>
      <trkpt lat="36.70226333" lon="-4.43870433">
        <ele>28</ele>
        <time>2018-04-23T14:02:09Z</time>
      </trkpt>
      <trkpt lat="36.702275" lon="-4.438696">
        <ele>28</ele>
        <time>2018-04-23T14:02:10Z</time>
      </trkpt>
      <trkpt lat="36.70228833" lon="-4.43868633">
        <ele>28</ele>
        <time>2018-04-23T14:02:11Z</time>
      </trkpt>
      <trkpt lat="36.70230167" lon="-4.438674">
        <ele>28</ele>
        <time>2018-04-23T14:02:12Z</time>
      </trkpt>
      <trkpt lat="36.70231667" lon="-4.43866033">
        <ele>28</ele>
        <time>2018-04-23T14:02:13Z</time>
      </trkpt>
      <trkpt lat="36.70232833" lon="-4.43864867">
        <ele>28</ele>
        <time>2018-04-23T14:02:14Z</time>
      </trkpt>
      <trkpt lat="36.70233833" lon="-4.438639">
        <ele>28</ele>
        <time>2018-04-23T14:02:15Z</time>
      </trkpt>
      <trkpt lat="36.70235333" lon="-4.43862733">
        <ele>28</ele>
        <time>2018-04-23T14:02:16Z</time>
      </trkpt>
      <trkpt lat="36.70236667" lon="-4.438617">
        <ele>28</ele>
        <time>2018-04-23T14:02:17Z</time>
      </trkpt>
      <trkpt lat="36.70237833" lon="-4.43860933">
        <ele>28</ele>
        <time>2018-04-23T14:02:18Z</time>
      </trkpt>
      <trkpt lat="36.702395" lon="-4.43859933">
        <ele>28</ele>
        <time>2018-04-23T14:02:19Z</time>
      </trkpt>
      <trkpt lat="36.70240333" lon="-4.43859433">
        <ele>28</ele>
        <time>2018-04-23T14:02:20Z</time>
      </trkpt>
      <trkpt lat="36.70241333" lon="-4.43858833">
        <ele>28</ele>
        <time>2018-04-23T14:02:21Z</time>
      </trkpt>
      <trkpt lat="36.70243167" lon="-4.43857867">
        <ele>28</ele>
        <time>2018-04-23T14:02:22Z</time>
      </trkpt>
      <trkpt lat="36.702445" lon="-4.438573">
        <ele>28</ele>
        <time>2018-04-23T14:02:23Z</time>
      </trkpt>
      <trkpt lat="36.70246167" lon="-4.43856667">
        <ele>28</ele>
        <time>2018-04-23T14:02:24Z</time>
      </trkpt>
      <trkpt lat="36.70247833" lon="-4.43856133">
        <ele>28</ele>
        <time>2018-04-23T14:02:25Z</time>
      </trkpt>
      <trkpt lat="36.702495" lon="-4.438558">
        <ele>28</ele>
        <time>2018-04-23T14:02:26Z</time>
      </trkpt>
      <trkpt lat="36.70250833" lon="-4.43859">
        <ele>28</ele>
        <time>2018-04-23T14:02:27Z</time>
      </trkpt>
      <trkpt lat="36.70251833" lon="-4.438585">
        <ele>28</ele>
        <time>2018-04-23T14:02:28Z</time>
      </trkpt>
      <trkpt lat="36.70252833" lon="-4.438585">
        <ele>28</ele>
        <time>2018-04-23T14:02:29Z</time>
      </trkpt>
      <trkpt lat="36.702535" lon="-4.43858667">
        <ele>28</ele>
        <time>2018-04-23T14:02:30Z</time>
      </trkpt>
      <trkpt lat="36.70254333" lon="-4.43858833">
        <ele>28</ele>
        <time>2018-04-23T14:02:31Z</time>
      </trkpt>
      <trkpt lat="36.70254833" lon="-4.43858667">
        <ele>28</ele>
        <time>2018-04-23T14:02:32Z</time>
      </trkpt>
      <trkpt lat="36.70255167" lon="-4.43858333">
        <ele>28</ele>
        <time>2018-04-23T14:02:33Z</time>
      </trkpt>
      <trkpt lat="36.70255833" lon="-4.43858">
        <ele>28</ele>
        <time>2018-04-23T14:02:34Z</time>
      </trkpt>
      <trkpt lat="36.70257" lon="-4.43858333">
        <ele>28</ele>
        <time>2018-04-23T14:02:35Z</time>
      </trkpt>
      <trkpt lat="36.70257833" lon="-4.438585">
        <ele>28</ele>
        <time>2018-04-23T14:02:36Z</time>
      </trkpt>
      <trkpt lat="36.70258333" lon="-4.43858567">
        <ele>28</ele>
        <time>2018-04-23T14:02:37Z</time>
      </trkpt>
      <trkpt lat="36.70259167" lon="-4.43858333">
        <ele>28</ele>
        <time>2018-04-23T14:02:38Z</time>
      </trkpt>
      <trkpt lat="36.7026" lon="-4.43858">
        <ele>28</ele>
        <time>2018-04-23T14:02:39Z</time>
      </trkpt>
      <trkpt lat="36.702605" lon="-4.43857667">
        <ele>28</ele>
        <time>2018-04-23T14:02:40Z</time>
      </trkpt>
      <trkpt lat="36.70261167" lon="-4.43856833">
        <ele>28</ele>
        <time>2018-04-23T14:02:41Z</time>
      </trkpt>
      <trkpt lat="36.70261533" lon="-4.43856">
        <ele>28</ele>
        <time>2018-04-23T14:02:42Z</time>
      </trkpt>
      <trkpt lat="36.70262" lon="-4.43855">
        <ele>28</ele>
        <time>2018-04-23T14:02:43Z</time>
      </trkpt>
      <trkpt lat="36.702631" lon="-4.43853833">
        <ele>28</ele>
        <time>2018-04-23T14:02:44Z</time>
      </trkpt>
      <trkpt lat="36.70264133" lon="-4.43852667">
        <ele>28</ele>
        <time>2018-04-23T14:02:45Z</time>
      </trkpt>
      <trkpt lat="36.70265333" lon="-4.43851">
        <ele>28</ele>
        <time>2018-04-23T14:02:46Z</time>
      </trkpt>
      <trkpt lat="36.702665" lon="-4.43849333">
        <ele>28</ele>
        <time>2018-04-23T14:02:47Z</time>
      </trkpt>
      <trkpt lat="36.70267333" lon="-4.43848667">
        <ele>28</ele>
        <time>2018-04-23T14:02:48Z</time>
      </trkpt>
      <trkpt lat="36.70268" lon="-4.43847833">
        <ele>28</ele>
        <time>2018-04-23T14:02:49Z</time>
      </trkpt>
      <trkpt lat="36.70268667" lon="-4.43846833">
        <ele>28</ele>
        <time>2018-04-23T14:02:50Z</time>
      </trkpt>
      <trkpt lat="36.70269333" lon="-4.43846">
        <ele>28</ele>
        <time>2018-04-23T14:02:51Z</time>
      </trkpt>
      <trkpt lat="36.70270167" lon="-4.43844633">
        <ele>28</ele>
        <time>2018-04-23T14:02:52Z</time>
      </trkpt>
      <trkpt lat="36.70271" lon="-4.43842767">
        <ele>28</ele>
        <time>2018-04-23T14:02:53Z</time>
      </trkpt>
      <trkpt lat="36.70272" lon="-4.438415">
        <ele>28</ele>
        <time>2018-04-23T14:02:54Z</time>
      </trkpt>
      <trkpt lat="36.70273333" lon="-4.43840367">
        <ele>28</ele>
        <time>2018-04-23T14:02:55Z</time>
      </trkpt>
      <trkpt lat="36.70274667" lon="-4.438397">
        <ele>28</ele>
        <time>2018-04-23T14:02:56Z</time>
      </trkpt>
      <trkpt lat="36.70275667" lon="-4.43838967">
        <ele>28</ele>
        <time>2018-04-23T14:02:57Z</time>
      </trkpt>
      <trkpt lat="36.70276" lon="-4.43838733">
        <ele>28</ele>
        <time>2018-04-23T14:02:58Z</time>
      </trkpt>
      <trkpt lat="36.702775" lon="-4.438374">
        <ele>28</ele>
        <time>2018-04-23T14:02:59Z</time>
      </trkpt>
      <trkpt lat="36.70279333" lon="-4.438359">
        <ele>28</ele>
        <time>2018-04-23T14:03:00Z</time>
      </trkpt>
      <trkpt lat="36.70280167" lon="-4.43835433">
        <ele>28</ele>
        <time>2018-04-23T14:03:01Z</time>
      </trkpt>
      <trkpt lat="36.702805" lon="-4.43835033">
        <ele>28</ele>
        <time>2018-04-23T14:03:02Z</time>
      </trkpt>
      <trkpt lat="36.70281" lon="-4.43834333">
        <ele>28</ele>
        <time>2018-04-23T14:03:03Z</time>
      </trkpt>
      <trkpt lat="36.70282" lon="-4.43833133">
        <ele>28</ele>
        <time>2018-04-23T14:03:04Z</time>
      </trkpt>
      <trkpt lat="36.70282833" lon="-4.438321">
        <ele>28</ele>
        <time>2018-04-23T14:03:05Z</time>
      </trkpt>
      <trkpt lat="36.702835" lon="-4.43831033">
        <ele>28</ele>
        <time>2018-04-23T14:03:06Z</time>
      </trkpt>
      <trkpt lat="36.70284333" lon="-4.43829833">
        <ele>28</ele>
        <time>2018-04-23T14:03:07Z</time>
      </trkpt>
      <trkpt lat="36.70285667" lon="-4.43828233">
        <ele>28</ele>
        <time>2018-04-23T14:03:08Z</time>
      </trkpt>
      <trkpt lat="36.70286667" lon="-4.43826967">
        <ele>28</ele>
        <time>2018-04-23T14:03:09Z</time>
      </trkpt>
      <trkpt lat="36.70287167" lon="-4.43826367">
        <ele>28</ele>
        <time>2018-04-23T14:03:10Z</time>
      </trkpt>
      <trkpt lat="36.70288" lon="-4.43825533">
        <ele>28</ele>
        <time>2018-04-23T14:03:11Z</time>
      </trkpt>
      <trkpt lat="36.702905" lon="-4.438232">
        <ele>28</ele>
        <time>2018-04-23T14:03:12Z</time>
      </trkpt>
      <trkpt lat="36.702925" lon="-4.438217">
        <ele>28</ele>
        <time>2018-04-23T14:03:13Z</time>
      </trkpt>
      <trkpt lat="36.702945" lon="-4.438202">
        <ele>28</ele>
        <time>2018-04-23T14:03:14Z</time>
      </trkpt>
      <trkpt lat="36.702955" lon="-4.43819667">
        <ele>28</ele>
        <time>2018-04-23T14:03:15Z</time>
      </trkpt>
      <trkpt lat="36.70296667" lon="-4.43818933">
        <ele>28</ele>
        <time>2018-04-23T14:03:16Z</time>
      </trkpt>
      <trkpt lat="36.70297167" lon="-4.43818767">
        <ele>28</ele>
        <time>2018-04-23T14:03:17Z</time>
      </trkpt>
      <trkpt lat="36.70298167" lon="-4.43819833">
        <ele>28</ele>
        <time>2018-04-23T14:03:18Z</time>
      </trkpt>
      <trkpt lat="36.70299333" lon="-4.43819633">
        <ele>28</ele>
        <time>2018-04-23T14:03:19Z</time>
      </trkpt>
      <trkpt lat="36.70300667" lon="-4.43818333">
        <ele>28</ele>
        <time>2018-04-23T14:03:20Z</time>
      </trkpt>
      <trkpt lat="36.70303167" lon="-4.43815833">
        <ele>28</ele>
        <time>2018-04-23T14:03:21Z</time>
      </trkpt>
      <trkpt lat="36.70304333" lon="-4.43814233">
        <ele>28</ele>
        <time>2018-04-23T14:03:22Z</time>
      </trkpt>
      <trkpt lat="36.70306" lon="-4.43812233">
        <ele>28</ele>
        <time>2018-04-23T14:03:23Z</time>
      </trkpt>
      <trkpt lat="36.70305833" lon="-4.43811667">
        <ele>28</ele>
        <time>2018-04-23T14:03:24Z</time>
      </trkpt>
      <trkpt lat="36.703065" lon="-4.43809">
        <ele>28</ele>
        <time>2018-04-23T14:03:25Z</time>
      </trkpt>
      <trkpt lat="36.70307633" lon="-4.43808167">
        <ele>28</ele>
        <time>2018-04-23T14:03:26Z</time>
      </trkpt>
      <trkpt lat="36.70309333" lon="-4.43807333">
        <ele>28</ele>
        <time>2018-04-23T14:03:27Z</time>
      </trkpt>
      <trkpt lat="36.70310833" lon="-4.43806333">
        <ele>28</ele>
        <time>2018-04-23T14:03:28Z</time>
      </trkpt>
      <trkpt lat="36.70311667" lon="-4.43806333">
        <ele>28</ele>
        <time>2018-04-23T14:03:29Z</time>
      </trkpt>
      <trkpt lat="36.70313333" lon="-4.438065">
        <ele>28</ele>
        <time>2018-04-23T14:03:30Z</time>
      </trkpt>
      <trkpt lat="36.70315333" lon="-4.43806667">
        <ele>28</ele>
        <time>2018-04-23T14:03:31Z</time>
      </trkpt>
      <trkpt lat="36.70316667" lon="-4.43805133">
        <ele>28</ele>
        <time>2018-04-23T14:03:32Z</time>
      </trkpt>
      <trkpt lat="36.70318833" lon="-4.43804333">
        <ele>28</ele>
        <time>2018-04-23T14:03:33Z</time>
      </trkpt>
      <trkpt lat="36.70320167" lon="-4.43803933">
        <ele>28</ele>
        <time>2018-04-23T14:03:34Z</time>
      </trkpt>
      <trkpt lat="36.703215" lon="-4.43803333">
        <ele>28</ele>
        <time>2018-04-23T14:03:35Z</time>
      </trkpt>
      <trkpt lat="36.70322333" lon="-4.43802633">
        <ele>28</ele>
        <time>2018-04-23T14:03:36Z</time>
      </trkpt>
      <trkpt lat="36.70323333" lon="-4.438017">
        <ele>28</ele>
        <time>2018-04-23T14:03:37Z</time>
      </trkpt>
      <trkpt lat="36.70324667" lon="-4.438003">
        <ele>28</ele>
        <time>2018-04-23T14:03:38Z</time>
      </trkpt>
      <trkpt lat="36.70325833" lon="-4.437991">
        <ele>28</ele>
        <time>2018-04-23T14:03:39Z</time>
      </trkpt>
      <trkpt lat="36.70327" lon="-4.43798">
        <ele>28</ele>
        <time>2018-04-23T14:03:40Z</time>
      </trkpt>
      <trkpt lat="36.70328167" lon="-4.43797067">
        <ele>28</ele>
        <time>2018-04-23T14:03:41Z</time>
      </trkpt>
      <trkpt lat="36.70328667" lon="-4.437968">
        <ele>28</ele>
        <time>2018-04-23T14:03:42Z</time>
      </trkpt>
      <trkpt lat="36.70329667" lon="-4.43796267">
        <ele>28</ele>
        <time>2018-04-23T14:03:43Z</time>
      </trkpt>
      <trkpt lat="36.70330833" lon="-4.43795667">
        <ele>28</ele>
        <time>2018-04-23T14:03:44Z</time>
      </trkpt>
      <trkpt lat="36.703325" lon="-4.43794833">
        <ele>28</ele>
        <time>2018-04-23T14:03:45Z</time>
      </trkpt>
      <trkpt lat="36.70333833" lon="-4.437942">
        <ele>28</ele>
        <time>2018-04-23T14:03:46Z</time>
      </trkpt>
      <trkpt lat="36.703355" lon="-4.43793233">
        <ele>28</ele>
        <time>2018-04-23T14:03:47Z</time>
      </trkpt>
      <trkpt lat="36.70336833" lon="-4.43792533">
        <ele>28</ele>
        <time>2018-04-23T14:03:48Z</time>
      </trkpt>
      <trkpt lat="36.703375" lon="-4.437921">
        <ele>28</ele>
        <time>2018-04-23T14:03:49Z</time>
      </trkpt>
      <trkpt lat="36.70337833" lon="-4.437919">
        <ele>28</ele>
        <time>2018-04-23T14:03:50Z</time>
      </trkpt>
      <trkpt lat="36.703385" lon="-4.437916">
        <ele>28</ele>
        <time>2018-04-23T14:03:51Z</time>
      </trkpt>
      <trkpt lat="36.70339333" lon="-4.437912">
        <ele>28</ele>
        <time>2018-04-23T14:03:52Z</time>
      </trkpt>
      <trkpt lat="36.7034" lon="-4.437908">
        <ele>28</ele>
        <time>2018-04-23T14:03:53Z</time>
      </trkpt>
      <trkpt lat="36.70341" lon="-4.43790233">
        <ele>28</ele>
        <time>2018-04-23T14:03:54Z</time>
      </trkpt>
      <trkpt lat="36.70342" lon="-4.43789667">
        <ele>28</ele>
        <time>2018-04-23T14:03:55Z</time>
      </trkpt>
      <trkpt lat="36.70342833" lon="-4.43789267">
        <ele>28</ele>
        <time>2018-04-23T14:03:56Z</time>
      </trkpt>
      <trkpt lat="36.70343667" lon="-4.43788767">
        <ele>28</ele>
        <time>2018-04-23T14:03:57Z</time>
      </trkpt>
      <trkpt lat="36.703445" lon="-4.43788133">
        <ele>28</ele>
        <time>2018-04-23T14:03:58Z</time>
      </trkpt>
      <trkpt lat="36.70345333" lon="-4.437874">
        <ele>28</ele>
        <time>2018-04-23T14:03:59Z</time>
      </trkpt>
      <trkpt lat="36.70346667" lon="-4.43786333">
        <ele>28</ele>
        <time>2018-04-23T14:04:00Z</time>
      </trkpt>
      <trkpt lat="36.70347" lon="-4.43785967">
        <ele>28</ele>
        <time>2018-04-23T14:04:01Z</time>
      </trkpt>
      <trkpt lat="36.70348" lon="-4.437851">
        <ele>28</ele>
        <time>2018-04-23T14:04:02Z</time>
      </trkpt>
      <trkpt lat="36.70349" lon="-4.437842">
        <ele>28</ele>
        <time>2018-04-23T14:04:03Z</time>
      </trkpt>
      <trkpt lat="36.70349833" lon="-4.43783333">
        <ele>28</ele>
        <time>2018-04-23T14:04:04Z</time>
      </trkpt>
      <trkpt lat="36.70351667" lon="-4.43781833">
        <ele>28</ele>
        <time>2018-04-23T14:04:05Z</time>
      </trkpt>
      <trkpt lat="36.703525" lon="-4.43780967">
        <ele>28</ele>
        <time>2018-04-23T14:04:06Z</time>
      </trkpt>
      <trkpt lat="36.703535" lon="-4.4378">
        <ele>28</ele>
        <time>2018-04-23T14:04:07Z</time>
      </trkpt>
      <trkpt lat="36.70354333" lon="-4.43779">
        <ele>28</ele>
        <time>2018-04-23T14:04:08Z</time>
      </trkpt>
      <trkpt lat="36.70355167" lon="-4.437782">
        <ele>28</ele>
        <time>2018-04-23T14:04:09Z</time>
      </trkpt>
      <trkpt lat="36.703555" lon="-4.43777733">
        <ele>28</ele>
        <time>2018-04-23T14:04:10Z</time>
      </trkpt>
      <trkpt lat="36.70356667" lon="-4.437767">
        <ele>28</ele>
        <time>2018-04-23T14:04:11Z</time>
      </trkpt>
      <trkpt lat="36.703585" lon="-4.437753">
        <ele>28</ele>
        <time>2018-04-23T14:04:12Z</time>
      </trkpt>
      <trkpt lat="36.70359833" lon="-4.437743">
        <ele>28</ele>
        <time>2018-04-23T14:04:13Z</time>
      </trkpt>
      <trkpt lat="36.70361167" lon="-4.43773267">
        <ele>28</ele>
        <time>2018-04-23T14:04:14Z</time>
      </trkpt>
      <trkpt lat="36.70361333" lon="-4.43773033">
        <ele>28</ele>
        <time>2018-04-23T14:04:15Z</time>
      </trkpt>
      <trkpt lat="36.70362" lon="-4.43772167">
        <ele>28</ele>
        <time>2018-04-23T14:04:16Z</time>
      </trkpt>
      <trkpt lat="36.70363167" lon="-4.43771067">
        <ele>28</ele>
        <time>2018-04-23T14:04:17Z</time>
      </trkpt>
      <trkpt lat="36.70364333" lon="-4.43769967">
        <ele>28</ele>
        <time>2018-04-23T14:04:18Z</time>
      </trkpt>
      <trkpt lat="36.703655" lon="-4.43768933">
        <ele>28</ele>
        <time>2018-04-23T14:04:19Z</time>
      </trkpt>
      <trkpt lat="36.70366667" lon="-4.437679">
        <ele>28</ele>
        <time>2018-04-23T14:04:20Z</time>
      </trkpt>
      <trkpt lat="36.70367667" lon="-4.43766933">
        <ele>28</ele>
        <time>2018-04-23T14:04:21Z</time>
      </trkpt>
      <trkpt lat="36.70368333" lon="-4.43766167">
        <ele>28</ele>
        <time>2018-04-23T14:04:22Z</time>
      </trkpt>
      <trkpt lat="36.7037" lon="-4.43764633">
        <ele>28</ele>
        <time>2018-04-23T14:04:23Z</time>
      </trkpt>
      <trkpt lat="36.70370667" lon="-4.43764">
        <ele>28</ele>
        <time>2018-04-23T14:04:24Z</time>
      </trkpt>
      <trkpt lat="36.70371667" lon="-4.43762933">
        <ele>28</ele>
        <time>2018-04-23T14:04:25Z</time>
      </trkpt>
      <trkpt lat="36.703715" lon="-4.43762767">
        <ele>28</ele>
        <time>2018-04-23T14:04:26Z</time>
      </trkpt>
      <trkpt lat="36.70373" lon="-4.437611">
        <ele>28</ele>
        <time>2018-04-23T14:04:27Z</time>
      </trkpt>
      <trkpt lat="36.703745" lon="-4.437596">
        <ele>28</ele>
        <time>2018-04-23T14:04:28Z</time>
      </trkpt>
      <trkpt lat="36.70375667" lon="-4.437585">
        <ele>28</ele>
        <time>2018-04-23T14:04:29Z</time>
      </trkpt>
      <trkpt lat="36.70376833" lon="-4.437583">
        <ele>28</ele>
        <time>2018-04-23T14:04:30Z</time>
      </trkpt>
      <trkpt lat="36.70378333" lon="-4.43758167">
        <ele>28</ele>
        <time>2018-04-23T14:04:31Z</time>
      </trkpt>
      <trkpt lat="36.7038" lon="-4.43757867">
        <ele>28</ele>
        <time>2018-04-23T14:04:32Z</time>
      </trkpt>
      <trkpt lat="36.703815" lon="-4.43757667">
        <ele>28</ele>
        <time>2018-04-23T14:04:33Z</time>
      </trkpt>
      <trkpt lat="36.703835" lon="-4.43757233">
        <ele>28</ele>
        <time>2018-04-23T14:04:34Z</time>
      </trkpt>
      <trkpt lat="36.70384333" lon="-4.43756867">
        <ele>28</ele>
        <time>2018-04-23T14:04:35Z</time>
      </trkpt>
      <trkpt lat="36.70386" lon="-4.437564">
        <ele>27</ele>
        <time>2018-04-23T14:04:36Z</time>
      </trkpt>
      <trkpt lat="36.70387667" lon="-4.43756033">
        <ele>27</ele>
        <time>2018-04-23T14:04:37Z</time>
      </trkpt>
      <trkpt lat="36.70388167" lon="-4.437565">
        <ele>27</ele>
        <time>2018-04-23T14:04:38Z</time>
      </trkpt>
      <trkpt lat="36.70389167" lon="-4.43756667">
        <ele>27</ele>
        <time>2018-04-23T14:04:39Z</time>
      </trkpt>
      <trkpt lat="36.70390833" lon="-4.43757167">
        <ele>27</ele>
        <time>2018-04-23T14:04:40Z</time>
      </trkpt>
      <trkpt lat="36.703925" lon="-4.43757333">
        <ele>27</ele>
        <time>2018-04-23T14:04:41Z</time>
      </trkpt>
      <trkpt lat="36.70394333" lon="-4.43757667">
        <ele>27</ele>
        <time>2018-04-23T14:04:42Z</time>
      </trkpt>
      <trkpt lat="36.703955" lon="-4.43758467">
        <ele>27</ele>
        <time>2018-04-23T14:04:43Z</time>
      </trkpt>
      <trkpt lat="36.70396833" lon="-4.43758667">
        <ele>27</ele>
        <time>2018-04-23T14:04:44Z</time>
      </trkpt>
      <trkpt lat="36.70398333" lon="-4.43758267">
        <ele>27</ele>
        <time>2018-04-23T14:04:45Z</time>
      </trkpt>
      <trkpt lat="36.70399167" lon="-4.43758267">
        <ele>27</ele>
        <time>2018-04-23T14:04:46Z</time>
      </trkpt>
      <trkpt lat="36.70400333" lon="-4.43758533">
        <ele>27</ele>
        <time>2018-04-23T14:04:47Z</time>
      </trkpt>
      <trkpt lat="36.70401333" lon="-4.43758733">
        <ele>27</ele>
        <time>2018-04-23T14:04:48Z</time>
      </trkpt>
      <trkpt lat="36.70402667" lon="-4.43758767">
        <ele>27</ele>
        <time>2018-04-23T14:04:49Z</time>
      </trkpt>
      <trkpt lat="36.70404167" lon="-4.43758333">
        <ele>27</ele>
        <time>2018-04-23T14:04:50Z</time>
      </trkpt>
      <trkpt lat="36.704045" lon="-4.43758">
        <ele>27</ele>
        <time>2018-04-23T14:04:51Z</time>
      </trkpt>
      <trkpt lat="36.70405333" lon="-4.43757533">
        <ele>27</ele>
        <time>2018-04-23T14:04:52Z</time>
      </trkpt>
      <trkpt lat="36.70406" lon="-4.437571">
        <ele>27</ele>
        <time>2018-04-23T14:04:53Z</time>
      </trkpt>
      <trkpt lat="36.70407" lon="-4.43756633">
        <ele>27</ele>
        <time>2018-04-23T14:04:54Z</time>
      </trkpt>
      <trkpt lat="36.70408333" lon="-4.437564">
        <ele>27</ele>
        <time>2018-04-23T14:04:55Z</time>
      </trkpt>
      <trkpt lat="36.70409" lon="-4.43756333">
        <ele>27</ele>
        <time>2018-04-23T14:04:56Z</time>
      </trkpt>
      <trkpt lat="36.704105" lon="-4.43756167">
        <ele>27</ele>
        <time>2018-04-23T14:04:57Z</time>
      </trkpt>
      <trkpt lat="36.70411833" lon="-4.43756">
        <ele>27</ele>
        <time>2018-04-23T14:04:58Z</time>
      </trkpt>
      <trkpt lat="36.70413167" lon="-4.43755867">
        <ele>27</ele>
        <time>2018-04-23T14:04:59Z</time>
      </trkpt>
      <trkpt lat="36.70415" lon="-4.43755567">
        <ele>27</ele>
        <time>2018-04-23T14:05:00Z</time>
      </trkpt>
      <trkpt lat="36.70417167" lon="-4.43755067">
        <ele>27</ele>
        <time>2018-04-23T14:05:01Z</time>
      </trkpt>
      <trkpt lat="36.70418333" lon="-4.43753">
        <ele>27</ele>
        <time>2018-04-23T14:05:02Z</time>
      </trkpt>
      <trkpt lat="36.70419833" lon="-4.43752833">
        <ele>27</ele>
        <time>2018-04-23T14:05:03Z</time>
      </trkpt>
      <trkpt lat="36.70421333" lon="-4.437523">
        <ele>27</ele>
        <time>2018-04-23T14:05:04Z</time>
      </trkpt>
      <trkpt lat="36.704225" lon="-4.43751567">
        <ele>27</ele>
        <time>2018-04-23T14:05:05Z</time>
      </trkpt>
      <trkpt lat="36.70423167" lon="-4.43751">
        <ele>27</ele>
        <time>2018-04-23T14:05:06Z</time>
      </trkpt>
      <trkpt lat="36.70424" lon="-4.437501">
        <ele>27</ele>
        <time>2018-04-23T14:05:07Z</time>
      </trkpt>
      <trkpt lat="36.70425167" lon="-4.437496">
        <ele>27</ele>
        <time>2018-04-23T14:05:08Z</time>
      </trkpt>
      <trkpt lat="36.70426167" lon="-4.43748767">
        <ele>27</ele>
        <time>2018-04-23T14:05:09Z</time>
      </trkpt>
      <trkpt lat="36.70427167" lon="-4.43748233">
        <ele>27</ele>
        <time>2018-04-23T14:05:10Z</time>
      </trkpt>
      <trkpt lat="36.70428167" lon="-4.43747867">
        <ele>27</ele>
        <time>2018-04-23T14:05:11Z</time>
      </trkpt>
      <trkpt lat="36.70429167" lon="-4.437475">
        <ele>27</ele>
        <time>2018-04-23T14:05:11Z</time>
      </trkpt>
      <trkpt lat="36.70430167" lon="-4.43746933">
        <ele>27</ele>
        <time>2018-04-23T14:05:12Z</time>
      </trkpt>
      <trkpt lat="36.70430667" lon="-4.43746233">
        <ele>27</ele>
        <time>2018-04-23T14:05:13Z</time>
      </trkpt>
      <trkpt lat="36.70432" lon="-4.43744967">
        <ele>27</ele>
        <time>2018-04-23T14:05:14Z</time>
      </trkpt>
      <trkpt lat="36.70433" lon="-4.43742333">
        <ele>27</ele>
        <time>2018-04-23T14:05:15Z</time>
      </trkpt>
      <trkpt lat="36.70434333" lon="-4.43740333">
        <ele>27</ele>
        <time>2018-04-23T14:05:16Z</time>
      </trkpt>
      <trkpt lat="36.70435333" lon="-4.43738833">
        <ele>27</ele>
        <time>2018-04-23T14:05:17Z</time>
      </trkpt>
      <trkpt lat="36.70436667" lon="-4.437385">
        <ele>27</ele>
        <time>2018-04-23T14:05:18Z</time>
      </trkpt>
      <trkpt lat="36.70437333" lon="-4.43737233">
        <ele>27</ele>
        <time>2018-04-23T14:05:19Z</time>
      </trkpt>
      <trkpt lat="36.70438" lon="-4.43736433">
        <ele>27</ele>
        <time>2018-04-23T14:05:20Z</time>
      </trkpt>
      <trkpt lat="36.70438667" lon="-4.43735633">
        <ele>27</ele>
        <time>2018-04-23T14:05:21Z</time>
      </trkpt>
      <trkpt lat="36.70439833" lon="-4.43734733">
        <ele>27</ele>
        <time>2018-04-23T14:05:22Z</time>
      </trkpt>
      <trkpt lat="36.704405" lon="-4.43733867">
        <ele>27</ele>
        <time>2018-04-23T14:05:23Z</time>
      </trkpt>
      <trkpt lat="36.70442" lon="-4.437324">
        <ele>27</ele>
        <time>2018-04-23T14:05:24Z</time>
      </trkpt>
      <trkpt lat="36.70443333" lon="-4.43731667">
        <ele>27</ele>
        <time>2018-04-23T14:05:25Z</time>
      </trkpt>
      <trkpt lat="36.70444167" lon="-4.43731267">
        <ele>27</ele>
        <time>2018-04-23T14:05:26Z</time>
      </trkpt>
      <trkpt lat="36.70445333" lon="-4.437307">
        <ele>27</ele>
        <time>2018-04-23T14:05:27Z</time>
      </trkpt>
      <trkpt lat="36.70445833" lon="-4.43730467">
        <ele>27</ele>
        <time>2018-04-23T14:05:28Z</time>
      </trkpt>
      <trkpt lat="36.70446833" lon="-4.437299">
        <ele>27</ele>
        <time>2018-04-23T14:05:29Z</time>
      </trkpt>
      <trkpt lat="36.704475" lon="-4.43729567">
        <ele>27</ele>
        <time>2018-04-23T14:05:30Z</time>
      </trkpt>
      <trkpt lat="36.70448167" lon="-4.43729067">
        <ele>27</ele>
        <time>2018-04-23T14:05:31Z</time>
      </trkpt>
      <trkpt lat="36.70449" lon="-4.437284">
        <ele>27</ele>
        <time>2018-04-23T14:05:32Z</time>
      </trkpt>
      <trkpt lat="36.70449167" lon="-4.43726833">
        <ele>27</ele>
        <time>2018-04-23T14:05:33Z</time>
      </trkpt>
      <trkpt lat="36.70449667" lon="-4.43726167">
        <ele>27</ele>
        <time>2018-04-23T14:05:34Z</time>
      </trkpt>
      <trkpt lat="36.704505" lon="-4.437248">
        <ele>27</ele>
        <time>2018-04-23T14:05:35Z</time>
      </trkpt>
      <trkpt lat="36.704515" lon="-4.43723567">
        <ele>27</ele>
        <time>2018-04-23T14:05:36Z</time>
      </trkpt>
      <trkpt lat="36.70453" lon="-4.43721767">
        <ele>27</ele>
        <time>2018-04-23T14:05:37Z</time>
      </trkpt>
      <trkpt lat="36.70454333" lon="-4.437208">
        <ele>27</ele>
        <time>2018-04-23T14:05:38Z</time>
      </trkpt>
      <trkpt lat="36.70456" lon="-4.43720167">
        <ele>27</ele>
        <time>2018-04-23T14:05:39Z</time>
      </trkpt>
      <trkpt lat="36.70456667" lon="-4.4372">
        <ele>27</ele>
        <time>2018-04-23T14:05:40Z</time>
      </trkpt>
      <trkpt lat="36.70458" lon="-4.43718333">
        <ele>27</ele>
        <time>2018-04-23T14:05:41Z</time>
      </trkpt>
      <trkpt lat="36.70459167" lon="-4.437171">
        <ele>27</ele>
        <time>2018-04-23T14:05:42Z</time>
      </trkpt>
      <trkpt lat="36.70460167" lon="-4.43716333">
        <ele>27</ele>
        <time>2018-04-23T14:05:43Z</time>
      </trkpt>
      <trkpt lat="36.70461667" lon="-4.43715567">
        <ele>27</ele>
        <time>2018-04-23T14:05:44Z</time>
      </trkpt>
      <trkpt lat="36.70462333" lon="-4.43715033">
        <ele>27</ele>
        <time>2018-04-23T14:05:45Z</time>
      </trkpt>
      <trkpt lat="36.70463167" lon="-4.437144">
        <ele>27</ele>
        <time>2018-04-23T14:05:46Z</time>
      </trkpt>
      <trkpt lat="36.704645" lon="-4.43713733">
        <ele>27</ele>
        <time>2018-04-23T14:05:47Z</time>
      </trkpt>
      <trkpt lat="36.70465" lon="-4.43713467">
        <ele>27</ele>
        <time>2018-04-23T14:05:48Z</time>
      </trkpt>
      <trkpt lat="36.70465167" lon="-4.43713233">
        <ele>27</ele>
        <time>2018-04-23T14:05:49Z</time>
      </trkpt>
      <trkpt lat="36.70465667" lon="-4.43712833">
        <ele>27</ele>
        <time>2018-04-23T14:05:50Z</time>
      </trkpt>
      <trkpt lat="36.70466167" lon="-4.43712">
        <ele>27</ele>
        <time>2018-04-23T14:05:51Z</time>
      </trkpt>
      <trkpt lat="36.70466633" lon="-4.43711167">
        <ele>27</ele>
        <time>2018-04-23T14:05:52Z</time>
      </trkpt>
      <trkpt lat="36.704673" lon="-4.43710833">
        <ele>27</ele>
        <time>2018-04-23T14:05:53Z</time>
      </trkpt>
      <trkpt lat="36.704682" lon="-4.43710167">
        <ele>27</ele>
        <time>2018-04-23T14:05:54Z</time>
      </trkpt>
      <trkpt lat="36.70469" lon="-4.437095">
        <ele>27</ele>
        <time>2018-04-23T14:05:55Z</time>
      </trkpt>
      <trkpt lat="36.70469667" lon="-4.43709167">
        <ele>27</ele>
        <time>2018-04-23T14:05:56Z</time>
      </trkpt>
      <trkpt lat="36.704709" lon="-4.43708167">
        <ele>27</ele>
        <time>2018-04-23T14:05:57Z</time>
      </trkpt>
      <trkpt lat="36.70472" lon="-4.43707">
        <ele>27</ele>
        <time>2018-04-23T14:05:58Z</time>
      </trkpt>
      <trkpt lat="36.70473167" lon="-4.43705833">
        <ele>27</ele>
        <time>2018-04-23T14:05:59Z</time>
      </trkpt>
      <trkpt lat="36.70474667" lon="-4.43704667">
        <ele>27</ele>
        <time>2018-04-23T14:06:00Z</time>
      </trkpt>
      <trkpt lat="36.70475833" lon="-4.43703833">
        <ele>27</ele>
        <time>2018-04-23T14:06:01Z</time>
      </trkpt>
      <trkpt lat="36.70477" lon="-4.43702833">
        <ele>28</ele>
        <time>2018-04-23T14:06:02Z</time>
      </trkpt>
      <trkpt lat="36.70478167" lon="-4.43701833">
        <ele>28</ele>
        <time>2018-04-23T14:06:03Z</time>
      </trkpt>
      <trkpt lat="36.70479667" lon="-4.43700667">
        <ele>28</ele>
        <time>2018-04-23T14:06:04Z</time>
      </trkpt>
      <trkpt lat="36.70480833" lon="-4.43699133">
        <ele>28</ele>
        <time>2018-04-23T14:06:05Z</time>
      </trkpt>
      <trkpt lat="36.70482" lon="-4.436982">
        <ele>28</ele>
        <time>2018-04-23T14:06:06Z</time>
      </trkpt>
      <trkpt lat="36.70483667" lon="-4.43697367">
        <ele>28</ele>
        <time>2018-04-23T14:06:07Z</time>
      </trkpt>
      <trkpt lat="36.70484833" lon="-4.43696633">
        <ele>28</ele>
        <time>2018-04-23T14:06:08Z</time>
      </trkpt>
      <trkpt lat="36.70485833" lon="-4.43695867">
        <ele>28</ele>
        <time>2018-04-23T14:06:09Z</time>
      </trkpt>
      <trkpt lat="36.70487167" lon="-4.436946">
        <ele>28</ele>
        <time>2018-04-23T14:06:10Z</time>
      </trkpt>
      <trkpt lat="36.70488333" lon="-4.436935">
        <ele>28</ele>
        <time>2018-04-23T14:06:11Z</time>
      </trkpt>
      <trkpt lat="36.70489833" lon="-4.43692267">
        <ele>28</ele>
        <time>2018-04-23T14:06:12Z</time>
      </trkpt>
      <trkpt lat="36.70490833" lon="-4.436925">
        <ele>28</ele>
        <time>2018-04-23T14:06:13Z</time>
      </trkpt>
      <trkpt lat="36.70491667" lon="-4.43691467">
        <ele>28</ele>
        <time>2018-04-23T14:06:14Z</time>
      </trkpt>
      <trkpt lat="36.70492167" lon="-4.43690667">
        <ele>28</ele>
        <time>2018-04-23T14:06:15Z</time>
      </trkpt>
      <trkpt lat="36.70493333" lon="-4.43691">
        <ele>28</ele>
        <time>2018-04-23T14:06:16Z</time>
      </trkpt>
      <trkpt lat="36.70494333" lon="-4.43692667">
        <ele>28</ele>
        <time>2018-04-23T14:06:17Z</time>
      </trkpt>
      <trkpt lat="36.704955" lon="-4.43693667">
        <ele>28</ele>
        <time>2018-04-23T14:06:18Z</time>
      </trkpt>
      <trkpt lat="36.704965" lon="-4.436935">
        <ele>28</ele>
        <time>2018-04-23T14:06:19Z</time>
      </trkpt>
      <trkpt lat="36.704975" lon="-4.436936">
        <ele>28</ele>
        <time>2018-04-23T14:06:20Z</time>
      </trkpt>
      <trkpt lat="36.70498833" lon="-4.43692767">
        <ele>28</ele>
        <time>2018-04-23T14:06:21Z</time>
      </trkpt>
      <trkpt lat="36.70499667" lon="-4.436924">
        <ele>28</ele>
        <time>2018-04-23T14:06:22Z</time>
      </trkpt>
      <trkpt lat="36.70501" lon="-4.43691967">
        <ele>28</ele>
        <time>2018-04-23T14:06:23Z</time>
      </trkpt>
      <trkpt lat="36.70502333" lon="-4.436914">
        <ele>28</ele>
        <time>2018-04-23T14:06:24Z</time>
      </trkpt>
      <trkpt lat="36.70503667" lon="-4.43690767">
        <ele>28</ele>
        <time>2018-04-23T14:06:25Z</time>
      </trkpt>
      <trkpt lat="36.70504333" lon="-4.43690233">
        <ele>28</ele>
        <time>2018-04-23T14:06:26Z</time>
      </trkpt>
      <trkpt lat="36.705055" lon="-4.436896">
        <ele>28</ele>
        <time>2018-04-23T14:06:27Z</time>
      </trkpt>
      <trkpt lat="36.70506333" lon="-4.436892">
        <ele>28</ele>
        <time>2018-04-23T14:06:28Z</time>
      </trkpt>
      <trkpt lat="36.705075" lon="-4.43688667">
        <ele>28</ele>
        <time>2018-04-23T14:06:29Z</time>
      </trkpt>
      <trkpt lat="36.705085" lon="-4.43688267">
        <ele>28</ele>
        <time>2018-04-23T14:06:30Z</time>
      </trkpt>
      <trkpt lat="36.705105" lon="-4.436877">
        <ele>28</ele>
        <time>2018-04-23T14:06:31Z</time>
      </trkpt>
      <trkpt lat="36.70511833" lon="-4.43687567">
        <ele>28</ele>
        <time>2018-04-23T14:06:32Z</time>
      </trkpt>
      <trkpt lat="36.705145" lon="-4.43686">
        <ele>28</ele>
        <time>2018-04-23T14:06:38Z</time>
      </trkpt>
      <trkpt lat="36.70515" lon="-4.43685467">
        <ele>28</ele>
        <time>2018-04-23T14:06:39Z</time>
      </trkpt>
      <trkpt lat="36.705155" lon="-4.436847">
        <ele>28</ele>
        <time>2018-04-23T14:06:40Z</time>
      </trkpt>
      <trkpt lat="36.70516167" lon="-4.43684167">
        <ele>28</ele>
        <time>2018-04-23T14:06:41Z</time>
      </trkpt>
      <trkpt lat="36.70517" lon="-4.43683433">
        <ele>28</ele>
        <time>2018-04-23T14:06:42Z</time>
      </trkpt>
      <trkpt lat="36.70517833" lon="-4.43682633">
        <ele>28</ele>
        <time>2018-04-23T14:06:43Z</time>
      </trkpt>
      <trkpt lat="36.70519" lon="-4.43681833">
        <ele>28</ele>
        <time>2018-04-23T14:06:44Z</time>
      </trkpt>
      <trkpt lat="36.70519667" lon="-4.436815">
        <ele>28</ele>
        <time>2018-04-23T14:06:45Z</time>
      </trkpt>
      <trkpt lat="36.70520833" lon="-4.43680533">
        <ele>28</ele>
        <time>2018-04-23T14:06:46Z</time>
      </trkpt>
      <trkpt lat="36.70522" lon="-4.436794">
        <ele>28</ele>
        <time>2018-04-23T14:06:47Z</time>
      </trkpt>
      <trkpt lat="36.70523167" lon="-4.43678167">
        <ele>28</ele>
        <time>2018-04-23T14:06:48Z</time>
      </trkpt>
      <trkpt lat="36.70524" lon="-4.43677167">
        <ele>28</ele>
        <time>2018-04-23T14:06:49Z</time>
      </trkpt>
      <trkpt lat="36.70524" lon="-4.43675667">
        <ele>28</ele>
        <time>2018-04-23T14:06:50Z</time>
      </trkpt>
      <trkpt lat="36.70523667" lon="-4.43674667">
        <ele>28</ele>
        <time>2018-04-23T14:06:51Z</time>
      </trkpt>
      <trkpt lat="36.70523833" lon="-4.43674167">
        <ele>28</ele>
        <time>2018-04-23T14:06:52Z</time>
      </trkpt>
      <trkpt lat="36.705245" lon="-4.43673833">
        <ele>28</ele>
        <time>2018-04-23T14:06:53Z</time>
      </trkpt>
      <trkpt lat="36.70525167" lon="-4.43672833">
        <ele>28</ele>
        <time>2018-04-23T14:06:54Z</time>
      </trkpt>
      <trkpt lat="36.70525833" lon="-4.43671833">
        <ele>28</ele>
        <time>2018-04-23T14:06:55Z</time>
      </trkpt>
      <trkpt lat="36.70527333" lon="-4.43672167">
        <ele>28</ele>
        <time>2018-04-23T14:06:56Z</time>
      </trkpt>
      <trkpt lat="36.70527667" lon="-4.436705">
        <ele>28</ele>
        <time>2018-04-23T14:06:57Z</time>
      </trkpt>
      <trkpt lat="36.70527833" lon="-4.43669733">
        <ele>28</ele>
        <time>2018-04-23T14:06:58Z</time>
      </trkpt>
      <trkpt lat="36.70527833" lon="-4.43668967">
        <ele>28</ele>
        <time>2018-04-23T14:06:59Z</time>
      </trkpt>
      <trkpt lat="36.705285" lon="-4.43666267">
        <ele>28</ele>
        <time>2018-04-23T14:07:00Z</time>
      </trkpt>
      <trkpt lat="36.705295" lon="-4.43664667">
        <ele>28</ele>
        <time>2018-04-23T14:07:01Z</time>
      </trkpt>
      <trkpt lat="36.70531" lon="-4.43663267">
        <ele>28</ele>
        <time>2018-04-23T14:07:02Z</time>
      </trkpt>
      <trkpt lat="36.70532333" lon="-4.436617">
        <ele>28</ele>
        <time>2018-04-23T14:07:03Z</time>
      </trkpt>
      <trkpt lat="36.705325" lon="-4.43661">
        <ele>28</ele>
        <time>2018-04-23T14:07:04Z</time>
      </trkpt>
      <trkpt lat="36.70533167" lon="-4.43659467">
        <ele>28</ele>
        <time>2018-04-23T14:07:05Z</time>
      </trkpt>
      <trkpt lat="36.70533833" lon="-4.43657767">
        <ele>28</ele>
        <time>2018-04-23T14:07:06Z</time>
      </trkpt>
      <trkpt lat="36.705345" lon="-4.43655933">
        <ele>27</ele>
        <time>2018-04-23T14:07:07Z</time>
      </trkpt>
      <trkpt lat="36.70535833" lon="-4.43653033">
        <ele>27</ele>
        <time>2018-04-23T14:07:08Z</time>
      </trkpt>
      <trkpt lat="36.705365" lon="-4.43651867">
        <ele>27</ele>
        <time>2018-04-23T14:07:09Z</time>
      </trkpt>
      <trkpt lat="36.70537833" lon="-4.43652167">
        <ele>27</ele>
        <time>2018-04-23T14:07:10Z</time>
      </trkpt>
      <trkpt lat="36.70538333" lon="-4.43652">
        <ele>27</ele>
        <time>2018-04-23T14:07:11Z</time>
      </trkpt>
      <trkpt lat="36.705385" lon="-4.43651333">
        <ele>27</ele>
        <time>2018-04-23T14:07:12Z</time>
      </trkpt>
      <trkpt lat="36.70538833" lon="-4.43650167">
        <ele>27</ele>
        <time>2018-04-23T14:07:13Z</time>
      </trkpt>
      <trkpt lat="36.70539167" lon="-4.43648833">
        <ele>27</ele>
        <time>2018-04-23T14:07:14Z</time>
      </trkpt>
      <trkpt lat="36.70540633" lon="-4.43648">
        <ele>27</ele>
        <time>2018-04-23T14:07:15Z</time>
      </trkpt>
      <trkpt lat="36.705422" lon="-4.43646833">
        <ele>27</ele>
        <time>2018-04-23T14:07:16Z</time>
      </trkpt>
      <trkpt lat="36.70544667" lon="-4.43646667">
        <ele>27</ele>
        <time>2018-04-23T14:07:17Z</time>
      </trkpt>
      <trkpt lat="36.70545667" lon="-4.43646">
        <ele>27</ele>
        <time>2018-04-23T14:07:18Z</time>
      </trkpt>
      <trkpt lat="36.70546133" lon="-4.43644833">
        <ele>27</ele>
        <time>2018-04-23T14:07:19Z</time>
      </trkpt>
      <trkpt lat="36.70547233" lon="-4.43643333">
        <ele>27</ele>
        <time>2018-04-23T14:07:20Z</time>
      </trkpt>
      <trkpt lat="36.70548067" lon="-4.43642833">
        <ele>27</ele>
        <time>2018-04-23T14:07:21Z</time>
      </trkpt>
      <trkpt lat="36.70549233" lon="-4.43641833">
        <ele>27</ele>
        <time>2018-04-23T14:07:22Z</time>
      </trkpt>
      <trkpt lat="36.70550167" lon="-4.436405">
        <ele>27</ele>
        <time>2018-04-23T14:07:23Z</time>
      </trkpt>
      <trkpt lat="36.705511" lon="-4.43639333">
        <ele>27</ele>
        <time>2018-04-23T14:07:24Z</time>
      </trkpt>
      <trkpt lat="36.705516" lon="-4.43638667">
        <ele>27</ele>
        <time>2018-04-23T14:07:25Z</time>
      </trkpt>
      <trkpt lat="36.70552033" lon="-4.43638333">
        <ele>27</ele>
        <time>2018-04-23T14:07:26Z</time>
      </trkpt>
      <trkpt lat="36.70552533" lon="-4.43638167">
        <ele>27</ele>
        <time>2018-04-23T14:07:27Z</time>
      </trkpt>
      <trkpt lat="36.70553633" lon="-4.43637167">
        <ele>27</ele>
        <time>2018-04-23T14:07:28Z</time>
      </trkpt>
      <trkpt lat="36.70554133" lon="-4.43637">
        <ele>27</ele>
        <time>2018-04-23T14:07:29Z</time>
      </trkpt>
      <trkpt lat="36.70555033" lon="-4.436365">
        <ele>27</ele>
        <time>2018-04-23T14:07:30Z</time>
      </trkpt>
      <trkpt lat="36.70555933" lon="-4.43636">
        <ele>27</ele>
        <time>2018-04-23T14:07:31Z</time>
      </trkpt>
      <trkpt lat="36.70556633" lon="-4.43635667">
        <ele>27</ele>
        <time>2018-04-23T14:07:32Z</time>
      </trkpt>
      <trkpt lat="36.705574" lon="-4.43635333">
        <ele>27</ele>
        <time>2018-04-23T14:07:33Z</time>
      </trkpt>
      <trkpt lat="36.70558733" lon="-4.436345">
        <ele>27</ele>
        <time>2018-04-23T14:07:34Z</time>
      </trkpt>
      <trkpt lat="36.70559733" lon="-4.43634">
        <ele>27</ele>
        <time>2018-04-23T14:07:35Z</time>
      </trkpt>
      <trkpt lat="36.70560967" lon="-4.43633333">
        <ele>27</ele>
        <time>2018-04-23T14:07:36Z</time>
      </trkpt>
      <trkpt lat="36.705627" lon="-4.43632167">
        <ele>27</ele>
        <time>2018-04-23T14:07:37Z</time>
      </trkpt>
      <trkpt lat="36.70563867" lon="-4.43631333">
        <ele>27</ele>
        <time>2018-04-23T14:07:38Z</time>
      </trkpt>
      <trkpt lat="36.70564433" lon="-4.43631">
        <ele>27</ele>
        <time>2018-04-23T14:07:39Z</time>
      </trkpt>
      <trkpt lat="36.70566567" lon="-4.436295">
        <ele>27</ele>
        <time>2018-04-23T14:07:40Z</time>
      </trkpt>
      <trkpt lat="36.70567033" lon="-4.43629167">
        <ele>27</ele>
        <time>2018-04-23T14:07:41Z</time>
      </trkpt>
      <trkpt lat="36.705691" lon="-4.43627333">
        <ele>27</ele>
        <time>2018-04-23T14:07:42Z</time>
      </trkpt>
      <trkpt lat="36.70570733" lon="-4.436255">
        <ele>27</ele>
        <time>2018-04-23T14:07:43Z</time>
      </trkpt>
      <trkpt lat="36.70567" lon="-4.43623667">
        <ele>27</ele>
        <time>2018-04-23T14:07:44Z</time>
      </trkpt>
      <trkpt lat="36.70566167" lon="-4.43622">
        <ele>27</ele>
        <time>2018-04-23T14:07:45Z</time>
      </trkpt>
      <trkpt lat="36.70566833" lon="-4.43620333">
        <ele>27</ele>
        <time>2018-04-23T14:07:46Z</time>
      </trkpt>
      <trkpt lat="36.70566167" lon="-4.436185">
        <ele>27</ele>
        <time>2018-04-23T14:07:47Z</time>
      </trkpt>
      <trkpt lat="36.70566833" lon="-4.436165">
        <ele>27</ele>
        <time>2018-04-23T14:07:48Z</time>
      </trkpt>
      <trkpt lat="36.70566267" lon="-4.43614667">
        <ele>27</ele>
        <time>2018-04-23T14:07:49Z</time>
      </trkpt>
      <trkpt lat="36.70566067" lon="-4.43613333">
        <ele>27</ele>
        <time>2018-04-23T14:07:50Z</time>
      </trkpt>
      <trkpt lat="36.705665" lon="-4.43612">
        <ele>27</ele>
        <time>2018-04-23T14:07:51Z</time>
      </trkpt>
      <trkpt lat="36.70566833" lon="-4.43610833">
        <ele>27</ele>
        <time>2018-04-23T14:07:52Z</time>
      </trkpt>
      <trkpt lat="36.70566667" lon="-4.436105">
        <ele>27</ele>
        <time>2018-04-23T14:07:53Z</time>
      </trkpt>
      <trkpt lat="36.70568333" lon="-4.436105">
        <ele>27</ele>
        <time>2018-04-23T14:07:54Z</time>
      </trkpt>
      <trkpt lat="36.70570167" lon="-4.436115">
        <ele>27</ele>
        <time>2018-04-23T14:07:55Z</time>
      </trkpt>
      <trkpt lat="36.705715" lon="-4.43612433">
        <ele>27</ele>
        <time>2018-04-23T14:07:56Z</time>
      </trkpt>
      <trkpt lat="36.70573667" lon="-4.43613067">
        <ele>27</ele>
        <time>2018-04-23T14:07:57Z</time>
      </trkpt>
      <trkpt lat="36.70575" lon="-4.43613467">
        <ele>27</ele>
        <time>2018-04-23T14:07:58Z</time>
      </trkpt>
      <trkpt lat="36.705765" lon="-4.43613867">
        <ele>27</ele>
        <time>2018-04-23T14:07:59Z</time>
      </trkpt>
      <trkpt lat="36.70577833" lon="-4.43614133">
        <ele>27</ele>
        <time>2018-04-23T14:08:00Z</time>
      </trkpt>
      <trkpt lat="36.70578" lon="-4.43614167">
        <ele>27</ele>
        <time>2018-04-23T14:08:01Z</time>
      </trkpt>
      <trkpt lat="36.70582167" lon="-4.43614167">
        <ele>27</ele>
        <time>2018-04-23T14:08:04Z</time>
      </trkpt>
      <trkpt lat="36.70583" lon="-4.43614167">
        <ele>27</ele>
        <time>2018-04-23T14:08:05Z</time>
      </trkpt>
      <trkpt lat="36.70583833" lon="-4.43614167">
        <ele>27</ele>
        <time>2018-04-23T14:08:06Z</time>
      </trkpt>
      <trkpt lat="36.70584667" lon="-4.43614267">
        <ele>27</ele>
        <time>2018-04-23T14:08:07Z</time>
      </trkpt>
      <trkpt lat="36.70585333" lon="-4.43614133">
        <ele>27</ele>
        <time>2018-04-23T14:08:08Z</time>
      </trkpt>
      <trkpt lat="36.70585833" lon="-4.43613833">
        <ele>27</ele>
        <time>2018-04-23T14:08:09Z</time>
      </trkpt>
      <trkpt lat="36.70587" lon="-4.43613233">
        <ele>27</ele>
        <time>2018-04-23T14:08:10Z</time>
      </trkpt>
      <trkpt lat="36.70588667" lon="-4.43612167">
        <ele>27</ele>
        <time>2018-04-23T14:08:11Z</time>
      </trkpt>
      <trkpt lat="36.70590767" lon="-4.43611333">
        <ele>27</ele>
        <time>2018-04-23T14:08:12Z</time>
      </trkpt>
      <trkpt lat="36.70592333" lon="-4.43611167">
        <ele>27</ele>
        <time>2018-04-23T14:08:13Z</time>
      </trkpt>
      <trkpt lat="36.70594" lon="-4.43610667">
        <ele>27</ele>
        <time>2018-04-23T14:08:14Z</time>
      </trkpt>
      <trkpt lat="36.70596167" lon="-4.4361">
        <ele>27</ele>
        <time>2018-04-23T14:08:15Z</time>
      </trkpt>
      <trkpt lat="36.70598167" lon="-4.43609333">
        <ele>27</ele>
        <time>2018-04-23T14:08:16Z</time>
      </trkpt>
      <trkpt lat="36.706" lon="-4.43608333">
        <ele>27</ele>
        <time>2018-04-23T14:08:17Z</time>
      </trkpt>
      <trkpt lat="36.70600333" lon="-4.43606833">
        <ele>27</ele>
        <time>2018-04-23T14:08:18Z</time>
      </trkpt>
      <trkpt lat="36.70600967" lon="-4.43604833">
        <ele>27</ele>
        <time>2018-04-23T14:08:19Z</time>
      </trkpt>
      <trkpt lat="36.70601833" lon="-4.43603167">
        <ele>27</ele>
        <time>2018-04-23T14:08:20Z</time>
      </trkpt>
      <trkpt lat="36.70602933" lon="-4.43601667">
        <ele>27</ele>
        <time>2018-04-23T14:08:21Z</time>
      </trkpt>
      <trkpt lat="36.70603967" lon="-4.43600667">
        <ele>27</ele>
        <time>2018-04-23T14:08:22Z</time>
      </trkpt>
      <trkpt lat="36.70605" lon="-4.43600333">
        <ele>27</ele>
        <time>2018-04-23T14:08:23Z</time>
      </trkpt>
      <trkpt lat="36.70606167" lon="-4.43599667">
        <ele>27</ele>
        <time>2018-04-23T14:08:24Z</time>
      </trkpt>
      <trkpt lat="36.70608" lon="-4.43597867">
        <ele>27</ele>
        <time>2018-04-23T14:08:25Z</time>
      </trkpt>
      <trkpt lat="36.70608333" lon="-4.43596633">
        <ele>27</ele>
        <time>2018-04-23T14:08:26Z</time>
      </trkpt>
      <trkpt lat="36.70609167" lon="-4.43594167">
        <ele>27</ele>
        <time>2018-04-23T14:08:27Z</time>
      </trkpt>
      <trkpt lat="36.70610833" lon="-4.43592167">
        <ele>27</ele>
        <time>2018-04-23T14:08:28Z</time>
      </trkpt>
      <trkpt lat="36.706122" lon="-4.43590833">
        <ele>27</ele>
        <time>2018-04-23T14:08:29Z</time>
      </trkpt>
      <trkpt lat="36.70613667" lon="-4.43588667">
        <ele>27</ele>
        <time>2018-04-23T14:08:30Z</time>
      </trkpt>
      <trkpt lat="36.70613833" lon="-4.43586667">
        <ele>27</ele>
        <time>2018-04-23T14:08:31Z</time>
      </trkpt>
      <trkpt lat="36.70614667" lon="-4.435853">
        <ele>27</ele>
        <time>2018-04-23T14:08:32Z</time>
      </trkpt>
      <trkpt lat="36.70616333" lon="-4.43584367">
        <ele>27</ele>
        <time>2018-04-23T14:08:33Z</time>
      </trkpt>
      <trkpt lat="36.70618" lon="-4.435835">
        <ele>27</ele>
        <time>2018-04-23T14:08:34Z</time>
      </trkpt>
      <trkpt lat="36.70618667" lon="-4.43582767">
        <ele>27</ele>
        <time>2018-04-23T14:08:35Z</time>
      </trkpt>
      <trkpt lat="36.706195" lon="-4.43582">
        <ele>27</ele>
        <time>2018-04-23T14:08:36Z</time>
      </trkpt>
      <trkpt lat="36.70620333" lon="-4.43581333">
        <ele>27</ele>
        <time>2018-04-23T14:08:37Z</time>
      </trkpt>
      <trkpt lat="36.70621" lon="-4.43581033">
        <ele>27</ele>
        <time>2018-04-23T14:08:38Z</time>
      </trkpt>
      <trkpt lat="36.70622667" lon="-4.43580367">
        <ele>27</ele>
        <time>2018-04-23T14:08:39Z</time>
      </trkpt>
      <trkpt lat="36.70624" lon="-4.43579867">
        <ele>27</ele>
        <time>2018-04-23T14:08:40Z</time>
      </trkpt>
      <trkpt lat="36.70624833" lon="-4.43579467">
        <ele>27</ele>
        <time>2018-04-23T14:08:41Z</time>
      </trkpt>
      <trkpt lat="36.70625833" lon="-4.43579">
        <ele>27</ele>
        <time>2018-04-23T14:08:42Z</time>
      </trkpt>
      <trkpt lat="36.70626833" lon="-4.43578367">
        <ele>27</ele>
        <time>2018-04-23T14:08:43Z</time>
      </trkpt>
      <trkpt lat="36.70627833" lon="-4.43577533">
        <ele>27</ele>
        <time>2018-04-23T14:08:44Z</time>
      </trkpt>
      <trkpt lat="36.70628667" lon="-4.43576733">
        <ele>27</ele>
        <time>2018-04-23T14:08:45Z</time>
      </trkpt>
      <trkpt lat="36.70629167" lon="-4.43576">
        <ele>27</ele>
        <time>2018-04-23T14:08:46Z</time>
      </trkpt>
      <trkpt lat="36.7063" lon="-4.43574967">
        <ele>27</ele>
        <time>2018-04-23T14:08:47Z</time>
      </trkpt>
      <trkpt lat="36.70631" lon="-4.435737">
        <ele>27</ele>
        <time>2018-04-23T14:08:48Z</time>
      </trkpt>
      <trkpt lat="36.70631833" lon="-4.43570833">
        <ele>27</ele>
        <time>2018-04-23T14:08:49Z</time>
      </trkpt>
      <trkpt lat="36.70631967" lon="-4.43569833">
        <ele>27</ele>
        <time>2018-04-23T14:08:50Z</time>
      </trkpt>
      <trkpt lat="36.70632433" lon="-4.435695">
        <ele>27</ele>
        <time>2018-04-23T14:08:51Z</time>
      </trkpt>
      <trkpt lat="36.70632367" lon="-4.43568167">
        <ele>27</ele>
        <time>2018-04-23T14:08:52Z</time>
      </trkpt>
      <trkpt lat="36.706325" lon="-4.43566833">
        <ele>27</ele>
        <time>2018-04-23T14:08:53Z</time>
      </trkpt>
      <trkpt lat="36.70633167" lon="-4.43565333">
        <ele>27</ele>
        <time>2018-04-23T14:08:54Z</time>
      </trkpt>
      <trkpt lat="36.70634833" lon="-4.43564167">
        <ele>27</ele>
        <time>2018-04-23T14:08:55Z</time>
      </trkpt>
      <trkpt lat="36.70635833" lon="-4.43562833">
        <ele>27</ele>
        <time>2018-04-23T14:08:56Z</time>
      </trkpt>
      <trkpt lat="36.70637167" lon="-4.43561567">
        <ele>27</ele>
        <time>2018-04-23T14:08:57Z</time>
      </trkpt>
      <trkpt lat="36.70638" lon="-4.43560533">
        <ele>27</ele>
        <time>2018-04-23T14:08:58Z</time>
      </trkpt>
      <trkpt lat="36.70637667" lon="-4.435604">
        <ele>27</ele>
        <time>2018-04-23T14:08:59Z</time>
      </trkpt>
      <trkpt lat="36.70637833" lon="-4.43559533">
        <ele>27</ele>
        <time>2018-04-23T14:09:00Z</time>
      </trkpt>
      <trkpt lat="36.70638333" lon="-4.435581">
        <ele>27</ele>
        <time>2018-04-23T14:09:01Z</time>
      </trkpt>
      <trkpt lat="36.70638333" lon="-4.43554833">
        <ele>27</ele>
        <time>2018-04-23T14:09:02Z</time>
      </trkpt>
      <trkpt lat="36.70638667" lon="-4.43552833">
        <ele>27</ele>
        <time>2018-04-23T14:09:03Z</time>
      </trkpt>
      <trkpt lat="36.70639033" lon="-4.43551833">
        <ele>27</ele>
        <time>2018-04-23T14:09:04Z</time>
      </trkpt>
      <trkpt lat="36.70639467" lon="-4.435515">
        <ele>27</ele>
        <time>2018-04-23T14:09:05Z</time>
      </trkpt>
      <trkpt lat="36.706399" lon="-4.43550667">
        <ele>27</ele>
        <time>2018-04-23T14:09:06Z</time>
      </trkpt>
      <trkpt lat="36.706402" lon="-4.4355">
        <ele>27</ele>
        <time>2018-04-23T14:09:07Z</time>
      </trkpt>
      <trkpt lat="36.70640467" lon="-4.43549667">
        <ele>27</ele>
        <time>2018-04-23T14:09:08Z</time>
      </trkpt>
      <trkpt lat="36.706407" lon="-4.43549833">
        <ele>28</ele>
        <time>2018-04-23T14:09:09Z</time>
      </trkpt>
      <trkpt lat="36.706416" lon="-4.43549167">
        <ele>28</ele>
        <time>2018-04-23T14:09:10Z</time>
      </trkpt>
      <trkpt lat="36.706445" lon="-4.435485">
        <ele>28</ele>
        <time>2018-04-23T14:09:11Z</time>
      </trkpt>
      <trkpt lat="36.70646167" lon="-4.43547833">
        <ele>28</ele>
        <time>2018-04-23T14:09:12Z</time>
      </trkpt>
      <trkpt lat="36.70648333" lon="-4.43547333">
        <ele>28</ele>
        <time>2018-04-23T14:09:13Z</time>
      </trkpt>
      <trkpt lat="36.70650167" lon="-4.43547667">
        <ele>28</ele>
        <time>2018-04-23T14:09:14Z</time>
      </trkpt>
      <trkpt lat="36.706505" lon="-4.43547167">
        <ele>28</ele>
        <time>2018-04-23T14:09:15Z</time>
      </trkpt>
      <trkpt lat="36.70651333" lon="-4.43546967">
        <ele>28</ele>
        <time>2018-04-23T14:09:16Z</time>
      </trkpt>
      <trkpt lat="36.70652667" lon="-4.43547267">
        <ele>28</ele>
        <time>2018-04-23T14:09:17Z</time>
      </trkpt>
      <trkpt lat="36.70654333" lon="-4.43547067">
        <ele>28</ele>
        <time>2018-04-23T14:09:18Z</time>
      </trkpt>
      <trkpt lat="36.706555" lon="-4.43546733">
        <ele>28</ele>
        <time>2018-04-23T14:09:19Z</time>
      </trkpt>
      <trkpt lat="36.706565" lon="-4.43546633">
        <ele>28</ele>
        <time>2018-04-23T14:09:20Z</time>
      </trkpt>
      <trkpt lat="36.70657" lon="-4.43545733">
        <ele>28</ele>
        <time>2018-04-23T14:09:21Z</time>
      </trkpt>
      <trkpt lat="36.70657667" lon="-4.43544667">
        <ele>28</ele>
        <time>2018-04-23T14:09:22Z</time>
      </trkpt>
      <trkpt lat="36.706585" lon="-4.43540833">
        <ele>28</ele>
        <time>2018-04-23T14:09:23Z</time>
      </trkpt>
      <trkpt lat="36.706595" lon="-4.43539667">
        <ele>28</ele>
        <time>2018-04-23T14:09:24Z</time>
      </trkpt>
      <trkpt lat="36.70661" lon="-4.43539767">
        <ele>30</ele>
        <time>2018-04-23T14:09:25Z</time>
      </trkpt>
      <trkpt lat="36.70662167" lon="-4.43539333">
        <ele>30</ele>
        <time>2018-04-23T14:09:26Z</time>
      </trkpt>
      <trkpt lat="36.70663" lon="-4.435385">
        <ele>30</ele>
        <time>2018-04-23T14:09:26Z</time>
      </trkpt>
      <trkpt lat="36.70664333" lon="-4.43538067">
        <ele>30</ele>
        <time>2018-04-23T14:09:27Z</time>
      </trkpt>
      <trkpt lat="36.70665667" lon="-4.43538233">
        <ele>30</ele>
        <time>2018-04-23T14:09:28Z</time>
      </trkpt>
      <trkpt lat="36.70667" lon="-4.43539167">
        <ele>30</ele>
        <time>2018-04-23T14:09:29Z</time>
      </trkpt>
      <trkpt lat="36.70668333" lon="-4.43539167">
        <ele>30</ele>
        <time>2018-04-23T14:09:30Z</time>
      </trkpt>
      <trkpt lat="36.70669833" lon="-4.43539667">
        <ele>30</ele>
        <time>2018-04-23T14:09:31Z</time>
      </trkpt>
      <trkpt lat="36.70670667" lon="-4.43537633">
        <ele>30</ele>
        <time>2018-04-23T14:09:32Z</time>
      </trkpt>
      <trkpt lat="36.70671667" lon="-4.43536133">
        <ele>30</ele>
        <time>2018-04-23T14:09:33Z</time>
      </trkpt>
      <trkpt lat="36.70672833" lon="-4.43535167">
        <ele>30</ele>
        <time>2018-04-23T14:09:34Z</time>
      </trkpt>
      <trkpt lat="36.706735" lon="-4.43534333">
        <ele>30</ele>
        <time>2018-04-23T14:09:35Z</time>
      </trkpt>
      <trkpt lat="36.70673833" lon="-4.43532333">
        <ele>29</ele>
        <time>2018-04-23T14:09:36Z</time>
      </trkpt>
      <trkpt lat="36.70675333" lon="-4.43531667">
        <ele>29</ele>
        <time>2018-04-23T14:09:37Z</time>
      </trkpt>
      <trkpt lat="36.70677167" lon="-4.43531667">
        <ele>29</ele>
        <time>2018-04-23T14:09:38Z</time>
      </trkpt>
      <trkpt lat="36.70678833" lon="-4.43531767">
        <ele>29</ele>
        <time>2018-04-23T14:09:39Z</time>
      </trkpt>
      <trkpt lat="36.70681" lon="-4.43531333">
        <ele>29</ele>
        <time>2018-04-23T14:09:40Z</time>
      </trkpt>
      <trkpt lat="36.70681833" lon="-4.43530733">
        <ele>29</ele>
        <time>2018-04-23T14:09:41Z</time>
      </trkpt>
      <trkpt lat="36.70682667" lon="-4.43529967">
        <ele>29</ele>
        <time>2018-04-23T14:09:42Z</time>
      </trkpt>
      <trkpt lat="36.70683333" lon="-4.43527833">
        <ele>29</ele>
        <time>2018-04-23T14:09:43Z</time>
      </trkpt>
      <trkpt lat="36.70684167" lon="-4.43526333">
        <ele>29</ele>
        <time>2018-04-23T14:09:44Z</time>
      </trkpt>
      <trkpt lat="36.70685167" lon="-4.43525167">
        <ele>29</ele>
        <time>2018-04-23T14:09:45Z</time>
      </trkpt>
      <trkpt lat="36.70685333" lon="-4.43524567">
        <ele>29</ele>
        <time>2018-04-23T14:09:46Z</time>
      </trkpt>
      <trkpt lat="36.70686" lon="-4.435232">
        <ele>29</ele>
        <time>2018-04-23T14:09:47Z</time>
      </trkpt>
      <trkpt lat="36.70687167" lon="-4.435221">
        <ele>29</ele>
        <time>2018-04-23T14:09:48Z</time>
      </trkpt>
      <trkpt lat="36.70688167" lon="-4.43521">
        <ele>29</ele>
        <time>2018-04-23T14:09:49Z</time>
      </trkpt>
      <trkpt lat="36.70688667" lon="-4.435201">
        <ele>29</ele>
        <time>2018-04-23T14:09:50Z</time>
      </trkpt>
      <trkpt lat="36.7069" lon="-4.43518467">
        <ele>29</ele>
        <time>2018-04-23T14:09:51Z</time>
      </trkpt>
      <trkpt lat="36.70690833" lon="-4.43517567">
        <ele>29</ele>
        <time>2018-04-23T14:09:52Z</time>
      </trkpt>
      <trkpt lat="36.70691667" lon="-4.435165">
        <ele>29</ele>
        <time>2018-04-23T14:09:53Z</time>
      </trkpt>
      <trkpt lat="36.70692" lon="-4.43515867">
        <ele>29</ele>
        <time>2018-04-23T14:09:54Z</time>
      </trkpt>
      <trkpt lat="36.70693" lon="-4.43514333">
        <ele>29</ele>
        <time>2018-04-23T14:09:55Z</time>
      </trkpt>
      <trkpt lat="36.70693667" lon="-4.43513267">
        <ele>29</ele>
        <time>2018-04-23T14:09:56Z</time>
      </trkpt>
      <trkpt lat="36.706945" lon="-4.43512">
        <ele>29</ele>
        <time>2018-04-23T14:09:57Z</time>
      </trkpt>
      <trkpt lat="36.70695333" lon="-4.43510833">
        <ele>29</ele>
        <time>2018-04-23T14:09:58Z</time>
      </trkpt>
      <trkpt lat="36.70696333" lon="-4.43509567">
        <ele>29</ele>
        <time>2018-04-23T14:09:59Z</time>
      </trkpt>
      <trkpt lat="36.70697" lon="-4.43508633">
        <ele>29</ele>
        <time>2018-04-23T14:10:00Z</time>
      </trkpt>
      <trkpt lat="36.70698" lon="-4.435073">
        <ele>29</ele>
        <time>2018-04-23T14:10:01Z</time>
      </trkpt>
      <trkpt lat="36.70698833" lon="-4.43506833">
        <ele>27</ele>
        <time>2018-04-23T14:10:02Z</time>
      </trkpt>
      <trkpt lat="36.706995" lon="-4.43506">
        <ele>27</ele>
        <time>2018-04-23T14:10:03Z</time>
      </trkpt>
      <trkpt lat="36.70699967" lon="-4.43505333">
        <ele>27</ele>
        <time>2018-04-23T14:10:04Z</time>
      </trkpt>
      <trkpt lat="36.70700433" lon="-4.435045">
        <ele>27</ele>
        <time>2018-04-23T14:10:05Z</time>
      </trkpt>
      <trkpt lat="36.70700467" lon="-4.43503833">
        <ele>27</ele>
        <time>2018-04-23T14:10:06Z</time>
      </trkpt>
      <trkpt lat="36.70701" lon="-4.43503">
        <ele>27</ele>
        <time>2018-04-23T14:10:07Z</time>
      </trkpt>
      <trkpt lat="36.70701833" lon="-4.43501667">
        <ele>27</ele>
        <time>2018-04-23T14:10:08Z</time>
      </trkpt>
      <trkpt lat="36.70702267" lon="-4.43500667">
        <ele>27</ele>
        <time>2018-04-23T14:10:09Z</time>
      </trkpt>
      <trkpt lat="36.707029" lon="-4.43499333">
        <ele>27</ele>
        <time>2018-04-23T14:10:10Z</time>
      </trkpt>
      <trkpt lat="36.707034" lon="-4.43499">
        <ele>27</ele>
        <time>2018-04-23T14:10:11Z</time>
      </trkpt>
      <trkpt lat="36.70704367" lon="-4.43498167">
        <ele>29</ele>
        <time>2018-04-23T14:10:12Z</time>
      </trkpt>
      <trkpt lat="36.70706833" lon="-4.43497667">
        <ele>29</ele>
        <time>2018-04-23T14:10:13Z</time>
      </trkpt>
      <trkpt lat="36.70708167" lon="-4.43496667">
        <ele>29</ele>
        <time>2018-04-23T14:10:14Z</time>
      </trkpt>
      <trkpt lat="36.70709" lon="-4.43496333">
        <ele>29</ele>
        <time>2018-04-23T14:10:15Z</time>
      </trkpt>
      <trkpt lat="36.70709" lon="-4.43495833">
        <ele>29</ele>
        <time>2018-04-23T14:10:16Z</time>
      </trkpt>
      <trkpt lat="36.70709833" lon="-4.43494633">
        <ele>29</ele>
        <time>2018-04-23T14:10:17Z</time>
      </trkpt>
      <trkpt lat="36.707095" lon="-4.43493667">
        <ele>29</ele>
        <time>2018-04-23T14:10:18Z</time>
      </trkpt>
      <trkpt lat="36.70709967" lon="-4.43493167">
        <ele>29</ele>
        <time>2018-04-23T14:10:19Z</time>
      </trkpt>
      <trkpt lat="36.70709933" lon="-4.43492667">
        <ele>29</ele>
        <time>2018-04-23T14:10:20Z</time>
      </trkpt>
      <trkpt lat="36.70710033" lon="-4.43491667">
        <ele>23</ele>
        <time>2018-04-23T14:10:21Z</time>
      </trkpt>
      <trkpt lat="36.70710433" lon="-4.434905">
        <ele>30</ele>
        <time>2018-04-23T14:10:22Z</time>
      </trkpt>
      <trkpt lat="36.70711033" lon="-4.434895">
        <ele>30</ele>
        <time>2018-04-23T14:10:23Z</time>
      </trkpt>
      <trkpt lat="36.70711833" lon="-4.43488333">
        <ele>30</ele>
        <time>2018-04-23T14:10:24Z</time>
      </trkpt>
      <trkpt lat="36.70712667" lon="-4.43487333">
        <ele>30</ele>
        <time>2018-04-23T14:10:25Z</time>
      </trkpt>
      <trkpt lat="36.70713567" lon="-4.43486333">
        <ele>30</ele>
        <time>2018-04-23T14:10:26Z</time>
      </trkpt>
      <trkpt lat="36.707148" lon="-4.43484667">
        <ele>30</ele>
        <time>2018-04-23T14:10:27Z</time>
      </trkpt>
      <trkpt lat="36.707157" lon="-4.43483333">
        <ele>30</ele>
        <time>2018-04-23T14:10:28Z</time>
      </trkpt>
      <trkpt lat="36.70716367" lon="-4.43482667">
        <ele>29</ele>
        <time>2018-04-23T14:10:29Z</time>
      </trkpt>
      <trkpt lat="36.70717533" lon="-4.43481333">
        <ele>29</ele>
        <time>2018-04-23T14:10:30Z</time>
      </trkpt>
      <trkpt lat="36.70718267" lon="-4.43480667">
        <ele>29</ele>
        <time>2018-04-23T14:10:31Z</time>
      </trkpt>
      <trkpt lat="36.7072" lon="-4.43479333">
        <ele>29</ele>
        <time>2018-04-23T14:10:32Z</time>
      </trkpt>
      <trkpt lat="36.7072" lon="-4.43478833">
        <ele>29</ele>
        <time>2018-04-23T14:10:33Z</time>
      </trkpt>
      <trkpt lat="36.70719867" lon="-4.43478333">
        <ele>29</ele>
        <time>2018-04-23T14:10:34Z</time>
      </trkpt>
      <trkpt lat="36.707201" lon="-4.43477167">
        <ele>29</ele>
        <time>2018-04-23T14:10:35Z</time>
      </trkpt>
      <trkpt lat="36.70720333" lon="-4.43475833">
        <ele>29</ele>
        <time>2018-04-23T14:10:36Z</time>
      </trkpt>
      <trkpt lat="36.70720833" lon="-4.43475">
        <ele>29</ele>
        <time>2018-04-23T14:10:37Z</time>
      </trkpt>
      <trkpt lat="36.707218" lon="-4.43474167">
        <ele>27</ele>
        <time>2018-04-23T14:10:38Z</time>
      </trkpt>
      <trkpt lat="36.70721967" lon="-4.43473">
        <ele>27</ele>
        <time>2018-04-23T14:10:39Z</time>
      </trkpt>
      <trkpt lat="36.707225" lon="-4.43471833">
        <ele>27</ele>
        <time>2018-04-23T14:10:40Z</time>
      </trkpt>
      <trkpt lat="36.707232" lon="-4.43470833">
        <ele>27</ele>
        <time>2018-04-23T14:10:41Z</time>
      </trkpt>
      <trkpt lat="36.70724333" lon="-4.43470333">
        <ele>27</ele>
        <time>2018-04-23T14:10:42Z</time>
      </trkpt>
      <trkpt lat="36.707255" lon="-4.43469667">
        <ele>27</ele>
        <time>2018-04-23T14:10:43Z</time>
      </trkpt>
      <trkpt lat="36.707255" lon="-4.43468667">
        <ele>27</ele>
        <time>2018-04-23T14:10:44Z</time>
      </trkpt>
      <trkpt lat="36.70726167" lon="-4.43467667">
        <ele>27</ele>
        <time>2018-04-23T14:10:45Z</time>
      </trkpt>
      <trkpt lat="36.70727367" lon="-4.434665">
        <ele>29</ele>
        <time>2018-04-23T14:10:46Z</time>
      </trkpt>
      <trkpt lat="36.70728533" lon="-4.43465167">
        <ele>29</ele>
        <time>2018-04-23T14:10:47Z</time>
      </trkpt>
      <trkpt lat="36.70729233" lon="-4.43464167">
        <ele>29</ele>
        <time>2018-04-23T14:10:48Z</time>
      </trkpt>
      <trkpt lat="36.70730233" lon="-4.43462833">
        <ele>29</ele>
        <time>2018-04-23T14:10:49Z</time>
      </trkpt>
      <trkpt lat="36.70731267" lon="-4.43461833">
        <ele>29</ele>
        <time>2018-04-23T14:10:50Z</time>
      </trkpt>
      <trkpt lat="36.70732367" lon="-4.43460667">
        <ele>29</ele>
        <time>2018-04-23T14:10:51Z</time>
      </trkpt>
      <trkpt lat="36.707335" lon="-4.434595">
        <ele>29</ele>
        <time>2018-04-23T14:10:52Z</time>
      </trkpt>
      <trkpt lat="36.707346" lon="-4.434585">
        <ele>29</ele>
        <time>2018-04-23T14:10:53Z</time>
      </trkpt>
      <trkpt lat="36.707353" lon="-4.43458167">
        <ele>29</ele>
        <time>2018-04-23T14:10:54Z</time>
      </trkpt>
      <trkpt lat="36.70736633" lon="-4.43457167">
        <ele>29</ele>
        <time>2018-04-23T14:10:55Z</time>
      </trkpt>
      <trkpt lat="36.70737767" lon="-4.43456333">
        <ele>29</ele>
        <time>2018-04-23T14:10:56Z</time>
      </trkpt>
      <trkpt lat="36.70739267" lon="-4.43455">
        <ele>29</ele>
        <time>2018-04-23T14:10:57Z</time>
      </trkpt>
      <trkpt lat="36.707402" lon="-4.43454333">
        <ele>29</ele>
        <time>2018-04-23T14:10:58Z</time>
      </trkpt>
      <trkpt lat="36.70741267" lon="-4.43453333">
        <ele>29</ele>
        <time>2018-04-23T14:10:59Z</time>
      </trkpt>
      <trkpt lat="36.70742233" lon="-4.43452167">
        <ele>29</ele>
        <time>2018-04-23T14:11:00Z</time>
      </trkpt>
      <trkpt lat="36.707438" lon="-4.43450167">
        <ele>29</ele>
        <time>2018-04-23T14:11:01Z</time>
      </trkpt>
      <trkpt lat="36.70744733" lon="-4.43448667">
        <ele>29</ele>
        <time>2018-04-23T14:11:02Z</time>
      </trkpt>
      <trkpt lat="36.70745433" lon="-4.434475">
        <ele>29</ele>
        <time>2018-04-23T14:11:03Z</time>
      </trkpt>
      <trkpt lat="36.70745833" lon="-4.43446833">
        <ele>29</ele>
        <time>2018-04-23T14:11:04Z</time>
      </trkpt>
      <trkpt lat="36.70746833" lon="-4.434455">
        <ele>29</ele>
        <time>2018-04-23T14:11:05Z</time>
      </trkpt>
      <trkpt lat="36.70748033" lon="-4.43444">
        <ele>29</ele>
        <time>2018-04-23T14:11:06Z</time>
      </trkpt>
      <trkpt lat="36.707491" lon="-4.43442833">
        <ele>29</ele>
        <time>2018-04-23T14:11:07Z</time>
      </trkpt>
      <trkpt lat="36.70750433" lon="-4.43441167">
        <ele>29</ele>
        <time>2018-04-23T14:11:08Z</time>
      </trkpt>
      <trkpt lat="36.70751567" lon="-4.43439667">
        <ele>29</ele>
        <time>2018-04-23T14:11:09Z</time>
      </trkpt>
      <trkpt lat="36.70752267" lon="-4.43438667">
        <ele>29</ele>
        <time>2018-04-23T14:11:10Z</time>
      </trkpt>
      <trkpt lat="36.707532" lon="-4.434375">
        <ele>29</ele>
        <time>2018-04-23T14:11:11Z</time>
      </trkpt>
      <trkpt lat="36.707539" lon="-4.434365">
        <ele>29</ele>
        <time>2018-04-23T14:11:12Z</time>
      </trkpt>
      <trkpt lat="36.707547" lon="-4.434355">
        <ele>29</ele>
        <time>2018-04-23T14:11:13Z</time>
      </trkpt>
      <trkpt lat="36.70755367" lon="-4.43434667">
        <ele>29</ele>
        <time>2018-04-23T14:11:14Z</time>
      </trkpt>
      <trkpt lat="36.70756233" lon="-4.43433667">
        <ele>29</ele>
        <time>2018-04-23T14:11:15Z</time>
      </trkpt>
      <trkpt lat="36.70757133" lon="-4.434325">
        <ele>29</ele>
        <time>2018-04-23T14:11:16Z</time>
      </trkpt>
      <trkpt lat="36.70758133" lon="-4.43431333">
        <ele>29</ele>
        <time>2018-04-23T14:11:17Z</time>
      </trkpt>
      <trkpt lat="36.70758833" lon="-4.434305">
        <ele>29</ele>
        <time>2018-04-23T14:11:18Z</time>
      </trkpt>
      <trkpt lat="36.70759833" lon="-4.43429333">
        <ele>29</ele>
        <time>2018-04-23T14:11:19Z</time>
      </trkpt>
      <trkpt lat="36.70760667" lon="-4.43428333">
        <ele>29</ele>
        <time>2018-04-23T14:11:20Z</time>
      </trkpt>
      <trkpt lat="36.707615" lon="-4.43427333">
        <ele>27</ele>
        <time>2018-04-23T14:11:21Z</time>
      </trkpt>
      <trkpt lat="36.70762233" lon="-4.434265">
        <ele>27</ele>
        <time>2018-04-23T14:11:22Z</time>
      </trkpt>
      <trkpt lat="36.707631" lon="-4.43425333">
        <ele>27</ele>
        <time>2018-04-23T14:11:23Z</time>
      </trkpt>
      <trkpt lat="36.70764067" lon="-4.43424">
        <ele>27</ele>
        <time>2018-04-23T14:11:24Z</time>
      </trkpt>
      <trkpt lat="36.70764833" lon="-4.43423">
        <ele>27</ele>
        <time>2018-04-23T14:11:25Z</time>
      </trkpt>
      <trkpt lat="36.70765633" lon="-4.43422">
        <ele>27</ele>
        <time>2018-04-23T14:11:26Z</time>
      </trkpt>
      <trkpt lat="36.707655" lon="-4.43421667">
        <ele>27</ele>
        <time>2018-04-23T14:11:27Z</time>
      </trkpt>
      <trkpt lat="36.70765967" lon="-4.434205">
        <ele>27</ele>
        <time>2018-04-23T14:11:28Z</time>
      </trkpt>
      <trkpt lat="36.70766833" lon="-4.43419667">
        <ele>27</ele>
        <time>2018-04-23T14:11:29Z</time>
      </trkpt>
      <trkpt lat="36.707678" lon="-4.43418833">
        <ele>27</ele>
        <time>2018-04-23T14:11:30Z</time>
      </trkpt>
      <trkpt lat="36.70769167" lon="-4.43417833">
        <ele>27</ele>
        <time>2018-04-23T14:11:31Z</time>
      </trkpt>
      <trkpt lat="36.70770533" lon="-4.43416833">
        <ele>27</ele>
        <time>2018-04-23T14:11:32Z</time>
      </trkpt>
      <trkpt lat="36.70772" lon="-4.43415667">
        <ele>27</ele>
        <time>2018-04-23T14:11:33Z</time>
      </trkpt>
      <trkpt lat="36.70773167" lon="-4.43415">
        <ele>27</ele>
        <time>2018-04-23T14:11:34Z</time>
      </trkpt>
      <trkpt lat="36.70773833" lon="-4.434135">
        <ele>27</ele>
        <time>2018-04-23T14:11:35Z</time>
      </trkpt>
      <trkpt lat="36.70774633" lon="-4.434125">
        <ele>27</ele>
        <time>2018-04-23T14:11:36Z</time>
      </trkpt>
      <trkpt lat="36.707757" lon="-4.43411667">
        <ele>27</ele>
        <time>2018-04-23T14:11:37Z</time>
      </trkpt>
      <trkpt lat="36.707765" lon="-4.434105">
        <ele>27</ele>
        <time>2018-04-23T14:11:38Z</time>
      </trkpt>
      <trkpt lat="36.707774" lon="-4.43409333">
        <ele>27</ele>
        <time>2018-04-23T14:11:39Z</time>
      </trkpt>
      <trkpt lat="36.70778033" lon="-4.434085">
        <ele>27</ele>
        <time>2018-04-23T14:11:40Z</time>
      </trkpt>
      <trkpt lat="36.70778967" lon="-4.43407167">
        <ele>27</ele>
        <time>2018-04-23T14:11:41Z</time>
      </trkpt>
      <trkpt lat="36.70779533" lon="-4.43406667">
        <ele>27</ele>
        <time>2018-04-23T14:11:42Z</time>
      </trkpt>
      <trkpt lat="36.70780533" lon="-4.434055">
        <ele>27</ele>
        <time>2018-04-23T14:11:43Z</time>
      </trkpt>
      <trkpt lat="36.70781333" lon="-4.434045">
        <ele>27</ele>
        <time>2018-04-23T14:11:44Z</time>
      </trkpt>
      <trkpt lat="36.70782367" lon="-4.43403333">
        <ele>27</ele>
        <time>2018-04-23T14:11:45Z</time>
      </trkpt>
      <trkpt lat="36.70783133" lon="-4.434025">
        <ele>27</ele>
        <time>2018-04-23T14:11:46Z</time>
      </trkpt>
      <trkpt lat="36.70784" lon="-4.43401333">
        <ele>27</ele>
        <time>2018-04-23T14:11:47Z</time>
      </trkpt>
      <trkpt lat="36.70784667" lon="-4.434005">
        <ele>27</ele>
        <time>2018-04-23T14:11:48Z</time>
      </trkpt>
      <trkpt lat="36.70785633" lon="-4.43399333">
        <ele>27</ele>
        <time>2018-04-23T14:11:49Z</time>
      </trkpt>
      <trkpt lat="36.70786667" lon="-4.43398167">
        <ele>27</ele>
        <time>2018-04-23T14:11:50Z</time>
      </trkpt>
      <trkpt lat="36.70787567" lon="-4.43397167">
        <ele>27</ele>
        <time>2018-04-23T14:11:51Z</time>
      </trkpt>
      <trkpt lat="36.70788233" lon="-4.43396333">
        <ele>27</ele>
        <time>2018-04-23T14:11:52Z</time>
      </trkpt>
      <trkpt lat="36.70789167" lon="-4.43395167">
        <ele>27</ele>
        <time>2018-04-23T14:11:53Z</time>
      </trkpt>
      <trkpt lat="36.70789967" lon="-4.43394167">
        <ele>27</ele>
        <time>2018-04-23T14:11:54Z</time>
      </trkpt>
      <trkpt lat="36.70790733" lon="-4.43393333">
        <ele>27</ele>
        <time>2018-04-23T14:11:55Z</time>
      </trkpt>
      <trkpt lat="36.707918" lon="-4.43392167">
        <ele>27</ele>
        <time>2018-04-23T14:11:56Z</time>
      </trkpt>
      <trkpt lat="36.70792767" lon="-4.43391167">
        <ele>27</ele>
        <time>2018-04-23T14:11:57Z</time>
      </trkpt>
      <trkpt lat="36.70793933" lon="-4.43389833">
        <ele>27</ele>
        <time>2018-04-23T14:11:58Z</time>
      </trkpt>
      <trkpt lat="36.70794833" lon="-4.43388833">
        <ele>27</ele>
        <time>2018-04-23T14:11:59Z</time>
      </trkpt>
      <trkpt lat="36.70795967" lon="-4.433875">
        <ele>27</ele>
        <time>2018-04-23T14:12:00Z</time>
      </trkpt>
      <trkpt lat="36.70796767" lon="-4.433865">
        <ele>27</ele>
        <time>2018-04-23T14:12:01Z</time>
      </trkpt>
      <trkpt lat="36.707976" lon="-4.43385333">
        <ele>27</ele>
        <time>2018-04-23T14:12:02Z</time>
      </trkpt>
      <trkpt lat="36.707985" lon="-4.43384167">
        <ele>27</ele>
        <time>2018-04-23T14:12:03Z</time>
      </trkpt>
      <trkpt lat="36.70799333" lon="-4.43383">
        <ele>27</ele>
        <time>2018-04-23T14:12:04Z</time>
      </trkpt>
      <trkpt lat="36.70800167" lon="-4.43382">
        <ele>27</ele>
        <time>2018-04-23T14:12:05Z</time>
      </trkpt>
      <trkpt lat="36.70801167" lon="-4.43380833">
        <ele>27</ele>
        <time>2018-04-23T14:12:06Z</time>
      </trkpt>
      <trkpt lat="36.70802033" lon="-4.43379667">
        <ele>27</ele>
        <time>2018-04-23T14:12:07Z</time>
      </trkpt>
      <trkpt lat="36.70802633" lon="-4.43378833">
        <ele>27</ele>
        <time>2018-04-23T14:12:08Z</time>
      </trkpt>
      <trkpt lat="36.70803133" lon="-4.43378">
        <ele>27</ele>
        <time>2018-04-23T14:12:09Z</time>
      </trkpt>
      <trkpt lat="36.70803433" lon="-4.433775">
        <ele>27</ele>
        <time>2018-04-23T14:12:10Z</time>
      </trkpt>
      <trkpt lat="36.70803833" lon="-4.43377">
        <ele>27</ele>
        <time>2018-04-23T14:12:11Z</time>
      </trkpt>
      <trkpt lat="36.708043" lon="-4.43376333">
        <ele>27</ele>
        <time>2018-04-23T14:12:12Z</time>
      </trkpt>
      <trkpt lat="36.708044" lon="-4.43376333">
        <ele>27</ele>
        <time>2018-04-23T14:12:13Z</time>
      </trkpt>
      <trkpt lat="36.70805667" lon="-4.43375833">
        <ele>27</ele>
        <time>2018-04-23T14:12:14Z</time>
      </trkpt>
      <trkpt lat="36.70806333" lon="-4.433755">
        <ele>27</ele>
        <time>2018-04-23T14:12:15Z</time>
      </trkpt>
      <trkpt lat="36.70807333" lon="-4.43374833">
        <ele>27</ele>
        <time>2018-04-23T14:12:16Z</time>
      </trkpt>
      <trkpt lat="36.70808333" lon="-4.43374">
        <ele>27</ele>
        <time>2018-04-23T14:12:17Z</time>
      </trkpt>
      <trkpt lat="36.70809333" lon="-4.433731">
        <ele>27</ele>
        <time>2018-04-23T14:12:18Z</time>
      </trkpt>
      <trkpt lat="36.7081" lon="-4.43372">
        <ele>27</ele>
        <time>2018-04-23T14:12:19Z</time>
      </trkpt>
      <trkpt lat="36.708108" lon="-4.43371">
        <ele>27</ele>
        <time>2018-04-23T14:12:20Z</time>
      </trkpt>
      <trkpt lat="36.70811767" lon="-4.433705">
        <ele>27</ele>
        <time>2018-04-23T14:12:21Z</time>
      </trkpt>
      <trkpt lat="36.70812967" lon="-4.43369833">
        <ele>27</ele>
        <time>2018-04-23T14:12:22Z</time>
      </trkpt>
      <trkpt lat="36.70814033" lon="-4.43368833">
        <ele>27</ele>
        <time>2018-04-23T14:12:23Z</time>
      </trkpt>
      <trkpt lat="36.70814833" lon="-4.43368">
        <ele>27</ele>
        <time>2018-04-23T14:12:24Z</time>
      </trkpt>
      <trkpt lat="36.70815567" lon="-4.43367">
        <ele>27</ele>
        <time>2018-04-23T14:12:25Z</time>
      </trkpt>
      <trkpt lat="36.70815867" lon="-4.43366833">
        <ele>27</ele>
        <time>2018-04-23T14:12:26Z</time>
      </trkpt>
      <trkpt lat="36.708176" lon="-4.43365333">
        <ele>27</ele>
        <time>2018-04-23T14:12:27Z</time>
      </trkpt>
      <trkpt lat="36.708189" lon="-4.43363667">
        <ele>27</ele>
        <time>2018-04-23T14:12:28Z</time>
      </trkpt>
      <trkpt lat="36.708196" lon="-4.43362167">
        <ele>27</ele>
        <time>2018-04-23T14:12:29Z</time>
      </trkpt>
      <trkpt lat="36.708203" lon="-4.43360667">
        <ele>27</ele>
        <time>2018-04-23T14:12:30Z</time>
      </trkpt>
      <trkpt lat="36.708213" lon="-4.43357833">
        <ele>27</ele>
        <time>2018-04-23T14:12:31Z</time>
      </trkpt>
      <trkpt lat="36.708214" lon="-4.43357667">
        <ele>27</ele>
        <time>2018-04-23T14:12:32Z</time>
      </trkpt>
      <trkpt lat="36.708219" lon="-4.43357333">
        <ele>27</ele>
        <time>2018-04-23T14:12:33Z</time>
      </trkpt>
      <trkpt lat="36.708223" lon="-4.43357333">
        <ele>27</ele>
        <time>2018-04-23T14:12:34Z</time>
      </trkpt>
      <trkpt lat="36.70820333" lon="-4.43256167">
        <ele>-34</ele>
        <time>2018-04-23T14:20:37Z</time>
      </trkpt>
      <trkpt lat="36.708215" lon="-4.43261667">
        <ele>-34</ele>
        <time>2018-04-23T14:20:37Z</time>
      </trkpt>
      <trkpt lat="36.70821667" lon="-4.43262167">
        <ele>-34</ele>
        <time>2018-04-23T14:20:37Z</time>
      </trkpt>
      <trkpt lat="36.70823333" lon="-4.43262333">
        <ele>-34</ele>
        <time>2018-04-23T14:20:37Z</time>
      </trkpt>
      <trkpt lat="36.70821667" lon="-4.43260333">
        <ele>-34</ele>
        <time>2018-04-23T14:20:37Z</time>
      </trkpt>
      <trkpt lat="36.708225" lon="-4.43256167">
        <ele>-34</ele>
        <time>2018-04-23T14:20:37Z</time>
      </trkpt>
      <trkpt lat="36.70822" lon="-4.43253833">
        <ele>-34</ele>
        <time>2018-04-23T14:20:37Z</time>
      </trkpt>
      <trkpt lat="36.708215" lon="-4.43252667">
        <ele>-34</ele>
        <time>2018-04-23T14:20:37Z</time>
      </trkpt>
      <trkpt lat="36.70820667" lon="-4.43251667">
        <ele>-34</ele>
        <time>2018-04-23T14:20:37Z</time>
      </trkpt>
      <trkpt lat="36.70819" lon="-4.43250167">
        <ele>-34</ele>
        <time>2018-04-23T14:20:37Z</time>
      </trkpt>
      <trkpt lat="36.70817333" lon="-4.43250667">
        <ele>-34</ele>
        <time>2018-04-23T14:20:37Z</time>
      </trkpt>
      <trkpt lat="36.70815" lon="-4.432535">
        <ele>-34</ele>
        <time>2018-04-23T14:20:37Z</time>
      </trkpt>
      <trkpt lat="36.70812167" lon="-4.432555">
        <ele>-34</ele>
        <time>2018-04-23T14:20:37Z</time>
      </trkpt>
      <trkpt lat="36.70811333" lon="-4.43255667">
        <ele>-30</ele>
        <time>2018-04-23T14:20:37Z</time>
      </trkpt>
      <trkpt lat="36.708105" lon="-4.432565">
        <ele>-34</ele>
        <time>2018-04-23T14:20:37Z</time>
      </trkpt>
      <trkpt lat="36.708115" lon="-4.432545">
        <ele>-31</ele>
        <time>2018-04-23T14:20:37Z</time>
      </trkpt>
      <trkpt lat="36.708125" lon="-4.432535">
        <ele>-31</ele>
        <time>2018-04-23T14:20:37Z</time>
      </trkpt>
      <trkpt lat="36.70811833" lon="-4.43253333">
        <ele>-31</ele>
        <time>2018-04-23T14:20:37Z</time>
      </trkpt>
      <trkpt lat="36.70810833" lon="-4.43252333">
        <ele>-31</ele>
        <time>2018-04-23T14:20:37Z</time>
      </trkpt>
      <trkpt lat="36.70810333" lon="-4.43252333">
        <ele>-31</ele>
        <time>2018-04-23T14:20:37Z</time>
      </trkpt>
      <trkpt lat="36.70810167" lon="-4.43251167">
        <ele>-33</ele>
        <time>2018-04-23T14:20:37Z</time>
      </trkpt>
      <trkpt lat="36.70809833" lon="-4.43249833">
        <ele>-33</ele>
        <time>2018-04-23T14:20:37Z</time>
      </trkpt>
      <trkpt lat="36.708085" lon="-4.43248333">
        <ele>-33</ele>
        <time>2018-04-23T14:20:37Z</time>
      </trkpt>
      <trkpt lat="36.70808333" lon="-4.43247667">
        <ele>-30</ele>
        <time>2018-04-23T14:20:37Z</time>
      </trkpt>
      <trkpt lat="36.70808667" lon="-4.43254333">
        <ele>-30</ele>
        <time>2018-04-23T14:20:37Z</time>
      </trkpt>
      <trkpt lat="36.708095" lon="-4.43258">
        <ele>-30</ele>
        <time>2018-04-23T14:20:37Z</time>
      </trkpt>
      <trkpt lat="36.70806833" lon="-4.43262667">
        <ele>-30</ele>
        <time>2018-04-23T14:20:37Z</time>
      </trkpt>
      <trkpt lat="36.70806167" lon="-4.43265333">
        <ele>-30</ele>
        <time>2018-04-23T14:20:37Z</time>
      </trkpt>
      <trkpt lat="36.70805167" lon="-4.43264667">
        <ele>-33</ele>
        <time>2018-04-23T14:20:37Z</time>
      </trkpt>
      <trkpt lat="36.70803333" lon="-4.43264">
        <ele>-33</ele>
        <time>2018-04-23T14:20:37Z</time>
      </trkpt>
      <trkpt lat="36.708045" lon="-4.43262833">
        <ele>-33</ele>
        <time>2018-04-23T14:20:37Z</time>
      </trkpt>
      <trkpt lat="36.70804967" lon="-4.43262333">
        <ele>-27</ele>
        <time>2018-04-23T14:20:38Z</time>
      </trkpt>
      <trkpt lat="36.70805333" lon="-4.43262167">
        <ele>-32</ele>
        <time>2018-04-23T14:20:39Z</time>
      </trkpt>
      <trkpt lat="36.70805333" lon="-4.43261667">
        <ele>-29</ele>
        <time>2018-04-23T14:20:40Z</time>
      </trkpt>
      <trkpt lat="36.70804833" lon="-4.4326">
        <ele>-29</ele>
        <time>2018-04-23T14:20:41Z</time>
      </trkpt>
      <trkpt lat="36.70803833" lon="-4.43258933">
        <ele>-29</ele>
        <time>2018-04-23T14:20:42Z</time>
      </trkpt>
      <trkpt lat="36.70806167" lon="-4.43260867">
        <ele>-30</ele>
        <time>2018-04-23T14:20:43Z</time>
      </trkpt>
      <trkpt lat="36.708075" lon="-4.43259867">
        <ele>-30</ele>
        <time>2018-04-23T14:20:44Z</time>
      </trkpt>
      <trkpt lat="36.70808667" lon="-4.432585">
        <ele>-30</ele>
        <time>2018-04-23T14:20:45Z</time>
      </trkpt>
      <trkpt lat="36.70807167" lon="-4.43256">
        <ele>-30</ele>
        <time>2018-04-23T14:20:46Z</time>
      </trkpt>
      <trkpt lat="36.70804167" lon="-4.43253333">
        <ele>-30</ele>
        <time>2018-04-23T14:20:47Z</time>
      </trkpt>
      <trkpt lat="36.70801833" lon="-4.43252633">
        <ele>-30</ele>
        <time>2018-04-23T14:20:48Z</time>
      </trkpt>
      <trkpt lat="36.70799833" lon="-4.43254067">
        <ele>-30</ele>
        <time>2018-04-23T14:20:49Z</time>
      </trkpt>
      <trkpt lat="36.70799167" lon="-4.432557">
        <ele>-30</ele>
        <time>2018-04-23T14:20:50Z</time>
      </trkpt>
      <trkpt lat="36.70797667" lon="-4.43254933">
        <ele>-30</ele>
        <time>2018-04-23T14:20:51Z</time>
      </trkpt>
      <trkpt lat="36.70795833" lon="-4.43252733">
        <ele>-30</ele>
        <time>2018-04-23T14:20:52Z</time>
      </trkpt>
      <trkpt lat="36.70795333" lon="-4.43250467">
        <ele>-30</ele>
        <time>2018-04-23T14:20:53Z</time>
      </trkpt>
      <trkpt lat="36.707955" lon="-4.43249133">
        <ele>-30</ele>
        <time>2018-04-23T14:20:54Z</time>
      </trkpt>
      <trkpt lat="36.707955" lon="-4.432478">
        <ele>-30</ele>
        <time>2018-04-23T14:20:55Z</time>
      </trkpt>
      <trkpt lat="36.707925" lon="-4.43243533">
        <ele>-30</ele>
        <time>2018-04-23T14:20:56Z</time>
      </trkpt>
      <trkpt lat="36.7079" lon="-4.43239633">
        <ele>-30</ele>
        <time>2018-04-23T14:20:57Z</time>
      </trkpt>
      <trkpt lat="36.70788667" lon="-4.43237267">
        <ele>-32</ele>
        <time>2018-04-23T14:20:58Z</time>
      </trkpt>
      <trkpt lat="36.70786833" lon="-4.432346">
        <ele>-32</ele>
        <time>2018-04-23T14:20:59Z</time>
      </trkpt>
      <trkpt lat="36.70784167" lon="-4.43231">
        <ele>-32</ele>
        <time>2018-04-23T14:21:00Z</time>
      </trkpt>
      <trkpt lat="36.70782167" lon="-4.432284">
        <ele>-32</ele>
        <time>2018-04-23T14:21:01Z</time>
      </trkpt>
      <trkpt lat="36.70780667" lon="-4.43226667">
        <ele>-32</ele>
        <time>2018-04-23T14:21:02Z</time>
      </trkpt>
      <trkpt lat="36.70780333" lon="-4.432275">
        <ele>-32</ele>
        <time>2018-04-23T14:21:03Z</time>
      </trkpt>
      <trkpt lat="36.707798" lon="-4.43228">
        <ele>-32</ele>
        <time>2018-04-23T14:21:04Z</time>
      </trkpt>
      <trkpt lat="36.70778333" lon="-4.43228167">
        <ele>-32</ele>
        <time>2018-04-23T14:21:05Z</time>
      </trkpt>
      <trkpt lat="36.707775" lon="-4.43228667">
        <ele>-32</ele>
        <time>2018-04-23T14:21:06Z</time>
      </trkpt>
      <trkpt lat="36.70777" lon="-4.43228667">
        <ele>-32</ele>
        <time>2018-04-23T14:21:07Z</time>
      </trkpt>
      <trkpt lat="36.70775667" lon="-4.43228333">
        <ele>-32</ele>
        <time>2018-04-23T14:21:08Z</time>
      </trkpt>
      <trkpt lat="36.707747" lon="-4.43227833">
        <ele>-32</ele>
        <time>2018-04-23T14:21:09Z</time>
      </trkpt>
      <trkpt lat="36.707748" lon="-4.43228167">
        <ele>-32</ele>
        <time>2018-04-23T14:21:10Z</time>
      </trkpt>
      <trkpt lat="36.707732" lon="-4.43227167">
        <ele>-32</ele>
        <time>2018-04-23T14:21:11Z</time>
      </trkpt>
      <trkpt lat="36.70772733" lon="-4.43226333">
        <ele>-32</ele>
        <time>2018-04-23T14:21:12Z</time>
      </trkpt>
      <trkpt lat="36.70771767" lon="-4.43224833">
        <ele>-32</ele>
        <time>2018-04-23T14:21:13Z</time>
      </trkpt>
      <trkpt lat="36.707711" lon="-4.43224">
        <ele>-32</ele>
        <time>2018-04-23T14:21:14Z</time>
      </trkpt>
      <trkpt lat="36.70770733" lon="-4.43224">
        <ele>-32</ele>
        <time>2018-04-23T14:21:15Z</time>
      </trkpt>
      <trkpt lat="36.70771533" lon="-4.43225167">
        <ele>-32</ele>
        <time>2018-04-23T14:21:16Z</time>
      </trkpt>
      <trkpt lat="36.707709" lon="-4.43224833">
        <ele>-32</ele>
        <time>2018-04-23T14:21:17Z</time>
      </trkpt>
      <trkpt lat="36.70768" lon="-4.43224667">
        <ele>-32</ele>
        <time>2018-04-23T14:21:18Z</time>
      </trkpt>
      <trkpt lat="36.70767" lon="-4.43223833">
        <ele>-32</ele>
        <time>2018-04-23T14:21:19Z</time>
      </trkpt>
      <trkpt lat="36.70767333" lon="-4.43223667">
        <ele>-32</ele>
        <time>2018-04-23T14:21:20Z</time>
      </trkpt>
      <trkpt lat="36.70765667" lon="-4.4322">
        <ele>-32</ele>
        <time>2018-04-23T14:21:21Z</time>
      </trkpt>
      <trkpt lat="36.70764333" lon="-4.43217667">
        <ele>-32</ele>
        <time>2018-04-23T14:21:22Z</time>
      </trkpt>
      <trkpt lat="36.70762667" lon="-4.43215">
        <ele>-32</ele>
        <time>2018-04-23T14:21:23Z</time>
      </trkpt>
      <trkpt lat="36.707615" lon="-4.43213">
        <ele>-32</ele>
        <time>2018-04-23T14:21:24Z</time>
      </trkpt>
      <trkpt lat="36.70761367" lon="-4.43212333">
        <ele>-32</ele>
        <time>2018-04-23T14:21:25Z</time>
      </trkpt>
      <trkpt lat="36.707604" lon="-4.432105">
        <ele>-32</ele>
        <time>2018-04-23T14:21:26Z</time>
      </trkpt>
      <trkpt lat="36.70761167" lon="-4.43211">
        <ele>-32</ele>
        <time>2018-04-23T14:21:27Z</time>
      </trkpt>
      <trkpt lat="36.70760333" lon="-4.432095">
        <ele>-33</ele>
        <time>2018-04-23T14:21:28Z</time>
      </trkpt>
      <trkpt lat="36.70759" lon="-4.432085">
        <ele>-33</ele>
        <time>2018-04-23T14:21:29Z</time>
      </trkpt>
      <trkpt lat="36.70757833" lon="-4.43207533">
        <ele>-33</ele>
        <time>2018-04-23T14:21:30Z</time>
      </trkpt>
      <trkpt lat="36.70756333" lon="-4.43205833">
        <ele>-33</ele>
        <time>2018-04-23T14:21:31Z</time>
      </trkpt>
      <trkpt lat="36.70756167" lon="-4.43204667">
        <ele>-33</ele>
        <time>2018-04-23T14:21:32Z</time>
      </trkpt>
      <trkpt lat="36.707555" lon="-4.43203667">
        <ele>-33</ele>
        <time>2018-04-23T14:21:33Z</time>
      </trkpt>
      <trkpt lat="36.707555" lon="-4.43203333">
        <ele>-33</ele>
        <time>2018-04-23T14:21:34Z</time>
      </trkpt>
      <trkpt lat="36.70754" lon="-4.43201833">
        <ele>-33</ele>
        <time>2018-04-23T14:21:35Z</time>
      </trkpt>
      <trkpt lat="36.707525" lon="-4.43200467">
        <ele>-33</ele>
        <time>2018-04-23T14:21:36Z</time>
      </trkpt>
      <trkpt lat="36.707515" lon="-4.431994">
        <ele>-33</ele>
        <time>2018-04-23T14:21:37Z</time>
      </trkpt>
      <trkpt lat="36.70751" lon="-4.431988">
        <ele>-33</ele>
        <time>2018-04-23T14:21:38Z</time>
      </trkpt>
      <trkpt lat="36.70751" lon="-4.431986">
        <ele>-33</ele>
        <time>2018-04-23T14:21:39Z</time>
      </trkpt>
      <trkpt lat="36.70750333" lon="-4.43197633">
        <ele>-33</ele>
        <time>2018-04-23T14:21:40Z</time>
      </trkpt>
      <trkpt lat="36.707495" lon="-4.431967">
        <ele>-33</ele>
        <time>2018-04-23T14:21:41Z</time>
      </trkpt>
      <trkpt lat="36.707485" lon="-4.43196067">
        <ele>-33</ele>
        <time>2018-04-23T14:21:42Z</time>
      </trkpt>
      <trkpt lat="36.707475" lon="-4.431955">
        <ele>-31</ele>
        <time>2018-04-23T14:21:43Z</time>
      </trkpt>
      <trkpt lat="36.70746667" lon="-4.431952">
        <ele>-31</ele>
        <time>2018-04-23T14:21:44Z</time>
      </trkpt>
      <trkpt lat="36.70746" lon="-4.431946">
        <ele>-31</ele>
        <time>2018-04-23T14:21:45Z</time>
      </trkpt>
      <trkpt lat="36.70745833" lon="-4.431945">
        <ele>-31</ele>
        <time>2018-04-23T14:21:46Z</time>
      </trkpt>
      <trkpt lat="36.707455" lon="-4.43194">
        <ele>-31</ele>
        <time>2018-04-23T14:21:47Z</time>
      </trkpt>
      <trkpt lat="36.70744667" lon="-4.43192933">
        <ele>-31</ele>
        <time>2018-04-23T14:21:48Z</time>
      </trkpt>
      <trkpt lat="36.70744333" lon="-4.4319">
        <ele>-31</ele>
        <time>2018-04-23T14:21:49Z</time>
      </trkpt>
      <trkpt lat="36.70743667" lon="-4.43188167">
        <ele>-31</ele>
        <time>2018-04-23T14:21:50Z</time>
      </trkpt>
      <trkpt lat="36.707435" lon="-4.43186667">
        <ele>-31</ele>
        <time>2018-04-23T14:21:51Z</time>
      </trkpt>
      <trkpt lat="36.70743" lon="-4.43184833">
        <ele>-31</ele>
        <time>2018-04-23T14:21:52Z</time>
      </trkpt>
      <trkpt lat="36.70743333" lon="-4.43183167">
        <ele>-31</ele>
        <time>2018-04-23T14:21:53Z</time>
      </trkpt>
      <trkpt lat="36.70742667" lon="-4.43181333">
        <ele>-31</ele>
        <time>2018-04-23T14:21:54Z</time>
      </trkpt>
      <trkpt lat="36.70741867" lon="-4.43179667">
        <ele>-31</ele>
        <time>2018-04-23T14:21:55Z</time>
      </trkpt>
      <trkpt lat="36.707405" lon="-4.43177667">
        <ele>-31</ele>
        <time>2018-04-23T14:21:56Z</time>
      </trkpt>
      <trkpt lat="36.70739167" lon="-4.43176167">
        <ele>-31</ele>
        <time>2018-04-23T14:21:57Z</time>
      </trkpt>
      <trkpt lat="36.70737833" lon="-4.43175">
        <ele>-31</ele>
        <time>2018-04-23T14:21:58Z</time>
      </trkpt>
      <trkpt lat="36.70736167" lon="-4.431735">
        <ele>-31</ele>
        <time>2018-04-23T14:21:59Z</time>
      </trkpt>
      <trkpt lat="36.70734667" lon="-4.431719">
        <ele>-31</ele>
        <time>2018-04-23T14:22:00Z</time>
      </trkpt>
      <trkpt lat="36.70733167" lon="-4.43170233">
        <ele>-31</ele>
        <time>2018-04-23T14:22:01Z</time>
      </trkpt>
      <trkpt lat="36.70731833" lon="-4.43168667">
        <ele>-31</ele>
        <time>2018-04-23T14:22:02Z</time>
      </trkpt>
      <trkpt lat="36.707305" lon="-4.43166167">
        <ele>-31</ele>
        <time>2018-04-23T14:22:03Z</time>
      </trkpt>
      <trkpt lat="36.70728833" lon="-4.43164833">
        <ele>-31</ele>
        <time>2018-04-23T14:22:04Z</time>
      </trkpt>
      <trkpt lat="36.707273" lon="-4.431635">
        <ele>-31</ele>
        <time>2018-04-23T14:22:05Z</time>
      </trkpt>
      <trkpt lat="36.70726" lon="-4.43162">
        <ele>-31</ele>
        <time>2018-04-23T14:22:06Z</time>
      </trkpt>
      <trkpt lat="36.707245" lon="-4.43160333">
        <ele>-31</ele>
        <time>2018-04-23T14:22:07Z</time>
      </trkpt>
      <trkpt lat="36.70723367" lon="-4.43159333">
        <ele>-31</ele>
        <time>2018-04-23T14:22:08Z</time>
      </trkpt>
      <trkpt lat="36.70721333" lon="-4.43159">
        <ele>-31</ele>
        <time>2018-04-23T14:22:09Z</time>
      </trkpt>
      <trkpt lat="36.707195" lon="-4.43157833">
        <ele>-31</ele>
        <time>2018-04-23T14:22:10Z</time>
      </trkpt>
      <trkpt lat="36.70717833" lon="-4.43156567">
        <ele>-31</ele>
        <time>2018-04-23T14:22:11Z</time>
      </trkpt>
      <trkpt lat="36.70716667" lon="-4.43155567">
        <ele>-33</ele>
        <time>2018-04-23T14:22:12Z</time>
      </trkpt>
      <trkpt lat="36.707155" lon="-4.43154433">
        <ele>-33</ele>
        <time>2018-04-23T14:22:13Z</time>
      </trkpt>
      <trkpt lat="36.70714167" lon="-4.43152667">
        <ele>-33</ele>
        <time>2018-04-23T14:22:14Z</time>
      </trkpt>
      <trkpt lat="36.70712667" lon="-4.43151167">
        <ele>-33</ele>
        <time>2018-04-23T14:22:15Z</time>
      </trkpt>
      <trkpt lat="36.707113" lon="-4.43149667">
        <ele>-33</ele>
        <time>2018-04-23T14:22:16Z</time>
      </trkpt>
      <trkpt lat="36.70709567" lon="-4.431475">
        <ele>-33</ele>
        <time>2018-04-23T14:22:17Z</time>
      </trkpt>
      <trkpt lat="36.707083" lon="-4.43145667">
        <ele>-33</ele>
        <time>2018-04-23T14:22:18Z</time>
      </trkpt>
      <trkpt lat="36.70707467" lon="-4.43144333">
        <ele>-33</ele>
        <time>2018-04-23T14:22:19Z</time>
      </trkpt>
      <trkpt lat="36.707066" lon="-4.43143167">
        <ele>-33</ele>
        <time>2018-04-23T14:22:20Z</time>
      </trkpt>
      <trkpt lat="36.70705333" lon="-4.43141667">
        <ele>-33</ele>
        <time>2018-04-23T14:22:21Z</time>
      </trkpt>
      <trkpt lat="36.70704167" lon="-4.43140167">
        <ele>-33</ele>
        <time>2018-04-23T14:22:22Z</time>
      </trkpt>
      <trkpt lat="36.70702833" lon="-4.43138767">
        <ele>-33</ele>
        <time>2018-04-23T14:22:23Z</time>
      </trkpt>
      <trkpt lat="36.70701667" lon="-4.431377">
        <ele>-33</ele>
        <time>2018-04-23T14:22:24Z</time>
      </trkpt>
      <trkpt lat="36.70700167" lon="-4.43136467">
        <ele>-33</ele>
        <time>2018-04-23T14:22:25Z</time>
      </trkpt>
      <trkpt lat="36.70698833" lon="-4.43135467">
        <ele>-33</ele>
        <time>2018-04-23T14:22:26Z</time>
      </trkpt>
      <trkpt lat="36.70697667" lon="-4.431345">
        <ele>-33</ele>
        <time>2018-04-23T14:22:27Z</time>
      </trkpt>
      <trkpt lat="36.70696333" lon="-4.43133467">
        <ele>-33</ele>
        <time>2018-04-23T14:22:28Z</time>
      </trkpt>
      <trkpt lat="36.706955" lon="-4.43132867">
        <ele>-33</ele>
        <time>2018-04-23T14:22:29Z</time>
      </trkpt>
      <trkpt lat="36.70694333" lon="-4.43131967">
        <ele>-33</ele>
        <time>2018-04-23T14:22:30Z</time>
      </trkpt>
      <trkpt lat="36.70693333" lon="-4.431311">
        <ele>-33</ele>
        <time>2018-04-23T14:22:31Z</time>
      </trkpt>
      <trkpt lat="36.706925" lon="-4.43130333">
        <ele>-33</ele>
        <time>2018-04-23T14:22:32Z</time>
      </trkpt>
      <trkpt lat="36.70691833" lon="-4.43129733">
        <ele>-33</ele>
        <time>2018-04-23T14:22:33Z</time>
      </trkpt>
      <trkpt lat="36.70691167" lon="-4.43129233">
        <ele>-33</ele>
        <time>2018-04-23T14:22:34Z</time>
      </trkpt>
      <trkpt lat="36.70690167" lon="-4.43128433">
        <ele>-33</ele>
        <time>2018-04-23T14:22:35Z</time>
      </trkpt>
      <trkpt lat="36.70689" lon="-4.43127533">
        <ele>-33</ele>
        <time>2018-04-23T14:22:36Z</time>
      </trkpt>
      <trkpt lat="36.70688167" lon="-4.431269">
        <ele>-33</ele>
        <time>2018-04-23T14:22:37Z</time>
      </trkpt>
      <trkpt lat="36.70687" lon="-4.43125967">
        <ele>-33</ele>
        <time>2018-04-23T14:22:38Z</time>
      </trkpt>
      <trkpt lat="36.70685667" lon="-4.43124867">
        <ele>-33</ele>
        <time>2018-04-23T14:22:39Z</time>
      </trkpt>
      <trkpt lat="36.70684333" lon="-4.43124033">
        <ele>-33</ele>
        <time>2018-04-23T14:22:40Z</time>
      </trkpt>
      <trkpt lat="36.70682833" lon="-4.431232">
        <ele>-33</ele>
        <time>2018-04-23T14:22:41Z</time>
      </trkpt>
      <trkpt lat="36.70681" lon="-4.43124667">
        <ele>-33</ele>
        <time>2018-04-23T14:22:42Z</time>
      </trkpt>
      <trkpt lat="36.706795" lon="-4.43124667">
        <ele>-33</ele>
        <time>2018-04-23T14:22:43Z</time>
      </trkpt>
      <trkpt lat="36.70677833" lon="-4.43124367">
        <ele>-33</ele>
        <time>2018-04-23T14:22:44Z</time>
      </trkpt>
      <trkpt lat="36.70676833" lon="-4.431241">
        <ele>-33</ele>
        <time>2018-04-23T14:22:45Z</time>
      </trkpt>
      <trkpt lat="36.70675333" lon="-4.43123633">
        <ele>-33</ele>
        <time>2018-04-23T14:22:46Z</time>
      </trkpt>
      <trkpt lat="36.70674" lon="-4.43123233">
        <ele>-33</ele>
        <time>2018-04-23T14:22:47Z</time>
      </trkpt>
      <trkpt lat="36.706725" lon="-4.43122967">
        <ele>-33</ele>
        <time>2018-04-23T14:22:48Z</time>
      </trkpt>
      <trkpt lat="36.70671167" lon="-4.431228">
        <ele>-33</ele>
        <time>2018-04-23T14:22:49Z</time>
      </trkpt>
      <trkpt lat="36.70669833" lon="-4.431226">
        <ele>-33</ele>
        <time>2018-04-23T14:22:50Z</time>
      </trkpt>
      <trkpt lat="36.70668833" lon="-4.43122433">
        <ele>-33</ele>
        <time>2018-04-23T14:22:51Z</time>
      </trkpt>
      <trkpt lat="36.70667833" lon="-4.431221">
        <ele>-33</ele>
        <time>2018-04-23T14:22:52Z</time>
      </trkpt>
      <trkpt lat="36.70666833" lon="-4.43121733">
        <ele>-33</ele>
        <time>2018-04-23T14:22:53Z</time>
      </trkpt>
      <trkpt lat="36.70665833" lon="-4.431205">
        <ele>-33</ele>
        <time>2018-04-23T14:22:54Z</time>
      </trkpt>
      <trkpt lat="36.70665" lon="-4.43119533">
        <ele>-33</ele>
        <time>2018-04-23T14:22:55Z</time>
      </trkpt>
      <trkpt lat="36.70664" lon="-4.431186">
        <ele>-33</ele>
        <time>2018-04-23T14:22:56Z</time>
      </trkpt>
      <trkpt lat="36.70663" lon="-4.43117667">
        <ele>-33</ele>
        <time>2018-04-23T14:22:57Z</time>
      </trkpt>
      <trkpt lat="36.706625" lon="-4.43117067">
        <ele>-33</ele>
        <time>2018-04-23T14:22:58Z</time>
      </trkpt>
      <trkpt lat="36.70661833" lon="-4.43116233">
        <ele>-33</ele>
        <time>2018-04-23T14:22:59Z</time>
      </trkpt>
      <trkpt lat="36.70661" lon="-4.43115267">
        <ele>-33</ele>
        <time>2018-04-23T14:23:00Z</time>
      </trkpt>
      <trkpt lat="36.7066" lon="-4.431142">
        <ele>-33</ele>
        <time>2018-04-23T14:23:01Z</time>
      </trkpt>
      <trkpt lat="36.70658833" lon="-4.43112933">
        <ele>-33</ele>
        <time>2018-04-23T14:23:02Z</time>
      </trkpt>
      <trkpt lat="36.70657833" lon="-4.431118">
        <ele>-32</ele>
        <time>2018-04-23T14:23:03Z</time>
      </trkpt>
      <trkpt lat="36.70656667" lon="-4.431105">
        <ele>-32</ele>
        <time>2018-04-23T14:23:04Z</time>
      </trkpt>
      <trkpt lat="36.70655833" lon="-4.431096">
        <ele>-32</ele>
        <time>2018-04-23T14:23:05Z</time>
      </trkpt>
      <trkpt lat="36.70655" lon="-4.431086">
        <ele>-32</ele>
        <time>2018-04-23T14:23:06Z</time>
      </trkpt>
      <trkpt lat="36.70653833" lon="-4.43107267">
        <ele>-32</ele>
        <time>2018-04-23T14:23:07Z</time>
      </trkpt>
      <trkpt lat="36.70652833" lon="-4.43106133">
        <ele>-32</ele>
        <time>2018-04-23T14:23:08Z</time>
      </trkpt>
      <trkpt lat="36.70651833" lon="-4.43104967">
        <ele>-34</ele>
        <time>2018-04-23T14:23:09Z</time>
      </trkpt>
      <trkpt lat="36.70651" lon="-4.43103833">
        <ele>-34</ele>
        <time>2018-04-23T14:23:10Z</time>
      </trkpt>
      <trkpt lat="36.7065" lon="-4.431025">
        <ele>-34</ele>
        <time>2018-04-23T14:23:11Z</time>
      </trkpt>
      <trkpt lat="36.70648833" lon="-4.431009">
        <ele>-34</ele>
        <time>2018-04-23T14:23:12Z</time>
      </trkpt>
      <trkpt lat="36.70648167" lon="-4.43099933">
        <ele>-34</ele>
        <time>2018-04-23T14:23:13Z</time>
      </trkpt>
      <trkpt lat="36.70647167" lon="-4.430985">
        <ele>-34</ele>
        <time>2018-04-23T14:23:14Z</time>
      </trkpt>
      <trkpt lat="36.70646167" lon="-4.430971">
        <ele>-34</ele>
        <time>2018-04-23T14:23:15Z</time>
      </trkpt>
      <trkpt lat="36.70645333" lon="-4.43095933">
        <ele>-34</ele>
        <time>2018-04-23T14:23:16Z</time>
      </trkpt>
      <trkpt lat="36.706445" lon="-4.430948">
        <ele>-34</ele>
        <time>2018-04-23T14:23:17Z</time>
      </trkpt>
      <trkpt lat="36.70644" lon="-4.43093967">
        <ele>-34</ele>
        <time>2018-04-23T14:23:18Z</time>
      </trkpt>
      <trkpt lat="36.70643167" lon="-4.43092767">
        <ele>-34</ele>
        <time>2018-04-23T14:23:19Z</time>
      </trkpt>
      <trkpt lat="36.70642167" lon="-4.43091333">
        <ele>-34</ele>
        <time>2018-04-23T14:23:20Z</time>
      </trkpt>
      <trkpt lat="36.70641" lon="-4.43089667">
        <ele>-34</ele>
        <time>2018-04-23T14:23:21Z</time>
      </trkpt>
      <trkpt lat="36.70639833" lon="-4.430881">
        <ele>-34</ele>
        <time>2018-04-23T14:23:22Z</time>
      </trkpt>
      <trkpt lat="36.70638667" lon="-4.43086633">
        <ele>-34</ele>
        <time>2018-04-23T14:23:23Z</time>
      </trkpt>
      <trkpt lat="36.70637" lon="-4.430865">
        <ele>-34</ele>
        <time>2018-04-23T14:23:24Z</time>
      </trkpt>
      <trkpt lat="36.70635667" lon="-4.43087167">
        <ele>-34</ele>
        <time>2018-04-23T14:23:25Z</time>
      </trkpt>
      <trkpt lat="36.70634333" lon="-4.43087667">
        <ele>-34</ele>
        <time>2018-04-23T14:23:26Z</time>
      </trkpt>
      <trkpt lat="36.70633333" lon="-4.43088667">
        <ele>-34</ele>
        <time>2018-04-23T14:23:27Z</time>
      </trkpt>
      <trkpt lat="36.70632167" lon="-4.430895">
        <ele>-34</ele>
        <time>2018-04-23T14:23:28Z</time>
      </trkpt>
      <trkpt lat="36.70631" lon="-4.43090167">
        <ele>-34</ele>
        <time>2018-04-23T14:23:29Z</time>
      </trkpt>
      <trkpt lat="36.70629833" lon="-4.43091">
        <ele>-34</ele>
        <time>2018-04-23T14:23:30Z</time>
      </trkpt>
      <trkpt lat="36.70628833" lon="-4.43091667">
        <ele>-34</ele>
        <time>2018-04-23T14:23:31Z</time>
      </trkpt>
      <trkpt lat="36.70627667" lon="-4.43092467">
        <ele>-34</ele>
        <time>2018-04-23T14:23:32Z</time>
      </trkpt>
      <trkpt lat="36.70626333" lon="-4.43093333">
        <ele>-34</ele>
        <time>2018-04-23T14:23:33Z</time>
      </trkpt>
      <trkpt lat="36.70625167" lon="-4.43094033">
        <ele>-34</ele>
        <time>2018-04-23T14:23:34Z</time>
      </trkpt>
      <trkpt lat="36.70624" lon="-4.430948">
        <ele>-35</ele>
        <time>2018-04-23T14:23:35Z</time>
      </trkpt>
      <trkpt lat="36.70622667" lon="-4.43095567">
        <ele>-35</ele>
        <time>2018-04-23T14:23:36Z</time>
      </trkpt>
      <trkpt lat="36.70621333" lon="-4.43096133">
        <ele>-35</ele>
        <time>2018-04-23T14:23:37Z</time>
      </trkpt>
      <trkpt lat="36.7062" lon="-4.43096667">
        <ele>-35</ele>
        <time>2018-04-23T14:23:38Z</time>
      </trkpt>
      <trkpt lat="36.706185" lon="-4.430972">
        <ele>-35</ele>
        <time>2018-04-23T14:23:39Z</time>
      </trkpt>
      <trkpt lat="36.70617167" lon="-4.43097633">
        <ele>-35</ele>
        <time>2018-04-23T14:23:40Z</time>
      </trkpt>
      <trkpt lat="36.70615833" lon="-4.43098133">
        <ele>-35</ele>
        <time>2018-04-23T14:23:41Z</time>
      </trkpt>
      <trkpt lat="36.70614667" lon="-4.430986">
        <ele>-35</ele>
        <time>2018-04-23T14:23:42Z</time>
      </trkpt>
      <trkpt lat="36.706135" lon="-4.430992">
        <ele>-35</ele>
        <time>2018-04-23T14:23:43Z</time>
      </trkpt>
      <trkpt lat="36.70612333" lon="-4.43099833">
        <ele>-35</ele>
        <time>2018-04-23T14:23:44Z</time>
      </trkpt>
      <trkpt lat="36.706115" lon="-4.43100467">
        <ele>-35</ele>
        <time>2018-04-23T14:23:45Z</time>
      </trkpt>
      <trkpt lat="36.70610333" lon="-4.43101333">
        <ele>-35</ele>
        <time>2018-04-23T14:23:46Z</time>
      </trkpt>
      <trkpt lat="36.70609333" lon="-4.43102133">
        <ele>-35</ele>
        <time>2018-04-23T14:23:47Z</time>
      </trkpt>
      <trkpt lat="36.70608167" lon="-4.43103">
        <ele>-34</ele>
        <time>2018-04-23T14:23:48Z</time>
      </trkpt>
      <trkpt lat="36.70607" lon="-4.43103867">
        <ele>-34</ele>
        <time>2018-04-23T14:23:49Z</time>
      </trkpt>
      <trkpt lat="36.706055" lon="-4.43104867">
        <ele>-34</ele>
        <time>2018-04-23T14:23:50Z</time>
      </trkpt>
      <trkpt lat="36.70604333" lon="-4.43105633">
        <ele>-34</ele>
        <time>2018-04-23T14:23:51Z</time>
      </trkpt>
      <trkpt lat="36.70603333" lon="-4.43106333">
        <ele>-34</ele>
        <time>2018-04-23T14:23:52Z</time>
      </trkpt>
      <trkpt lat="36.70601833" lon="-4.43107267">
        <ele>-34</ele>
        <time>2018-04-23T14:23:53Z</time>
      </trkpt>
      <trkpt lat="36.70600667" lon="-4.43107967">
        <ele>-34</ele>
        <time>2018-04-23T14:23:54Z</time>
      </trkpt>
      <trkpt lat="36.70599333" lon="-4.43108667">
        <ele>-34</ele>
        <time>2018-04-23T14:23:55Z</time>
      </trkpt>
      <trkpt lat="36.70598333" lon="-4.43109267">
        <ele>-34</ele>
        <time>2018-04-23T14:23:56Z</time>
      </trkpt>
      <trkpt lat="36.70597333" lon="-4.43109833">
        <ele>-34</ele>
        <time>2018-04-23T14:23:57Z</time>
      </trkpt>
      <trkpt lat="36.705965" lon="-4.43110367">
        <ele>-34</ele>
        <time>2018-04-23T14:23:58Z</time>
      </trkpt>
      <trkpt lat="36.705955" lon="-4.43111067">
        <ele>-34</ele>
        <time>2018-04-23T14:23:59Z</time>
      </trkpt>
      <trkpt lat="36.705945" lon="-4.431118">
        <ele>-34</ele>
        <time>2018-04-23T14:24:00Z</time>
      </trkpt>
      <trkpt lat="36.705935" lon="-4.431126">
        <ele>-34</ele>
        <time>2018-04-23T14:24:01Z</time>
      </trkpt>
      <trkpt lat="36.70592833" lon="-4.43115667">
        <ele>-34</ele>
        <time>2018-04-23T14:24:02Z</time>
      </trkpt>
      <trkpt lat="36.70592167" lon="-4.43117">
        <ele>-34</ele>
        <time>2018-04-23T14:24:03Z</time>
      </trkpt>
      <trkpt lat="36.70591367" lon="-4.43118167">
        <ele>-34</ele>
        <time>2018-04-23T14:24:04Z</time>
      </trkpt>
      <trkpt lat="36.70590367" lon="-4.43119167">
        <ele>-34</ele>
        <time>2018-04-23T14:24:05Z</time>
      </trkpt>
      <trkpt lat="36.70589433" lon="-4.43119833">
        <ele>-34</ele>
        <time>2018-04-23T14:24:06Z</time>
      </trkpt>
      <trkpt lat="36.70587833" lon="-4.43120167">
        <ele>-34</ele>
        <time>2018-04-23T14:24:07Z</time>
      </trkpt>
      <trkpt lat="36.705865" lon="-4.43120667">
        <ele>-34</ele>
        <time>2018-04-23T14:24:08Z</time>
      </trkpt>
      <trkpt lat="36.705855" lon="-4.43121">
        <ele>-34</ele>
        <time>2018-04-23T14:24:09Z</time>
      </trkpt>
      <trkpt lat="36.70584333" lon="-4.43121333">
        <ele>-34</ele>
        <time>2018-04-23T14:24:10Z</time>
      </trkpt>
      <trkpt lat="36.70582833" lon="-4.43121367">
        <ele>-34</ele>
        <time>2018-04-23T14:24:11Z</time>
      </trkpt>
      <trkpt lat="36.705815" lon="-4.43121733">
        <ele>-34</ele>
        <time>2018-04-23T14:24:12Z</time>
      </trkpt>
      <trkpt lat="36.70580333" lon="-4.43122467">
        <ele>-34</ele>
        <time>2018-04-23T14:24:13Z</time>
      </trkpt>
      <trkpt lat="36.705795" lon="-4.43123367">
        <ele>-34</ele>
        <time>2018-04-23T14:24:14Z</time>
      </trkpt>
      <trkpt lat="36.705785" lon="-4.43124533">
        <ele>-34</ele>
        <time>2018-04-23T14:24:15Z</time>
      </trkpt>
      <trkpt lat="36.70577667" lon="-4.43125533">
        <ele>-34</ele>
        <time>2018-04-23T14:24:16Z</time>
      </trkpt>
      <trkpt lat="36.705765" lon="-4.43126733">
        <ele>-34</ele>
        <time>2018-04-23T14:24:17Z</time>
      </trkpt>
      <trkpt lat="36.70575333" lon="-4.43127867">
        <ele>-34</ele>
        <time>2018-04-23T14:24:18Z</time>
      </trkpt>
      <trkpt lat="36.70574" lon="-4.43128667">
        <ele>-34</ele>
        <time>2018-04-23T14:24:19Z</time>
      </trkpt>
      <trkpt lat="36.70573667" lon="-4.431291">
        <ele>-34</ele>
        <time>2018-04-23T14:24:20Z</time>
      </trkpt>
      <trkpt lat="36.70573" lon="-4.4313">
        <ele>-34</ele>
        <time>2018-04-23T14:24:21Z</time>
      </trkpt>
      <trkpt lat="36.70572167" lon="-4.43132">
        <ele>-32</ele>
        <time>2018-04-23T14:24:21Z</time>
      </trkpt>
      <trkpt lat="36.70571167" lon="-4.43133167">
        <ele>-32</ele>
        <time>2018-04-23T14:24:22Z</time>
      </trkpt>
      <trkpt lat="36.705702" lon="-4.43134167">
        <ele>-32</ele>
        <time>2018-04-23T14:24:23Z</time>
      </trkpt>
      <trkpt lat="36.70569233" lon="-4.431355">
        <ele>-32</ele>
        <time>2018-04-23T14:24:24Z</time>
      </trkpt>
      <trkpt lat="36.70568467" lon="-4.43136833">
        <ele>-32</ele>
        <time>2018-04-23T14:24:25Z</time>
      </trkpt>
      <trkpt lat="36.70567667" lon="-4.43137667">
        <ele>-32</ele>
        <time>2018-04-23T14:24:26Z</time>
      </trkpt>
      <trkpt lat="36.705667" lon="-4.43138667">
        <ele>-32</ele>
        <time>2018-04-23T14:24:27Z</time>
      </trkpt>
      <trkpt lat="36.705658" lon="-4.43139333">
        <ele>-32</ele>
        <time>2018-04-23T14:24:28Z</time>
      </trkpt>
      <trkpt lat="36.70564" lon="-4.431405">
        <ele>-32</ele>
        <time>2018-04-23T14:24:29Z</time>
      </trkpt>
      <trkpt lat="36.70562833" lon="-4.431413">
        <ele>-32</ele>
        <time>2018-04-23T14:24:30Z</time>
      </trkpt>
      <trkpt lat="36.70561667" lon="-4.43142">
        <ele>-32</ele>
        <time>2018-04-23T14:24:31Z</time>
      </trkpt>
      <trkpt lat="36.70560333" lon="-4.431427">
        <ele>-32</ele>
        <time>2018-04-23T14:24:32Z</time>
      </trkpt>
      <trkpt lat="36.70558833" lon="-4.43143433">
        <ele>-32</ele>
        <time>2018-04-23T14:24:33Z</time>
      </trkpt>
      <trkpt lat="36.705575" lon="-4.43144133">
        <ele>-34</ele>
        <time>2018-04-23T14:24:34Z</time>
      </trkpt>
      <trkpt lat="36.70556667" lon="-4.43144867">
        <ele>-34</ele>
        <time>2018-04-23T14:24:35Z</time>
      </trkpt>
      <trkpt lat="36.70555833" lon="-4.43145733">
        <ele>-34</ele>
        <time>2018-04-23T14:24:36Z</time>
      </trkpt>
      <trkpt lat="36.70554833" lon="-4.43146633">
        <ele>-34</ele>
        <time>2018-04-23T14:24:37Z</time>
      </trkpt>
      <trkpt lat="36.70553667" lon="-4.431475">
        <ele>-34</ele>
        <time>2018-04-23T14:24:38Z</time>
      </trkpt>
      <trkpt lat="36.70552167" lon="-4.431486">
        <ele>-34</ele>
        <time>2018-04-23T14:24:39Z</time>
      </trkpt>
      <trkpt lat="36.70551" lon="-4.431494">
        <ele>-34</ele>
        <time>2018-04-23T14:24:40Z</time>
      </trkpt>
      <trkpt lat="36.70549833" lon="-4.431503">
        <ele>-34</ele>
        <time>2018-04-23T14:24:41Z</time>
      </trkpt>
      <trkpt lat="36.70548833" lon="-4.43151067">
        <ele>-34</ele>
        <time>2018-04-23T14:24:42Z</time>
      </trkpt>
      <trkpt lat="36.70547667" lon="-4.43151967">
        <ele>-34</ele>
        <time>2018-04-23T14:24:43Z</time>
      </trkpt>
      <trkpt lat="36.70546667" lon="-4.431528">
        <ele>-34</ele>
        <time>2018-04-23T14:24:44Z</time>
      </trkpt>
      <trkpt lat="36.705455" lon="-4.43153733">
        <ele>-34</ele>
        <time>2018-04-23T14:24:45Z</time>
      </trkpt>
      <trkpt lat="36.70544333" lon="-4.43154633">
        <ele>-34</ele>
        <time>2018-04-23T14:24:46Z</time>
      </trkpt>
      <trkpt lat="36.705435" lon="-4.43155467">
        <ele>-34</ele>
        <time>2018-04-23T14:24:47Z</time>
      </trkpt>
      <trkpt lat="36.70543" lon="-4.43157833">
        <ele>-34</ele>
        <time>2018-04-23T14:24:48Z</time>
      </trkpt>
      <trkpt lat="36.70542333" lon="-4.43159">
        <ele>-34</ele>
        <time>2018-04-23T14:24:49Z</time>
      </trkpt>
      <trkpt lat="36.705414" lon="-4.43159833">
        <ele>-34</ele>
        <time>2018-04-23T14:24:50Z</time>
      </trkpt>
      <trkpt lat="36.7054" lon="-4.431605">
        <ele>-34</ele>
        <time>2018-04-23T14:24:51Z</time>
      </trkpt>
      <trkpt lat="36.70539" lon="-4.431615">
        <ele>-34</ele>
        <time>2018-04-23T14:24:52Z</time>
      </trkpt>
      <trkpt lat="36.70538" lon="-4.43162167">
        <ele>-34</ele>
        <time>2018-04-23T14:24:53Z</time>
      </trkpt>
      <trkpt lat="36.70536667" lon="-4.43163">
        <ele>-34</ele>
        <time>2018-04-23T14:24:54Z</time>
      </trkpt>
      <trkpt lat="36.70535333" lon="-4.43163667">
        <ele>-34</ele>
        <time>2018-04-23T14:24:55Z</time>
      </trkpt>
      <trkpt lat="36.70534167" lon="-4.43164567">
        <ele>-34</ele>
        <time>2018-04-23T14:24:56Z</time>
      </trkpt>
      <trkpt lat="36.70533167" lon="-4.431653">
        <ele>-34</ele>
        <time>2018-04-23T14:24:57Z</time>
      </trkpt>
      <trkpt lat="36.70532167" lon="-4.43166">
        <ele>-34</ele>
        <time>2018-04-23T14:24:58Z</time>
      </trkpt>
      <trkpt lat="36.70530833" lon="-4.43166833">
        <ele>-34</ele>
        <time>2018-04-23T14:24:59Z</time>
      </trkpt>
      <trkpt lat="36.705295" lon="-4.431675">
        <ele>-34</ele>
        <time>2018-04-23T14:25:00Z</time>
      </trkpt>
      <trkpt lat="36.70528333" lon="-4.43168133">
        <ele>-34</ele>
        <time>2018-04-23T14:25:01Z</time>
      </trkpt>
      <trkpt lat="36.70527167" lon="-4.43168633">
        <ele>-34</ele>
        <time>2018-04-23T14:25:02Z</time>
      </trkpt>
      <trkpt lat="36.70526" lon="-4.43169167">
        <ele>-34</ele>
        <time>2018-04-23T14:25:03Z</time>
      </trkpt>
      <trkpt lat="36.70525" lon="-4.43169567">
        <ele>-34</ele>
        <time>2018-04-23T14:25:04Z</time>
      </trkpt>
      <trkpt lat="36.70523833" lon="-4.43170133">
        <ele>-34</ele>
        <time>2018-04-23T14:25:05Z</time>
      </trkpt>
      <trkpt lat="36.70523" lon="-4.431707">
        <ele>-34</ele>
        <time>2018-04-23T14:25:06Z</time>
      </trkpt>
      <trkpt lat="36.70521667" lon="-4.43171433">
        <ele>-34</ele>
        <time>2018-04-23T14:25:07Z</time>
      </trkpt>
      <trkpt lat="36.705205" lon="-4.43172133">
        <ele>-34</ele>
        <time>2018-04-23T14:25:08Z</time>
      </trkpt>
      <trkpt lat="36.70519167" lon="-4.43172933">
        <ele>-34</ele>
        <time>2018-04-23T14:25:09Z</time>
      </trkpt>
      <trkpt lat="36.70517833" lon="-4.43173767">
        <ele>-34</ele>
        <time>2018-04-23T14:25:10Z</time>
      </trkpt>
      <trkpt lat="36.70516333" lon="-4.43174567">
        <ele>-34</ele>
        <time>2018-04-23T14:25:11Z</time>
      </trkpt>
      <trkpt lat="36.70515167" lon="-4.43175233">
        <ele>-34</ele>
        <time>2018-04-23T14:25:12Z</time>
      </trkpt>
      <trkpt lat="36.70513833" lon="-4.43176">
        <ele>-34</ele>
        <time>2018-04-23T14:25:13Z</time>
      </trkpt>
      <trkpt lat="36.70513" lon="-4.43176567">
        <ele>-34</ele>
        <time>2018-04-23T14:25:14Z</time>
      </trkpt>
      <trkpt lat="36.70511667" lon="-4.431774">
        <ele>-34</ele>
        <time>2018-04-23T14:25:15Z</time>
      </trkpt>
      <trkpt lat="36.705105" lon="-4.43178133">
        <ele>-34</ele>
        <time>2018-04-23T14:25:16Z</time>
      </trkpt>
      <trkpt lat="36.705095" lon="-4.43178867">
        <ele>-34</ele>
        <time>2018-04-23T14:25:17Z</time>
      </trkpt>
      <trkpt lat="36.705085" lon="-4.431796">
        <ele>-34</ele>
        <time>2018-04-23T14:25:18Z</time>
      </trkpt>
      <trkpt lat="36.70506833" lon="-4.431807">
        <ele>-34</ele>
        <time>2018-04-23T14:25:19Z</time>
      </trkpt>
      <trkpt lat="36.70505667" lon="-4.43181567">
        <ele>-34</ele>
        <time>2018-04-23T14:25:20Z</time>
      </trkpt>
      <trkpt lat="36.70504667" lon="-4.43182333">
        <ele>-34</ele>
        <time>2018-04-23T14:25:21Z</time>
      </trkpt>
      <trkpt lat="36.705035" lon="-4.43183233">
        <ele>-34</ele>
        <time>2018-04-23T14:25:22Z</time>
      </trkpt>
      <trkpt lat="36.705025" lon="-4.43184133">
        <ele>-34</ele>
        <time>2018-04-23T14:25:23Z</time>
      </trkpt>
      <trkpt lat="36.705015" lon="-4.43184933">
        <ele>-34</ele>
        <time>2018-04-23T14:25:24Z</time>
      </trkpt>
      <trkpt lat="36.705005" lon="-4.431858">
        <ele>-34</ele>
        <time>2018-04-23T14:25:25Z</time>
      </trkpt>
      <trkpt lat="36.70499333" lon="-4.43186733">
        <ele>-34</ele>
        <time>2018-04-23T14:25:26Z</time>
      </trkpt>
      <trkpt lat="36.70498" lon="-4.431878">
        <ele>-34</ele>
        <time>2018-04-23T14:25:27Z</time>
      </trkpt>
      <trkpt lat="36.70496833" lon="-4.431887">
        <ele>-34</ele>
        <time>2018-04-23T14:25:28Z</time>
      </trkpt>
      <trkpt lat="36.70495667" lon="-4.431896">
        <ele>-34</ele>
        <time>2018-04-23T14:25:29Z</time>
      </trkpt>
      <trkpt lat="36.704945" lon="-4.431905">
        <ele>-34</ele>
        <time>2018-04-23T14:25:30Z</time>
      </trkpt>
      <trkpt lat="36.70493333" lon="-4.43191367">
        <ele>-34</ele>
        <time>2018-04-23T14:25:31Z</time>
      </trkpt>
      <trkpt lat="36.70492333" lon="-4.43192167">
        <ele>-34</ele>
        <time>2018-04-23T14:25:32Z</time>
      </trkpt>
      <trkpt lat="36.70491167" lon="-4.431931">
        <ele>-34</ele>
        <time>2018-04-23T14:25:33Z</time>
      </trkpt>
      <trkpt lat="36.7049" lon="-4.43194033">
        <ele>-34</ele>
        <time>2018-04-23T14:25:34Z</time>
      </trkpt>
      <trkpt lat="36.70488667" lon="-4.43194967">
        <ele>-34</ele>
        <time>2018-04-23T14:25:35Z</time>
      </trkpt>
      <trkpt lat="36.70487333" lon="-4.43195867">
        <ele>-34</ele>
        <time>2018-04-23T14:25:36Z</time>
      </trkpt>
      <trkpt lat="36.70486" lon="-4.43196767">
        <ele>-34</ele>
        <time>2018-04-23T14:25:37Z</time>
      </trkpt>
      <trkpt lat="36.70484667" lon="-4.43197567">
        <ele>-32</ele>
        <time>2018-04-23T14:25:38Z</time>
      </trkpt>
      <trkpt lat="36.70483167" lon="-4.43196167">
        <ele>-32</ele>
        <time>2018-04-23T14:25:39Z</time>
      </trkpt>
      <trkpt lat="36.70481667" lon="-4.43196167">
        <ele>-32</ele>
        <time>2018-04-23T14:25:40Z</time>
      </trkpt>
      <trkpt lat="36.70480333" lon="-4.43195667">
        <ele>-32</ele>
        <time>2018-04-23T14:25:41Z</time>
      </trkpt>
      <trkpt lat="36.70479" lon="-4.431958">
        <ele>-32</ele>
        <time>2018-04-23T14:25:42Z</time>
      </trkpt>
      <trkpt lat="36.70477667" lon="-4.43195833">
        <ele>-32</ele>
        <time>2018-04-23T14:25:43Z</time>
      </trkpt>
      <trkpt lat="36.70476333" lon="-4.43195733">
        <ele>-32</ele>
        <time>2018-04-23T14:25:44Z</time>
      </trkpt>
      <trkpt lat="36.70474667" lon="-4.431956">
        <ele>-32</ele>
        <time>2018-04-23T14:25:45Z</time>
      </trkpt>
      <trkpt lat="36.70473167" lon="-4.43195533">
        <ele>-32</ele>
        <time>2018-04-23T14:25:46Z</time>
      </trkpt>
      <trkpt lat="36.70471667" lon="-4.431953">
        <ele>-32</ele>
        <time>2018-04-23T14:25:47Z</time>
      </trkpt>
      <trkpt lat="36.70470333" lon="-4.43195333">
        <ele>-32</ele>
        <time>2018-04-23T14:25:48Z</time>
      </trkpt>
      <trkpt lat="36.70469167" lon="-4.431954">
        <ele>-32</ele>
        <time>2018-04-23T14:25:49Z</time>
      </trkpt>
      <trkpt lat="36.70468" lon="-4.43195533">
        <ele>-32</ele>
        <time>2018-04-23T14:25:50Z</time>
      </trkpt>
      <trkpt lat="36.70466833" lon="-4.43195633">
        <ele>-32</ele>
        <time>2018-04-23T14:25:51Z</time>
      </trkpt>
      <trkpt lat="36.70465833" lon="-4.43195933">
        <ele>-32</ele>
        <time>2018-04-23T14:25:52Z</time>
      </trkpt>
      <trkpt lat="36.704655" lon="-4.431961">
        <ele>-32</ele>
        <time>2018-04-23T14:25:53Z</time>
      </trkpt>
      <trkpt lat="36.704655" lon="-4.431963">
        <ele>-32</ele>
        <time>2018-04-23T14:25:54Z</time>
      </trkpt>
      <trkpt lat="36.70465833" lon="-4.43196367">
        <ele>-32</ele>
        <time>2018-04-23T14:25:55Z</time>
      </trkpt>
      <trkpt lat="36.70465833" lon="-4.43196467">
        <ele>-32</ele>
        <time>2018-04-23T14:25:56Z</time>
      </trkpt>
      <trkpt lat="36.70466" lon="-4.43196467">
        <ele>-32</ele>
        <time>2018-04-23T14:25:57Z</time>
      </trkpt>
      <trkpt lat="36.70466" lon="-4.431965">
        <ele>-32</ele>
        <time>2018-04-23T14:25:59Z</time>
      </trkpt>
      <trkpt lat="36.70465833" lon="-4.431965">
        <ele>-32</ele>
        <time>2018-04-23T14:26:00Z</time>
      </trkpt>
      <trkpt lat="36.704655" lon="-4.43196167">
        <ele>-32</ele>
        <time>2018-04-23T14:26:01Z</time>
      </trkpt>
      <trkpt lat="36.70244667" lon="-4.43333833">
        <ele>-29</ele>
        <time>2018-04-23T14:30:16Z</time>
      </trkpt>
      <trkpt lat="36.70243667" lon="-4.43334533">
        <ele>-29</ele>
        <time>2018-04-23T14:30:17Z</time>
      </trkpt>
      <trkpt lat="36.70242333" lon="-4.43335467">
        <ele>-29</ele>
        <time>2018-04-23T14:30:18Z</time>
      </trkpt>
      <trkpt lat="36.70241" lon="-4.433364">
        <ele>-29</ele>
        <time>2018-04-23T14:30:19Z</time>
      </trkpt>
      <trkpt lat="36.70240167" lon="-4.43336867">
        <ele>-29</ele>
        <time>2018-04-23T14:30:20Z</time>
      </trkpt>
      <trkpt lat="36.70239" lon="-4.43337667">
        <ele>-29</ele>
        <time>2018-04-23T14:30:21Z</time>
      </trkpt>
      <trkpt lat="36.70237833" lon="-4.43338467">
        <ele>-29</ele>
        <time>2018-04-23T14:30:22Z</time>
      </trkpt>
      <trkpt lat="36.70236833" lon="-4.43339233">
        <ele>-29</ele>
        <time>2018-04-23T14:30:23Z</time>
      </trkpt>
      <trkpt lat="36.702355" lon="-4.43340133">
        <ele>-29</ele>
        <time>2018-04-23T14:30:24Z</time>
      </trkpt>
      <trkpt lat="36.70234167" lon="-4.43341033">
        <ele>-29</ele>
        <time>2018-04-23T14:30:25Z</time>
      </trkpt>
      <trkpt lat="36.70233" lon="-4.433417">
        <ele>-29</ele>
        <time>2018-04-23T14:30:26Z</time>
      </trkpt>
      <trkpt lat="36.70232" lon="-4.43342333">
        <ele>-29</ele>
        <time>2018-04-23T14:30:27Z</time>
      </trkpt>
      <trkpt lat="36.70230833" lon="-4.43343233">
        <ele>-29</ele>
        <time>2018-04-23T14:30:28Z</time>
      </trkpt>
      <trkpt lat="36.70229667" lon="-4.43344">
        <ele>-29</ele>
        <time>2018-04-23T14:30:29Z</time>
      </trkpt>
      <trkpt lat="36.702285" lon="-4.433448">
        <ele>-29</ele>
        <time>2018-04-23T14:30:30Z</time>
      </trkpt>
      <trkpt lat="36.70227167" lon="-4.433457">
        <ele>-29</ele>
        <time>2018-04-23T14:30:31Z</time>
      </trkpt>
      <trkpt lat="36.70226167" lon="-4.433463">
        <ele>-29</ele>
        <time>2018-04-23T14:30:32Z</time>
      </trkpt>
      <trkpt lat="36.70224833" lon="-4.433472">
        <ele>-29</ele>
        <time>2018-04-23T14:30:33Z</time>
      </trkpt>
      <trkpt lat="36.70223667" lon="-4.433479">
        <ele>-29</ele>
        <time>2018-04-23T14:30:34Z</time>
      </trkpt>
      <trkpt lat="36.70222667" lon="-4.43348467">
        <ele>-29</ele>
        <time>2018-04-23T14:30:35Z</time>
      </trkpt>
      <trkpt lat="36.702215" lon="-4.43349267">
        <ele>-29</ele>
        <time>2018-04-23T14:30:36Z</time>
      </trkpt>
      <trkpt lat="36.70220667" lon="-4.43349733">
        <ele>-29</ele>
        <time>2018-04-23T14:30:37Z</time>
      </trkpt>
      <trkpt lat="36.702195" lon="-4.43350533">
        <ele>-29</ele>
        <time>2018-04-23T14:30:38Z</time>
      </trkpt>
      <trkpt lat="36.702185" lon="-4.43351267">
        <ele>-29</ele>
        <time>2018-04-23T14:30:39Z</time>
      </trkpt>
      <trkpt lat="36.70217833" lon="-4.43351833">
        <ele>-29</ele>
        <time>2018-04-23T14:30:40Z</time>
      </trkpt>
      <trkpt lat="36.702175" lon="-4.43354167">
        <ele>-29</ele>
        <time>2018-04-23T14:30:41Z</time>
      </trkpt>
      <trkpt lat="36.70216833" lon="-4.43355">
        <ele>-29</ele>
        <time>2018-04-23T14:30:42Z</time>
      </trkpt>
      <trkpt lat="36.70216167" lon="-4.43355833">
        <ele>-29</ele>
        <time>2018-04-23T14:30:43Z</time>
      </trkpt>
      <trkpt lat="36.702153" lon="-4.43357">
        <ele>-29</ele>
        <time>2018-04-23T14:30:44Z</time>
      </trkpt>
      <trkpt lat="36.70214333" lon="-4.43358">
        <ele>-29</ele>
        <time>2018-04-23T14:30:45Z</time>
      </trkpt>
      <trkpt lat="36.70213167" lon="-4.43358833">
        <ele>-29</ele>
        <time>2018-04-23T14:30:46Z</time>
      </trkpt>
      <trkpt lat="36.70212" lon="-4.43359333">
        <ele>-28</ele>
        <time>2018-04-23T14:30:47Z</time>
      </trkpt>
      <trkpt lat="36.70211167" lon="-4.433598">
        <ele>-28</ele>
        <time>2018-04-23T14:30:48Z</time>
      </trkpt>
      <trkpt lat="36.70210333" lon="-4.43360433">
        <ele>-28</ele>
        <time>2018-04-23T14:30:49Z</time>
      </trkpt>
      <trkpt lat="36.70209333" lon="-4.43361033">
        <ele>-28</ele>
        <time>2018-04-23T14:30:50Z</time>
      </trkpt>
      <trkpt lat="36.70208833" lon="-4.433616">
        <ele>-28</ele>
        <time>2018-04-23T14:30:51Z</time>
      </trkpt>
      <trkpt lat="36.70208667" lon="-4.43362167">
        <ele>-30</ele>
        <time>2018-04-23T14:30:52Z</time>
      </trkpt>
      <trkpt lat="36.70207667" lon="-4.433625">
        <ele>-30</ele>
        <time>2018-04-23T14:30:53Z</time>
      </trkpt>
      <trkpt lat="36.702061" lon="-4.43363">
        <ele>-30</ele>
        <time>2018-04-23T14:30:54Z</time>
      </trkpt>
      <trkpt lat="36.70204667" lon="-4.43363333">
        <ele>-30</ele>
        <time>2018-04-23T14:30:55Z</time>
      </trkpt>
      <trkpt lat="36.70203" lon="-4.433638">
        <ele>-30</ele>
        <time>2018-04-23T14:30:56Z</time>
      </trkpt>
      <trkpt lat="36.70201833" lon="-4.433648">
        <ele>-30</ele>
        <time>2018-04-23T14:30:57Z</time>
      </trkpt>
      <trkpt lat="36.70200833" lon="-4.43365667">
        <ele>-30</ele>
        <time>2018-04-23T14:30:58Z</time>
      </trkpt>
      <trkpt lat="36.70199833" lon="-4.433665">
        <ele>-30</ele>
        <time>2018-04-23T14:30:59Z</time>
      </trkpt>
      <trkpt lat="36.70199" lon="-4.433672">
        <ele>-27</ele>
        <time>2018-04-23T14:31:00Z</time>
      </trkpt>
      <trkpt lat="36.70197667" lon="-4.433681">
        <ele>-27</ele>
        <time>2018-04-23T14:31:01Z</time>
      </trkpt>
      <trkpt lat="36.701965" lon="-4.433688">
        <ele>-27</ele>
        <time>2018-04-23T14:31:02Z</time>
      </trkpt>
      <trkpt lat="36.70195167" lon="-4.433697">
        <ele>-27</ele>
        <time>2018-04-23T14:31:03Z</time>
      </trkpt>
      <trkpt lat="36.70194167" lon="-4.433704">
        <ele>-27</ele>
        <time>2018-04-23T14:31:04Z</time>
      </trkpt>
      <trkpt lat="36.70192833" lon="-4.433713">
        <ele>-27</ele>
        <time>2018-04-23T14:31:05Z</time>
      </trkpt>
      <trkpt lat="36.70191667" lon="-4.43372067">
        <ele>-27</ele>
        <time>2018-04-23T14:31:06Z</time>
      </trkpt>
      <trkpt lat="36.70190333" lon="-4.433729">
        <ele>-27</ele>
        <time>2018-04-23T14:31:07Z</time>
      </trkpt>
      <trkpt lat="36.70189333" lon="-4.43373667">
        <ele>-27</ele>
        <time>2018-04-23T14:31:08Z</time>
      </trkpt>
      <trkpt lat="36.70188167" lon="-4.43374467">
        <ele>-29</ele>
        <time>2018-04-23T14:31:09Z</time>
      </trkpt>
      <trkpt lat="36.70187" lon="-4.43375267">
        <ele>-29</ele>
        <time>2018-04-23T14:31:10Z</time>
      </trkpt>
      <trkpt lat="36.70185833" lon="-4.43376067">
        <ele>-29</ele>
        <time>2018-04-23T14:31:11Z</time>
      </trkpt>
      <trkpt lat="36.70184667" lon="-4.43376833">
        <ele>-29</ele>
        <time>2018-04-23T14:31:12Z</time>
      </trkpt>
      <trkpt lat="36.70183333" lon="-4.43377667">
        <ele>-29</ele>
        <time>2018-04-23T14:31:13Z</time>
      </trkpt>
      <trkpt lat="36.70182167" lon="-4.43378433">
        <ele>-29</ele>
        <time>2018-04-23T14:31:14Z</time>
      </trkpt>
      <trkpt lat="36.70181333" lon="-4.43378967">
        <ele>-29</ele>
        <time>2018-04-23T14:31:15Z</time>
      </trkpt>
      <trkpt lat="36.701805" lon="-4.43379667">
        <ele>-29</ele>
        <time>2018-04-23T14:31:16Z</time>
      </trkpt>
      <trkpt lat="36.701795" lon="-4.433815">
        <ele>-29</ele>
        <time>2018-04-23T14:31:17Z</time>
      </trkpt>
      <trkpt lat="36.70178667" lon="-4.43382967">
        <ele>-29</ele>
        <time>2018-04-23T14:31:18Z</time>
      </trkpt>
      <trkpt lat="36.70177667" lon="-4.433841">
        <ele>-29</ele>
        <time>2018-04-23T14:31:19Z</time>
      </trkpt>
      <trkpt lat="36.70176833" lon="-4.43384667">
        <ele>-29</ele>
        <time>2018-04-23T14:31:20Z</time>
      </trkpt>
      <trkpt lat="36.70175833" lon="-4.433855">
        <ele>-29</ele>
        <time>2018-04-23T14:31:21Z</time>
      </trkpt>
      <trkpt lat="36.70175" lon="-4.43386467">
        <ele>-32</ele>
        <time>2018-04-23T14:31:22Z</time>
      </trkpt>
      <trkpt lat="36.70174" lon="-4.433875">
        <ele>-32</ele>
        <time>2018-04-23T14:31:23Z</time>
      </trkpt>
      <trkpt lat="36.70173" lon="-4.43388367">
        <ele>-32</ele>
        <time>2018-04-23T14:31:24Z</time>
      </trkpt>
      <trkpt lat="36.70172" lon="-4.43389167">
        <ele>-30</ele>
        <time>2018-04-23T14:31:25Z</time>
      </trkpt>
      <trkpt lat="36.70171" lon="-4.43389633">
        <ele>-30</ele>
        <time>2018-04-23T14:31:26Z</time>
      </trkpt>
      <trkpt lat="36.70169833" lon="-4.43390133">
        <ele>-30</ele>
        <time>2018-04-23T14:31:27Z</time>
      </trkpt>
      <trkpt lat="36.70168833" lon="-4.433906">
        <ele>-28</ele>
        <time>2018-04-23T14:31:28Z</time>
      </trkpt>
      <trkpt lat="36.70168" lon="-4.43391">
        <ele>-28</ele>
        <time>2018-04-23T14:31:29Z</time>
      </trkpt>
      <trkpt lat="36.70166667" lon="-4.43391733">
        <ele>-28</ele>
        <time>2018-04-23T14:31:30Z</time>
      </trkpt>
      <trkpt lat="36.70165667" lon="-4.43392133">
        <ele>-28</ele>
        <time>2018-04-23T14:31:31Z</time>
      </trkpt>
      <trkpt lat="36.70164333" lon="-4.433927">
        <ele>-28</ele>
        <time>2018-04-23T14:31:32Z</time>
      </trkpt>
      <trkpt lat="36.70163" lon="-4.433931">
        <ele>-30</ele>
        <time>2018-04-23T14:31:33Z</time>
      </trkpt>
      <trkpt lat="36.70162" lon="-4.433933">
        <ele>-30</ele>
        <time>2018-04-23T14:31:34Z</time>
      </trkpt>
      <trkpt lat="36.70160833" lon="-4.43393833">
        <ele>-30</ele>
        <time>2018-04-23T14:31:35Z</time>
      </trkpt>
      <trkpt lat="36.70159667" lon="-4.433943">
        <ele>-30</ele>
        <time>2018-04-23T14:31:36Z</time>
      </trkpt>
      <trkpt lat="36.70158667" lon="-4.433948">
        <ele>-30</ele>
        <time>2018-04-23T14:31:37Z</time>
      </trkpt>
      <trkpt lat="36.70157667" lon="-4.433954">
        <ele>-30</ele>
        <time>2018-04-23T14:31:38Z</time>
      </trkpt>
      <trkpt lat="36.70156833" lon="-4.433959">
        <ele>-30</ele>
        <time>2018-04-23T14:31:39Z</time>
      </trkpt>
      <trkpt lat="36.70155833" lon="-4.43396567">
        <ele>-28</ele>
        <time>2018-04-23T14:31:40Z</time>
      </trkpt>
      <trkpt lat="36.70154667" lon="-4.43397233">
        <ele>-28</ele>
        <time>2018-04-23T14:31:41Z</time>
      </trkpt>
      <trkpt lat="36.70153333" lon="-4.43398033">
        <ele>-28</ele>
        <time>2018-04-23T14:31:42Z</time>
      </trkpt>
      <trkpt lat="36.70152167" lon="-4.43398733">
        <ele>-28</ele>
        <time>2018-04-23T14:31:43Z</time>
      </trkpt>
      <trkpt lat="36.70151" lon="-4.43399467">
        <ele>-28</ele>
        <time>2018-04-23T14:31:44Z</time>
      </trkpt>
      <trkpt lat="36.70149833" lon="-4.43400167">
        <ele>-28</ele>
        <time>2018-04-23T14:31:45Z</time>
      </trkpt>
      <trkpt lat="36.70148667" lon="-4.43400933">
        <ele>-30</ele>
        <time>2018-04-23T14:31:46Z</time>
      </trkpt>
      <trkpt lat="36.70147667" lon="-4.43401633">
        <ele>-30</ele>
        <time>2018-04-23T14:31:47Z</time>
      </trkpt>
      <trkpt lat="36.70146833" lon="-4.43402233">
        <ele>-30</ele>
        <time>2018-04-23T14:31:48Z</time>
      </trkpt>
      <trkpt lat="36.70145833" lon="-4.43402967">
        <ele>-30</ele>
        <time>2018-04-23T14:31:49Z</time>
      </trkpt>
      <trkpt lat="36.70145" lon="-4.434036">
        <ele>-30</ele>
        <time>2018-04-23T14:31:50Z</time>
      </trkpt>
      <trkpt lat="36.70143667" lon="-4.43404533">
        <ele>-30</ele>
        <time>2018-04-23T14:31:51Z</time>
      </trkpt>
      <trkpt lat="36.70142833" lon="-4.434065">
        <ele>-36</ele>
        <time>2018-04-23T14:31:52Z</time>
      </trkpt>
      <trkpt lat="36.70141833" lon="-4.43407167">
        <ele>-32</ele>
        <time>2018-04-23T14:31:53Z</time>
      </trkpt>
      <trkpt lat="36.70140667" lon="-4.43407967">
        <ele>-32</ele>
        <time>2018-04-23T14:31:54Z</time>
      </trkpt>
      <trkpt lat="36.7014" lon="-4.43408467">
        <ele>-30</ele>
        <time>2018-04-23T14:31:55Z</time>
      </trkpt>
      <trkpt lat="36.70139" lon="-4.43408967">
        <ele>-30</ele>
        <time>2018-04-23T14:31:56Z</time>
      </trkpt>
      <trkpt lat="36.70138" lon="-4.43409267">
        <ele>-32</ele>
        <time>2018-04-23T14:31:57Z</time>
      </trkpt>
      <trkpt lat="36.70137167" lon="-4.43409467">
        <ele>-32</ele>
        <time>2018-04-23T14:31:58Z</time>
      </trkpt>
      <trkpt lat="36.70136" lon="-4.43409933">
        <ele>-32</ele>
        <time>2018-04-23T14:31:59Z</time>
      </trkpt>
      <trkpt lat="36.70135167" lon="-4.434104">
        <ele>-27</ele>
        <time>2018-04-23T14:32:00Z</time>
      </trkpt>
      <trkpt lat="36.70134" lon="-4.434111">
        <ele>-27</ele>
        <time>2018-04-23T14:32:01Z</time>
      </trkpt>
      <trkpt lat="36.70133167" lon="-4.43411767">
        <ele>-27</ele>
        <time>2018-04-23T14:32:02Z</time>
      </trkpt>
      <trkpt lat="36.70132167" lon="-4.43412567">
        <ele>-29</ele>
        <time>2018-04-23T14:32:03Z</time>
      </trkpt>
      <trkpt lat="36.70130833" lon="-4.43413367">
        <ele>-29</ele>
        <time>2018-04-23T14:32:04Z</time>
      </trkpt>
      <trkpt lat="36.70129833" lon="-4.43414067">
        <ele>-29</ele>
        <time>2018-04-23T14:32:05Z</time>
      </trkpt>
      <trkpt lat="36.70129" lon="-4.43414667">
        <ele>-31</ele>
        <time>2018-04-23T14:32:06Z</time>
      </trkpt>
      <trkpt lat="36.70128333" lon="-4.434152">
        <ele>-31</ele>
        <time>2018-04-23T14:32:07Z</time>
      </trkpt>
      <trkpt lat="36.70127333" lon="-4.43416033">
        <ele>-31</ele>
        <time>2018-04-23T14:32:08Z</time>
      </trkpt>
      <trkpt lat="36.70126333" lon="-4.434168">
        <ele>-31</ele>
        <time>2018-04-23T14:32:09Z</time>
      </trkpt>
      <trkpt lat="36.70125167" lon="-4.43417567">
        <ele>-31</ele>
        <time>2018-04-23T14:32:10Z</time>
      </trkpt>
      <trkpt lat="36.70124167" lon="-4.434184">
        <ele>-31</ele>
        <time>2018-04-23T14:32:11Z</time>
      </trkpt>
      <trkpt lat="36.70123167" lon="-4.434192">
        <ele>-31</ele>
        <time>2018-04-23T14:32:12Z</time>
      </trkpt>
      <trkpt lat="36.70122167" lon="-4.43419967">
        <ele>-31</ele>
        <time>2018-04-23T14:32:13Z</time>
      </trkpt>
      <trkpt lat="36.70121" lon="-4.434209">
        <ele>-31</ele>
        <time>2018-04-23T14:32:14Z</time>
      </trkpt>
      <trkpt lat="36.7012" lon="-4.43421633">
        <ele>-32</ele>
        <time>2018-04-23T14:32:15Z</time>
      </trkpt>
      <trkpt lat="36.70119333" lon="-4.434223">
        <ele>-32</ele>
        <time>2018-04-23T14:32:16Z</time>
      </trkpt>
      <trkpt lat="36.70118333" lon="-4.43423133">
        <ele>-30</ele>
        <time>2018-04-23T14:32:17Z</time>
      </trkpt>
      <trkpt lat="36.70117167" lon="-4.434241">
        <ele>-27</ele>
        <time>2018-04-23T14:32:18Z</time>
      </trkpt>
      <trkpt lat="36.70116" lon="-4.43425">
        <ele>-27</ele>
        <time>2018-04-23T14:32:19Z</time>
      </trkpt>
      <trkpt lat="36.70115" lon="-4.43425833">
        <ele>-27</ele>
        <time>2018-04-23T14:32:20Z</time>
      </trkpt>
      <trkpt lat="36.70113833" lon="-4.43426733">
        <ele>-27</ele>
        <time>2018-04-23T14:32:21Z</time>
      </trkpt>
      <trkpt lat="36.701125" lon="-4.43427633">
        <ele>-27</ele>
        <time>2018-04-23T14:32:22Z</time>
      </trkpt>
      <trkpt lat="36.70111333" lon="-4.43428467">
        <ele>-29</ele>
        <time>2018-04-23T14:32:23Z</time>
      </trkpt>
      <trkpt lat="36.70110167" lon="-4.43429233">
        <ele>-32</ele>
        <time>2018-04-23T14:32:24Z</time>
      </trkpt>
      <trkpt lat="36.70109167" lon="-4.43429867">
        <ele>-29</ele>
        <time>2018-04-23T14:32:25Z</time>
      </trkpt>
      <trkpt lat="36.70108333" lon="-4.43430433">
        <ele>-29</ele>
        <time>2018-04-23T14:32:26Z</time>
      </trkpt>
      <trkpt lat="36.701075" lon="-4.43431067">
        <ele>-29</ele>
        <time>2018-04-23T14:32:27Z</time>
      </trkpt>
      <trkpt lat="36.70107" lon="-4.434325">
        <ele>-29</ele>
        <time>2018-04-23T14:32:28Z</time>
      </trkpt>
      <trkpt lat="36.70106333" lon="-4.434335">
        <ele>-29</ele>
        <time>2018-04-23T14:32:29Z</time>
      </trkpt>
      <trkpt lat="36.70105933" lon="-4.43435">
        <ele>-29</ele>
        <time>2018-04-23T14:32:30Z</time>
      </trkpt>
      <trkpt lat="36.70105367" lon="-4.43436167">
        <ele>-29</ele>
        <time>2018-04-23T14:32:31Z</time>
      </trkpt>
      <trkpt lat="36.70104567" lon="-4.43437">
        <ele>-29</ele>
        <time>2018-04-23T14:32:32Z</time>
      </trkpt>
      <trkpt lat="36.70102667" lon="-4.43437333">
        <ele>-29</ele>
        <time>2018-04-23T14:32:33Z</time>
      </trkpt>
      <trkpt lat="36.70101" lon="-4.434378">
        <ele>-29</ele>
        <time>2018-04-23T14:32:34Z</time>
      </trkpt>
      <trkpt lat="36.70099667" lon="-4.434385">
        <ele>-29</ele>
        <time>2018-04-23T14:32:35Z</time>
      </trkpt>
      <trkpt lat="36.700985" lon="-4.434393">
        <ele>-28</ele>
        <time>2018-04-23T14:32:36Z</time>
      </trkpt>
      <trkpt lat="36.70097333" lon="-4.43440167">
        <ele>-28</ele>
        <time>2018-04-23T14:32:37Z</time>
      </trkpt>
      <trkpt lat="36.70096167" lon="-4.43440867">
        <ele>-28</ele>
        <time>2018-04-23T14:32:38Z</time>
      </trkpt>
      <trkpt lat="36.70094833" lon="-4.434416">
        <ele>-29</ele>
        <time>2018-04-23T14:32:39Z</time>
      </trkpt>
      <trkpt lat="36.70094" lon="-4.434422">
        <ele>-29</ele>
        <time>2018-04-23T14:32:40Z</time>
      </trkpt>
      <trkpt lat="36.70093" lon="-4.43442967">
        <ele>-29</ele>
        <time>2018-04-23T14:32:41Z</time>
      </trkpt>
      <trkpt lat="36.70092167" lon="-4.43443633">
        <ele>-29</ele>
        <time>2018-04-23T14:32:42Z</time>
      </trkpt>
      <trkpt lat="36.70091167" lon="-4.43444333">
        <ele>-29</ele>
        <time>2018-04-23T14:32:43Z</time>
      </trkpt>
      <trkpt lat="36.70089833" lon="-4.43445067">
        <ele>-29</ele>
        <time>2018-04-23T14:32:44Z</time>
      </trkpt>
      <trkpt lat="36.70088333" lon="-4.43445733">
        <ele>-29</ele>
        <time>2018-04-23T14:32:45Z</time>
      </trkpt>
      <trkpt lat="36.70087" lon="-4.434462">
        <ele>-29</ele>
        <time>2018-04-23T14:32:46Z</time>
      </trkpt>
      <trkpt lat="36.70086" lon="-4.43446567">
        <ele>-29</ele>
        <time>2018-04-23T14:32:47Z</time>
      </trkpt>
      <trkpt lat="36.70084333" lon="-4.43447333">
        <ele>-29</ele>
        <time>2018-04-23T14:32:48Z</time>
      </trkpt>
      <trkpt lat="36.70083333" lon="-4.43447833">
        <ele>-29</ele>
        <time>2018-04-23T14:32:49Z</time>
      </trkpt>
      <trkpt lat="36.70082333" lon="-4.43448467">
        <ele>-29</ele>
        <time>2018-04-23T14:32:50Z</time>
      </trkpt>
      <trkpt lat="36.700815" lon="-4.43449067">
        <ele>-28</ele>
        <time>2018-04-23T14:32:51Z</time>
      </trkpt>
      <trkpt lat="36.70080333" lon="-4.43449933">
        <ele>-28</ele>
        <time>2018-04-23T14:32:51Z</time>
      </trkpt>
      <trkpt lat="36.70079333" lon="-4.434507">
        <ele>-28</ele>
        <time>2018-04-23T14:32:52Z</time>
      </trkpt>
      <trkpt lat="36.70078167" lon="-4.434516">
        <ele>-28</ele>
        <time>2018-04-23T14:32:53Z</time>
      </trkpt>
      <trkpt lat="36.70077167" lon="-4.434524">
        <ele>-28</ele>
        <time>2018-04-23T14:32:54Z</time>
      </trkpt>
      <trkpt lat="36.70075667" lon="-4.43453467">
        <ele>-28</ele>
        <time>2018-04-23T14:32:55Z</time>
      </trkpt>
      <trkpt lat="36.700745" lon="-4.43454267">
        <ele>-28</ele>
        <time>2018-04-23T14:32:56Z</time>
      </trkpt>
      <trkpt lat="36.700735" lon="-4.43455067">
        <ele>-28</ele>
        <time>2018-04-23T14:32:57Z</time>
      </trkpt>
      <trkpt lat="36.70072333" lon="-4.434559">
        <ele>-28</ele>
        <time>2018-04-23T14:32:58Z</time>
      </trkpt>
      <trkpt lat="36.70071" lon="-4.434568">
        <ele>-28</ele>
        <time>2018-04-23T14:32:59Z</time>
      </trkpt>
      <trkpt lat="36.70069667" lon="-4.43457633">
        <ele>-28</ele>
        <time>2018-04-23T14:33:00Z</time>
      </trkpt>
      <trkpt lat="36.700685" lon="-4.43458433">
        <ele>-28</ele>
        <time>2018-04-23T14:33:01Z</time>
      </trkpt>
      <trkpt lat="36.700675" lon="-4.43459067">
        <ele>-28</ele>
        <time>2018-04-23T14:33:02Z</time>
      </trkpt>
      <trkpt lat="36.700665" lon="-4.434597">
        <ele>-28</ele>
        <time>2018-04-23T14:33:03Z</time>
      </trkpt>
      <trkpt lat="36.70065167" lon="-4.43460567">
        <ele>-28</ele>
        <time>2018-04-23T14:33:04Z</time>
      </trkpt>
      <trkpt lat="36.70064" lon="-4.434613">
        <ele>-28</ele>
        <time>2018-04-23T14:33:05Z</time>
      </trkpt>
      <trkpt lat="36.70062667" lon="-4.43462067">
        <ele>-28</ele>
        <time>2018-04-23T14:33:06Z</time>
      </trkpt>
      <trkpt lat="36.70061667" lon="-4.434627">
        <ele>-28</ele>
        <time>2018-04-23T14:33:07Z</time>
      </trkpt>
      <trkpt lat="36.700605" lon="-4.43463367">
        <ele>-28</ele>
        <time>2018-04-23T14:33:08Z</time>
      </trkpt>
      <trkpt lat="36.70059333" lon="-4.434641">
        <ele>-28</ele>
        <time>2018-04-23T14:33:09Z</time>
      </trkpt>
      <trkpt lat="36.70058167" lon="-4.43464733">
        <ele>-28</ele>
        <time>2018-04-23T14:33:10Z</time>
      </trkpt>
      <trkpt lat="36.70057167" lon="-4.43465367">
        <ele>-28</ele>
        <time>2018-04-23T14:33:11Z</time>
      </trkpt>
      <trkpt lat="36.70056167" lon="-4.43466033">
        <ele>-28</ele>
        <time>2018-04-23T14:33:12Z</time>
      </trkpt>
      <trkpt lat="36.70055333" lon="-4.43466567">
        <ele>-28</ele>
        <time>2018-04-23T14:33:13Z</time>
      </trkpt>
      <trkpt lat="36.70054333" lon="-4.434672">
        <ele>-28</ele>
        <time>2018-04-23T14:33:14Z</time>
      </trkpt>
      <trkpt lat="36.70053333" lon="-4.434678">
        <ele>-28</ele>
        <time>2018-04-23T14:33:15Z</time>
      </trkpt>
      <trkpt lat="36.70052" lon="-4.43468667">
        <ele>-28</ele>
        <time>2018-04-23T14:33:16Z</time>
      </trkpt>
      <trkpt lat="36.70050833" lon="-4.434695">
        <ele>-28</ele>
        <time>2018-04-23T14:33:17Z</time>
      </trkpt>
      <trkpt lat="36.70049833" lon="-4.43470167">
        <ele>-28</ele>
        <time>2018-04-23T14:33:18Z</time>
      </trkpt>
      <trkpt lat="36.70048833" lon="-4.434708">
        <ele>-28</ele>
        <time>2018-04-23T14:33:19Z</time>
      </trkpt>
      <trkpt lat="36.70047833" lon="-4.43471533">
        <ele>-28</ele>
        <time>2018-04-23T14:33:20Z</time>
      </trkpt>
      <trkpt lat="36.700465" lon="-4.434724">
        <ele>-28</ele>
        <time>2018-04-23T14:33:21Z</time>
      </trkpt>
      <trkpt lat="36.700455" lon="-4.43473067">
        <ele>-28</ele>
        <time>2018-04-23T14:33:22Z</time>
      </trkpt>
      <trkpt lat="36.70044333" lon="-4.43473833">
        <ele>-28</ele>
        <time>2018-04-23T14:33:23Z</time>
      </trkpt>
      <trkpt lat="36.70043167" lon="-4.43474567">
        <ele>-28</ele>
        <time>2018-04-23T14:33:24Z</time>
      </trkpt>
      <trkpt lat="36.700425" lon="-4.434751">
        <ele>-28</ele>
        <time>2018-04-23T14:33:25Z</time>
      </trkpt>
      <trkpt lat="36.70041333" lon="-4.434759">
        <ele>-28</ele>
        <time>2018-04-23T14:33:26Z</time>
      </trkpt>
      <trkpt lat="36.70040333" lon="-4.43476633">
        <ele>-28</ele>
        <time>2018-04-23T14:33:27Z</time>
      </trkpt>
      <trkpt lat="36.70040833" lon="-4.434766">
        <ele>-28</ele>
        <time>2018-04-23T14:33:28Z</time>
      </trkpt>
      <trkpt lat="36.70039333" lon="-4.434778">
        <ele>-28</ele>
        <time>2018-04-23T14:33:29Z</time>
      </trkpt>
      <trkpt lat="36.70037833" lon="-4.43478933">
        <ele>-28</ele>
        <time>2018-04-23T14:33:30Z</time>
      </trkpt>
      <trkpt lat="36.70036333" lon="-4.4348">
        <ele>-28</ele>
        <time>2018-04-23T14:33:31Z</time>
      </trkpt>
      <trkpt lat="36.70035" lon="-4.43481033">
        <ele>-28</ele>
        <time>2018-04-23T14:33:32Z</time>
      </trkpt>
      <trkpt lat="36.70033667" lon="-4.43482033">
        <ele>-28</ele>
        <time>2018-04-23T14:33:33Z</time>
      </trkpt>
      <trkpt lat="36.70032667" lon="-4.43482833">
        <ele>-28</ele>
        <time>2018-04-23T14:33:34Z</time>
      </trkpt>
      <trkpt lat="36.70031833" lon="-4.43483567">
        <ele>-28</ele>
        <time>2018-04-23T14:33:35Z</time>
      </trkpt>
      <trkpt lat="36.70030833" lon="-4.43484367">
        <ele>-28</ele>
        <time>2018-04-23T14:33:36Z</time>
      </trkpt>
      <trkpt lat="36.70029833" lon="-4.43485233">
        <ele>-28</ele>
        <time>2018-04-23T14:33:37Z</time>
      </trkpt>
      <trkpt lat="36.70028833" lon="-4.43486067">
        <ele>-28</ele>
        <time>2018-04-23T14:33:38Z</time>
      </trkpt>
      <trkpt lat="36.70027833" lon="-4.434869">
        <ele>-28</ele>
        <time>2018-04-23T14:33:39Z</time>
      </trkpt>
      <trkpt lat="36.70026667" lon="-4.43487833">
        <ele>-28</ele>
        <time>2018-04-23T14:33:40Z</time>
      </trkpt>
      <trkpt lat="36.700255" lon="-4.43488933">
        <ele>-28</ele>
        <time>2018-04-23T14:33:41Z</time>
      </trkpt>
      <trkpt lat="36.70024333" lon="-4.43489833">
        <ele>-28</ele>
        <time>2018-04-23T14:33:42Z</time>
      </trkpt>
      <trkpt lat="36.70023333" lon="-4.43490667">
        <ele>-28</ele>
        <time>2018-04-23T14:33:43Z</time>
      </trkpt>
      <trkpt lat="36.70022333" lon="-4.43491433">
        <ele>-28</ele>
        <time>2018-04-23T14:33:44Z</time>
      </trkpt>
      <trkpt lat="36.70021167" lon="-4.43492367">
        <ele>-28</ele>
        <time>2018-04-23T14:33:45Z</time>
      </trkpt>
      <trkpt lat="36.70019833" lon="-4.43493267">
        <ele>-28</ele>
        <time>2018-04-23T14:33:46Z</time>
      </trkpt>
      <trkpt lat="36.70018667" lon="-4.43492167">
        <ele>-28</ele>
        <time>2018-04-23T14:33:47Z</time>
      </trkpt>
      <trkpt lat="36.70017167" lon="-4.43492">
        <ele>-28</ele>
        <time>2018-04-23T14:33:48Z</time>
      </trkpt>
      <trkpt lat="36.70015833" lon="-4.434915">
        <ele>-28</ele>
        <time>2018-04-23T14:33:49Z</time>
      </trkpt>
      <trkpt lat="36.70014333" lon="-4.43490833">
        <ele>-28</ele>
        <time>2018-04-23T14:33:50Z</time>
      </trkpt>
      <trkpt lat="36.70013" lon="-4.43490333">
        <ele>-28</ele>
        <time>2018-04-23T14:33:51Z</time>
      </trkpt>
      <trkpt lat="36.70011833" lon="-4.4349">
        <ele>-28</ele>
        <time>2018-04-23T14:33:52Z</time>
      </trkpt>
      <trkpt lat="36.700105" lon="-4.43489667">
        <ele>-28</ele>
        <time>2018-04-23T14:33:53Z</time>
      </trkpt>
      <trkpt lat="36.70009" lon="-4.43489167">
        <ele>-28</ele>
        <time>2018-04-23T14:33:54Z</time>
      </trkpt>
      <trkpt lat="36.70007833" lon="-4.43488933">
        <ele>-28</ele>
        <time>2018-04-23T14:33:55Z</time>
      </trkpt>
      <trkpt lat="36.70006667" lon="-4.43488733">
        <ele>-28</ele>
        <time>2018-04-23T14:33:56Z</time>
      </trkpt>
      <trkpt lat="36.700055" lon="-4.43488533">
        <ele>-28</ele>
        <time>2018-04-23T14:33:57Z</time>
      </trkpt>
      <trkpt lat="36.70004333" lon="-4.434885">
        <ele>-28</ele>
        <time>2018-04-23T14:33:58Z</time>
      </trkpt>
      <trkpt lat="36.70003167" lon="-4.43488467">
        <ele>-28</ele>
        <time>2018-04-23T14:33:59Z</time>
      </trkpt>
      <trkpt lat="36.70001833" lon="-4.43488433">
        <ele>-28</ele>
        <time>2018-04-23T14:34:00Z</time>
      </trkpt>
      <trkpt lat="36.700005" lon="-4.43488133">
        <ele>-28</ele>
        <time>2018-04-23T14:34:01Z</time>
      </trkpt>
      <trkpt lat="36.69999" lon="-4.43487767">
        <ele>-28</ele>
        <time>2018-04-23T14:34:02Z</time>
      </trkpt>
      <trkpt lat="36.69997667" lon="-4.434874">
        <ele>-28</ele>
        <time>2018-04-23T14:34:03Z</time>
      </trkpt>
      <trkpt lat="36.699965" lon="-4.434871">
        <ele>-28</ele>
        <time>2018-04-23T14:34:04Z</time>
      </trkpt>
      <trkpt lat="36.69995333" lon="-4.43486733">
        <ele>-28</ele>
        <time>2018-04-23T14:34:05Z</time>
      </trkpt>
      <trkpt lat="36.69994" lon="-4.43486333">
        <ele>-28</ele>
        <time>2018-04-23T14:34:06Z</time>
      </trkpt>
      <trkpt lat="36.69992833" lon="-4.434859">
        <ele>-28</ele>
        <time>2018-04-23T14:34:07Z</time>
      </trkpt>
      <trkpt lat="36.699915" lon="-4.43485433">
        <ele>-28</ele>
        <time>2018-04-23T14:34:08Z</time>
      </trkpt>
      <trkpt lat="36.69990333" lon="-4.43485067">
        <ele>-28</ele>
        <time>2018-04-23T14:34:09Z</time>
      </trkpt>
      <trkpt lat="36.69989167" lon="-4.43484767">
        <ele>-28</ele>
        <time>2018-04-23T14:34:10Z</time>
      </trkpt>
      <trkpt lat="36.69987833" lon="-4.43484433">
        <ele>-28</ele>
        <time>2018-04-23T14:34:11Z</time>
      </trkpt>
      <trkpt lat="36.69986667" lon="-4.434842">
        <ele>-28</ele>
        <time>2018-04-23T14:34:12Z</time>
      </trkpt>
      <trkpt lat="36.699855" lon="-4.43484133">
        <ele>-28</ele>
        <time>2018-04-23T14:34:13Z</time>
      </trkpt>
      <trkpt lat="36.69984333" lon="-4.434841">
        <ele>-28</ele>
        <time>2018-04-23T14:34:14Z</time>
      </trkpt>
      <trkpt lat="36.69983167" lon="-4.434865">
        <ele>-28</ele>
        <time>2018-04-23T14:34:15Z</time>
      </trkpt>
      <trkpt lat="36.69982" lon="-4.43487333">
        <ele>-28</ele>
        <time>2018-04-23T14:34:16Z</time>
      </trkpt>
      <trkpt lat="36.69980833" lon="-4.43488">
        <ele>-28</ele>
        <time>2018-04-23T14:34:17Z</time>
      </trkpt>
      <trkpt lat="36.69979667" lon="-4.434885">
        <ele>-28</ele>
        <time>2018-04-23T14:34:18Z</time>
      </trkpt>
      <trkpt lat="36.699785" lon="-4.43489133">
        <ele>-28</ele>
        <time>2018-04-23T14:34:19Z</time>
      </trkpt>
      <trkpt lat="36.699775" lon="-4.43489933">
        <ele>-28</ele>
        <time>2018-04-23T14:34:20Z</time>
      </trkpt>
      <trkpt lat="36.699765" lon="-4.43491">
        <ele>-28</ele>
        <time>2018-04-23T14:34:21Z</time>
      </trkpt>
      <trkpt lat="36.69975667" lon="-4.43491967">
        <ele>-28</ele>
        <time>2018-04-23T14:34:22Z</time>
      </trkpt>
      <trkpt lat="36.69974333" lon="-4.434929">
        <ele>-28</ele>
        <time>2018-04-23T14:34:23Z</time>
      </trkpt>
      <trkpt lat="36.699735" lon="-4.43493733">
        <ele>-28</ele>
        <time>2018-04-23T14:34:24Z</time>
      </trkpt>
      <trkpt lat="36.69972333" lon="-4.434949">
        <ele>-28</ele>
        <time>2018-04-23T14:34:25Z</time>
      </trkpt>
      <trkpt lat="36.69971333" lon="-4.434959">
        <ele>-28</ele>
        <time>2018-04-23T14:34:26Z</time>
      </trkpt>
      <trkpt lat="36.699705" lon="-4.434968">
        <ele>-29</ele>
        <time>2018-04-23T14:34:27Z</time>
      </trkpt>
      <trkpt lat="36.69969667" lon="-4.43497833">
        <ele>-29</ele>
        <time>2018-04-23T14:34:28Z</time>
      </trkpt>
      <trkpt lat="36.69968833" lon="-4.43498867">
        <ele>-29</ele>
        <time>2018-04-23T14:34:29Z</time>
      </trkpt>
      <trkpt lat="36.69968167" lon="-4.43500667">
        <ele>-29</ele>
        <time>2018-04-23T14:34:30Z</time>
      </trkpt>
      <trkpt lat="36.69968167" lon="-4.43502167">
        <ele>-29</ele>
        <time>2018-04-23T14:34:31Z</time>
      </trkpt>
      <trkpt lat="36.69968" lon="-4.43504">
        <ele>-29</ele>
        <time>2018-04-23T14:34:32Z</time>
      </trkpt>
      <trkpt lat="36.69967833" lon="-4.435055">
        <ele>-29</ele>
        <time>2018-04-23T14:34:33Z</time>
      </trkpt>
      <trkpt lat="36.699675" lon="-4.43507">
        <ele>-29</ele>
        <time>2018-04-23T14:34:34Z</time>
      </trkpt>
      <trkpt lat="36.69967167" lon="-4.43508833">
        <ele>-29</ele>
        <time>2018-04-23T14:34:35Z</time>
      </trkpt>
      <trkpt lat="36.69966867" lon="-4.43510167">
        <ele>-29</ele>
        <time>2018-04-23T14:34:36Z</time>
      </trkpt>
      <trkpt lat="36.69966533" lon="-4.43511667">
        <ele>-29</ele>
        <time>2018-04-23T14:34:37Z</time>
      </trkpt>
      <trkpt lat="36.699662" lon="-4.43513167">
        <ele>-29</ele>
        <time>2018-04-23T14:34:38Z</time>
      </trkpt>
      <trkpt lat="36.69965867" lon="-4.435145">
        <ele>-29</ele>
        <time>2018-04-23T14:34:39Z</time>
      </trkpt>
      <trkpt lat="36.69965433" lon="-4.43516167">
        <ele>-29</ele>
        <time>2018-04-23T14:34:40Z</time>
      </trkpt>
      <trkpt lat="36.69965033" lon="-4.43517333">
        <ele>-29</ele>
        <time>2018-04-23T14:34:41Z</time>
      </trkpt>
      <trkpt lat="36.69964667" lon="-4.435185">
        <ele>-29</ele>
        <time>2018-04-23T14:34:42Z</time>
      </trkpt>
      <trkpt lat="36.69964333" lon="-4.4352">
        <ele>-29</ele>
        <time>2018-04-23T14:34:43Z</time>
      </trkpt>
      <trkpt lat="36.69964133" lon="-4.435215">
        <ele>-29</ele>
        <time>2018-04-23T14:34:44Z</time>
      </trkpt>
      <trkpt lat="36.69964033" lon="-4.43522667">
        <ele>-29</ele>
        <time>2018-04-23T14:34:45Z</time>
      </trkpt>
      <trkpt lat="36.69964667" lon="-4.435245">
        <ele>-29</ele>
        <time>2018-04-23T14:34:46Z</time>
      </trkpt>
      <trkpt lat="36.69964833" lon="-4.43526">
        <ele>-29</ele>
        <time>2018-04-23T14:34:47Z</time>
      </trkpt>
      <trkpt lat="36.69964833" lon="-4.43527333">
        <ele>-31</ele>
        <time>2018-04-23T14:34:48Z</time>
      </trkpt>
      <trkpt lat="36.69964833" lon="-4.43528667">
        <ele>-31</ele>
        <time>2018-04-23T14:34:49Z</time>
      </trkpt>
      <trkpt lat="36.69964667" lon="-4.4353">
        <ele>-31</ele>
        <time>2018-04-23T14:34:50Z</time>
      </trkpt>
      <trkpt lat="36.699643" lon="-4.43531333">
        <ele>-31</ele>
        <time>2018-04-23T14:34:51Z</time>
      </trkpt>
      <trkpt lat="36.69963933" lon="-4.43532833">
        <ele>-31</ele>
        <time>2018-04-23T14:34:52Z</time>
      </trkpt>
      <trkpt lat="36.69963767" lon="-4.43533667">
        <ele>-31</ele>
        <time>2018-04-23T14:34:53Z</time>
      </trkpt>
      <trkpt lat="36.69963433" lon="-4.43535333">
        <ele>-31</ele>
        <time>2018-04-23T14:34:54Z</time>
      </trkpt>
      <trkpt lat="36.699632" lon="-4.43537">
        <ele>-31</ele>
        <time>2018-04-23T14:34:55Z</time>
      </trkpt>
      <trkpt lat="36.69962867" lon="-4.43538333">
        <ele>-31</ele>
        <time>2018-04-23T14:34:56Z</time>
      </trkpt>
      <trkpt lat="36.69962533" lon="-4.43540167">
        <ele>-31</ele>
        <time>2018-04-23T14:34:57Z</time>
      </trkpt>
      <trkpt lat="36.69962167" lon="-4.43542333">
        <ele>-31</ele>
        <time>2018-04-23T14:34:58Z</time>
      </trkpt>
      <trkpt lat="36.69962" lon="-4.43544167">
        <ele>-31</ele>
        <time>2018-04-23T14:34:59Z</time>
      </trkpt>
      <trkpt lat="36.69961833" lon="-4.43545667">
        <ele>-31</ele>
        <time>2018-04-23T14:35:00Z</time>
      </trkpt>
      <trkpt lat="36.69961633" lon="-4.43547167">
        <ele>-31</ele>
        <time>2018-04-23T14:35:01Z</time>
      </trkpt>
      <trkpt lat="36.69961433" lon="-4.435485">
        <ele>-31</ele>
        <time>2018-04-23T14:35:02Z</time>
      </trkpt>
      <trkpt lat="36.699612" lon="-4.43550167">
        <ele>-31</ele>
        <time>2018-04-23T14:35:03Z</time>
      </trkpt>
      <trkpt lat="36.699609" lon="-4.435515">
        <ele>-31</ele>
        <time>2018-04-23T14:35:04Z</time>
      </trkpt>
      <trkpt lat="36.699606" lon="-4.43553">
        <ele>-31</ele>
        <time>2018-04-23T14:35:05Z</time>
      </trkpt>
      <trkpt lat="36.69960367" lon="-4.43554">
        <ele>-31</ele>
        <time>2018-04-23T14:35:06Z</time>
      </trkpt>
      <trkpt lat="36.69959933" lon="-4.43555667">
        <ele>-31</ele>
        <time>2018-04-23T14:35:07Z</time>
      </trkpt>
      <trkpt lat="36.699585" lon="-4.43557167">
        <ele>-31</ele>
        <time>2018-04-23T14:35:08Z</time>
      </trkpt>
      <trkpt lat="36.69957833" lon="-4.435585">
        <ele>-31</ele>
        <time>2018-04-23T14:35:09Z</time>
      </trkpt>
      <trkpt lat="36.69957167" lon="-4.43559833">
        <ele>-31</ele>
        <time>2018-04-23T14:35:10Z</time>
      </trkpt>
      <trkpt lat="36.69956267" lon="-4.43561">
        <ele>-29</ele>
        <time>2018-04-23T14:35:11Z</time>
      </trkpt>
      <trkpt lat="36.69955" lon="-4.43561833">
        <ele>-29</ele>
        <time>2018-04-23T14:35:12Z</time>
      </trkpt>
      <trkpt lat="36.69953667" lon="-4.43562833">
        <ele>-29</ele>
        <time>2018-04-23T14:35:13Z</time>
      </trkpt>
      <trkpt lat="36.69952767" lon="-4.43563833">
        <ele>-29</ele>
        <time>2018-04-23T14:35:14Z</time>
      </trkpt>
      <trkpt lat="36.699518" lon="-4.43564667">
        <ele>-29</ele>
        <time>2018-04-23T14:35:15Z</time>
      </trkpt>
      <trkpt lat="36.699507" lon="-4.435655">
        <ele>-29</ele>
        <time>2018-04-23T14:35:16Z</time>
      </trkpt>
      <trkpt lat="36.69949333" lon="-4.43566167">
        <ele>-29</ele>
        <time>2018-04-23T14:35:17Z</time>
      </trkpt>
      <trkpt lat="36.69948167" lon="-4.43566833">
        <ele>-29</ele>
        <time>2018-04-23T14:35:18Z</time>
      </trkpt>
      <trkpt lat="36.69946833" lon="-4.435675">
        <ele>-29</ele>
        <time>2018-04-23T14:35:19Z</time>
      </trkpt>
      <trkpt lat="36.69945833" lon="-4.43568233">
        <ele>-31</ele>
        <time>2018-04-23T14:35:20Z</time>
      </trkpt>
      <trkpt lat="36.69944333" lon="-4.43569067">
        <ele>-31</ele>
        <time>2018-04-23T14:35:21Z</time>
      </trkpt>
      <trkpt lat="36.69943333" lon="-4.43569733">
        <ele>-31</ele>
        <time>2018-04-23T14:35:22Z</time>
      </trkpt>
      <trkpt lat="36.69942333" lon="-4.43570467">
        <ele>-31</ele>
        <time>2018-04-23T14:35:23Z</time>
      </trkpt>
      <trkpt lat="36.699415" lon="-4.435711">
        <ele>-31</ele>
        <time>2018-04-23T14:35:24Z</time>
      </trkpt>
      <trkpt lat="36.69940667" lon="-4.435718">
        <ele>-31</ele>
        <time>2018-04-23T14:35:25Z</time>
      </trkpt>
      <trkpt lat="36.69939833" lon="-4.43572533">
        <ele>-31</ele>
        <time>2018-04-23T14:35:26Z</time>
      </trkpt>
      <trkpt lat="36.69938833" lon="-4.43573267">
        <ele>-31</ele>
        <time>2018-04-23T14:35:27Z</time>
      </trkpt>
      <trkpt lat="36.69938" lon="-4.43573967">
        <ele>-31</ele>
        <time>2018-04-23T14:35:28Z</time>
      </trkpt>
      <trkpt lat="36.69937" lon="-4.43574833">
        <ele>-31</ele>
        <time>2018-04-23T14:35:29Z</time>
      </trkpt>
      <trkpt lat="36.69935833" lon="-4.43575767">
        <ele>-31</ele>
        <time>2018-04-23T14:35:30Z</time>
      </trkpt>
      <trkpt lat="36.69934833" lon="-4.435765">
        <ele>-31</ele>
        <time>2018-04-23T14:35:31Z</time>
      </trkpt>
      <trkpt lat="36.69933333" lon="-4.43577633">
        <ele>-31</ele>
        <time>2018-04-23T14:35:32Z</time>
      </trkpt>
      <trkpt lat="36.69932333" lon="-4.43578433">
        <ele>-31</ele>
        <time>2018-04-23T14:35:33Z</time>
      </trkpt>
      <trkpt lat="36.699315" lon="-4.43579233">
        <ele>-31</ele>
        <time>2018-04-23T14:35:34Z</time>
      </trkpt>
      <trkpt lat="36.699305" lon="-4.435802">
        <ele>-31</ele>
        <time>2018-04-23T14:35:35Z</time>
      </trkpt>
      <trkpt lat="36.699295" lon="-4.43581133">
        <ele>-31</ele>
        <time>2018-04-23T14:35:36Z</time>
      </trkpt>
      <trkpt lat="36.699285" lon="-4.43582033">
        <ele>-31</ele>
        <time>2018-04-23T14:35:37Z</time>
      </trkpt>
      <trkpt lat="36.699275" lon="-4.43583">
        <ele>-31</ele>
        <time>2018-04-23T14:35:38Z</time>
      </trkpt>
      <trkpt lat="36.699265" lon="-4.43583967">
        <ele>-31</ele>
        <time>2018-04-23T14:35:39Z</time>
      </trkpt>
      <trkpt lat="36.69925667" lon="-4.43584767">
        <ele>-31</ele>
        <time>2018-04-23T14:35:40Z</time>
      </trkpt>
      <trkpt lat="36.699245" lon="-4.43585767">
        <ele>-31</ele>
        <time>2018-04-23T14:35:41Z</time>
      </trkpt>
      <trkpt lat="36.69923333" lon="-4.43586733">
        <ele>-31</ele>
        <time>2018-04-23T14:35:42Z</time>
      </trkpt>
      <trkpt lat="36.69922167" lon="-4.43587667">
        <ele>-31</ele>
        <time>2018-04-23T14:35:43Z</time>
      </trkpt>
      <trkpt lat="36.69921167" lon="-4.43588467">
        <ele>-31</ele>
        <time>2018-04-23T14:35:44Z</time>
      </trkpt>
      <trkpt lat="36.69919833" lon="-4.435895">
        <ele>-31</ele>
        <time>2018-04-23T14:35:45Z</time>
      </trkpt>
      <trkpt lat="36.69918667" lon="-4.435903">
        <ele>-31</ele>
        <time>2018-04-23T14:35:46Z</time>
      </trkpt>
      <trkpt lat="36.699175" lon="-4.435911">
        <ele>-31</ele>
        <time>2018-04-23T14:35:47Z</time>
      </trkpt>
      <trkpt lat="36.69916167" lon="-4.43592">
        <ele>-31</ele>
        <time>2018-04-23T14:35:48Z</time>
      </trkpt>
      <trkpt lat="36.69915167" lon="-4.43592567">
        <ele>-26</ele>
        <time>2018-04-23T14:35:49Z</time>
      </trkpt>
      <trkpt lat="36.699145" lon="-4.43593">
        <ele>-26</ele>
        <time>2018-04-23T14:35:50Z</time>
      </trkpt>
      <trkpt lat="36.69913333" lon="-4.435938">
        <ele>-26</ele>
        <time>2018-04-23T14:35:51Z</time>
      </trkpt>
      <trkpt lat="36.69912167" lon="-4.43594533">
        <ele>-28</ele>
        <time>2018-04-23T14:35:52Z</time>
      </trkpt>
      <trkpt lat="36.69910833" lon="-4.43595367">
        <ele>-28</ele>
        <time>2018-04-23T14:35:53Z</time>
      </trkpt>
      <trkpt lat="36.69909667" lon="-4.43596">
        <ele>-28</ele>
        <time>2018-04-23T14:35:54Z</time>
      </trkpt>
      <trkpt lat="36.699085" lon="-4.435967">
        <ele>-28</ele>
        <time>2018-04-23T14:35:55Z</time>
      </trkpt>
      <trkpt lat="36.69907333" lon="-4.43597233">
        <ele>-28</ele>
        <time>2018-04-23T14:35:56Z</time>
      </trkpt>
      <trkpt lat="36.69906167" lon="-4.43597767">
        <ele>-30</ele>
        <time>2018-04-23T14:35:57Z</time>
      </trkpt>
      <trkpt lat="36.69905167" lon="-4.43598267">
        <ele>-30</ele>
        <time>2018-04-23T14:35:58Z</time>
      </trkpt>
      <trkpt lat="36.69904" lon="-4.43598733">
        <ele>-30</ele>
        <time>2018-04-23T14:35:59Z</time>
      </trkpt>
      <trkpt lat="36.699025" lon="-4.43599433">
        <ele>-30</ele>
        <time>2018-04-23T14:36:00Z</time>
      </trkpt>
      <trkpt lat="36.69901333" lon="-4.43599867">
        <ele>-30</ele>
        <time>2018-04-23T14:36:01Z</time>
      </trkpt>
      <trkpt lat="36.699" lon="-4.43600367">
        <ele>-30</ele>
        <time>2018-04-23T14:36:02Z</time>
      </trkpt>
      <trkpt lat="36.69899" lon="-4.43600633">
        <ele>-30</ele>
        <time>2018-04-23T14:36:03Z</time>
      </trkpt>
      <trkpt lat="36.69898" lon="-4.43600933">
        <ele>-32</ele>
        <time>2018-04-23T14:36:04Z</time>
      </trkpt>
      <trkpt lat="36.69897" lon="-4.43601267">
        <ele>-32</ele>
        <time>2018-04-23T14:36:05Z</time>
      </trkpt>
      <trkpt lat="36.698955" lon="-4.43601967">
        <ele>-26</ele>
        <time>2018-04-23T14:36:06Z</time>
      </trkpt>
      <trkpt lat="36.69894333" lon="-4.436022">
        <ele>-26</ele>
        <time>2018-04-23T14:36:07Z</time>
      </trkpt>
      <trkpt lat="36.69893333" lon="-4.436025">
        <ele>-26</ele>
        <time>2018-04-23T14:36:08Z</time>
      </trkpt>
      <trkpt lat="36.69892333" lon="-4.43602767">
        <ele>-26</ele>
        <time>2018-04-23T14:36:09Z</time>
      </trkpt>
      <trkpt lat="36.69891167" lon="-4.43603233">
        <ele>-26</ele>
        <time>2018-04-23T14:36:10Z</time>
      </trkpt>
      <trkpt lat="36.6989" lon="-4.43603633">
        <ele>-27</ele>
        <time>2018-04-23T14:36:11Z</time>
      </trkpt>
      <trkpt lat="36.69888833" lon="-4.43604">
        <ele>-27</ele>
        <time>2018-04-23T14:36:12Z</time>
      </trkpt>
      <trkpt lat="36.698875" lon="-4.43604467">
        <ele>-27</ele>
        <time>2018-04-23T14:36:13Z</time>
      </trkpt>
      <trkpt lat="36.698865" lon="-4.436048">
        <ele>-27</ele>
        <time>2018-04-23T14:36:14Z</time>
      </trkpt>
      <trkpt lat="36.698855" lon="-4.436051">
        <ele>-27</ele>
        <time>2018-04-23T14:36:15Z</time>
      </trkpt>
      <trkpt lat="36.69884333" lon="-4.43605567">
        <ele>-27</ele>
        <time>2018-04-23T14:36:16Z</time>
      </trkpt>
      <trkpt lat="36.69883333" lon="-4.43605933">
        <ele>-29</ele>
        <time>2018-04-23T14:36:17Z</time>
      </trkpt>
      <trkpt lat="36.69882" lon="-4.43606467">
        <ele>-29</ele>
        <time>2018-04-23T14:36:18Z</time>
      </trkpt>
      <trkpt lat="36.69880833" lon="-4.436069">
        <ele>-29</ele>
        <time>2018-04-23T14:36:19Z</time>
      </trkpt>
      <trkpt lat="36.69879667" lon="-4.43607467">
        <ele>-29</ele>
        <time>2018-04-23T14:36:20Z</time>
      </trkpt>
      <trkpt lat="36.69878333" lon="-4.43607967">
        <ele>-29</ele>
        <time>2018-04-23T14:36:21Z</time>
      </trkpt>
      <trkpt lat="36.69877" lon="-4.43608467">
        <ele>-29</ele>
        <time>2018-04-23T14:36:22Z</time>
      </trkpt>
      <trkpt lat="36.69876" lon="-4.43608933">
        <ele>-29</ele>
        <time>2018-04-23T14:36:23Z</time>
      </trkpt>
      <trkpt lat="36.69875" lon="-4.43609367">
        <ele>-29</ele>
        <time>2018-04-23T14:36:24Z</time>
      </trkpt>
      <trkpt lat="36.69874167" lon="-4.43609833">
        <ele>-29</ele>
        <time>2018-04-23T14:36:25Z</time>
      </trkpt>
      <trkpt lat="36.69873167" lon="-4.43610367">
        <ele>-28</ele>
        <time>2018-04-23T14:36:26Z</time>
      </trkpt>
      <trkpt lat="36.69872167" lon="-4.436109">
        <ele>-28</ele>
        <time>2018-04-23T14:36:27Z</time>
      </trkpt>
      <trkpt lat="36.69871" lon="-4.43611533">
        <ele>-28</ele>
        <time>2018-04-23T14:36:28Z</time>
      </trkpt>
      <trkpt lat="36.69869667" lon="-4.43612333">
        <ele>-28</ele>
        <time>2018-04-23T14:36:29Z</time>
      </trkpt>
      <trkpt lat="36.698685" lon="-4.43613033">
        <ele>-28</ele>
        <time>2018-04-23T14:36:30Z</time>
      </trkpt>
      <trkpt lat="36.698675" lon="-4.436138">
        <ele>-28</ele>
        <time>2018-04-23T14:36:31Z</time>
      </trkpt>
      <trkpt lat="36.69866667" lon="-4.43614367">
        <ele>-29</ele>
        <time>2018-04-23T14:36:32Z</time>
      </trkpt>
      <trkpt lat="36.69865667" lon="-4.436151">
        <ele>-29</ele>
        <time>2018-04-23T14:36:33Z</time>
      </trkpt>
      <trkpt lat="36.698645" lon="-4.43615933">
        <ele>-29</ele>
        <time>2018-04-23T14:36:34Z</time>
      </trkpt>
      <trkpt lat="36.69863667" lon="-4.43616633">
        <ele>-29</ele>
        <time>2018-04-23T14:36:35Z</time>
      </trkpt>
      <trkpt lat="36.698625" lon="-4.43617567">
        <ele>-29</ele>
        <time>2018-04-23T14:36:36Z</time>
      </trkpt>
      <trkpt lat="36.69861667" lon="-4.43618267">
        <ele>-29</ele>
        <time>2018-04-23T14:36:37Z</time>
      </trkpt>
      <trkpt lat="36.698605" lon="-4.43619233">
        <ele>-29</ele>
        <time>2018-04-23T14:36:38Z</time>
      </trkpt>
      <trkpt lat="36.69859333" lon="-4.43620133">
        <ele>-29</ele>
        <time>2018-04-23T14:36:39Z</time>
      </trkpt>
      <trkpt lat="36.698585" lon="-4.436209">
        <ele>-29</ele>
        <time>2018-04-23T14:36:40Z</time>
      </trkpt>
      <trkpt lat="36.698575" lon="-4.43621867">
        <ele>-29</ele>
        <time>2018-04-23T14:36:41Z</time>
      </trkpt>
      <trkpt lat="36.69856333" lon="-4.43622867">
        <ele>-29</ele>
        <time>2018-04-23T14:36:42Z</time>
      </trkpt>
      <trkpt lat="36.69855167" lon="-4.43623967">
        <ele>-29</ele>
        <time>2018-04-23T14:36:43Z</time>
      </trkpt>
      <trkpt lat="36.69854" lon="-4.43624967">
        <ele>-29</ele>
        <time>2018-04-23T14:36:44Z</time>
      </trkpt>
      <trkpt lat="36.69853" lon="-4.436259">
        <ele>-29</ele>
        <time>2018-04-23T14:36:45Z</time>
      </trkpt>
      <trkpt lat="36.69852" lon="-4.436269">
        <ele>-29</ele>
        <time>2018-04-23T14:36:46Z</time>
      </trkpt>
      <trkpt lat="36.69851" lon="-4.43627867">
        <ele>-29</ele>
        <time>2018-04-23T14:36:47Z</time>
      </trkpt>
      <trkpt lat="36.6985" lon="-4.436288">
        <ele>-29</ele>
        <time>2018-04-23T14:36:48Z</time>
      </trkpt>
      <trkpt lat="36.69848833" lon="-4.43629867">
        <ele>-29</ele>
        <time>2018-04-23T14:36:49Z</time>
      </trkpt>
      <trkpt lat="36.69848" lon="-4.43630767">
        <ele>-29</ele>
        <time>2018-04-23T14:36:50Z</time>
      </trkpt>
      <trkpt lat="36.69846833" lon="-4.436318">
        <ele>-29</ele>
        <time>2018-04-23T14:36:51Z</time>
      </trkpt>
      <trkpt lat="36.69845833" lon="-4.436328">
        <ele>-29</ele>
        <time>2018-04-23T14:36:52Z</time>
      </trkpt>
      <trkpt lat="36.69844833" lon="-4.436337">
        <ele>-29</ele>
        <time>2018-04-23T14:36:53Z</time>
      </trkpt>
      <trkpt lat="36.69843667" lon="-4.43634733">
        <ele>-29</ele>
        <time>2018-04-23T14:36:54Z</time>
      </trkpt>
      <trkpt lat="36.698425" lon="-4.43635767">
        <ele>-29</ele>
        <time>2018-04-23T14:36:55Z</time>
      </trkpt>
      <trkpt lat="36.698415" lon="-4.436366">
        <ele>-29</ele>
        <time>2018-04-23T14:36:56Z</time>
      </trkpt>
      <trkpt lat="36.698405" lon="-4.436374">
        <ele>-29</ele>
        <time>2018-04-23T14:36:57Z</time>
      </trkpt>
      <trkpt lat="36.698395" lon="-4.43638367">
        <ele>-29</ele>
        <time>2018-04-23T14:36:58Z</time>
      </trkpt>
      <trkpt lat="36.69838667" lon="-4.43639033">
        <ele>-29</ele>
        <time>2018-04-23T14:36:59Z</time>
      </trkpt>
      <trkpt lat="36.698375" lon="-4.436401">
        <ele>-29</ele>
        <time>2018-04-23T14:37:00Z</time>
      </trkpt>
      <trkpt lat="36.698365" lon="-4.43640967">
        <ele>-29</ele>
        <time>2018-04-23T14:37:01Z</time>
      </trkpt>
      <trkpt lat="36.69835333" lon="-4.43641933">
        <ele>-29</ele>
        <time>2018-04-23T14:37:02Z</time>
      </trkpt>
      <trkpt lat="36.69834333" lon="-4.436428">
        <ele>-29</ele>
        <time>2018-04-23T14:37:03Z</time>
      </trkpt>
      <trkpt lat="36.69833333" lon="-4.43643633">
        <ele>-29</ele>
        <time>2018-04-23T14:37:04Z</time>
      </trkpt>
      <trkpt lat="36.69832333" lon="-4.43644467">
        <ele>-29</ele>
        <time>2018-04-23T14:37:05Z</time>
      </trkpt>
      <trkpt lat="36.69831333" lon="-4.43645367">
        <ele>-29</ele>
        <time>2018-04-23T14:37:06Z</time>
      </trkpt>
      <trkpt lat="36.69830167" lon="-4.43646333">
        <ele>-29</ele>
        <time>2018-04-23T14:37:06Z</time>
      </trkpt>
      <trkpt lat="36.69829" lon="-4.43647333">
        <ele>-29</ele>
        <time>2018-04-23T14:37:07Z</time>
      </trkpt>
      <trkpt lat="36.69828167" lon="-4.43648067">
        <ele>-29</ele>
        <time>2018-04-23T14:37:08Z</time>
      </trkpt>
      <trkpt lat="36.69827667" lon="-4.436486">
        <ele>-29</ele>
        <time>2018-04-23T14:37:09Z</time>
      </trkpt>
      <trkpt lat="36.698265" lon="-4.43649633">
        <ele>-29</ele>
        <time>2018-04-23T14:37:10Z</time>
      </trkpt>
      <trkpt lat="36.69825667" lon="-4.43650433">
        <ele>-29</ele>
        <time>2018-04-23T14:37:11Z</time>
      </trkpt>
      <trkpt lat="36.69824667" lon="-4.43651333">
        <ele>-29</ele>
        <time>2018-04-23T14:37:12Z</time>
      </trkpt>
      <trkpt lat="36.698235" lon="-4.43652433">
        <ele>-29</ele>
        <time>2018-04-23T14:37:13Z</time>
      </trkpt>
      <trkpt lat="36.69822667" lon="-4.43653267">
        <ele>-29</ele>
        <time>2018-04-23T14:37:14Z</time>
      </trkpt>
      <trkpt lat="36.69822" lon="-4.43654033">
        <ele>-29</ele>
        <time>2018-04-23T14:37:15Z</time>
      </trkpt>
      <trkpt lat="36.69821167" lon="-4.43657333">
        <ele>-29</ele>
        <time>2018-04-23T14:37:16Z</time>
      </trkpt>
      <trkpt lat="36.698203" lon="-4.436585">
        <ele>-29</ele>
        <time>2018-04-23T14:37:17Z</time>
      </trkpt>
      <trkpt lat="36.69819767" lon="-4.43659667">
        <ele>-29</ele>
        <time>2018-04-23T14:37:18Z</time>
      </trkpt>
      <trkpt lat="36.69818967" lon="-4.43661">
        <ele>-29</ele>
        <time>2018-04-23T14:37:19Z</time>
      </trkpt>
      <trkpt lat="36.698181" lon="-4.43662">
        <ele>-29</ele>
        <time>2018-04-23T14:37:20Z</time>
      </trkpt>
      <trkpt lat="36.69817167" lon="-4.43662833">
        <ele>-29</ele>
        <time>2018-04-23T14:37:21Z</time>
      </trkpt>
      <trkpt lat="36.698161" lon="-4.43663833">
        <ele>-29</ele>
        <time>2018-04-23T14:37:22Z</time>
      </trkpt>
      <trkpt lat="36.698145" lon="-4.43664833">
        <ele>-29</ele>
        <time>2018-04-23T14:37:23Z</time>
      </trkpt>
      <trkpt lat="36.69813667" lon="-4.43665967">
        <ele>-29</ele>
        <time>2018-04-23T14:37:24Z</time>
      </trkpt>
      <trkpt lat="36.69812333" lon="-4.43667067">
        <ele>-29</ele>
        <time>2018-04-23T14:37:25Z</time>
      </trkpt>
      <trkpt lat="36.69811333" lon="-4.43667767">
        <ele>-29</ele>
        <time>2018-04-23T14:37:26Z</time>
      </trkpt>
      <trkpt lat="36.69810167" lon="-4.436685">
        <ele>-29</ele>
        <time>2018-04-23T14:37:27Z</time>
      </trkpt>
      <trkpt lat="36.69809" lon="-4.436692">
        <ele>-29</ele>
        <time>2018-04-23T14:37:28Z</time>
      </trkpt>
      <trkpt lat="36.69807833" lon="-4.436699">
        <ele>-29</ele>
        <time>2018-04-23T14:37:29Z</time>
      </trkpt>
      <trkpt lat="36.69806667" lon="-4.43670567">
        <ele>-28</ele>
        <time>2018-04-23T14:37:30Z</time>
      </trkpt>
      <trkpt lat="36.69805333" lon="-4.436712">
        <ele>-28</ele>
        <time>2018-04-23T14:37:31Z</time>
      </trkpt>
      <trkpt lat="36.69804" lon="-4.43671733">
        <ele>-28</ele>
        <time>2018-04-23T14:37:32Z</time>
      </trkpt>
      <trkpt lat="36.69803" lon="-4.43672133">
        <ele>-28</ele>
        <time>2018-04-23T14:37:33Z</time>
      </trkpt>
      <trkpt lat="36.69802" lon="-4.43672767">
        <ele>-28</ele>
        <time>2018-04-23T14:37:34Z</time>
      </trkpt>
      <trkpt lat="36.69800833" lon="-4.43673467">
        <ele>-28</ele>
        <time>2018-04-23T14:37:35Z</time>
      </trkpt>
      <trkpt lat="36.697995" lon="-4.43674267">
        <ele>-28</ele>
        <time>2018-04-23T14:37:36Z</time>
      </trkpt>
      <trkpt lat="36.697985" lon="-4.43674867">
        <ele>-28</ele>
        <time>2018-04-23T14:37:37Z</time>
      </trkpt>
      <trkpt lat="36.69797333" lon="-4.43675567">
        <ele>-28</ele>
        <time>2018-04-23T14:37:38Z</time>
      </trkpt>
      <trkpt lat="36.69796333" lon="-4.43676233">
        <ele>-28</ele>
        <time>2018-04-23T14:37:39Z</time>
      </trkpt>
      <trkpt lat="36.69795333" lon="-4.43677">
        <ele>-28</ele>
        <time>2018-04-23T14:37:40Z</time>
      </trkpt>
      <trkpt lat="36.69794" lon="-4.43677867">
        <ele>-28</ele>
        <time>2018-04-23T14:37:41Z</time>
      </trkpt>
      <trkpt lat="36.69793" lon="-4.43678533">
        <ele>-28</ele>
        <time>2018-04-23T14:37:42Z</time>
      </trkpt>
      <trkpt lat="36.69791667" lon="-4.43679367">
        <ele>-28</ele>
        <time>2018-04-23T14:37:43Z</time>
      </trkpt>
      <trkpt lat="36.697905" lon="-4.436801">
        <ele>-28</ele>
        <time>2018-04-23T14:37:44Z</time>
      </trkpt>
      <trkpt lat="36.697895" lon="-4.43680733">
        <ele>-28</ele>
        <time>2018-04-23T14:37:45Z</time>
      </trkpt>
      <trkpt lat="36.697885" lon="-4.43681333">
        <ele>-28</ele>
        <time>2018-04-23T14:37:46Z</time>
      </trkpt>
      <trkpt lat="36.697875" lon="-4.43681933">
        <ele>-28</ele>
        <time>2018-04-23T14:37:47Z</time>
      </trkpt>
      <trkpt lat="36.69786333" lon="-4.43682567">
        <ele>-30</ele>
        <time>2018-04-23T14:37:48Z</time>
      </trkpt>
      <trkpt lat="36.69784833" lon="-4.43683333">
        <ele>-30</ele>
        <time>2018-04-23T14:37:49Z</time>
      </trkpt>
      <trkpt lat="36.697835" lon="-4.43683867">
        <ele>-30</ele>
        <time>2018-04-23T14:37:50Z</time>
      </trkpt>
      <trkpt lat="36.69782167" lon="-4.43682333">
        <ele>-30</ele>
        <time>2018-04-23T14:37:51Z</time>
      </trkpt>
      <trkpt lat="36.69780667" lon="-4.43682">
        <ele>-27</ele>
        <time>2018-04-23T14:37:52Z</time>
      </trkpt>
      <trkpt lat="36.69779667" lon="-4.43682333">
        <ele>-27</ele>
        <time>2018-04-23T14:37:53Z</time>
      </trkpt>
      <trkpt lat="36.697785" lon="-4.43682933">
        <ele>-27</ele>
        <time>2018-04-23T14:37:54Z</time>
      </trkpt>
      <trkpt lat="36.69777333" lon="-4.436836">
        <ele>-27</ele>
        <time>2018-04-23T14:37:55Z</time>
      </trkpt>
      <trkpt lat="36.69776167" lon="-4.436844">
        <ele>-27</ele>
        <time>2018-04-23T14:37:56Z</time>
      </trkpt>
      <trkpt lat="36.69775" lon="-4.43685167">
        <ele>-27</ele>
        <time>2018-04-23T14:37:57Z</time>
      </trkpt>
      <trkpt lat="36.69773833" lon="-4.43685933">
        <ele>-27</ele>
        <time>2018-04-23T14:37:58Z</time>
      </trkpt>
      <trkpt lat="36.69772667" lon="-4.436867">
        <ele>-27</ele>
        <time>2018-04-23T14:37:59Z</time>
      </trkpt>
      <trkpt lat="36.69771667" lon="-4.436874">
        <ele>-27</ele>
        <time>2018-04-23T14:38:00Z</time>
      </trkpt>
      <trkpt lat="36.697705" lon="-4.43688133">
        <ele>-27</ele>
        <time>2018-04-23T14:38:01Z</time>
      </trkpt>
      <trkpt lat="36.69769" lon="-4.436891">
        <ele>-27</ele>
        <time>2018-04-23T14:38:02Z</time>
      </trkpt>
      <trkpt lat="36.69767833" lon="-4.436899">
        <ele>-27</ele>
        <time>2018-04-23T14:38:03Z</time>
      </trkpt>
      <trkpt lat="36.697665" lon="-4.436908">
        <ele>-27</ele>
        <time>2018-04-23T14:38:04Z</time>
      </trkpt>
      <trkpt lat="36.69765333" lon="-4.43691633">
        <ele>-27</ele>
        <time>2018-04-23T14:38:05Z</time>
      </trkpt>
      <trkpt lat="36.69764333" lon="-4.43692367">
        <ele>-27</ele>
        <time>2018-04-23T14:38:06Z</time>
      </trkpt>
      <trkpt lat="36.697635" lon="-4.43692867">
        <ele>-27</ele>
        <time>2018-04-23T14:38:07Z</time>
      </trkpt>
      <trkpt lat="36.69762833" lon="-4.43693333">
        <ele>-27</ele>
        <time>2018-04-23T14:38:08Z</time>
      </trkpt>
      <trkpt lat="36.69761833" lon="-4.43693967">
        <ele>-27</ele>
        <time>2018-04-23T14:38:09Z</time>
      </trkpt>
      <trkpt lat="36.69760667" lon="-4.43694667">
        <ele>-27</ele>
        <time>2018-04-23T14:38:10Z</time>
      </trkpt>
      <trkpt lat="36.69759333" lon="-4.436955">
        <ele>-27</ele>
        <time>2018-04-23T14:38:11Z</time>
      </trkpt>
      <trkpt lat="36.69758333" lon="-4.43696133">
        <ele>-27</ele>
        <time>2018-04-23T14:38:12Z</time>
      </trkpt>
      <trkpt lat="36.69757333" lon="-4.436968">
        <ele>-27</ele>
        <time>2018-04-23T14:38:13Z</time>
      </trkpt>
      <trkpt lat="36.697565" lon="-4.43697433">
        <ele>-27</ele>
        <time>2018-04-23T14:38:14Z</time>
      </trkpt>
      <trkpt lat="36.69756" lon="-4.43697867">
        <ele>-27</ele>
        <time>2018-04-23T14:38:15Z</time>
      </trkpt>
      <trkpt lat="36.69755" lon="-4.436986">
        <ele>-27</ele>
        <time>2018-04-23T14:38:16Z</time>
      </trkpt>
      <trkpt lat="36.69753833" lon="-4.43699433">
        <ele>-27</ele>
        <time>2018-04-23T14:38:17Z</time>
      </trkpt>
      <trkpt lat="36.69752833" lon="-4.437001">
        <ele>-30</ele>
        <time>2018-04-23T14:38:18Z</time>
      </trkpt>
      <trkpt lat="36.69751333" lon="-4.437012">
        <ele>-30</ele>
        <time>2018-04-23T14:38:19Z</time>
      </trkpt>
      <trkpt lat="36.69750333" lon="-4.43701933">
        <ele>-30</ele>
        <time>2018-04-23T14:38:20Z</time>
      </trkpt>
      <trkpt lat="36.69749167" lon="-4.437028">
        <ele>-32</ele>
        <time>2018-04-23T14:38:21Z</time>
      </trkpt>
      <trkpt lat="36.69748" lon="-4.437036">
        <ele>-32</ele>
        <time>2018-04-23T14:38:22Z</time>
      </trkpt>
      <trkpt lat="36.69746833" lon="-4.437045">
        <ele>-32</ele>
        <time>2018-04-23T14:38:23Z</time>
      </trkpt>
      <trkpt lat="36.69745833" lon="-4.43705233">
        <ele>-30</ele>
        <time>2018-04-23T14:38:24Z</time>
      </trkpt>
      <trkpt lat="36.69744667" lon="-4.43706067">
        <ele>-30</ele>
        <time>2018-04-23T14:38:25Z</time>
      </trkpt>
      <trkpt lat="36.69743667" lon="-4.43706867">
        <ele>-30</ele>
        <time>2018-04-23T14:38:26Z</time>
      </trkpt>
      <trkpt lat="36.69742333" lon="-4.43707867">
        <ele>-30</ele>
        <time>2018-04-23T14:38:27Z</time>
      </trkpt>
      <trkpt lat="36.69741333" lon="-4.43708667">
        <ele>-30</ele>
        <time>2018-04-23T14:38:28Z</time>
      </trkpt>
      <trkpt lat="36.69740167" lon="-4.43709633">
        <ele>-30</ele>
        <time>2018-04-23T14:38:29Z</time>
      </trkpt>
      <trkpt lat="36.69739167" lon="-4.43710433">
        <ele>-30</ele>
        <time>2018-04-23T14:38:30Z</time>
      </trkpt>
      <trkpt lat="36.69737833" lon="-4.43711467">
        <ele>-30</ele>
        <time>2018-04-23T14:38:31Z</time>
      </trkpt>
      <trkpt lat="36.69736833" lon="-4.437122">
        <ele>-30</ele>
        <time>2018-04-23T14:38:32Z</time>
      </trkpt>
      <trkpt lat="36.69736333" lon="-4.43712767">
        <ele>-30</ele>
        <time>2018-04-23T14:38:33Z</time>
      </trkpt>
      <trkpt lat="36.69736167" lon="-4.43716">
        <ele>-30</ele>
        <time>2018-04-23T14:38:34Z</time>
      </trkpt>
      <trkpt lat="36.69736167" lon="-4.43717167">
        <ele>-30</ele>
        <time>2018-04-23T14:38:35Z</time>
      </trkpt>
      <trkpt lat="36.69736333" lon="-4.43718833">
        <ele>-30</ele>
        <time>2018-04-23T14:38:36Z</time>
      </trkpt>
      <trkpt lat="36.69736167" lon="-4.43720167">
        <ele>-30</ele>
        <time>2018-04-23T14:38:37Z</time>
      </trkpt>
      <trkpt lat="36.69736167" lon="-4.43721833">
        <ele>-30</ele>
        <time>2018-04-23T14:38:38Z</time>
      </trkpt>
      <trkpt lat="36.69736333" lon="-4.43722667">
        <ele>-30</ele>
        <time>2018-04-23T14:38:39Z</time>
      </trkpt>
      <trkpt lat="36.697365" lon="-4.43723667">
        <ele>-30</ele>
        <time>2018-04-23T14:38:40Z</time>
      </trkpt>
      <trkpt lat="36.697365" lon="-4.43724833">
        <ele>-30</ele>
        <time>2018-04-23T14:38:41Z</time>
      </trkpt>
      <trkpt lat="36.697358" lon="-4.43725833">
        <ele>-30</ele>
        <time>2018-04-23T14:38:42Z</time>
      </trkpt>
      <trkpt lat="36.69734667" lon="-4.437265">
        <ele>-30</ele>
        <time>2018-04-23T14:38:43Z</time>
      </trkpt>
      <trkpt lat="36.69733333" lon="-4.43727">
        <ele>-30</ele>
        <time>2018-04-23T14:38:44Z</time>
      </trkpt>
      <trkpt lat="36.69732333" lon="-4.43727667">
        <ele>-30</ele>
        <time>2018-04-23T14:38:45Z</time>
      </trkpt>
      <trkpt lat="36.697315" lon="-4.43728333">
        <ele>-30</ele>
        <time>2018-04-23T14:38:46Z</time>
      </trkpt>
      <trkpt lat="36.69730167" lon="-4.43729">
        <ele>-28</ele>
        <time>2018-04-23T14:38:47Z</time>
      </trkpt>
      <trkpt lat="36.69729167" lon="-4.43729667">
        <ele>-28</ele>
        <time>2018-04-23T14:38:48Z</time>
      </trkpt>
      <trkpt lat="36.69728" lon="-4.43730333">
        <ele>-28</ele>
        <time>2018-04-23T14:38:49Z</time>
      </trkpt>
      <trkpt lat="36.69726833" lon="-4.437308">
        <ele>-28</ele>
        <time>2018-04-23T14:38:50Z</time>
      </trkpt>
      <trkpt lat="36.69725667" lon="-4.43731433">
        <ele>-28</ele>
        <time>2018-04-23T14:38:51Z</time>
      </trkpt>
      <trkpt lat="36.697245" lon="-4.43732233">
        <ele>-28</ele>
        <time>2018-04-23T14:38:52Z</time>
      </trkpt>
      <trkpt lat="36.69723333" lon="-4.43733067">
        <ele>-28</ele>
        <time>2018-04-23T14:38:53Z</time>
      </trkpt>
      <trkpt lat="36.69722333" lon="-4.437339">
        <ele>-28</ele>
        <time>2018-04-23T14:38:54Z</time>
      </trkpt>
      <trkpt lat="36.69721333" lon="-4.43734833">
        <ele>-28</ele>
        <time>2018-04-23T14:38:55Z</time>
      </trkpt>
      <trkpt lat="36.69720333" lon="-4.43735733">
        <ele>-30</ele>
        <time>2018-04-23T14:38:56Z</time>
      </trkpt>
      <trkpt lat="36.69719167" lon="-4.437367">
        <ele>-30</ele>
        <time>2018-04-23T14:38:57Z</time>
      </trkpt>
      <trkpt lat="36.69717833" lon="-4.437376">
        <ele>-30</ele>
        <time>2018-04-23T14:38:58Z</time>
      </trkpt>
      <trkpt lat="36.69716833" lon="-4.437383">
        <ele>-30</ele>
        <time>2018-04-23T14:38:59Z</time>
      </trkpt>
      <trkpt lat="36.69715667" lon="-4.43739">
        <ele>-30</ele>
        <time>2018-04-23T14:39:00Z</time>
      </trkpt>
      <trkpt lat="36.69714667" lon="-4.437397">
        <ele>-30</ele>
        <time>2018-04-23T14:39:01Z</time>
      </trkpt>
      <trkpt lat="36.697135" lon="-4.43740567">
        <ele>-30</ele>
        <time>2018-04-23T14:39:02Z</time>
      </trkpt>
      <trkpt lat="36.69712167" lon="-4.43741567">
        <ele>-30</ele>
        <time>2018-04-23T14:39:03Z</time>
      </trkpt>
      <trkpt lat="36.69711167" lon="-4.43742267">
        <ele>-30</ele>
        <time>2018-04-23T14:39:04Z</time>
      </trkpt>
      <trkpt lat="36.6971" lon="-4.437432">
        <ele>-28</ele>
        <time>2018-04-23T14:39:05Z</time>
      </trkpt>
      <trkpt lat="36.69709167" lon="-4.43743967">
        <ele>-28</ele>
        <time>2018-04-23T14:39:06Z</time>
      </trkpt>
      <trkpt lat="36.69708333" lon="-4.43744867">
        <ele>-28</ele>
        <time>2018-04-23T14:39:07Z</time>
      </trkpt>
      <trkpt lat="36.69707667" lon="-4.43745667">
        <ele>-28</ele>
        <time>2018-04-23T14:39:08Z</time>
      </trkpt>
      <trkpt lat="36.69706833" lon="-4.43748667">
        <ele>-28</ele>
        <time>2018-04-23T14:39:09Z</time>
      </trkpt>
      <trkpt lat="36.69705967" lon="-4.43749833">
        <ele>-28</ele>
        <time>2018-04-23T14:39:10Z</time>
      </trkpt>
      <trkpt lat="36.69705133" lon="-4.43751333">
        <ele>-28</ele>
        <time>2018-04-23T14:39:11Z</time>
      </trkpt>
      <trkpt lat="36.69704367" lon="-4.43752333">
        <ele>-28</ele>
        <time>2018-04-23T14:39:12Z</time>
      </trkpt>
      <trkpt lat="36.697038" lon="-4.43753667">
        <ele>-28</ele>
        <time>2018-04-23T14:39:13Z</time>
      </trkpt>
      <trkpt lat="36.69703233" lon="-4.43754833">
        <ele>-28</ele>
        <time>2018-04-23T14:39:14Z</time>
      </trkpt>
      <trkpt lat="36.697026" lon="-4.43756">
        <ele>-28</ele>
        <time>2018-04-23T14:39:15Z</time>
      </trkpt>
      <trkpt lat="36.69701967" lon="-4.43757167">
        <ele>-28</ele>
        <time>2018-04-23T14:39:16Z</time>
      </trkpt>
      <trkpt lat="36.69701267" lon="-4.43758">
        <ele>-30</ele>
        <time>2018-04-23T14:39:17Z</time>
      </trkpt>
      <trkpt lat="36.69700433" lon="-4.43759">
        <ele>-30</ele>
        <time>2018-04-23T14:39:18Z</time>
      </trkpt>
      <trkpt lat="36.69698667" lon="-4.43759833">
        <ele>-30</ele>
        <time>2018-04-23T14:39:19Z</time>
      </trkpt>
      <trkpt lat="36.69697667" lon="-4.43760633">
        <ele>-30</ele>
        <time>2018-04-23T14:39:20Z</time>
      </trkpt>
      <trkpt lat="36.69696333" lon="-4.43761367">
        <ele>-29</ele>
        <time>2018-04-23T14:39:21Z</time>
      </trkpt>
      <trkpt lat="36.69695333" lon="-4.43762233">
        <ele>-29</ele>
        <time>2018-04-23T14:39:22Z</time>
      </trkpt>
      <trkpt lat="36.69694167" lon="-4.43763133">
        <ele>-29</ele>
        <time>2018-04-23T14:39:23Z</time>
      </trkpt>
      <trkpt lat="36.69693" lon="-4.43764033">
        <ele>-29</ele>
        <time>2018-04-23T14:39:24Z</time>
      </trkpt>
      <trkpt lat="36.69692" lon="-4.43764867">
        <ele>-29</ele>
        <time>2018-04-23T14:39:25Z</time>
      </trkpt>
      <trkpt lat="36.69691" lon="-4.437657">
        <ele>-29</ele>
        <time>2018-04-23T14:39:26Z</time>
      </trkpt>
      <trkpt lat="36.69689833" lon="-4.437666">
        <ele>-29</ele>
        <time>2018-04-23T14:39:27Z</time>
      </trkpt>
      <trkpt lat="36.69688667" lon="-4.43767533">
        <ele>-29</ele>
        <time>2018-04-23T14:39:28Z</time>
      </trkpt>
      <trkpt lat="36.69687667" lon="-4.43768333">
        <ele>-29</ele>
        <time>2018-04-23T14:39:29Z</time>
      </trkpt>
      <trkpt lat="36.69686667" lon="-4.43769233">
        <ele>-29</ele>
        <time>2018-04-23T14:39:30Z</time>
      </trkpt>
      <trkpt lat="36.696855" lon="-4.437702">
        <ele>-29</ele>
        <time>2018-04-23T14:39:31Z</time>
      </trkpt>
      <trkpt lat="36.696845" lon="-4.43771">
        <ele>-29</ele>
        <time>2018-04-23T14:39:32Z</time>
      </trkpt>
      <trkpt lat="36.69683333" lon="-4.437719">
        <ele>-29</ele>
        <time>2018-04-23T14:39:33Z</time>
      </trkpt>
      <trkpt lat="36.69682167" lon="-4.43772733">
        <ele>-29</ele>
        <time>2018-04-23T14:39:34Z</time>
      </trkpt>
      <trkpt lat="36.69681" lon="-4.437735">
        <ele>-29</ele>
        <time>2018-04-23T14:39:35Z</time>
      </trkpt>
      <trkpt lat="36.69679833" lon="-4.43774233">
        <ele>-29</ele>
        <time>2018-04-23T14:39:36Z</time>
      </trkpt>
      <trkpt lat="36.69678667" lon="-4.437749">
        <ele>-29</ele>
        <time>2018-04-23T14:39:37Z</time>
      </trkpt>
      <trkpt lat="36.69677833" lon="-4.437754">
        <ele>-29</ele>
        <time>2018-04-23T14:39:38Z</time>
      </trkpt>
      <trkpt lat="36.69676667" lon="-4.43776133">
        <ele>-29</ele>
        <time>2018-04-23T14:39:39Z</time>
      </trkpt>
      <trkpt lat="36.696755" lon="-4.43776933">
        <ele>-29</ele>
        <time>2018-04-23T14:39:40Z</time>
      </trkpt>
      <trkpt lat="36.696745" lon="-4.43777733">
        <ele>-29</ele>
        <time>2018-04-23T14:39:41Z</time>
      </trkpt>
      <trkpt lat="36.696735" lon="-4.43778533">
        <ele>-29</ele>
        <time>2018-04-23T14:39:42Z</time>
      </trkpt>
      <trkpt lat="36.696725" lon="-4.43779267">
        <ele>-29</ele>
        <time>2018-04-23T14:39:43Z</time>
      </trkpt>
      <trkpt lat="36.696715" lon="-4.43780067">
        <ele>-29</ele>
        <time>2018-04-23T14:39:44Z</time>
      </trkpt>
      <trkpt lat="36.696705" lon="-4.437809">
        <ele>-29</ele>
        <time>2018-04-23T14:39:45Z</time>
      </trkpt>
      <trkpt lat="36.696695" lon="-4.437817">
        <ele>-29</ele>
        <time>2018-04-23T14:39:46Z</time>
      </trkpt>
      <trkpt lat="36.696685" lon="-4.43782433">
        <ele>-29</ele>
        <time>2018-04-23T14:39:47Z</time>
      </trkpt>
      <trkpt lat="36.69667333" lon="-4.437834">
        <ele>-29</ele>
        <time>2018-04-23T14:39:48Z</time>
      </trkpt>
      <trkpt lat="36.69666333" lon="-4.43784167">
        <ele>-29</ele>
        <time>2018-04-23T14:39:49Z</time>
      </trkpt>
      <trkpt lat="36.696655" lon="-4.43784867">
        <ele>-29</ele>
        <time>2018-04-23T14:39:50Z</time>
      </trkpt>
      <trkpt lat="36.696645" lon="-4.43785733">
        <ele>-29</ele>
        <time>2018-04-23T14:39:51Z</time>
      </trkpt>
      <trkpt lat="36.696635" lon="-4.43786533">
        <ele>-29</ele>
        <time>2018-04-23T14:39:52Z</time>
      </trkpt>
      <trkpt lat="36.69662333" lon="-4.437875">
        <ele>-29</ele>
        <time>2018-04-23T14:39:53Z</time>
      </trkpt>
      <trkpt lat="36.69661167" lon="-4.43788367">
        <ele>-29</ele>
        <time>2018-04-23T14:39:54Z</time>
      </trkpt>
      <trkpt lat="36.69660167" lon="-4.43789133">
        <ele>-29</ele>
        <time>2018-04-23T14:39:55Z</time>
      </trkpt>
      <trkpt lat="36.69659" lon="-4.4379">
        <ele>-29</ele>
        <time>2018-04-23T14:39:56Z</time>
      </trkpt>
      <trkpt lat="36.69657833" lon="-4.437908">
        <ele>-29</ele>
        <time>2018-04-23T14:39:57Z</time>
      </trkpt>
      <trkpt lat="36.69656667" lon="-4.43791667">
        <ele>-27</ele>
        <time>2018-04-23T14:39:58Z</time>
      </trkpt>
      <trkpt lat="36.69655833" lon="-4.43792267">
        <ele>-27</ele>
        <time>2018-04-23T14:39:59Z</time>
      </trkpt>
      <trkpt lat="36.69654833" lon="-4.43792967">
        <ele>-27</ele>
        <time>2018-04-23T14:40:00Z</time>
      </trkpt>
      <trkpt lat="36.69653667" lon="-4.43793867">
        <ele>-27</ele>
        <time>2018-04-23T14:40:01Z</time>
      </trkpt>
      <trkpt lat="36.696525" lon="-4.437947">
        <ele>-27</ele>
        <time>2018-04-23T14:40:02Z</time>
      </trkpt>
      <trkpt lat="36.696515" lon="-4.43795367">
        <ele>-27</ele>
        <time>2018-04-23T14:40:03Z</time>
      </trkpt>
      <trkpt lat="36.696505" lon="-4.437961">
        <ele>-27</ele>
        <time>2018-04-23T14:40:04Z</time>
      </trkpt>
      <trkpt lat="36.696495" lon="-4.43796867">
        <ele>-27</ele>
        <time>2018-04-23T14:40:05Z</time>
      </trkpt>
      <trkpt lat="36.69648333" lon="-4.437977">
        <ele>-27</ele>
        <time>2018-04-23T14:40:06Z</time>
      </trkpt>
      <trkpt lat="36.69647" lon="-4.437986">
        <ele>-27</ele>
        <time>2018-04-23T14:40:07Z</time>
      </trkpt>
      <trkpt lat="36.69645667" lon="-4.437996">
        <ele>-27</ele>
        <time>2018-04-23T14:40:08Z</time>
      </trkpt>
      <trkpt lat="36.696445" lon="-4.438003">
        <ele>-27</ele>
        <time>2018-04-23T14:40:09Z</time>
      </trkpt>
      <trkpt lat="36.696435" lon="-4.43800967">
        <ele>-27</ele>
        <time>2018-04-23T14:40:10Z</time>
      </trkpt>
      <trkpt lat="36.69642667" lon="-4.43801567">
        <ele>-27</ele>
        <time>2018-04-23T14:40:11Z</time>
      </trkpt>
      <trkpt lat="36.696415" lon="-4.43802333">
        <ele>-27</ele>
        <time>2018-04-23T14:40:12Z</time>
      </trkpt>
      <trkpt lat="36.696405" lon="-4.43802933">
        <ele>-27</ele>
        <time>2018-04-23T14:40:13Z</time>
      </trkpt>
      <trkpt lat="36.69639333" lon="-4.43803833">
        <ele>-27</ele>
        <time>2018-04-23T14:40:14Z</time>
      </trkpt>
      <trkpt lat="36.69638333" lon="-4.43804433">
        <ele>-27</ele>
        <time>2018-04-23T14:40:15Z</time>
      </trkpt>
      <trkpt lat="36.696375" lon="-4.43805">
        <ele>-27</ele>
        <time>2018-04-23T14:40:16Z</time>
      </trkpt>
      <trkpt lat="36.69636667" lon="-4.43805667">
        <ele>-27</ele>
        <time>2018-04-23T14:40:17Z</time>
      </trkpt>
      <trkpt lat="36.69635667" lon="-4.438064">
        <ele>-27</ele>
        <time>2018-04-23T14:40:18Z</time>
      </trkpt>
      <trkpt lat="36.696345" lon="-4.43807267">
        <ele>-27</ele>
        <time>2018-04-23T14:40:19Z</time>
      </trkpt>
      <trkpt lat="36.696335" lon="-4.43807967">
        <ele>-27</ele>
        <time>2018-04-23T14:40:20Z</time>
      </trkpt>
      <trkpt lat="36.69632333" lon="-4.43808833">
        <ele>-27</ele>
        <time>2018-04-23T14:40:21Z</time>
      </trkpt>
      <trkpt lat="36.69631167" lon="-4.43809767">
        <ele>-27</ele>
        <time>2018-04-23T14:40:22Z</time>
      </trkpt>
      <trkpt lat="36.69630167" lon="-4.438105">
        <ele>-27</ele>
        <time>2018-04-23T14:40:23Z</time>
      </trkpt>
      <trkpt lat="36.69629333" lon="-4.43811133">
        <ele>-27</ele>
        <time>2018-04-23T14:40:24Z</time>
      </trkpt>
      <trkpt lat="36.696285" lon="-4.438119">
        <ele>-27</ele>
        <time>2018-04-23T14:40:25Z</time>
      </trkpt>
      <trkpt lat="36.696275" lon="-4.438127">
        <ele>-27</ele>
        <time>2018-04-23T14:40:26Z</time>
      </trkpt>
      <trkpt lat="36.696265" lon="-4.43813533">
        <ele>-27</ele>
        <time>2018-04-23T14:40:27Z</time>
      </trkpt>
      <trkpt lat="36.696255" lon="-4.43814467">
        <ele>-29</ele>
        <time>2018-04-23T14:40:28Z</time>
      </trkpt>
      <trkpt lat="36.69624667" lon="-4.43815133">
        <ele>-29</ele>
        <time>2018-04-23T14:40:29Z</time>
      </trkpt>
      <trkpt lat="36.69623667" lon="-4.43816033">
        <ele>-29</ele>
        <time>2018-04-23T14:40:30Z</time>
      </trkpt>
      <trkpt lat="36.696225" lon="-4.43817033">
        <ele>-29</ele>
        <time>2018-04-23T14:40:31Z</time>
      </trkpt>
      <trkpt lat="36.696215" lon="-4.43817933">
        <ele>-27</ele>
        <time>2018-04-23T14:40:32Z</time>
      </trkpt>
      <trkpt lat="36.69620167" lon="-4.43818933">
        <ele>-27</ele>
        <time>2018-04-23T14:40:33Z</time>
      </trkpt>
      <trkpt lat="36.69619333" lon="-4.43819667">
        <ele>-27</ele>
        <time>2018-04-23T14:40:34Z</time>
      </trkpt>
      <trkpt lat="36.696185" lon="-4.43820433">
        <ele>-27</ele>
        <time>2018-04-23T14:40:35Z</time>
      </trkpt>
      <trkpt lat="36.69617833" lon="-4.43821033">
        <ele>-27</ele>
        <time>2018-04-23T14:40:36Z</time>
      </trkpt>
      <trkpt lat="36.69616667" lon="-4.43822067">
        <ele>-27</ele>
        <time>2018-04-23T14:40:37Z</time>
      </trkpt>
      <trkpt lat="36.69615333" lon="-4.438232">
        <ele>-29</ele>
        <time>2018-04-23T14:40:38Z</time>
      </trkpt>
      <trkpt lat="36.69613833" lon="-4.438243">
        <ele>-29</ele>
        <time>2018-04-23T14:40:39Z</time>
      </trkpt>
      <trkpt lat="36.69612833" lon="-4.43823833">
        <ele>-29</ele>
        <time>2018-04-23T14:40:40Z</time>
      </trkpt>
      <trkpt lat="36.69611167" lon="-4.43823667">
        <ele>-29</ele>
        <time>2018-04-23T14:40:41Z</time>
      </trkpt>
      <trkpt lat="36.69609833" lon="-4.43823667">
        <ele>-29</ele>
        <time>2018-04-23T14:40:42Z</time>
      </trkpt>
      <trkpt lat="36.69608333" lon="-4.43823667">
        <ele>-29</ele>
        <time>2018-04-23T14:40:43Z</time>
      </trkpt>
      <trkpt lat="36.69607333" lon="-4.43823667">
        <ele>-29</ele>
        <time>2018-04-23T14:40:44Z</time>
      </trkpt>
      <trkpt lat="36.69605667" lon="-4.438239">
        <ele>-27</ele>
        <time>2018-04-23T14:40:45Z</time>
      </trkpt>
      <trkpt lat="36.69604333" lon="-4.438243">
        <ele>-27</ele>
        <time>2018-04-23T14:40:46Z</time>
      </trkpt>
      <trkpt lat="36.69603167" lon="-4.43824633">
        <ele>-27</ele>
        <time>2018-04-23T14:40:47Z</time>
      </trkpt>
      <trkpt lat="36.69602" lon="-4.43825067">
        <ele>-27</ele>
        <time>2018-04-23T14:40:48Z</time>
      </trkpt>
      <trkpt lat="36.69601" lon="-4.438256">
        <ele>-27</ele>
        <time>2018-04-23T14:40:49Z</time>
      </trkpt>
      <trkpt lat="36.696" lon="-4.438262">
        <ele>-27</ele>
        <time>2018-04-23T14:40:50Z</time>
      </trkpt>
      <trkpt lat="36.69599" lon="-4.43827833">
        <ele>-27</ele>
        <time>2018-04-23T14:40:51Z</time>
      </trkpt>
      <trkpt lat="36.69597833" lon="-4.438285">
        <ele>-27</ele>
        <time>2018-04-23T14:40:52Z</time>
      </trkpt>
      <trkpt lat="36.69596667" lon="-4.43829167">
        <ele>-27</ele>
        <time>2018-04-23T14:40:53Z</time>
      </trkpt>
      <trkpt lat="36.69595667" lon="-4.438299">
        <ele>-27</ele>
        <time>2018-04-23T14:40:54Z</time>
      </trkpt>
      <trkpt lat="36.695945" lon="-4.438308">
        <ele>-27</ele>
        <time>2018-04-23T14:40:55Z</time>
      </trkpt>
      <trkpt lat="36.695935" lon="-4.438317">
        <ele>-27</ele>
        <time>2018-04-23T14:40:56Z</time>
      </trkpt>
      <trkpt lat="36.695925" lon="-4.43832567">
        <ele>-27</ele>
        <time>2018-04-23T14:40:57Z</time>
      </trkpt>
      <trkpt lat="36.69591167" lon="-4.43833367">
        <ele>-27</ele>
        <time>2018-04-23T14:40:58Z</time>
      </trkpt>
      <trkpt lat="36.69590167" lon="-4.43834067">
        <ele>-27</ele>
        <time>2018-04-23T14:40:59Z</time>
      </trkpt>
      <trkpt lat="36.69589333" lon="-4.43834767">
        <ele>-27</ele>
        <time>2018-04-23T14:41:00Z</time>
      </trkpt>
      <trkpt lat="36.69588333" lon="-4.43835567">
        <ele>-27</ele>
        <time>2018-04-23T14:41:01Z</time>
      </trkpt>
      <trkpt lat="36.695875" lon="-4.43836233">
        <ele>-27</ele>
        <time>2018-04-23T14:41:02Z</time>
      </trkpt>
      <trkpt lat="36.69586333" lon="-4.438371">
        <ele>-27</ele>
        <time>2018-04-23T14:41:03Z</time>
      </trkpt>
      <trkpt lat="36.69585" lon="-4.43837967">
        <ele>-27</ele>
        <time>2018-04-23T14:41:04Z</time>
      </trkpt>
      <trkpt lat="36.69584" lon="-4.43838667">
        <ele>-27</ele>
        <time>2018-04-23T14:41:05Z</time>
      </trkpt>
      <trkpt lat="36.69583" lon="-4.43839367">
        <ele>-29</ele>
        <time>2018-04-23T14:41:06Z</time>
      </trkpt>
      <trkpt lat="36.69582167" lon="-4.43839967">
        <ele>-29</ele>
        <time>2018-04-23T14:41:07Z</time>
      </trkpt>
      <trkpt lat="36.69581167" lon="-4.43840867">
        <ele>-31</ele>
        <time>2018-04-23T14:41:08Z</time>
      </trkpt>
      <trkpt lat="36.69580167" lon="-4.43841767">
        <ele>-31</ele>
        <time>2018-04-23T14:41:09Z</time>
      </trkpt>
      <trkpt lat="36.69579333" lon="-4.43842567">
        <ele>-31</ele>
        <time>2018-04-23T14:41:10Z</time>
      </trkpt>
      <trkpt lat="36.69578333" lon="-4.43843467">
        <ele>-29</ele>
        <time>2018-04-23T14:41:11Z</time>
      </trkpt>
      <trkpt lat="36.695775" lon="-4.43844267">
        <ele>-29</ele>
        <time>2018-04-23T14:41:12Z</time>
      </trkpt>
      <trkpt lat="36.695765" lon="-4.43845167">
        <ele>-29</ele>
        <time>2018-04-23T14:41:13Z</time>
      </trkpt>
      <trkpt lat="36.695755" lon="-4.438461">
        <ele>-29</ele>
        <time>2018-04-23T14:41:14Z</time>
      </trkpt>
      <trkpt lat="36.695745" lon="-4.43847067">
        <ele>-29</ele>
        <time>2018-04-23T14:41:15Z</time>
      </trkpt>
      <trkpt lat="36.695735" lon="-4.43848067">
        <ele>-29</ele>
        <time>2018-04-23T14:41:16Z</time>
      </trkpt>
      <trkpt lat="36.69572333" lon="-4.438491">
        <ele>-29</ele>
        <time>2018-04-23T14:41:17Z</time>
      </trkpt>
      <trkpt lat="36.69571333" lon="-4.43850067">
        <ele>-31</ele>
        <time>2018-04-23T14:41:18Z</time>
      </trkpt>
      <trkpt lat="36.695705" lon="-4.43850933">
        <ele>-31</ele>
        <time>2018-04-23T14:41:19Z</time>
      </trkpt>
      <trkpt lat="36.69569833" lon="-4.43851667">
        <ele>-31</ele>
        <time>2018-04-23T14:41:20Z</time>
      </trkpt>
      <trkpt lat="36.69568833" lon="-4.438527">
        <ele>-28</ele>
        <time>2018-04-23T14:41:21Z</time>
      </trkpt>
      <trkpt lat="36.695675" lon="-4.43853867">
        <ele>-28</ele>
        <time>2018-04-23T14:41:21Z</time>
      </trkpt>
      <trkpt lat="36.69566" lon="-4.43854333">
        <ele>-28</ele>
        <time>2018-04-23T14:41:22Z</time>
      </trkpt>
      <trkpt lat="36.69564833" lon="-4.43854667">
        <ele>-28</ele>
        <time>2018-04-23T14:41:23Z</time>
      </trkpt>
      <trkpt lat="36.69563833" lon="-4.43854967">
        <ele>-28</ele>
        <time>2018-04-23T14:41:24Z</time>
      </trkpt>
      <trkpt lat="36.69562333" lon="-4.43855467">
        <ele>-28</ele>
        <time>2018-04-23T14:41:25Z</time>
      </trkpt>
      <trkpt lat="36.69561" lon="-4.43855967">
        <ele>-28</ele>
        <time>2018-04-23T14:41:26Z</time>
      </trkpt>
      <trkpt lat="36.6956" lon="-4.438562">
        <ele>-28</ele>
        <time>2018-04-23T14:41:27Z</time>
      </trkpt>
      <trkpt lat="36.69558833" lon="-4.43856533">
        <ele>-28</ele>
        <time>2018-04-23T14:41:28Z</time>
      </trkpt>
      <trkpt lat="36.69557" lon="-4.43856933">
        <ele>-28</ele>
        <time>2018-04-23T14:41:29Z</time>
      </trkpt>
      <trkpt lat="36.69555667" lon="-4.43857267">
        <ele>-28</ele>
        <time>2018-04-23T14:41:30Z</time>
      </trkpt>
      <trkpt lat="36.69554333" lon="-4.43857633">
        <ele>-28</ele>
        <time>2018-04-23T14:41:31Z</time>
      </trkpt>
      <trkpt lat="36.69553333" lon="-4.43858">
        <ele>-28</ele>
        <time>2018-04-23T14:41:32Z</time>
      </trkpt>
      <trkpt lat="36.69552333" lon="-4.43858433">
        <ele>-28</ele>
        <time>2018-04-23T14:41:33Z</time>
      </trkpt>
      <trkpt lat="36.69551333" lon="-4.438589">
        <ele>-28</ele>
        <time>2018-04-23T14:41:34Z</time>
      </trkpt>
      <trkpt lat="36.69550333" lon="-4.43859467">
        <ele>-28</ele>
        <time>2018-04-23T14:41:35Z</time>
      </trkpt>
      <trkpt lat="36.69549333" lon="-4.43860133">
        <ele>-28</ele>
        <time>2018-04-23T14:41:36Z</time>
      </trkpt>
      <trkpt lat="36.69548167" lon="-4.43860867">
        <ele>-28</ele>
        <time>2018-04-23T14:41:37Z</time>
      </trkpt>
      <trkpt lat="36.69547" lon="-4.43861633">
        <ele>-28</ele>
        <time>2018-04-23T14:41:38Z</time>
      </trkpt>
      <trkpt lat="36.69546167" lon="-4.438623">
        <ele>-28</ele>
        <time>2018-04-23T14:41:39Z</time>
      </trkpt>
      <trkpt lat="36.69545167" lon="-4.43863133">
        <ele>-29</ele>
        <time>2018-04-23T14:41:40Z</time>
      </trkpt>
      <trkpt lat="36.69544167" lon="-4.438639">
        <ele>-29</ele>
        <time>2018-04-23T14:41:41Z</time>
      </trkpt>
      <trkpt lat="36.69543167" lon="-4.43864733">
        <ele>-29</ele>
        <time>2018-04-23T14:41:42Z</time>
      </trkpt>
      <trkpt lat="36.69542" lon="-4.438656">
        <ele>-29</ele>
        <time>2018-04-23T14:41:43Z</time>
      </trkpt>
      <trkpt lat="36.69540833" lon="-4.438665">
        <ele>-29</ele>
        <time>2018-04-23T14:41:44Z</time>
      </trkpt>
      <trkpt lat="36.6954" lon="-4.43867267">
        <ele>-29</ele>
        <time>2018-04-23T14:41:45Z</time>
      </trkpt>
      <trkpt lat="36.69538667" lon="-4.438683">
        <ele>-29</ele>
        <time>2018-04-23T14:41:46Z</time>
      </trkpt>
      <trkpt lat="36.695375" lon="-4.43869233">
        <ele>-29</ele>
        <time>2018-04-23T14:41:47Z</time>
      </trkpt>
      <trkpt lat="36.69536667" lon="-4.43870033">
        <ele>-29</ele>
        <time>2018-04-23T14:41:48Z</time>
      </trkpt>
      <trkpt lat="36.69535833" lon="-4.438709">
        <ele>-28</ele>
        <time>2018-04-23T14:41:49Z</time>
      </trkpt>
      <trkpt lat="36.69535167" lon="-4.438717">
        <ele>-28</ele>
        <time>2018-04-23T14:41:50Z</time>
      </trkpt>
      <trkpt lat="36.69534167" lon="-4.438727">
        <ele>-28</ele>
        <time>2018-04-23T14:41:51Z</time>
      </trkpt>
      <trkpt lat="36.69533" lon="-4.438738">
        <ele>-28</ele>
        <time>2018-04-23T14:41:52Z</time>
      </trkpt>
      <trkpt lat="36.69532167" lon="-4.43874733">
        <ele>-28</ele>
        <time>2018-04-23T14:41:53Z</time>
      </trkpt>
      <trkpt lat="36.695315" lon="-4.43879">
        <ele>-28</ele>
        <time>2018-04-23T14:41:54Z</time>
      </trkpt>
      <trkpt lat="36.69530833" lon="-4.43880333">
        <ele>-28</ele>
        <time>2018-04-23T14:41:55Z</time>
      </trkpt>
      <trkpt lat="36.6953" lon="-4.43881833">
        <ele>-28</ele>
        <time>2018-04-23T14:41:56Z</time>
      </trkpt>
      <trkpt lat="36.69529233" lon="-4.43883">
        <ele>-30</ele>
        <time>2018-04-23T14:41:57Z</time>
      </trkpt>
      <trkpt lat="36.69528433" lon="-4.43884167">
        <ele>-30</ele>
        <time>2018-04-23T14:41:58Z</time>
      </trkpt>
      <trkpt lat="36.695274" lon="-4.43885667">
        <ele>-30</ele>
        <time>2018-04-23T14:41:59Z</time>
      </trkpt>
      <trkpt lat="36.69526567" lon="-4.43886667">
        <ele>-31</ele>
        <time>2018-04-23T14:42:00Z</time>
      </trkpt>
      <trkpt lat="36.695259" lon="-4.43887333">
        <ele>-31</ele>
        <time>2018-04-23T14:42:01Z</time>
      </trkpt>
      <trkpt lat="36.69525" lon="-4.43888333">
        <ele>-31</ele>
        <time>2018-04-23T14:42:02Z</time>
      </trkpt>
      <trkpt lat="36.695235" lon="-4.43889">
        <ele>-31</ele>
        <time>2018-04-23T14:42:03Z</time>
      </trkpt>
      <trkpt lat="36.69522333" lon="-4.438898">
        <ele>-31</ele>
        <time>2018-04-23T14:42:04Z</time>
      </trkpt>
      <trkpt lat="36.69521167" lon="-4.43890333">
        <ele>-29</ele>
        <time>2018-04-23T14:42:05Z</time>
      </trkpt>
      <trkpt lat="36.6952" lon="-4.438908">
        <ele>-29</ele>
        <time>2018-04-23T14:42:06Z</time>
      </trkpt>
      <trkpt lat="36.69518667" lon="-4.43891467">
        <ele>-29</ele>
        <time>2018-04-23T14:42:07Z</time>
      </trkpt>
      <trkpt lat="36.69517667" lon="-4.43892167">
        <ele>-29</ele>
        <time>2018-04-23T14:42:08Z</time>
      </trkpt>
      <trkpt lat="36.695165" lon="-4.43893033">
        <ele>-29</ele>
        <time>2018-04-23T14:42:09Z</time>
      </trkpt>
      <trkpt lat="36.69515333" lon="-4.43893933">
        <ele>-29</ele>
        <time>2018-04-23T14:42:10Z</time>
      </trkpt>
      <trkpt lat="36.69514167" lon="-4.43894833">
        <ele>-29</ele>
        <time>2018-04-23T14:42:11Z</time>
      </trkpt>
      <trkpt lat="36.69513" lon="-4.43895667">
        <ele>-29</ele>
        <time>2018-04-23T14:42:12Z</time>
      </trkpt>
      <trkpt lat="36.69511833" lon="-4.438965">
        <ele>-29</ele>
        <time>2018-04-23T14:42:13Z</time>
      </trkpt>
      <trkpt lat="36.69510833" lon="-4.43897133">
        <ele>-29</ele>
        <time>2018-04-23T14:42:14Z</time>
      </trkpt>
      <trkpt lat="36.69509667" lon="-4.438979">
        <ele>-29</ele>
        <time>2018-04-23T14:42:15Z</time>
      </trkpt>
      <trkpt lat="36.69508833" lon="-4.43899833">
        <ele>-29</ele>
        <time>2018-04-23T14:42:16Z</time>
      </trkpt>
      <trkpt lat="36.69507833" lon="-4.43900833">
        <ele>-29</ele>
        <time>2018-04-23T14:42:17Z</time>
      </trkpt>
      <trkpt lat="36.69506833" lon="-4.43901833">
        <ele>-29</ele>
        <time>2018-04-23T14:42:18Z</time>
      </trkpt>
      <trkpt lat="36.695055" lon="-4.43902167">
        <ele>-29</ele>
        <time>2018-04-23T14:42:19Z</time>
      </trkpt>
      <trkpt lat="36.69504167" lon="-4.439026">
        <ele>-29</ele>
        <time>2018-04-23T14:42:20Z</time>
      </trkpt>
      <trkpt lat="36.69503333" lon="-4.43903433">
        <ele>-32</ele>
        <time>2018-04-23T14:42:21Z</time>
      </trkpt>
      <trkpt lat="36.695025" lon="-4.43904567">
        <ele>-32</ele>
        <time>2018-04-23T14:42:22Z</time>
      </trkpt>
      <trkpt lat="36.69501667" lon="-4.43905533">
        <ele>-32</ele>
        <time>2018-04-23T14:42:23Z</time>
      </trkpt>
      <trkpt lat="36.69500667" lon="-4.43907">
        <ele>-29</ele>
        <time>2018-04-23T14:42:24Z</time>
      </trkpt>
      <trkpt lat="36.69499667" lon="-4.43907833">
        <ele>-29</ele>
        <time>2018-04-23T14:42:25Z</time>
      </trkpt>
      <trkpt lat="36.69498667" lon="-4.43908833">
        <ele>-29</ele>
        <time>2018-04-23T14:42:26Z</time>
      </trkpt>
      <trkpt lat="36.69498" lon="-4.439096">
        <ele>-29</ele>
        <time>2018-04-23T14:42:27Z</time>
      </trkpt>
      <trkpt lat="36.69497" lon="-4.43910667">
        <ele>-29</ele>
        <time>2018-04-23T14:42:28Z</time>
      </trkpt>
      <trkpt lat="36.69496" lon="-4.43911267">
        <ele>-29</ele>
        <time>2018-04-23T14:42:29Z</time>
      </trkpt>
      <trkpt lat="36.69494667" lon="-4.43911667">
        <ele>-26</ele>
        <time>2018-04-23T14:42:30Z</time>
      </trkpt>
      <trkpt lat="36.69493333" lon="-4.43911333">
        <ele>-26</ele>
        <time>2018-04-23T14:42:31Z</time>
      </trkpt>
      <trkpt lat="36.69492" lon="-4.43911467">
        <ele>-26</ele>
        <time>2018-04-23T14:42:32Z</time>
      </trkpt>
      <trkpt lat="36.69491" lon="-4.43911767">
        <ele>-26</ele>
        <time>2018-04-23T14:42:33Z</time>
      </trkpt>
      <trkpt lat="36.69489167" lon="-4.43912267">
        <ele>-26</ele>
        <time>2018-04-23T14:42:34Z</time>
      </trkpt>
      <trkpt lat="36.69488167" lon="-4.439129">
        <ele>-26</ele>
        <time>2018-04-23T14:42:35Z</time>
      </trkpt>
      <trkpt lat="36.69487167" lon="-4.43913333">
        <ele>-26</ele>
        <time>2018-04-23T14:42:36Z</time>
      </trkpt>
      <trkpt lat="36.69486" lon="-4.43913867">
        <ele>-26</ele>
        <time>2018-04-23T14:42:37Z</time>
      </trkpt>
      <trkpt lat="36.694845" lon="-4.439145">
        <ele>-26</ele>
        <time>2018-04-23T14:42:38Z</time>
      </trkpt>
      <trkpt lat="36.69483167" lon="-4.439151">
        <ele>-26</ele>
        <time>2018-04-23T14:42:39Z</time>
      </trkpt>
      <trkpt lat="36.69482" lon="-4.439157">
        <ele>-26</ele>
        <time>2018-04-23T14:42:40Z</time>
      </trkpt>
      <trkpt lat="36.69480833" lon="-4.439162">
        <ele>-26</ele>
        <time>2018-04-23T14:42:41Z</time>
      </trkpt>
      <trkpt lat="36.69479667" lon="-4.43916867">
        <ele>-26</ele>
        <time>2018-04-23T14:42:42Z</time>
      </trkpt>
      <trkpt lat="36.69478833" lon="-4.439175">
        <ele>-26</ele>
        <time>2018-04-23T14:42:43Z</time>
      </trkpt>
      <trkpt lat="36.694775" lon="-4.43918367">
        <ele>-26</ele>
        <time>2018-04-23T14:42:44Z</time>
      </trkpt>
      <trkpt lat="36.69476167" lon="-4.43919067">
        <ele>-26</ele>
        <time>2018-04-23T14:42:45Z</time>
      </trkpt>
      <trkpt lat="36.69475" lon="-4.43919667">
        <ele>-26</ele>
        <time>2018-04-23T14:42:46Z</time>
      </trkpt>
      <trkpt lat="36.69474167" lon="-4.439202">
        <ele>-28</ele>
        <time>2018-04-23T14:42:47Z</time>
      </trkpt>
      <trkpt lat="36.69472833" lon="-4.43920933">
        <ele>-28</ele>
        <time>2018-04-23T14:42:48Z</time>
      </trkpt>
      <trkpt lat="36.69471833" lon="-4.43921633">
        <ele>-28</ele>
        <time>2018-04-23T14:42:49Z</time>
      </trkpt>
      <trkpt lat="36.694705" lon="-4.43922333">
        <ele>-28</ele>
        <time>2018-04-23T14:42:50Z</time>
      </trkpt>
      <trkpt lat="36.69469333" lon="-4.43923">
        <ele>-28</ele>
        <time>2018-04-23T14:42:51Z</time>
      </trkpt>
      <trkpt lat="36.69467667" lon="-4.43923867">
        <ele>-28</ele>
        <time>2018-04-23T14:42:52Z</time>
      </trkpt>
      <trkpt lat="36.694665" lon="-4.43924533">
        <ele>-28</ele>
        <time>2018-04-23T14:42:53Z</time>
      </trkpt>
      <trkpt lat="36.69465333" lon="-4.43925233">
        <ele>-28</ele>
        <time>2018-04-23T14:42:54Z</time>
      </trkpt>
      <trkpt lat="36.69464167" lon="-4.43925833">
        <ele>-28</ele>
        <time>2018-04-23T14:42:55Z</time>
      </trkpt>
      <trkpt lat="36.69462833" lon="-4.43926533">
        <ele>-28</ele>
        <time>2018-04-23T14:42:56Z</time>
      </trkpt>
      <trkpt lat="36.694615" lon="-4.43927267">
        <ele>-28</ele>
        <time>2018-04-23T14:42:57Z</time>
      </trkpt>
      <trkpt lat="36.69460167" lon="-4.439279">
        <ele>-28</ele>
        <time>2018-04-23T14:42:58Z</time>
      </trkpt>
      <trkpt lat="36.69459167" lon="-4.43928467">
        <ele>-28</ele>
        <time>2018-04-23T14:42:59Z</time>
      </trkpt>
      <trkpt lat="36.69458167" lon="-4.43929133">
        <ele>-28</ele>
        <time>2018-04-23T14:43:00Z</time>
      </trkpt>
      <trkpt lat="36.69457167" lon="-4.43929733">
        <ele>-28</ele>
        <time>2018-04-23T14:43:01Z</time>
      </trkpt>
      <trkpt lat="36.69456" lon="-4.43930567">
        <ele>-28</ele>
        <time>2018-04-23T14:43:02Z</time>
      </trkpt>
      <trkpt lat="36.69455167" lon="-4.43931133">
        <ele>-28</ele>
        <time>2018-04-23T14:43:03Z</time>
      </trkpt>
      <trkpt lat="36.69454167" lon="-4.439319">
        <ele>-28</ele>
        <time>2018-04-23T14:43:04Z</time>
      </trkpt>
      <trkpt lat="36.69452667" lon="-4.43932833">
        <ele>-28</ele>
        <time>2018-04-23T14:43:05Z</time>
      </trkpt>
      <trkpt lat="36.69451667" lon="-4.43933533">
        <ele>-28</ele>
        <time>2018-04-23T14:43:06Z</time>
      </trkpt>
      <trkpt lat="36.69450667" lon="-4.439343">
        <ele>-28</ele>
        <time>2018-04-23T14:43:07Z</time>
      </trkpt>
      <trkpt lat="36.69449667" lon="-4.43935">
        <ele>-28</ele>
        <time>2018-04-23T14:43:08Z</time>
      </trkpt>
      <trkpt lat="36.69448667" lon="-4.439358">
        <ele>-28</ele>
        <time>2018-04-23T14:43:09Z</time>
      </trkpt>
      <trkpt lat="36.694475" lon="-4.43936733">
        <ele>-28</ele>
        <time>2018-04-23T14:43:10Z</time>
      </trkpt>
      <trkpt lat="36.69446333" lon="-4.43937533">
        <ele>-28</ele>
        <time>2018-04-23T14:43:11Z</time>
      </trkpt>
      <trkpt lat="36.69445167" lon="-4.43938367">
        <ele>-28</ele>
        <time>2018-04-23T14:43:12Z</time>
      </trkpt>
      <trkpt lat="36.69444167" lon="-4.439391">
        <ele>-28</ele>
        <time>2018-04-23T14:43:13Z</time>
      </trkpt>
      <trkpt lat="36.69443167" lon="-4.43939833">
        <ele>-28</ele>
        <time>2018-04-23T14:43:14Z</time>
      </trkpt>
      <trkpt lat="36.69442" lon="-4.43940567">
        <ele>-28</ele>
        <time>2018-04-23T14:43:15Z</time>
      </trkpt>
      <trkpt lat="36.69441" lon="-4.439413">
        <ele>-28</ele>
        <time>2018-04-23T14:43:16Z</time>
      </trkpt>
      <trkpt lat="36.6944" lon="-4.43941933">
        <ele>-26</ele>
        <time>2018-04-23T14:43:17Z</time>
      </trkpt>
      <trkpt lat="36.69438833" lon="-4.43942767">
        <ele>-26</ele>
        <time>2018-04-23T14:43:18Z</time>
      </trkpt>
      <trkpt lat="36.69437667" lon="-4.43943533">
        <ele>-26</ele>
        <time>2018-04-23T14:43:19Z</time>
      </trkpt>
      <trkpt lat="36.69436167" lon="-4.43944433">
        <ele>-26</ele>
        <time>2018-04-23T14:43:20Z</time>
      </trkpt>
      <trkpt lat="36.69434833" lon="-4.43945333">
        <ele>-26</ele>
        <time>2018-04-23T14:43:21Z</time>
      </trkpt>
      <trkpt lat="36.69434" lon="-4.43946067">
        <ele>-26</ele>
        <time>2018-04-23T14:43:22Z</time>
      </trkpt>
      <trkpt lat="36.69433" lon="-4.43946767">
        <ele>-26</ele>
        <time>2018-04-23T14:43:23Z</time>
      </trkpt>
      <trkpt lat="36.69431833" lon="-4.43947467">
        <ele>-28</ele>
        <time>2018-04-23T14:43:24Z</time>
      </trkpt>
      <trkpt lat="36.69430833" lon="-4.43948167">
        <ele>-28</ele>
        <time>2018-04-23T14:43:25Z</time>
      </trkpt>
      <trkpt lat="36.69429667" lon="-4.43948867">
        <ele>-28</ele>
        <time>2018-04-23T14:43:26Z</time>
      </trkpt>
      <trkpt lat="36.69428667" lon="-4.439496">
        <ele>-28</ele>
        <time>2018-04-23T14:43:27Z</time>
      </trkpt>
      <trkpt lat="36.69427667" lon="-4.439502">
        <ele>-28</ele>
        <time>2018-04-23T14:43:28Z</time>
      </trkpt>
      <trkpt lat="36.69426667" lon="-4.43950833">
        <ele>-28</ele>
        <time>2018-04-23T14:43:29Z</time>
      </trkpt>
      <trkpt lat="36.694255" lon="-4.439517">
        <ele>-28</ele>
        <time>2018-04-23T14:43:30Z</time>
      </trkpt>
      <trkpt lat="36.69424667" lon="-4.439522">
        <ele>-28</ele>
        <time>2018-04-23T14:43:31Z</time>
      </trkpt>
      <trkpt lat="36.69423833" lon="-4.43952867">
        <ele>-28</ele>
        <time>2018-04-23T14:43:32Z</time>
      </trkpt>
      <trkpt lat="36.69422667" lon="-4.439536">
        <ele>-28</ele>
        <time>2018-04-23T14:43:33Z</time>
      </trkpt>
      <trkpt lat="36.69421333" lon="-4.43954567">
        <ele>-28</ele>
        <time>2018-04-23T14:43:34Z</time>
      </trkpt>
      <trkpt lat="36.69420167" lon="-4.43955433">
        <ele>-28</ele>
        <time>2018-04-23T14:43:35Z</time>
      </trkpt>
      <trkpt lat="36.69419" lon="-4.439562">
        <ele>-28</ele>
        <time>2018-04-23T14:43:36Z</time>
      </trkpt>
      <trkpt lat="36.69418167" lon="-4.43956833">
        <ele>-28</ele>
        <time>2018-04-23T14:43:37Z</time>
      </trkpt>
      <trkpt lat="36.69416833" lon="-4.439577">
        <ele>-28</ele>
        <time>2018-04-23T14:43:38Z</time>
      </trkpt>
      <trkpt lat="36.69415667" lon="-4.439586">
        <ele>-28</ele>
        <time>2018-04-23T14:43:39Z</time>
      </trkpt>
      <trkpt lat="36.69414667" lon="-4.43959367">
        <ele>-28</ele>
        <time>2018-04-23T14:43:40Z</time>
      </trkpt>
      <trkpt lat="36.694135" lon="-4.43960267">
        <ele>-28</ele>
        <time>2018-04-23T14:43:41Z</time>
      </trkpt>
      <trkpt lat="36.69413" lon="-4.43960767">
        <ele>-28</ele>
        <time>2018-04-23T14:43:42Z</time>
      </trkpt>
      <trkpt lat="36.69412" lon="-4.43961567">
        <ele>-28</ele>
        <time>2018-04-23T14:43:43Z</time>
      </trkpt>
      <trkpt lat="36.69411167" lon="-4.43962367">
        <ele>-28</ele>
        <time>2018-04-23T14:43:44Z</time>
      </trkpt>
      <trkpt lat="36.694105" lon="-4.439655">
        <ele>-28</ele>
        <time>2018-04-23T14:43:45Z</time>
      </trkpt>
      <trkpt lat="36.694095" lon="-4.43966833">
        <ele>-28</ele>
        <time>2018-04-23T14:43:46Z</time>
      </trkpt>
      <trkpt lat="36.69408533" lon="-4.43967833">
        <ele>-28</ele>
        <time>2018-04-23T14:43:47Z</time>
      </trkpt>
      <trkpt lat="36.69407567" lon="-4.43968833">
        <ele>-28</ele>
        <time>2018-04-23T14:43:48Z</time>
      </trkpt>
      <trkpt lat="36.69407067" lon="-4.43969833">
        <ele>-28</ele>
        <time>2018-04-23T14:43:49Z</time>
      </trkpt>
      <trkpt lat="36.694066" lon="-4.43970833">
        <ele>-28</ele>
        <time>2018-04-23T14:43:50Z</time>
      </trkpt>
      <trkpt lat="36.69405833" lon="-4.43972167">
        <ele>-28</ele>
        <time>2018-04-23T14:43:51Z</time>
      </trkpt>
      <trkpt lat="36.694053" lon="-4.43972833">
        <ele>-28</ele>
        <time>2018-04-23T14:43:52Z</time>
      </trkpt>
      <trkpt lat="36.69404333" lon="-4.43973333">
        <ele>-28</ele>
        <time>2018-04-23T14:43:53Z</time>
      </trkpt>
      <trkpt lat="36.69403167" lon="-4.43974">
        <ele>-28</ele>
        <time>2018-04-23T14:43:54Z</time>
      </trkpt>
      <trkpt lat="36.69401833" lon="-4.43974667">
        <ele>-28</ele>
        <time>2018-04-23T14:43:55Z</time>
      </trkpt>
      <trkpt lat="36.69400667" lon="-4.43975167">
        <ele>-30</ele>
        <time>2018-04-23T14:43:56Z</time>
      </trkpt>
      <trkpt lat="36.69399833" lon="-4.439758">
        <ele>-30</ele>
        <time>2018-04-23T14:43:57Z</time>
      </trkpt>
      <trkpt lat="36.69399" lon="-4.439766">
        <ele>-31</ele>
        <time>2018-04-23T14:43:58Z</time>
      </trkpt>
      <trkpt lat="36.69397833" lon="-4.43977467">
        <ele>-31</ele>
        <time>2018-04-23T14:43:59Z</time>
      </trkpt>
      <trkpt lat="36.69396833" lon="-4.43978167">
        <ele>-27</ele>
        <time>2018-04-23T14:44:00Z</time>
      </trkpt>
      <trkpt lat="36.69396" lon="-4.43978833">
        <ele>-27</ele>
        <time>2018-04-23T14:44:01Z</time>
      </trkpt>
      <trkpt lat="36.693955" lon="-4.439793">
        <ele>-29</ele>
        <time>2018-04-23T14:44:02Z</time>
      </trkpt>
      <trkpt lat="36.693945" lon="-4.439802">
        <ele>-29</ele>
        <time>2018-04-23T14:44:03Z</time>
      </trkpt>
      <trkpt lat="36.69393667" lon="-4.43980967">
        <ele>-29</ele>
        <time>2018-04-23T14:44:04Z</time>
      </trkpt>
      <trkpt lat="36.693925" lon="-4.43981933">
        <ele>-29</ele>
        <time>2018-04-23T14:44:05Z</time>
      </trkpt>
      <trkpt lat="36.69391333" lon="-4.43982867">
        <ele>-29</ele>
        <time>2018-04-23T14:44:06Z</time>
      </trkpt>
      <trkpt lat="36.69390167" lon="-4.439837">
        <ele>-29</ele>
        <time>2018-04-23T14:44:07Z</time>
      </trkpt>
      <trkpt lat="36.69388833" lon="-4.43984433">
        <ele>-29</ele>
        <time>2018-04-23T14:44:08Z</time>
      </trkpt>
      <trkpt lat="36.693875" lon="-4.43984933">
        <ele>-29</ele>
        <time>2018-04-23T14:44:09Z</time>
      </trkpt>
      <trkpt lat="36.69386" lon="-4.439855">
        <ele>-29</ele>
        <time>2018-04-23T14:44:10Z</time>
      </trkpt>
      <trkpt lat="36.69385167" lon="-4.43985933">
        <ele>-29</ele>
        <time>2018-04-23T14:44:11Z</time>
      </trkpt>
      <trkpt lat="36.69384333" lon="-4.43986533">
        <ele>-29</ele>
        <time>2018-04-23T14:44:12Z</time>
      </trkpt>
      <trkpt lat="36.69383" lon="-4.43987567">
        <ele>-29</ele>
        <time>2018-04-23T14:44:13Z</time>
      </trkpt>
      <trkpt lat="36.69381667" lon="-4.439884">
        <ele>-29</ele>
        <time>2018-04-23T14:44:14Z</time>
      </trkpt>
      <trkpt lat="36.69380167" lon="-4.439885">
        <ele>-29</ele>
        <time>2018-04-23T14:44:15Z</time>
      </trkpt>
      <trkpt lat="36.69378833" lon="-4.43988833">
        <ele>-29</ele>
        <time>2018-04-23T14:44:16Z</time>
      </trkpt>
      <trkpt lat="36.693775" lon="-4.43989267">
        <ele>-29</ele>
        <time>2018-04-23T14:44:17Z</time>
      </trkpt>
      <trkpt lat="36.69376333" lon="-4.43989733">
        <ele>-29</ele>
        <time>2018-04-23T14:44:18Z</time>
      </trkpt>
      <trkpt lat="36.69375667" lon="-4.43990267">
        <ele>-29</ele>
        <time>2018-04-23T14:44:19Z</time>
      </trkpt>
      <trkpt lat="36.69374667" lon="-4.43990833">
        <ele>-29</ele>
        <time>2018-04-23T14:44:20Z</time>
      </trkpt>
      <trkpt lat="36.693735" lon="-4.43991267">
        <ele>-29</ele>
        <time>2018-04-23T14:44:21Z</time>
      </trkpt>
      <trkpt lat="36.69372167" lon="-4.439916">
        <ele>-29</ele>
        <time>2018-04-23T14:44:22Z</time>
      </trkpt>
      <trkpt lat="36.69371" lon="-4.43991967">
        <ele>-29</ele>
        <time>2018-04-23T14:44:23Z</time>
      </trkpt>
      <trkpt lat="36.69369833" lon="-4.43992333">
        <ele>-29</ele>
        <time>2018-04-23T14:44:24Z</time>
      </trkpt>
      <trkpt lat="36.69368667" lon="-4.43992667">
        <ele>-29</ele>
        <time>2018-04-23T14:44:25Z</time>
      </trkpt>
      <trkpt lat="36.69367167" lon="-4.439929">
        <ele>-29</ele>
        <time>2018-04-23T14:44:26Z</time>
      </trkpt>
      <trkpt lat="36.69365333" lon="-4.43993133">
        <ele>-29</ele>
        <time>2018-04-23T14:44:27Z</time>
      </trkpt>
      <trkpt lat="36.69364333" lon="-4.439932">
        <ele>-29</ele>
        <time>2018-04-23T14:44:28Z</time>
      </trkpt>
      <trkpt lat="36.69363167" lon="-4.439936">
        <ele>-27</ele>
        <time>2018-04-23T14:44:29Z</time>
      </trkpt>
      <trkpt lat="36.69362167" lon="-4.43994067">
        <ele>-27</ele>
        <time>2018-04-23T14:44:30Z</time>
      </trkpt>
      <trkpt lat="36.69360667" lon="-4.43994633">
        <ele>-27</ele>
        <time>2018-04-23T14:44:31Z</time>
      </trkpt>
      <trkpt lat="36.693595" lon="-4.43995167">
        <ele>-27</ele>
        <time>2018-04-23T14:44:32Z</time>
      </trkpt>
      <trkpt lat="36.693585" lon="-4.43995633">
        <ele>-27</ele>
        <time>2018-04-23T14:44:33Z</time>
      </trkpt>
      <trkpt lat="36.69357167" lon="-4.43996333">
        <ele>-29</ele>
        <time>2018-04-23T14:44:34Z</time>
      </trkpt>
      <trkpt lat="36.69356" lon="-4.43997">
        <ele>-29</ele>
        <time>2018-04-23T14:44:35Z</time>
      </trkpt>
      <trkpt lat="36.69355" lon="-4.43997567">
        <ele>-29</ele>
        <time>2018-04-23T14:44:36Z</time>
      </trkpt>
      <trkpt lat="36.69354" lon="-4.43998133">
        <ele>-29</ele>
        <time>2018-04-23T14:44:37Z</time>
      </trkpt>
      <trkpt lat="36.69352667" lon="-4.43998867">
        <ele>-29</ele>
        <time>2018-04-23T14:44:38Z</time>
      </trkpt>
      <trkpt lat="36.69351667" lon="-4.439995">
        <ele>-29</ele>
        <time>2018-04-23T14:44:39Z</time>
      </trkpt>
      <trkpt lat="36.69350833" lon="-4.44000133">
        <ele>-29</ele>
        <time>2018-04-23T14:44:40Z</time>
      </trkpt>
      <trkpt lat="36.6935" lon="-4.440007">
        <ele>-29</ele>
        <time>2018-04-23T14:44:41Z</time>
      </trkpt>
      <trkpt lat="36.693495" lon="-4.44001233">
        <ele>-29</ele>
        <time>2018-04-23T14:44:42Z</time>
      </trkpt>
      <trkpt lat="36.69348167" lon="-4.44002167">
        <ele>-29</ele>
        <time>2018-04-23T14:44:43Z</time>
      </trkpt>
      <trkpt lat="36.69346833" lon="-4.440031">
        <ele>-29</ele>
        <time>2018-04-23T14:44:44Z</time>
      </trkpt>
      <trkpt lat="36.69345667" lon="-4.440038">
        <ele>-27</ele>
        <time>2018-04-23T14:44:45Z</time>
      </trkpt>
      <trkpt lat="36.69344167" lon="-4.44004733">
        <ele>-27</ele>
        <time>2018-04-23T14:44:46Z</time>
      </trkpt>
      <trkpt lat="36.69342833" lon="-4.44005567">
        <ele>-27</ele>
        <time>2018-04-23T14:44:47Z</time>
      </trkpt>
      <trkpt lat="36.693415" lon="-4.44006333">
        <ele>-27</ele>
        <time>2018-04-23T14:44:48Z</time>
      </trkpt>
      <trkpt lat="36.693405" lon="-4.44006933">
        <ele>-27</ele>
        <time>2018-04-23T14:44:49Z</time>
      </trkpt>
      <trkpt lat="36.69339333" lon="-4.44007633">
        <ele>-27</ele>
        <time>2018-04-23T14:44:50Z</time>
      </trkpt>
      <trkpt lat="36.69337833" lon="-4.440085">
        <ele>-27</ele>
        <time>2018-04-23T14:44:51Z</time>
      </trkpt>
      <trkpt lat="36.69336333" lon="-4.440094">
        <ele>-29</ele>
        <time>2018-04-23T14:44:52Z</time>
      </trkpt>
      <trkpt lat="36.69335167" lon="-4.4401">
        <ele>-29</ele>
        <time>2018-04-23T14:44:53Z</time>
      </trkpt>
      <trkpt lat="36.69333667" lon="-4.440108">
        <ele>-29</ele>
        <time>2018-04-23T14:44:54Z</time>
      </trkpt>
      <trkpt lat="36.69332333" lon="-4.44011567">
        <ele>-29</ele>
        <time>2018-04-23T14:44:55Z</time>
      </trkpt>
      <trkpt lat="36.69331333" lon="-4.440121">
        <ele>-29</ele>
        <time>2018-04-23T14:44:56Z</time>
      </trkpt>
      <trkpt lat="36.69330167" lon="-4.440127">
        <ele>-29</ele>
        <time>2018-04-23T14:44:57Z</time>
      </trkpt>
      <trkpt lat="36.69328667" lon="-4.440135">
        <ele>-29</ele>
        <time>2018-04-23T14:44:58Z</time>
      </trkpt>
      <trkpt lat="36.69327167" lon="-4.440143">
        <ele>-28</ele>
        <time>2018-04-23T14:44:59Z</time>
      </trkpt>
      <trkpt lat="36.69326" lon="-4.44014867">
        <ele>-28</ele>
        <time>2018-04-23T14:45:00Z</time>
      </trkpt>
      <trkpt lat="36.69325" lon="-4.440154">
        <ele>-28</ele>
        <time>2018-04-23T14:45:01Z</time>
      </trkpt>
      <trkpt lat="36.69323667" lon="-4.440161">
        <ele>-28</ele>
        <time>2018-04-23T14:45:02Z</time>
      </trkpt>
      <trkpt lat="36.69322667" lon="-4.44016633">
        <ele>-28</ele>
        <time>2018-04-23T14:45:03Z</time>
      </trkpt>
      <trkpt lat="36.69322167" lon="-4.44017033">
        <ele>-28</ele>
        <time>2018-04-23T14:45:04Z</time>
      </trkpt>
      <trkpt lat="36.69322" lon="-4.44017333">
        <ele>-28</ele>
        <time>2018-04-23T14:45:05Z</time>
      </trkpt>
      <trkpt lat="36.693215" lon="-4.44017733">
        <ele>-28</ele>
        <time>2018-04-23T14:45:06Z</time>
      </trkpt>
      <trkpt lat="36.69319833" lon="-4.440188">
        <ele>-28</ele>
        <time>2018-04-23T14:45:07Z</time>
      </trkpt>
      <trkpt lat="36.69318" lon="-4.44019733">
        <ele>-28</ele>
        <time>2018-04-23T14:45:08Z</time>
      </trkpt>
      <trkpt lat="36.69316333" lon="-4.440195">
        <ele>-28</ele>
        <time>2018-04-23T14:45:09Z</time>
      </trkpt>
      <trkpt lat="36.69315" lon="-4.44019833">
        <ele>-28</ele>
        <time>2018-04-23T14:45:10Z</time>
      </trkpt>
      <trkpt lat="36.693135" lon="-4.44020167">
        <ele>-28</ele>
        <time>2018-04-23T14:45:11Z</time>
      </trkpt>
      <trkpt lat="36.69312333" lon="-4.44020333">
        <ele>-26</ele>
        <time>2018-04-23T14:45:12Z</time>
      </trkpt>
      <trkpt lat="36.69310833" lon="-4.44020467">
        <ele>-26</ele>
        <time>2018-04-23T14:45:13Z</time>
      </trkpt>
      <trkpt lat="36.69309333" lon="-4.44020667">
        <ele>-26</ele>
        <time>2018-04-23T14:45:14Z</time>
      </trkpt>
      <trkpt lat="36.69308167" lon="-4.44020967">
        <ele>-26</ele>
        <time>2018-04-23T14:45:15Z</time>
      </trkpt>
      <trkpt lat="36.69307" lon="-4.44021433">
        <ele>-28</ele>
        <time>2018-04-23T14:45:16Z</time>
      </trkpt>
      <trkpt lat="36.69305833" lon="-4.440219">
        <ele>-28</ele>
        <time>2018-04-23T14:45:17Z</time>
      </trkpt>
      <trkpt lat="36.69305" lon="-4.44022433">
        <ele>-28</ele>
        <time>2018-04-23T14:45:18Z</time>
      </trkpt>
      <trkpt lat="36.69304167" lon="-4.44023067">
        <ele>-28</ele>
        <time>2018-04-23T14:45:19Z</time>
      </trkpt>
      <trkpt lat="36.693035" lon="-4.440238">
        <ele>-28</ele>
        <time>2018-04-23T14:45:20Z</time>
      </trkpt>
      <trkpt lat="36.693025" lon="-4.44024667">
        <ele>-28</ele>
        <time>2018-04-23T14:45:21Z</time>
      </trkpt>
      <trkpt lat="36.69301167" lon="-4.44025633">
        <ele>-28</ele>
        <time>2018-04-23T14:45:22Z</time>
      </trkpt>
      <trkpt lat="36.69299833" lon="-4.44026567">
        <ele>-28</ele>
        <time>2018-04-23T14:45:23Z</time>
      </trkpt>
      <trkpt lat="36.69298667" lon="-4.44027367">
        <ele>-28</ele>
        <time>2018-04-23T14:45:24Z</time>
      </trkpt>
      <trkpt lat="36.692975" lon="-4.440282">
        <ele>-28</ele>
        <time>2018-04-23T14:45:25Z</time>
      </trkpt>
      <trkpt lat="36.69296667" lon="-4.44028867">
        <ele>-28</ele>
        <time>2018-04-23T14:45:26Z</time>
      </trkpt>
      <trkpt lat="36.69296333" lon="-4.44029367">
        <ele>-28</ele>
        <time>2018-04-23T14:45:27Z</time>
      </trkpt>
      <trkpt lat="36.69296167" lon="-4.440325">
        <ele>-28</ele>
        <time>2018-04-23T14:45:28Z</time>
      </trkpt>
      <trkpt lat="36.692965" lon="-4.44034167">
        <ele>-28</ele>
        <time>2018-04-23T14:45:29Z</time>
      </trkpt>
      <trkpt lat="36.69296667" lon="-4.440355">
        <ele>-28</ele>
        <time>2018-04-23T14:45:30Z</time>
      </trkpt>
      <trkpt lat="36.69296333" lon="-4.44037">
        <ele>-28</ele>
        <time>2018-04-23T14:45:31Z</time>
      </trkpt>
      <trkpt lat="36.69296033" lon="-4.44038">
        <ele>-28</ele>
        <time>2018-04-23T14:45:32Z</time>
      </trkpt>
      <trkpt lat="36.692954" lon="-4.44039667">
        <ele>-28</ele>
        <time>2018-04-23T14:45:33Z</time>
      </trkpt>
      <trkpt lat="36.692948" lon="-4.440405">
        <ele>-28</ele>
        <time>2018-04-23T14:45:34Z</time>
      </trkpt>
      <trkpt lat="36.69293933" lon="-4.440415">
        <ele>-28</ele>
        <time>2018-04-23T14:45:35Z</time>
      </trkpt>
      <trkpt lat="36.692929" lon="-4.440425">
        <ele>-28</ele>
        <time>2018-04-23T14:45:36Z</time>
      </trkpt>
      <trkpt lat="36.692919" lon="-4.44043333">
        <ele>-28</ele>
        <time>2018-04-23T14:45:36Z</time>
      </trkpt>
      <trkpt lat="36.692911" lon="-4.44044">
        <ele>-28</ele>
        <time>2018-04-23T14:45:37Z</time>
      </trkpt>
      <trkpt lat="36.69289767" lon="-4.44045333">
        <ele>-28</ele>
        <time>2018-04-23T14:45:38Z</time>
      </trkpt>
      <trkpt lat="36.692885" lon="-4.440465">
        <ele>-28</ele>
        <time>2018-04-23T14:45:39Z</time>
      </trkpt>
      <trkpt lat="36.692873" lon="-4.440475">
        <ele>-28</ele>
        <time>2018-04-23T14:45:40Z</time>
      </trkpt>
      <trkpt lat="36.69286233" lon="-4.44048333">
        <ele>-28</ele>
        <time>2018-04-23T14:45:41Z</time>
      </trkpt>
      <trkpt lat="36.69284" lon="-4.44048667">
        <ele>-28</ele>
        <time>2018-04-23T14:45:42Z</time>
      </trkpt>
      <trkpt lat="36.69282333" lon="-4.44049333">
        <ele>-28</ele>
        <time>2018-04-23T14:45:43Z</time>
      </trkpt>
      <trkpt lat="36.69281" lon="-4.44049833">
        <ele>-28</ele>
        <time>2018-04-23T14:45:44Z</time>
      </trkpt>
      <trkpt lat="36.69279667" lon="-4.440505">
        <ele>-28</ele>
        <time>2018-04-23T14:45:45Z</time>
      </trkpt>
      <trkpt lat="36.692785" lon="-4.44051133">
        <ele>-28</ele>
        <time>2018-04-23T14:45:46Z</time>
      </trkpt>
      <trkpt lat="36.69276833" lon="-4.440515">
        <ele>-28</ele>
        <time>2018-04-23T14:45:47Z</time>
      </trkpt>
      <trkpt lat="36.69275333" lon="-4.44052033">
        <ele>-28</ele>
        <time>2018-04-23T14:45:48Z</time>
      </trkpt>
      <trkpt lat="36.69274333" lon="-4.440525">
        <ele>-28</ele>
        <time>2018-04-23T14:45:49Z</time>
      </trkpt>
      <trkpt lat="36.69273167" lon="-4.440532">
        <ele>-28</ele>
        <time>2018-04-23T14:45:50Z</time>
      </trkpt>
      <trkpt lat="36.69271667" lon="-4.440541">
        <ele>-26</ele>
        <time>2018-04-23T14:45:51Z</time>
      </trkpt>
      <trkpt lat="36.69270667" lon="-4.44054833">
        <ele>-26</ele>
        <time>2018-04-23T14:45:52Z</time>
      </trkpt>
      <trkpt lat="36.692695" lon="-4.44055767">
        <ele>-26</ele>
        <time>2018-04-23T14:45:53Z</time>
      </trkpt>
      <trkpt lat="36.69268333" lon="-4.44056733">
        <ele>-28</ele>
        <time>2018-04-23T14:45:54Z</time>
      </trkpt>
      <trkpt lat="36.69267333" lon="-4.440576">
        <ele>-28</ele>
        <time>2018-04-23T14:45:55Z</time>
      </trkpt>
      <trkpt lat="36.69266667" lon="-4.440595">
        <ele>-30</ele>
        <time>2018-04-23T14:45:56Z</time>
      </trkpt>
      <trkpt lat="36.69265667" lon="-4.440605">
        <ele>-30</ele>
        <time>2018-04-23T14:45:57Z</time>
      </trkpt>
      <trkpt lat="36.692645" lon="-4.440615">
        <ele>-29</ele>
        <time>2018-04-23T14:45:58Z</time>
      </trkpt>
      <trkpt lat="36.69263333" lon="-4.440622">
        <ele>-29</ele>
        <time>2018-04-23T14:45:59Z</time>
      </trkpt>
      <trkpt lat="36.69262167" lon="-4.44062767">
        <ele>-29</ele>
        <time>2018-04-23T14:46:00Z</time>
      </trkpt>
      <trkpt lat="36.69260833" lon="-4.440629">
        <ele>-29</ele>
        <time>2018-04-23T14:46:01Z</time>
      </trkpt>
      <trkpt lat="36.69259167" lon="-4.44063067">
        <ele>-29</ele>
        <time>2018-04-23T14:46:02Z</time>
      </trkpt>
      <trkpt lat="36.69257167" lon="-4.440633">
        <ele>-29</ele>
        <time>2018-04-23T14:46:03Z</time>
      </trkpt>
      <trkpt lat="36.69255667" lon="-4.44063567">
        <ele>-29</ele>
        <time>2018-04-23T14:46:04Z</time>
      </trkpt>
      <trkpt lat="36.69254167" lon="-4.44063967">
        <ele>-29</ele>
        <time>2018-04-23T14:46:05Z</time>
      </trkpt>
      <trkpt lat="36.69253167" lon="-4.440644">
        <ele>-29</ele>
        <time>2018-04-23T14:46:06Z</time>
      </trkpt>
      <trkpt lat="36.69252167" lon="-4.440649">
        <ele>-29</ele>
        <time>2018-04-23T14:46:07Z</time>
      </trkpt>
      <trkpt lat="36.69251" lon="-4.44065333">
        <ele>-29</ele>
        <time>2018-04-23T14:46:08Z</time>
      </trkpt>
      <trkpt lat="36.69249667" lon="-4.44065767">
        <ele>-29</ele>
        <time>2018-04-23T14:46:09Z</time>
      </trkpt>
      <trkpt lat="36.69248667" lon="-4.440662">
        <ele>-29</ele>
        <time>2018-04-23T14:46:10Z</time>
      </trkpt>
      <trkpt lat="36.692475" lon="-4.44066533">
        <ele>-29</ele>
        <time>2018-04-23T14:46:11Z</time>
      </trkpt>
      <trkpt lat="36.69246333" lon="-4.44066833">
        <ele>-29</ele>
        <time>2018-04-23T14:46:12Z</time>
      </trkpt>
      <trkpt lat="36.69244833" lon="-4.44066333">
        <ele>-29</ele>
        <time>2018-04-23T14:46:13Z</time>
      </trkpt>
      <trkpt lat="36.69243667" lon="-4.44066467">
        <ele>-29</ele>
        <time>2018-04-23T14:46:14Z</time>
      </trkpt>
      <trkpt lat="36.692425" lon="-4.44066367">
        <ele>-29</ele>
        <time>2018-04-23T14:46:15Z</time>
      </trkpt>
      <trkpt lat="36.692415" lon="-4.44066433">
        <ele>-30</ele>
        <time>2018-04-23T14:46:16Z</time>
      </trkpt>
      <trkpt lat="36.69239833" lon="-4.44066833">
        <ele>-30</ele>
        <time>2018-04-23T14:46:17Z</time>
      </trkpt>
      <trkpt lat="36.69238833" lon="-4.44067133">
        <ele>-30</ele>
        <time>2018-04-23T14:46:18Z</time>
      </trkpt>
      <trkpt lat="36.69238167" lon="-4.44067833">
        <ele>-30</ele>
        <time>2018-04-23T14:46:19Z</time>
      </trkpt>
      <trkpt lat="36.692375" lon="-4.44068167">
        <ele>-25</ele>
        <time>2018-04-23T14:46:20Z</time>
      </trkpt>
      <trkpt lat="36.692365" lon="-4.44068933">
        <ele>-25</ele>
        <time>2018-04-23T14:46:21Z</time>
      </trkpt>
      <trkpt lat="36.69234833" lon="-4.44069733">
        <ele>-27</ele>
        <time>2018-04-23T14:46:22Z</time>
      </trkpt>
      <trkpt lat="36.69233833" lon="-4.44070533">
        <ele>-27</ele>
        <time>2018-04-23T14:46:23Z</time>
      </trkpt>
      <trkpt lat="36.692325" lon="-4.440714">
        <ele>-27</ele>
        <time>2018-04-23T14:46:24Z</time>
      </trkpt>
      <trkpt lat="36.69231" lon="-4.440722">
        <ele>-27</ele>
        <time>2018-04-23T14:46:25Z</time>
      </trkpt>
      <trkpt lat="36.69229667" lon="-4.440727">
        <ele>-27</ele>
        <time>2018-04-23T14:46:26Z</time>
      </trkpt>
      <trkpt lat="36.69228333" lon="-4.44073167">
        <ele>-27</ele>
        <time>2018-04-23T14:46:27Z</time>
      </trkpt>
      <trkpt lat="36.692275" lon="-4.44073667">
        <ele>-27</ele>
        <time>2018-04-23T14:46:28Z</time>
      </trkpt>
      <trkpt lat="36.69226333" lon="-4.440744">
        <ele>-28</ele>
        <time>2018-04-23T14:46:29Z</time>
      </trkpt>
      <trkpt lat="36.69224667" lon="-4.44075267">
        <ele>-28</ele>
        <time>2018-04-23T14:46:30Z</time>
      </trkpt>
      <trkpt lat="36.69223333" lon="-4.440758">
        <ele>-28</ele>
        <time>2018-04-23T14:46:31Z</time>
      </trkpt>
      <trkpt lat="36.69222" lon="-4.44076333">
        <ele>-28</ele>
        <time>2018-04-23T14:46:32Z</time>
      </trkpt>
      <trkpt lat="36.692205" lon="-4.44076867">
        <ele>-28</ele>
        <time>2018-04-23T14:46:33Z</time>
      </trkpt>
      <trkpt lat="36.69218833" lon="-4.440774">
        <ele>-28</ele>
        <time>2018-04-23T14:46:34Z</time>
      </trkpt>
      <trkpt lat="36.692175" lon="-4.440778">
        <ele>-28</ele>
        <time>2018-04-23T14:46:35Z</time>
      </trkpt>
      <trkpt lat="36.69216" lon="-4.44078333">
        <ele>-28</ele>
        <time>2018-04-23T14:46:36Z</time>
      </trkpt>
      <trkpt lat="36.69215" lon="-4.440788">
        <ele>-28</ele>
        <time>2018-04-23T14:46:37Z</time>
      </trkpt>
      <trkpt lat="36.69213667" lon="-4.440794">
        <ele>-28</ele>
        <time>2018-04-23T14:46:38Z</time>
      </trkpt>
      <trkpt lat="36.692125" lon="-4.44079967">
        <ele>-28</ele>
        <time>2018-04-23T14:46:39Z</time>
      </trkpt>
      <trkpt lat="36.69211667" lon="-4.44080433">
        <ele>-28</ele>
        <time>2018-04-23T14:46:40Z</time>
      </trkpt>
      <trkpt lat="36.692105" lon="-4.44081033">
        <ele>-28</ele>
        <time>2018-04-23T14:46:41Z</time>
      </trkpt>
      <trkpt lat="36.69209" lon="-4.44081733">
        <ele>-28</ele>
        <time>2018-04-23T14:46:42Z</time>
      </trkpt>
      <trkpt lat="36.69207333" lon="-4.44082433">
        <ele>-28</ele>
        <time>2018-04-23T14:46:43Z</time>
      </trkpt>
      <trkpt lat="36.69205833" lon="-4.44083">
        <ele>-28</ele>
        <time>2018-04-23T14:46:44Z</time>
      </trkpt>
      <trkpt lat="36.69204667" lon="-4.44083433">
        <ele>-28</ele>
        <time>2018-04-23T14:46:45Z</time>
      </trkpt>
      <trkpt lat="36.692035" lon="-4.44083867">
        <ele>-28</ele>
        <time>2018-04-23T14:46:46Z</time>
      </trkpt>
      <trkpt lat="36.69202167" lon="-4.44084367">
        <ele>-28</ele>
        <time>2018-04-23T14:46:47Z</time>
      </trkpt>
      <trkpt lat="36.69201" lon="-4.44084767">
        <ele>-28</ele>
        <time>2018-04-23T14:46:48Z</time>
      </trkpt>
      <trkpt lat="36.69199833" lon="-4.44085267">
        <ele>-28</ele>
        <time>2018-04-23T14:46:49Z</time>
      </trkpt>
      <trkpt lat="36.69198833" lon="-4.44085733">
        <ele>-28</ele>
        <time>2018-04-23T14:46:50Z</time>
      </trkpt>
      <trkpt lat="36.69197833" lon="-4.44086267">
        <ele>-28</ele>
        <time>2018-04-23T14:46:51Z</time>
      </trkpt>
      <trkpt lat="36.69196833" lon="-4.44088167">
        <ele>-28</ele>
        <time>2018-04-23T14:46:52Z</time>
      </trkpt>
      <trkpt lat="36.69196167" lon="-4.44088967">
        <ele>-28</ele>
        <time>2018-04-23T14:46:53Z</time>
      </trkpt>
      <trkpt lat="36.691955" lon="-4.44090367">
        <ele>-28</ele>
        <time>2018-04-23T14:46:54Z</time>
      </trkpt>
      <trkpt lat="36.691945" lon="-4.44091233">
        <ele>-28</ele>
        <time>2018-04-23T14:46:55Z</time>
      </trkpt>
      <trkpt lat="36.69193833" lon="-4.44092133">
        <ele>-28</ele>
        <time>2018-04-23T14:46:56Z</time>
      </trkpt>
      <trkpt lat="36.69192667" lon="-4.44093033">
        <ele>-28</ele>
        <time>2018-04-23T14:46:57Z</time>
      </trkpt>
      <trkpt lat="36.69191833" lon="-4.44093467">
        <ele>-28</ele>
        <time>2018-04-23T14:46:58Z</time>
      </trkpt>
      <trkpt lat="36.691905" lon="-4.44093333">
        <ele>-28</ele>
        <time>2018-04-23T14:46:59Z</time>
      </trkpt>
      <trkpt lat="36.691895" lon="-4.440938">
        <ele>-28</ele>
        <time>2018-04-23T14:47:00Z</time>
      </trkpt>
      <trkpt lat="36.69188333" lon="-4.44094467">
        <ele>-28</ele>
        <time>2018-04-23T14:47:01Z</time>
      </trkpt>
      <trkpt lat="36.69187167" lon="-4.44095133">
        <ele>-28</ele>
        <time>2018-04-23T14:47:02Z</time>
      </trkpt>
      <trkpt lat="36.69185667" lon="-4.44095767">
        <ele>-28</ele>
        <time>2018-04-23T14:47:03Z</time>
      </trkpt>
      <trkpt lat="36.69183833" lon="-4.44096133">
        <ele>-28</ele>
        <time>2018-04-23T14:47:04Z</time>
      </trkpt>
      <trkpt lat="36.69183" lon="-4.44096567">
        <ele>-28</ele>
        <time>2018-04-23T14:47:05Z</time>
      </trkpt>
      <trkpt lat="36.69183167" lon="-4.44098333">
        <ele>-28</ele>
        <time>2018-04-23T14:47:06Z</time>
      </trkpt>
      <trkpt lat="36.69182667" lon="-4.44099333">
        <ele>-28</ele>
        <time>2018-04-23T14:47:07Z</time>
      </trkpt>
      <trkpt lat="36.691815" lon="-4.441">
        <ele>-28</ele>
        <time>2018-04-23T14:47:08Z</time>
      </trkpt>
      <trkpt lat="36.69180667" lon="-4.441008">
        <ele>-30</ele>
        <time>2018-04-23T14:47:09Z</time>
      </trkpt>
      <trkpt lat="36.69179333" lon="-4.44101567">
        <ele>-30</ele>
        <time>2018-04-23T14:47:10Z</time>
      </trkpt>
      <trkpt lat="36.69178167" lon="-4.44102333">
        <ele>-30</ele>
        <time>2018-04-23T14:47:11Z</time>
      </trkpt>
      <trkpt lat="36.69176833" lon="-4.441031">
        <ele>-30</ele>
        <time>2018-04-23T14:47:12Z</time>
      </trkpt>
      <trkpt lat="36.69175833" lon="-4.44103567">
        <ele>-28</ele>
        <time>2018-04-23T14:47:13Z</time>
      </trkpt>
      <trkpt lat="36.69174333" lon="-4.44104233">
        <ele>-28</ele>
        <time>2018-04-23T14:47:14Z</time>
      </trkpt>
      <trkpt lat="36.69173" lon="-4.441049">
        <ele>-28</ele>
        <time>2018-04-23T14:47:15Z</time>
      </trkpt>
      <trkpt lat="36.691715" lon="-4.441056">
        <ele>-28</ele>
        <time>2018-04-23T14:47:16Z</time>
      </trkpt>
      <trkpt lat="36.69170333" lon="-4.441062">
        <ele>-28</ele>
        <time>2018-04-23T14:47:17Z</time>
      </trkpt>
      <trkpt lat="36.69169167" lon="-4.441069">
        <ele>-28</ele>
        <time>2018-04-23T14:47:18Z</time>
      </trkpt>
      <trkpt lat="36.69168167" lon="-4.441077">
        <ele>-28</ele>
        <time>2018-04-23T14:47:19Z</time>
      </trkpt>
      <trkpt lat="36.69167333" lon="-4.44108467">
        <ele>-28</ele>
        <time>2018-04-23T14:47:20Z</time>
      </trkpt>
      <trkpt lat="36.69166" lon="-4.44109533">
        <ele>-28</ele>
        <time>2018-04-23T14:47:21Z</time>
      </trkpt>
      <trkpt lat="36.69165333" lon="-4.441104">
        <ele>-28</ele>
        <time>2018-04-23T14:47:22Z</time>
      </trkpt>
      <trkpt lat="36.69164333" lon="-4.44113">
        <ele>-28</ele>
        <time>2018-04-23T14:47:23Z</time>
      </trkpt>
      <trkpt lat="36.69163167" lon="-4.44114">
        <ele>-28</ele>
        <time>2018-04-23T14:47:24Z</time>
      </trkpt>
      <trkpt lat="36.69162167" lon="-4.44115133">
        <ele>-28</ele>
        <time>2018-04-23T14:47:25Z</time>
      </trkpt>
      <trkpt lat="36.69161" lon="-4.441162">
        <ele>-28</ele>
        <time>2018-04-23T14:47:26Z</time>
      </trkpt>
      <trkpt lat="36.69159833" lon="-4.441172">
        <ele>-28</ele>
        <time>2018-04-23T14:47:27Z</time>
      </trkpt>
      <trkpt lat="36.69158833" lon="-4.44118333">
        <ele>-28</ele>
        <time>2018-04-23T14:47:28Z</time>
      </trkpt>
      <trkpt lat="36.691583" lon="-4.44119167">
        <ele>-28</ele>
        <time>2018-04-23T14:47:29Z</time>
      </trkpt>
      <trkpt lat="36.69158167" lon="-4.4412">
        <ele>-28</ele>
        <time>2018-04-23T14:47:30Z</time>
      </trkpt>
      <trkpt lat="36.69158" lon="-4.44121">
        <ele>-28</ele>
        <time>2018-04-23T14:47:31Z</time>
      </trkpt>
      <trkpt lat="36.69157833" lon="-4.44122">
        <ele>-28</ele>
        <time>2018-04-23T14:47:32Z</time>
      </trkpt>
      <trkpt lat="36.691575" lon="-4.44123333">
        <ele>-30</ele>
        <time>2018-04-23T14:47:33Z</time>
      </trkpt>
      <trkpt lat="36.691572" lon="-4.44124167">
        <ele>-30</ele>
        <time>2018-04-23T14:47:34Z</time>
      </trkpt>
      <trkpt lat="36.69156633" lon="-4.44125">
        <ele>-30</ele>
        <time>2018-04-23T14:47:35Z</time>
      </trkpt>
      <trkpt lat="36.69155867" lon="-4.44126167">
        <ele>-30</ele>
        <time>2018-04-23T14:47:36Z</time>
      </trkpt>
      <trkpt lat="36.69154833" lon="-4.44126833">
        <ele>-30</ele>
        <time>2018-04-23T14:47:37Z</time>
      </trkpt>
      <trkpt lat="36.691535" lon="-4.44127333">
        <ele>-30</ele>
        <time>2018-04-23T14:47:38Z</time>
      </trkpt>
      <trkpt lat="36.69152" lon="-4.44127833">
        <ele>-30</ele>
        <time>2018-04-23T14:47:39Z</time>
      </trkpt>
      <trkpt lat="36.691505" lon="-4.44128667">
        <ele>-30</ele>
        <time>2018-04-23T14:47:40Z</time>
      </trkpt>
      <trkpt lat="36.69149333" lon="-4.44129467">
        <ele>-30</ele>
        <time>2018-04-23T14:47:41Z</time>
      </trkpt>
      <trkpt lat="36.69148" lon="-4.44130333">
        <ele>-30</ele>
        <time>2018-04-23T14:47:42Z</time>
      </trkpt>
      <trkpt lat="36.69146833" lon="-4.44131033">
        <ele>-30</ele>
        <time>2018-04-23T14:47:43Z</time>
      </trkpt>
      <trkpt lat="36.69145333" lon="-4.441319">
        <ele>-30</ele>
        <time>2018-04-23T14:47:44Z</time>
      </trkpt>
      <trkpt lat="36.69144" lon="-4.441326">
        <ele>-30</ele>
        <time>2018-04-23T14:47:45Z</time>
      </trkpt>
      <trkpt lat="36.69142667" lon="-4.44133267">
        <ele>-30</ele>
        <time>2018-04-23T14:47:46Z</time>
      </trkpt>
      <trkpt lat="36.69141333" lon="-4.44133933">
        <ele>-28</ele>
        <time>2018-04-23T14:47:47Z</time>
      </trkpt>
      <trkpt lat="36.69140333" lon="-4.441345">
        <ele>-28</ele>
        <time>2018-04-23T14:47:48Z</time>
      </trkpt>
      <trkpt lat="36.69139167" lon="-4.44135133">
        <ele>-28</ele>
        <time>2018-04-23T14:47:49Z</time>
      </trkpt>
      <trkpt lat="36.69138167" lon="-4.441357">
        <ele>-28</ele>
        <time>2018-04-23T14:47:50Z</time>
      </trkpt>
      <trkpt lat="36.69136833" lon="-4.44136467">
        <ele>-28</ele>
        <time>2018-04-23T14:47:51Z</time>
      </trkpt>
      <trkpt lat="36.691355" lon="-4.441371">
        <ele>-28</ele>
        <time>2018-04-23T14:47:52Z</time>
      </trkpt>
      <trkpt lat="36.69134" lon="-4.44137833">
        <ele>-28</ele>
        <time>2018-04-23T14:47:53Z</time>
      </trkpt>
      <trkpt lat="36.69132667" lon="-4.441384">
        <ele>-28</ele>
        <time>2018-04-23T14:47:54Z</time>
      </trkpt>
      <trkpt lat="36.69131167" lon="-4.44139033">
        <ele>-28</ele>
        <time>2018-04-23T14:47:55Z</time>
      </trkpt>
      <trkpt lat="36.69130167" lon="-4.441394">
        <ele>-28</ele>
        <time>2018-04-23T14:47:56Z</time>
      </trkpt>
      <trkpt lat="36.69129" lon="-4.441399">
        <ele>-28</ele>
        <time>2018-04-23T14:47:57Z</time>
      </trkpt>
      <trkpt lat="36.69128167" lon="-4.441404">
        <ele>-28</ele>
        <time>2018-04-23T14:47:58Z</time>
      </trkpt>
      <trkpt lat="36.69127167" lon="-4.44141067">
        <ele>-28</ele>
        <time>2018-04-23T14:47:59Z</time>
      </trkpt>
      <trkpt lat="36.69126167" lon="-4.441418">
        <ele>-28</ele>
        <time>2018-04-23T14:48:00Z</time>
      </trkpt>
      <trkpt lat="36.69125167" lon="-4.44142467">
        <ele>-28</ele>
        <time>2018-04-23T14:48:01Z</time>
      </trkpt>
      <trkpt lat="36.69123667" lon="-4.441434">
        <ele>-28</ele>
        <time>2018-04-23T14:48:02Z</time>
      </trkpt>
      <trkpt lat="36.691225" lon="-4.44144167">
        <ele>-28</ele>
        <time>2018-04-23T14:48:03Z</time>
      </trkpt>
      <trkpt lat="36.691215" lon="-4.441448">
        <ele>-28</ele>
        <time>2018-04-23T14:48:04Z</time>
      </trkpt>
      <trkpt lat="36.69120167" lon="-4.44145533">
        <ele>-28</ele>
        <time>2018-04-23T14:48:05Z</time>
      </trkpt>
      <trkpt lat="36.69118667" lon="-4.441463">
        <ele>-28</ele>
        <time>2018-04-23T14:48:06Z</time>
      </trkpt>
      <trkpt lat="36.69117167" lon="-4.44147033">
        <ele>-28</ele>
        <time>2018-04-23T14:48:07Z</time>
      </trkpt>
      <trkpt lat="36.69116" lon="-4.441476">
        <ele>-28</ele>
        <time>2018-04-23T14:48:08Z</time>
      </trkpt>
      <trkpt lat="36.69114833" lon="-4.44148233">
        <ele>-28</ele>
        <time>2018-04-23T14:48:09Z</time>
      </trkpt>
      <trkpt lat="36.691135" lon="-4.44148967">
        <ele>-28</ele>
        <time>2018-04-23T14:48:10Z</time>
      </trkpt>
      <trkpt lat="36.691125" lon="-4.441495">
        <ele>-28</ele>
        <time>2018-04-23T14:48:11Z</time>
      </trkpt>
      <trkpt lat="36.69111333" lon="-4.44150233">
        <ele>-28</ele>
        <time>2018-04-23T14:48:12Z</time>
      </trkpt>
      <trkpt lat="36.69110167" lon="-4.44150867">
        <ele>-28</ele>
        <time>2018-04-23T14:48:13Z</time>
      </trkpt>
      <trkpt lat="36.69109" lon="-4.44151633">
        <ele>-28</ele>
        <time>2018-04-23T14:48:14Z</time>
      </trkpt>
      <trkpt lat="36.69108" lon="-4.44152167">
        <ele>-28</ele>
        <time>2018-04-23T14:48:15Z</time>
      </trkpt>
      <trkpt lat="36.69106667" lon="-4.44153033">
        <ele>-28</ele>
        <time>2018-04-23T14:48:16Z</time>
      </trkpt>
      <trkpt lat="36.69105333" lon="-4.44153767">
        <ele>-28</ele>
        <time>2018-04-23T14:48:17Z</time>
      </trkpt>
      <trkpt lat="36.69104" lon="-4.441545">
        <ele>-28</ele>
        <time>2018-04-23T14:48:18Z</time>
      </trkpt>
      <trkpt lat="36.69103" lon="-4.44155033">
        <ele>-28</ele>
        <time>2018-04-23T14:48:19Z</time>
      </trkpt>
      <trkpt lat="36.69101667" lon="-4.441558">
        <ele>-28</ele>
        <time>2018-04-23T14:48:20Z</time>
      </trkpt>
      <trkpt lat="36.69101" lon="-4.441562">
        <ele>-28</ele>
        <time>2018-04-23T14:48:21Z</time>
      </trkpt>
      <trkpt lat="36.691" lon="-4.44156867">
        <ele>-28</ele>
        <time>2018-04-23T14:48:22Z</time>
      </trkpt>
      <trkpt lat="36.69099" lon="-4.44157433">
        <ele>-28</ele>
        <time>2018-04-23T14:48:23Z</time>
      </trkpt>
      <trkpt lat="36.69097833" lon="-4.44158233">
        <ele>-28</ele>
        <time>2018-04-23T14:48:24Z</time>
      </trkpt>
      <trkpt lat="36.69096833" lon="-4.44158767">
        <ele>-28</ele>
        <time>2018-04-23T14:48:25Z</time>
      </trkpt>
      <trkpt lat="36.69095667" lon="-4.441596">
        <ele>-28</ele>
        <time>2018-04-23T14:48:26Z</time>
      </trkpt>
      <trkpt lat="36.690945" lon="-4.44160233">
        <ele>-28</ele>
        <time>2018-04-23T14:48:27Z</time>
      </trkpt>
      <trkpt lat="36.690935" lon="-4.44160967">
        <ele>-28</ele>
        <time>2018-04-23T14:48:28Z</time>
      </trkpt>
      <trkpt lat="36.69092333" lon="-4.441618">
        <ele>-27</ele>
        <time>2018-04-23T14:48:29Z</time>
      </trkpt>
      <trkpt lat="36.69091" lon="-4.44162567">
        <ele>-27</ele>
        <time>2018-04-23T14:48:30Z</time>
      </trkpt>
      <trkpt lat="36.69089833" lon="-4.44163367">
        <ele>-27</ele>
        <time>2018-04-23T14:48:31Z</time>
      </trkpt>
      <trkpt lat="36.69088833" lon="-4.44164033">
        <ele>-27</ele>
        <time>2018-04-23T14:48:32Z</time>
      </trkpt>
      <trkpt lat="36.69087667" lon="-4.44164833">
        <ele>-27</ele>
        <time>2018-04-23T14:48:33Z</time>
      </trkpt>
      <trkpt lat="36.69086333" lon="-4.44165733">
        <ele>-27</ele>
        <time>2018-04-23T14:48:34Z</time>
      </trkpt>
      <trkpt lat="36.69085" lon="-4.44166633">
        <ele>-27</ele>
        <time>2018-04-23T14:48:35Z</time>
      </trkpt>
      <trkpt lat="36.69083833" lon="-4.44167433">
        <ele>-27</ele>
        <time>2018-04-23T14:48:36Z</time>
      </trkpt>
      <trkpt lat="36.69083" lon="-4.44168033">
        <ele>-27</ele>
        <time>2018-04-23T14:48:37Z</time>
      </trkpt>
      <trkpt lat="36.69081667" lon="-4.44168833">
        <ele>-27</ele>
        <time>2018-04-23T14:48:38Z</time>
      </trkpt>
      <trkpt lat="36.69080333" lon="-4.44169767">
        <ele>-27</ele>
        <time>2018-04-23T14:48:39Z</time>
      </trkpt>
      <trkpt lat="36.69079167" lon="-4.44170533">
        <ele>-27</ele>
        <time>2018-04-23T14:48:40Z</time>
      </trkpt>
      <trkpt lat="36.69078167" lon="-4.44171133">
        <ele>-27</ele>
        <time>2018-04-23T14:48:41Z</time>
      </trkpt>
      <trkpt lat="36.69077167" lon="-4.44171867">
        <ele>-27</ele>
        <time>2018-04-23T14:48:42Z</time>
      </trkpt>
      <trkpt lat="36.69076" lon="-4.44172533">
        <ele>-27</ele>
        <time>2018-04-23T14:48:43Z</time>
      </trkpt>
      <trkpt lat="36.69074833" lon="-4.44172333">
        <ele>-27</ele>
        <time>2018-04-23T14:48:44Z</time>
      </trkpt>
      <trkpt lat="36.69073333" lon="-4.44172167">
        <ele>-27</ele>
        <time>2018-04-23T14:48:45Z</time>
      </trkpt>
      <trkpt lat="36.69071667" lon="-4.44171833">
        <ele>-27</ele>
        <time>2018-04-23T14:48:46Z</time>
      </trkpt>
      <trkpt lat="36.690705" lon="-4.44171833">
        <ele>-27</ele>
        <time>2018-04-23T14:48:47Z</time>
      </trkpt>
      <trkpt lat="36.69069" lon="-4.44171833">
        <ele>-27</ele>
        <time>2018-04-23T14:48:48Z</time>
      </trkpt>
      <trkpt lat="36.69067167" lon="-4.44171567">
        <ele>-27</ele>
        <time>2018-04-23T14:48:49Z</time>
      </trkpt>
      <trkpt lat="36.69065833" lon="-4.441715">
        <ele>-27</ele>
        <time>2018-04-23T14:48:50Z</time>
      </trkpt>
      <trkpt lat="36.69064833" lon="-4.441713">
        <ele>-27</ele>
        <time>2018-04-23T14:48:51Z</time>
      </trkpt>
      <trkpt lat="36.69063667" lon="-4.44170967">
        <ele>-27</ele>
        <time>2018-04-23T14:48:52Z</time>
      </trkpt>
      <trkpt lat="36.690625" lon="-4.44170767">
        <ele>-27</ele>
        <time>2018-04-23T14:48:53Z</time>
      </trkpt>
      <trkpt lat="36.690615" lon="-4.44170567">
        <ele>-28</ele>
        <time>2018-04-23T14:48:54Z</time>
      </trkpt>
      <trkpt lat="36.69060333" lon="-4.441705">
        <ele>-28</ele>
        <time>2018-04-23T14:48:55Z</time>
      </trkpt>
      <trkpt lat="36.69059333" lon="-4.441706">
        <ele>-28</ele>
        <time>2018-04-23T14:48:56Z</time>
      </trkpt>
      <trkpt lat="36.69058167" lon="-4.44170767">
        <ele>-28</ele>
        <time>2018-04-23T14:48:57Z</time>
      </trkpt>
      <trkpt lat="36.69056833" lon="-4.44170967">
        <ele>-28</ele>
        <time>2018-04-23T14:48:58Z</time>
      </trkpt>
      <trkpt lat="36.69055667" lon="-4.44171233">
        <ele>-28</ele>
        <time>2018-04-23T14:48:59Z</time>
      </trkpt>
      <trkpt lat="36.69054833" lon="-4.44171667">
        <ele>-28</ele>
        <time>2018-04-23T14:49:00Z</time>
      </trkpt>
      <trkpt lat="36.69053667" lon="-4.44174">
        <ele>-28</ele>
        <time>2018-04-23T14:49:01Z</time>
      </trkpt>
      <trkpt lat="36.69052667" lon="-4.44174667">
        <ele>-28</ele>
        <time>2018-04-23T14:49:02Z</time>
      </trkpt>
      <trkpt lat="36.690515" lon="-4.44175467">
        <ele>-28</ele>
        <time>2018-04-23T14:49:03Z</time>
      </trkpt>
      <trkpt lat="36.69050333" lon="-4.441759">
        <ele>-28</ele>
        <time>2018-04-23T14:49:04Z</time>
      </trkpt>
      <trkpt lat="36.69049167" lon="-4.44176367">
        <ele>-28</ele>
        <time>2018-04-23T14:49:05Z</time>
      </trkpt>
      <trkpt lat="36.69048167" lon="-4.44176933">
        <ele>-28</ele>
        <time>2018-04-23T14:49:06Z</time>
      </trkpt>
      <trkpt lat="36.69047" lon="-4.441775">
        <ele>-28</ele>
        <time>2018-04-23T14:49:07Z</time>
      </trkpt>
      <trkpt lat="36.69045833" lon="-4.44178067">
        <ele>-28</ele>
        <time>2018-04-23T14:49:08Z</time>
      </trkpt>
      <trkpt lat="36.69044833" lon="-4.441786">
        <ele>-28</ele>
        <time>2018-04-23T14:49:09Z</time>
      </trkpt>
      <trkpt lat="36.69043833" lon="-4.44179233">
        <ele>-28</ele>
        <time>2018-04-23T14:49:10Z</time>
      </trkpt>
      <trkpt lat="36.69043" lon="-4.44179767">
        <ele>-28</ele>
        <time>2018-04-23T14:49:11Z</time>
      </trkpt>
      <trkpt lat="36.69041833" lon="-4.44180567">
        <ele>-28</ele>
        <time>2018-04-23T14:49:12Z</time>
      </trkpt>
      <trkpt lat="36.69040833" lon="-4.44181333">
        <ele>-28</ele>
        <time>2018-04-23T14:49:13Z</time>
      </trkpt>
      <trkpt lat="36.69039667" lon="-4.441821">
        <ele>-27</ele>
        <time>2018-04-23T14:49:14Z</time>
      </trkpt>
      <trkpt lat="36.69038833" lon="-4.44182733">
        <ele>-27</ele>
        <time>2018-04-23T14:49:15Z</time>
      </trkpt>
      <trkpt lat="36.690375" lon="-4.441837">
        <ele>-27</ele>
        <time>2018-04-23T14:49:16Z</time>
      </trkpt>
      <trkpt lat="36.69036333" lon="-4.44184533">
        <ele>-27</ele>
        <time>2018-04-23T14:49:17Z</time>
      </trkpt>
      <trkpt lat="36.69035167" lon="-4.44185333">
        <ele>-27</ele>
        <time>2018-04-23T14:49:18Z</time>
      </trkpt>
      <trkpt lat="36.69034167" lon="-4.44186033">
        <ele>-27</ele>
        <time>2018-04-23T14:49:19Z</time>
      </trkpt>
      <trkpt lat="36.69033" lon="-4.44186867">
        <ele>-29</ele>
        <time>2018-04-23T14:49:20Z</time>
      </trkpt>
      <trkpt lat="36.69032167" lon="-4.44187567">
        <ele>-29</ele>
        <time>2018-04-23T14:49:21Z</time>
      </trkpt>
      <trkpt lat="36.690315" lon="-4.441882">
        <ele>-29</ele>
        <time>2018-04-23T14:49:22Z</time>
      </trkpt>
      <trkpt lat="36.69030667" lon="-4.44189">
        <ele>-29</ele>
        <time>2018-04-23T14:49:23Z</time>
      </trkpt>
      <trkpt lat="36.69030167" lon="-4.441896">
        <ele>-29</ele>
        <time>2018-04-23T14:49:24Z</time>
      </trkpt>
      <trkpt lat="36.690295" lon="-4.44190467">
        <ele>-29</ele>
        <time>2018-04-23T14:49:25Z</time>
      </trkpt>
      <trkpt lat="36.69029" lon="-4.441935">
        <ele>-29</ele>
        <time>2018-04-23T14:49:26Z</time>
      </trkpt>
      <trkpt lat="36.69027833" lon="-4.441945">
        <ele>-29</ele>
        <time>2018-04-23T14:49:27Z</time>
      </trkpt>
      <trkpt lat="36.69026833" lon="-4.44195167">
        <ele>-29</ele>
        <time>2018-04-23T14:49:28Z</time>
      </trkpt>
      <trkpt lat="36.69026" lon="-4.44195633">
        <ele>-29</ele>
        <time>2018-04-23T14:49:29Z</time>
      </trkpt>
      <trkpt lat="36.69025" lon="-4.441966">
        <ele>-29</ele>
        <time>2018-04-23T14:49:30Z</time>
      </trkpt>
      <trkpt lat="36.69023833" lon="-4.441976">
        <ele>-29</ele>
        <time>2018-04-23T14:49:31Z</time>
      </trkpt>
      <trkpt lat="36.690225" lon="-4.44198367">
        <ele>-29</ele>
        <time>2018-04-23T14:49:32Z</time>
      </trkpt>
      <trkpt lat="36.690215" lon="-4.44198767">
        <ele>-29</ele>
        <time>2018-04-23T14:49:33Z</time>
      </trkpt>
      <trkpt lat="36.6902" lon="-4.44199633">
        <ele>-29</ele>
        <time>2018-04-23T14:49:34Z</time>
      </trkpt>
      <trkpt lat="36.69019" lon="-4.44200267">
        <ele>-29</ele>
        <time>2018-04-23T14:49:35Z</time>
      </trkpt>
      <trkpt lat="36.69018" lon="-4.44200967">
        <ele>-29</ele>
        <time>2018-04-23T14:49:36Z</time>
      </trkpt>
      <trkpt lat="36.69017" lon="-4.44201733">
        <ele>-29</ele>
        <time>2018-04-23T14:49:37Z</time>
      </trkpt>
      <trkpt lat="36.69016167" lon="-4.44202433">
        <ele>-29</ele>
        <time>2018-04-23T14:49:38Z</time>
      </trkpt>
      <trkpt lat="36.69015" lon="-4.44203267">
        <ele>-29</ele>
        <time>2018-04-23T14:49:39Z</time>
      </trkpt>
      <trkpt lat="36.69013833" lon="-4.442039">
        <ele>-29</ele>
        <time>2018-04-23T14:49:40Z</time>
      </trkpt>
      <trkpt lat="36.69012333" lon="-4.44204733">
        <ele>-29</ele>
        <time>2018-04-23T14:49:41Z</time>
      </trkpt>
      <trkpt lat="36.69011333" lon="-4.44205333">
        <ele>-29</ele>
        <time>2018-04-23T14:49:42Z</time>
      </trkpt>
      <trkpt lat="36.690105" lon="-4.44205967">
        <ele>-29</ele>
        <time>2018-04-23T14:49:43Z</time>
      </trkpt>
      <trkpt lat="36.69009667" lon="-4.44206667">
        <ele>-29</ele>
        <time>2018-04-23T14:49:44Z</time>
      </trkpt>
      <trkpt lat="36.69008333" lon="-4.44207667">
        <ele>-29</ele>
        <time>2018-04-23T14:49:45Z</time>
      </trkpt>
      <trkpt lat="36.69006833" lon="-4.44208667">
        <ele>-29</ele>
        <time>2018-04-23T14:49:46Z</time>
      </trkpt>
      <trkpt lat="36.69005667" lon="-4.44209367">
        <ele>-29</ele>
        <time>2018-04-23T14:49:47Z</time>
      </trkpt>
      <trkpt lat="36.69004833" lon="-4.44209767">
        <ele>-29</ele>
        <time>2018-04-23T14:49:48Z</time>
      </trkpt>
      <trkpt lat="36.69004" lon="-4.442103">
        <ele>-29</ele>
        <time>2018-04-23T14:49:49Z</time>
      </trkpt>
      <trkpt lat="36.69003" lon="-4.44211">
        <ele>-29</ele>
        <time>2018-04-23T14:49:50Z</time>
      </trkpt>
      <trkpt lat="36.69002167" lon="-4.44211667">
        <ele>-29</ele>
        <time>2018-04-23T14:49:51Z</time>
      </trkpt>
      <trkpt lat="36.69001167" lon="-4.44212667">
        <ele>-29</ele>
        <time>2018-04-23T14:49:51Z</time>
      </trkpt>
      <trkpt lat="36.69000333" lon="-4.44213333">
        <ele>-29</ele>
        <time>2018-04-23T14:49:52Z</time>
      </trkpt>
      <trkpt lat="36.689995" lon="-4.44214">
        <ele>-29</ele>
        <time>2018-04-23T14:49:53Z</time>
      </trkpt>
      <trkpt lat="36.68998667" lon="-4.442145">
        <ele>-29</ele>
        <time>2018-04-23T14:49:54Z</time>
      </trkpt>
      <trkpt lat="36.689975" lon="-4.44215167">
        <ele>-29</ele>
        <time>2018-04-23T14:49:55Z</time>
      </trkpt>
      <trkpt lat="36.689965" lon="-4.44215567">
        <ele>-29</ele>
        <time>2018-04-23T14:49:56Z</time>
      </trkpt>
      <trkpt lat="36.68995" lon="-4.44216167">
        <ele>-29</ele>
        <time>2018-04-23T14:49:57Z</time>
      </trkpt>
      <trkpt lat="36.68993667" lon="-4.44216733">
        <ele>-29</ele>
        <time>2018-04-23T14:49:58Z</time>
      </trkpt>
      <trkpt lat="36.68992167" lon="-4.44217233">
        <ele>-29</ele>
        <time>2018-04-23T14:49:59Z</time>
      </trkpt>
      <trkpt lat="36.68990833" lon="-4.44217567">
        <ele>-29</ele>
        <time>2018-04-23T14:50:00Z</time>
      </trkpt>
      <trkpt lat="36.68989333" lon="-4.44217733">
        <ele>-29</ele>
        <time>2018-04-23T14:50:01Z</time>
      </trkpt>
      <trkpt lat="36.68988" lon="-4.44216667">
        <ele>-29</ele>
        <time>2018-04-23T14:50:02Z</time>
      </trkpt>
      <trkpt lat="36.68986667" lon="-4.442168">
        <ele>-29</ele>
        <time>2018-04-23T14:50:03Z</time>
      </trkpt>
      <trkpt lat="36.68985667" lon="-4.44217233">
        <ele>-29</ele>
        <time>2018-04-23T14:50:04Z</time>
      </trkpt>
      <trkpt lat="36.68984333" lon="-4.44217767">
        <ele>-29</ele>
        <time>2018-04-23T14:50:05Z</time>
      </trkpt>
      <trkpt lat="36.68983" lon="-4.44218167">
        <ele>-29</ele>
        <time>2018-04-23T14:50:06Z</time>
      </trkpt>
      <trkpt lat="36.68981667" lon="-4.442186">
        <ele>-29</ele>
        <time>2018-04-23T14:50:07Z</time>
      </trkpt>
      <trkpt lat="36.68980667" lon="-4.442191">
        <ele>-29</ele>
        <time>2018-04-23T14:50:08Z</time>
      </trkpt>
      <trkpt lat="36.689795" lon="-4.442197">
        <ele>-29</ele>
        <time>2018-04-23T14:50:09Z</time>
      </trkpt>
      <trkpt lat="36.68978333" lon="-4.44220333">
        <ele>-27</ele>
        <time>2018-04-23T14:50:10Z</time>
      </trkpt>
      <trkpt lat="36.689775" lon="-4.442209">
        <ele>-27</ele>
        <time>2018-04-23T14:50:11Z</time>
      </trkpt>
      <trkpt lat="36.68976167" lon="-4.442216">
        <ele>-29</ele>
        <time>2018-04-23T14:50:12Z</time>
      </trkpt>
      <trkpt lat="36.68975167" lon="-4.44222267">
        <ele>-29</ele>
        <time>2018-04-23T14:50:13Z</time>
      </trkpt>
      <trkpt lat="36.68974167" lon="-4.44223">
        <ele>-29</ele>
        <time>2018-04-23T14:50:14Z</time>
      </trkpt>
      <trkpt lat="36.68972667" lon="-4.442239">
        <ele>-29</ele>
        <time>2018-04-23T14:50:15Z</time>
      </trkpt>
      <trkpt lat="36.68971167" lon="-4.44224633">
        <ele>-29</ele>
        <time>2018-04-23T14:50:16Z</time>
      </trkpt>
      <trkpt lat="36.6897" lon="-4.442252">
        <ele>-26</ele>
        <time>2018-04-23T14:50:17Z</time>
      </trkpt>
      <trkpt lat="36.68968833" lon="-4.44225767">
        <ele>-26</ele>
        <time>2018-04-23T14:50:18Z</time>
      </trkpt>
      <trkpt lat="36.68967667" lon="-4.44226367">
        <ele>-26</ele>
        <time>2018-04-23T14:50:19Z</time>
      </trkpt>
      <trkpt lat="36.68966667" lon="-4.44226867">
        <ele>-26</ele>
        <time>2018-04-23T14:50:20Z</time>
      </trkpt>
      <trkpt lat="36.68965833" lon="-4.442273">
        <ele>-28</ele>
        <time>2018-04-23T14:50:21Z</time>
      </trkpt>
      <trkpt lat="36.68964667" lon="-4.44227933">
        <ele>-28</ele>
        <time>2018-04-23T14:50:22Z</time>
      </trkpt>
      <trkpt lat="36.68963167" lon="-4.44228533">
        <ele>-29</ele>
        <time>2018-04-23T14:50:23Z</time>
      </trkpt>
      <trkpt lat="36.68962" lon="-4.44229067">
        <ele>-29</ele>
        <time>2018-04-23T14:50:24Z</time>
      </trkpt>
      <trkpt lat="36.68960833" lon="-4.442295">
        <ele>-29</ele>
        <time>2018-04-23T14:50:25Z</time>
      </trkpt>
      <trkpt lat="36.68959333" lon="-4.442301">
        <ele>-29</ele>
        <time>2018-04-23T14:50:26Z</time>
      </trkpt>
      <trkpt lat="36.68958333" lon="-4.44230433">
        <ele>-29</ele>
        <time>2018-04-23T14:50:27Z</time>
      </trkpt>
      <trkpt lat="36.689575" lon="-4.44230833">
        <ele>-29</ele>
        <time>2018-04-23T14:50:28Z</time>
      </trkpt>
      <trkpt lat="36.68956833" lon="-4.44231233">
        <ele>-29</ele>
        <time>2018-04-23T14:50:29Z</time>
      </trkpt>
      <trkpt lat="36.68955833" lon="-4.44231733">
        <ele>-29</ele>
        <time>2018-04-23T14:50:30Z</time>
      </trkpt>
      <trkpt lat="36.68954667" lon="-4.44232367">
        <ele>-29</ele>
        <time>2018-04-23T14:50:31Z</time>
      </trkpt>
      <trkpt lat="36.689535" lon="-4.44233033">
        <ele>-29</ele>
        <time>2018-04-23T14:50:32Z</time>
      </trkpt>
      <trkpt lat="36.689525" lon="-4.442336">
        <ele>-29</ele>
        <time>2018-04-23T14:50:33Z</time>
      </trkpt>
      <trkpt lat="36.68951667" lon="-4.442341">
        <ele>-29</ele>
        <time>2018-04-23T14:50:34Z</time>
      </trkpt>
      <trkpt lat="36.689505" lon="-4.44234767">
        <ele>-29</ele>
        <time>2018-04-23T14:50:35Z</time>
      </trkpt>
      <trkpt lat="36.689495" lon="-4.44235467">
        <ele>-29</ele>
        <time>2018-04-23T14:50:36Z</time>
      </trkpt>
      <trkpt lat="36.68948333" lon="-4.442363">
        <ele>-29</ele>
        <time>2018-04-23T14:50:37Z</time>
      </trkpt>
      <trkpt lat="36.68947167" lon="-4.44237">
        <ele>-29</ele>
        <time>2018-04-23T14:50:38Z</time>
      </trkpt>
      <trkpt lat="36.68946167" lon="-4.44237733">
        <ele>-29</ele>
        <time>2018-04-23T14:50:39Z</time>
      </trkpt>
      <trkpt lat="36.68945" lon="-4.44238467">
        <ele>-29</ele>
        <time>2018-04-23T14:50:40Z</time>
      </trkpt>
      <trkpt lat="36.68944167" lon="-4.44239033">
        <ele>-29</ele>
        <time>2018-04-23T14:50:41Z</time>
      </trkpt>
      <trkpt lat="36.68943" lon="-4.442399">
        <ele>-29</ele>
        <time>2018-04-23T14:50:42Z</time>
      </trkpt>
      <trkpt lat="36.68942167" lon="-4.44240467">
        <ele>-29</ele>
        <time>2018-04-23T14:50:43Z</time>
      </trkpt>
      <trkpt lat="36.68941167" lon="-4.44241267">
        <ele>-29</ele>
        <time>2018-04-23T14:50:44Z</time>
      </trkpt>
      <trkpt lat="36.689405" lon="-4.44241833">
        <ele>-29</ele>
        <time>2018-04-23T14:50:45Z</time>
      </trkpt>
      <trkpt lat="36.689395" lon="-4.44242667">
        <ele>-29</ele>
        <time>2018-04-23T14:50:46Z</time>
      </trkpt>
      <trkpt lat="36.68938167" lon="-4.44243567">
        <ele>-29</ele>
        <time>2018-04-23T14:50:47Z</time>
      </trkpt>
      <trkpt lat="36.68936833" lon="-4.44244467">
        <ele>-29</ele>
        <time>2018-04-23T14:50:48Z</time>
      </trkpt>
      <trkpt lat="36.689355" lon="-4.44245367">
        <ele>-29</ele>
        <time>2018-04-23T14:50:49Z</time>
      </trkpt>
      <trkpt lat="36.689345" lon="-4.442461">
        <ele>-29</ele>
        <time>2018-04-23T14:50:50Z</time>
      </trkpt>
      <trkpt lat="36.68933333" lon="-4.44246933">
        <ele>-29</ele>
        <time>2018-04-23T14:50:51Z</time>
      </trkpt>
      <trkpt lat="36.68932167" lon="-4.44247833">
        <ele>-29</ele>
        <time>2018-04-23T14:50:52Z</time>
      </trkpt>
      <trkpt lat="36.68931" lon="-4.44248733">
        <ele>-29</ele>
        <time>2018-04-23T14:50:53Z</time>
      </trkpt>
      <trkpt lat="36.68929667" lon="-4.44249733">
        <ele>-29</ele>
        <time>2018-04-23T14:50:54Z</time>
      </trkpt>
      <trkpt lat="36.68928333" lon="-4.44250633">
        <ele>-29</ele>
        <time>2018-04-23T14:50:55Z</time>
      </trkpt>
      <trkpt lat="36.68927167" lon="-4.44251433">
        <ele>-29</ele>
        <time>2018-04-23T14:50:56Z</time>
      </trkpt>
      <trkpt lat="36.68926167" lon="-4.44252167">
        <ele>-29</ele>
        <time>2018-04-23T14:50:57Z</time>
      </trkpt>
      <trkpt lat="36.68925" lon="-4.44252833">
        <ele>-29</ele>
        <time>2018-04-23T14:50:58Z</time>
      </trkpt>
      <trkpt lat="36.68924167" lon="-4.442535">
        <ele>-29</ele>
        <time>2018-04-23T14:50:59Z</time>
      </trkpt>
      <trkpt lat="36.68922833" lon="-4.442544">
        <ele>-29</ele>
        <time>2018-04-23T14:51:00Z</time>
      </trkpt>
      <trkpt lat="36.68921167" lon="-4.442555">
        <ele>-29</ele>
        <time>2018-04-23T14:51:01Z</time>
      </trkpt>
      <trkpt lat="36.6892" lon="-4.44256333">
        <ele>-29</ele>
        <time>2018-04-23T14:51:02Z</time>
      </trkpt>
      <trkpt lat="36.68918833" lon="-4.44257133">
        <ele>-29</ele>
        <time>2018-04-23T14:51:03Z</time>
      </trkpt>
      <trkpt lat="36.68918167" lon="-4.44257633">
        <ele>-29</ele>
        <time>2018-04-23T14:51:04Z</time>
      </trkpt>
      <trkpt lat="36.68917167" lon="-4.44258367">
        <ele>-29</ele>
        <time>2018-04-23T14:51:05Z</time>
      </trkpt>
      <trkpt lat="36.68916333" lon="-4.44258867">
        <ele>-29</ele>
        <time>2018-04-23T14:51:06Z</time>
      </trkpt>
      <trkpt lat="36.68915833" lon="-4.44259267">
        <ele>-29</ele>
        <time>2018-04-23T14:51:07Z</time>
      </trkpt>
      <trkpt lat="36.68914167" lon="-4.44260333">
        <ele>-29</ele>
        <time>2018-04-23T14:51:08Z</time>
      </trkpt>
      <trkpt lat="36.68912667" lon="-4.44261367">
        <ele>-29</ele>
        <time>2018-04-23T14:51:09Z</time>
      </trkpt>
      <trkpt lat="36.68911667" lon="-4.44262">
        <ele>-29</ele>
        <time>2018-04-23T14:51:10Z</time>
      </trkpt>
      <trkpt lat="36.689105" lon="-4.442627">
        <ele>-29</ele>
        <time>2018-04-23T14:51:11Z</time>
      </trkpt>
      <trkpt lat="36.68909667" lon="-4.44263233">
        <ele>-29</ele>
        <time>2018-04-23T14:51:12Z</time>
      </trkpt>
      <trkpt lat="36.68908667" lon="-4.44263867">
        <ele>-29</ele>
        <time>2018-04-23T14:51:13Z</time>
      </trkpt>
      <trkpt lat="36.68908167" lon="-4.44264233">
        <ele>-29</ele>
        <time>2018-04-23T14:51:14Z</time>
      </trkpt>
      <trkpt lat="36.68907333" lon="-4.442648">
        <ele>-29</ele>
        <time>2018-04-23T14:51:15Z</time>
      </trkpt>
      <trkpt lat="36.68906833" lon="-4.44265067">
        <ele>-29</ele>
        <time>2018-04-23T14:51:16Z</time>
      </trkpt>
      <trkpt lat="36.689065" lon="-4.44267333">
        <ele>-29</ele>
        <time>2018-04-23T14:51:17Z</time>
      </trkpt>
      <trkpt lat="36.68906833" lon="-4.442685">
        <ele>-29</ele>
        <time>2018-04-23T14:51:18Z</time>
      </trkpt>
      <trkpt lat="36.68907" lon="-4.44270167">
        <ele>-29</ele>
        <time>2018-04-23T14:51:19Z</time>
      </trkpt>
      <trkpt lat="36.689075" lon="-4.442715">
        <ele>-29</ele>
        <time>2018-04-23T14:51:20Z</time>
      </trkpt>
      <trkpt lat="36.68908" lon="-4.44273167">
        <ele>-29</ele>
        <time>2018-04-23T14:51:21Z</time>
      </trkpt>
      <trkpt lat="36.68908167" lon="-4.44274833">
        <ele>-32</ele>
        <time>2018-04-23T14:51:22Z</time>
      </trkpt>
      <trkpt lat="36.68908833" lon="-4.44276667">
        <ele>-32</ele>
        <time>2018-04-23T14:51:23Z</time>
      </trkpt>
      <trkpt lat="36.68909667" lon="-4.442785">
        <ele>-32</ele>
        <time>2018-04-23T14:51:24Z</time>
      </trkpt>
      <trkpt lat="36.68910667" lon="-4.44280167">
        <ele>-32</ele>
        <time>2018-04-23T14:51:25Z</time>
      </trkpt>
      <trkpt lat="36.68911667" lon="-4.442815">
        <ele>-32</ele>
        <time>2018-04-23T14:51:26Z</time>
      </trkpt>
      <trkpt lat="36.68912667" lon="-4.442825">
        <ele>-32</ele>
        <time>2018-04-23T14:51:27Z</time>
      </trkpt>
      <trkpt lat="36.68913833" lon="-4.44283667">
        <ele>-32</ele>
        <time>2018-04-23T14:51:28Z</time>
      </trkpt>
      <trkpt lat="36.689145" lon="-4.442845">
        <ele>-32</ele>
        <time>2018-04-23T14:51:29Z</time>
      </trkpt>
      <trkpt lat="36.68915033" lon="-4.44285833">
        <ele>-32</ele>
        <time>2018-04-23T14:51:30Z</time>
      </trkpt>
      <trkpt lat="36.68915567" lon="-4.44287167">
        <ele>-32</ele>
        <time>2018-04-23T14:51:31Z</time>
      </trkpt>
      <trkpt lat="36.68916333" lon="-4.44288">
        <ele>-32</ele>
        <time>2018-04-23T14:51:32Z</time>
      </trkpt>
      <trkpt lat="36.68917167" lon="-4.44288333">
        <ele>-32</ele>
        <time>2018-04-23T14:51:33Z</time>
      </trkpt>
      <trkpt lat="36.68918" lon="-4.44288333">
        <ele>-32</ele>
        <time>2018-04-23T14:51:34Z</time>
      </trkpt>
      <trkpt lat="36.689185" lon="-4.44288333">
        <ele>-32</ele>
        <time>2018-04-23T14:51:35Z</time>
      </trkpt>
      <trkpt lat="36.689195" lon="-4.44288667">
        <ele>-32</ele>
        <time>2018-04-23T14:51:39Z</time>
      </trkpt>
      <trkpt lat="36.6892" lon="-4.44288833">
        <ele>-30</ele>
        <time>2018-04-23T14:51:41Z</time>
      </trkpt>
      <trkpt lat="36.68905333" lon="-4.44274333">
        <ele>-27</ele>
        <time>2018-04-23T14:52:40Z</time>
      </trkpt>
      <trkpt lat="36.68904" lon="-4.44274833">
        <ele>-27</ele>
        <time>2018-04-23T14:52:41Z</time>
      </trkpt>
      <trkpt lat="36.689025" lon="-4.44275333">
        <ele>-27</ele>
        <time>2018-04-23T14:52:42Z</time>
      </trkpt>
      <trkpt lat="36.68901333" lon="-4.44275833">
        <ele>-27</ele>
        <time>2018-04-23T14:52:43Z</time>
      </trkpt>
      <trkpt lat="36.68900167" lon="-4.44275833">
        <ele>-27</ele>
        <time>2018-04-23T14:52:44Z</time>
      </trkpt>
      <trkpt lat="36.68898667" lon="-4.44275667">
        <ele>-27</ele>
        <time>2018-04-23T14:52:45Z</time>
      </trkpt>
      <trkpt lat="36.688975" lon="-4.44275633">
        <ele>-27</ele>
        <time>2018-04-23T14:52:46Z</time>
      </trkpt>
      <trkpt lat="36.68896" lon="-4.44275533">
        <ele>-27</ele>
        <time>2018-04-23T14:52:47Z</time>
      </trkpt>
      <trkpt lat="36.688945" lon="-4.44275267">
        <ele>-27</ele>
        <time>2018-04-23T14:52:48Z</time>
      </trkpt>
      <trkpt lat="36.68893" lon="-4.442752">
        <ele>-27</ele>
        <time>2018-04-23T14:52:49Z</time>
      </trkpt>
      <trkpt lat="36.68891833" lon="-4.442755">
        <ele>-29</ele>
        <time>2018-04-23T14:52:50Z</time>
      </trkpt>
      <trkpt lat="36.68890833" lon="-4.44276833">
        <ele>-29</ele>
        <time>2018-04-23T14:52:51Z</time>
      </trkpt>
      <trkpt lat="36.68889833" lon="-4.44277833">
        <ele>-29</ele>
        <time>2018-04-23T14:52:53Z</time>
      </trkpt>
      <trkpt lat="36.68889" lon="-4.44278767">
        <ele>-29</ele>
        <time>2018-04-23T14:52:53Z</time>
      </trkpt>
      <trkpt lat="36.68888167" lon="-4.442793">
        <ele>-29</ele>
        <time>2018-04-23T14:52:54Z</time>
      </trkpt>
      <trkpt lat="36.68887" lon="-4.44280033">
        <ele>-28</ele>
        <time>2018-04-23T14:52:55Z</time>
      </trkpt>
      <trkpt lat="36.68886" lon="-4.44280633">
        <ele>-28</ele>
        <time>2018-04-23T14:52:56Z</time>
      </trkpt>
      <trkpt lat="36.68884833" lon="-4.44281567">
        <ele>-28</ele>
        <time>2018-04-23T14:52:57Z</time>
      </trkpt>
      <trkpt lat="36.688835" lon="-4.442826">
        <ele>-32</ele>
        <time>2018-04-23T14:52:58Z</time>
      </trkpt>
      <trkpt lat="36.68882167" lon="-4.442836">
        <ele>-32</ele>
        <time>2018-04-23T14:52:59Z</time>
      </trkpt>
      <trkpt lat="36.68881333" lon="-4.44284333">
        <ele>-32</ele>
        <time>2018-04-23T14:53:00Z</time>
      </trkpt>
      <trkpt lat="36.6888" lon="-4.44285367">
        <ele>-29</ele>
        <time>2018-04-23T14:53:01Z</time>
      </trkpt>
      <trkpt lat="36.68878833" lon="-4.44286267">
        <ele>-31</ele>
        <time>2018-04-23T14:53:02Z</time>
      </trkpt>
      <trkpt lat="36.68878" lon="-4.442869">
        <ele>-29</ele>
        <time>2018-04-23T14:53:03Z</time>
      </trkpt>
      <trkpt lat="36.68876833" lon="-4.44287767">
        <ele>-29</ele>
        <time>2018-04-23T14:53:04Z</time>
      </trkpt>
      <trkpt lat="36.68875833" lon="-4.44288467">
        <ele>-29</ele>
        <time>2018-04-23T14:53:05Z</time>
      </trkpt>
      <trkpt lat="36.68874833" lon="-4.442892">
        <ele>-29</ele>
        <time>2018-04-23T14:53:06Z</time>
      </trkpt>
      <trkpt lat="36.68873667" lon="-4.44290067">
        <ele>-29</ele>
        <time>2018-04-23T14:53:07Z</time>
      </trkpt>
      <trkpt lat="36.68872333" lon="-4.44291033">
        <ele>-29</ele>
        <time>2018-04-23T14:53:08Z</time>
      </trkpt>
      <trkpt lat="36.68871" lon="-4.44291933">
        <ele>-29</ele>
        <time>2018-04-23T14:53:09Z</time>
      </trkpt>
      <trkpt lat="36.6887" lon="-4.442926">
        <ele>-29</ele>
        <time>2018-04-23T14:53:10Z</time>
      </trkpt>
      <trkpt lat="36.68869" lon="-4.44293233">
        <ele>-29</ele>
        <time>2018-04-23T14:53:11Z</time>
      </trkpt>
      <trkpt lat="36.68867833" lon="-4.44294">
        <ele>-29</ele>
        <time>2018-04-23T14:53:12Z</time>
      </trkpt>
      <trkpt lat="36.688665" lon="-4.442947">
        <ele>-29</ele>
        <time>2018-04-23T14:53:13Z</time>
      </trkpt>
      <trkpt lat="36.68865167" lon="-4.44295433">
        <ele>-29</ele>
        <time>2018-04-23T14:53:14Z</time>
      </trkpt>
      <trkpt lat="36.68864" lon="-4.44296033">
        <ele>-29</ele>
        <time>2018-04-23T14:53:15Z</time>
      </trkpt>
      <trkpt lat="36.68863" lon="-4.44296633">
        <ele>-29</ele>
        <time>2018-04-23T14:53:16Z</time>
      </trkpt>
      <trkpt lat="36.68862" lon="-4.44297167">
        <ele>-29</ele>
        <time>2018-04-23T14:53:17Z</time>
      </trkpt>
      <trkpt lat="36.68861" lon="-4.44297767">
        <ele>-29</ele>
        <time>2018-04-23T14:53:18Z</time>
      </trkpt>
      <trkpt lat="36.68859667" lon="-4.442986">
        <ele>-29</ele>
        <time>2018-04-23T14:53:19Z</time>
      </trkpt>
      <trkpt lat="36.688585" lon="-4.44299367">
        <ele>-29</ele>
        <time>2018-04-23T14:53:20Z</time>
      </trkpt>
      <trkpt lat="36.688575" lon="-4.443">
        <ele>-29</ele>
        <time>2018-04-23T14:53:21Z</time>
      </trkpt>
      <trkpt lat="36.68856833" lon="-4.443005">
        <ele>-29</ele>
        <time>2018-04-23T14:53:22Z</time>
      </trkpt>
      <trkpt lat="36.68856333" lon="-4.44301">
        <ele>-29</ele>
        <time>2018-04-23T14:53:23Z</time>
      </trkpt>
      <trkpt lat="36.688555" lon="-4.44301633">
        <ele>-29</ele>
        <time>2018-04-23T14:53:24Z</time>
      </trkpt>
      <trkpt lat="36.688545" lon="-4.443025">
        <ele>-29</ele>
        <time>2018-04-23T14:53:25Z</time>
      </trkpt>
      <trkpt lat="36.68853333" lon="-4.44303333">
        <ele>-29</ele>
        <time>2018-04-23T14:53:26Z</time>
      </trkpt>
      <trkpt lat="36.68852" lon="-4.44304333">
        <ele>-29</ele>
        <time>2018-04-23T14:53:27Z</time>
      </trkpt>
      <trkpt lat="36.68850833" lon="-4.44305067">
        <ele>-29</ele>
        <time>2018-04-23T14:53:28Z</time>
      </trkpt>
      <trkpt lat="36.688495" lon="-4.44305967">
        <ele>-29</ele>
        <time>2018-04-23T14:53:29Z</time>
      </trkpt>
      <trkpt lat="36.688485" lon="-4.44306567">
        <ele>-29</ele>
        <time>2018-04-23T14:53:30Z</time>
      </trkpt>
      <trkpt lat="36.68847333" lon="-4.44307367">
        <ele>-29</ele>
        <time>2018-04-23T14:53:31Z</time>
      </trkpt>
      <trkpt lat="36.68846167" lon="-4.44308167">
        <ele>-29</ele>
        <time>2018-04-23T14:53:32Z</time>
      </trkpt>
      <trkpt lat="36.68845167" lon="-4.44308733">
        <ele>-29</ele>
        <time>2018-04-23T14:53:33Z</time>
      </trkpt>
      <trkpt lat="36.68844" lon="-4.443095">
        <ele>-29</ele>
        <time>2018-04-23T14:53:34Z</time>
      </trkpt>
      <trkpt lat="36.68842833" lon="-4.443103">
        <ele>-29</ele>
        <time>2018-04-23T14:53:35Z</time>
      </trkpt>
      <trkpt lat="36.68841667" lon="-4.44310967">
        <ele>-29</ele>
        <time>2018-04-23T14:53:36Z</time>
      </trkpt>
      <trkpt lat="36.68840333" lon="-4.44311733">
        <ele>-29</ele>
        <time>2018-04-23T14:53:37Z</time>
      </trkpt>
      <trkpt lat="36.68839" lon="-4.44312533">
        <ele>-29</ele>
        <time>2018-04-23T14:53:38Z</time>
      </trkpt>
      <trkpt lat="36.68837667" lon="-4.44313267">
        <ele>-29</ele>
        <time>2018-04-23T14:53:39Z</time>
      </trkpt>
      <trkpt lat="36.68836333" lon="-4.443141">
        <ele>-29</ele>
        <time>2018-04-23T14:53:40Z</time>
      </trkpt>
      <trkpt lat="36.68835167" lon="-4.44314667">
        <ele>-29</ele>
        <time>2018-04-23T14:53:41Z</time>
      </trkpt>
      <trkpt lat="36.68834167" lon="-4.443152">
        <ele>-29</ele>
        <time>2018-04-23T14:53:42Z</time>
      </trkpt>
      <trkpt lat="36.68833167" lon="-4.44315767">
        <ele>-29</ele>
        <time>2018-04-23T14:53:43Z</time>
      </trkpt>
      <trkpt lat="36.68832" lon="-4.443164">
        <ele>-29</ele>
        <time>2018-04-23T14:53:44Z</time>
      </trkpt>
      <trkpt lat="36.68831" lon="-4.44316967">
        <ele>-29</ele>
        <time>2018-04-23T14:53:45Z</time>
      </trkpt>
      <trkpt lat="36.68829667" lon="-4.44317733">
        <ele>-29</ele>
        <time>2018-04-23T14:53:46Z</time>
      </trkpt>
      <trkpt lat="36.68828167" lon="-4.44318433">
        <ele>-29</ele>
        <time>2018-04-23T14:53:47Z</time>
      </trkpt>
      <trkpt lat="36.68826667" lon="-4.44316667">
        <ele>-29</ele>
        <time>2018-04-23T14:53:48Z</time>
      </trkpt>
      <trkpt lat="36.68825167" lon="-4.44317133">
        <ele>-29</ele>
        <time>2018-04-23T14:53:49Z</time>
      </trkpt>
      <trkpt lat="36.68824167" lon="-4.44317633">
        <ele>-29</ele>
        <time>2018-04-23T14:53:50Z</time>
      </trkpt>
      <trkpt lat="36.68822833" lon="-4.44317933">
        <ele>-29</ele>
        <time>2018-04-23T14:53:51Z</time>
      </trkpt>
      <trkpt lat="36.68821333" lon="-4.44318233">
        <ele>-29</ele>
        <time>2018-04-23T14:53:52Z</time>
      </trkpt>
      <trkpt lat="36.6882" lon="-4.443186">
        <ele>-29</ele>
        <time>2018-04-23T14:53:53Z</time>
      </trkpt>
      <trkpt lat="36.68819" lon="-4.44319167">
        <ele>-29</ele>
        <time>2018-04-23T14:53:54Z</time>
      </trkpt>
      <trkpt lat="36.68818" lon="-4.443198">
        <ele>-29</ele>
        <time>2018-04-23T14:53:55Z</time>
      </trkpt>
      <trkpt lat="36.68817" lon="-4.443205">
        <ele>-29</ele>
        <time>2018-04-23T14:53:56Z</time>
      </trkpt>
      <trkpt lat="36.68816167" lon="-4.44321267">
        <ele>-29</ele>
        <time>2018-04-23T14:53:57Z</time>
      </trkpt>
      <trkpt lat="36.68815333" lon="-4.44321967">
        <ele>-29</ele>
        <time>2018-04-23T14:53:58Z</time>
      </trkpt>
      <trkpt lat="36.68814333" lon="-4.44322767">
        <ele>-29</ele>
        <time>2018-04-23T14:53:59Z</time>
      </trkpt>
      <trkpt lat="36.68813" lon="-4.44323733">
        <ele>-29</ele>
        <time>2018-04-23T14:54:00Z</time>
      </trkpt>
      <trkpt lat="36.68811667" lon="-4.44324633">
        <ele>-29</ele>
        <time>2018-04-23T14:54:01Z</time>
      </trkpt>
      <trkpt lat="36.68810667" lon="-4.443253">
        <ele>-29</ele>
        <time>2018-04-23T14:54:02Z</time>
      </trkpt>
      <trkpt lat="36.688095" lon="-4.44326133">
        <ele>-29</ele>
        <time>2018-04-23T14:54:03Z</time>
      </trkpt>
      <trkpt lat="36.68808333" lon="-4.44326967">
        <ele>-29</ele>
        <time>2018-04-23T14:54:04Z</time>
      </trkpt>
      <trkpt lat="36.68807667" lon="-4.44327667">
        <ele>-29</ele>
        <time>2018-04-23T14:54:05Z</time>
      </trkpt>
      <trkpt lat="36.68806833" lon="-4.443305">
        <ele>-29</ele>
        <time>2018-04-23T14:54:06Z</time>
      </trkpt>
      <trkpt lat="36.68806167" lon="-4.443313">
        <ele>-29</ele>
        <time>2018-04-23T14:54:06Z</time>
      </trkpt>
      <trkpt lat="36.68804833" lon="-4.44332033">
        <ele>-29</ele>
        <time>2018-04-23T14:54:07Z</time>
      </trkpt>
      <trkpt lat="36.68803833" lon="-4.44333033">
        <ele>-29</ele>
        <time>2018-04-23T14:54:08Z</time>
      </trkpt>
      <trkpt lat="36.68803" lon="-4.443339">
        <ele>-29</ele>
        <time>2018-04-23T14:54:09Z</time>
      </trkpt>
      <trkpt lat="36.68802" lon="-4.443347">
        <ele>-29</ele>
        <time>2018-04-23T14:54:10Z</time>
      </trkpt>
      <trkpt lat="36.68801167" lon="-4.44335433">
        <ele>-29</ele>
        <time>2018-04-23T14:54:11Z</time>
      </trkpt>
      <trkpt lat="36.68800167" lon="-4.44336233">
        <ele>-29</ele>
        <time>2018-04-23T14:54:12Z</time>
      </trkpt>
      <trkpt lat="36.68799333" lon="-4.443369">
        <ele>-29</ele>
        <time>2018-04-23T14:54:13Z</time>
      </trkpt>
      <trkpt lat="36.68798333" lon="-4.44337567">
        <ele>-29</ele>
        <time>2018-04-23T14:54:14Z</time>
      </trkpt>
      <trkpt lat="36.68797" lon="-4.44338267">
        <ele>-29</ele>
        <time>2018-04-23T14:54:15Z</time>
      </trkpt>
      <trkpt lat="36.68795667" lon="-4.44339">
        <ele>-29</ele>
        <time>2018-04-23T14:54:16Z</time>
      </trkpt>
      <trkpt lat="36.68794667" lon="-4.44339533">
        <ele>-29</ele>
        <time>2018-04-23T14:54:17Z</time>
      </trkpt>
      <trkpt lat="36.68793167" lon="-4.44340233">
        <ele>-29</ele>
        <time>2018-04-23T14:54:18Z</time>
      </trkpt>
      <trkpt lat="36.68791833" lon="-4.44340767">
        <ele>-29</ele>
        <time>2018-04-23T14:54:19Z</time>
      </trkpt>
      <trkpt lat="36.68790667" lon="-4.443412">
        <ele>-29</ele>
        <time>2018-04-23T14:54:20Z</time>
      </trkpt>
      <trkpt lat="36.68789" lon="-4.44341833">
        <ele>-29</ele>
        <time>2018-04-23T14:54:21Z</time>
      </trkpt>
      <trkpt lat="36.68788" lon="-4.44342067">
        <ele>-29</ele>
        <time>2018-04-23T14:54:22Z</time>
      </trkpt>
      <trkpt lat="36.68787" lon="-4.443425">
        <ele>-29</ele>
        <time>2018-04-23T14:54:23Z</time>
      </trkpt>
      <trkpt lat="36.68786" lon="-4.44342867">
        <ele>-29</ele>
        <time>2018-04-23T14:54:24Z</time>
      </trkpt>
      <trkpt lat="36.68784833" lon="-4.44343267">
        <ele>-29</ele>
        <time>2018-04-23T14:54:25Z</time>
      </trkpt>
      <trkpt lat="36.68783667" lon="-4.44343733">
        <ele>-29</ele>
        <time>2018-04-23T14:54:26Z</time>
      </trkpt>
      <trkpt lat="36.68782167" lon="-4.443443">
        <ele>-29</ele>
        <time>2018-04-23T14:54:27Z</time>
      </trkpt>
      <trkpt lat="36.68780833" lon="-4.44344767">
        <ele>-29</ele>
        <time>2018-04-23T14:54:28Z</time>
      </trkpt>
      <trkpt lat="36.68779667" lon="-4.44345033">
        <ele>-29</ele>
        <time>2018-04-23T14:54:29Z</time>
      </trkpt>
      <trkpt lat="36.68778333" lon="-4.443435">
        <ele>-29</ele>
        <time>2018-04-23T14:54:30Z</time>
      </trkpt>
      <trkpt lat="36.68776667" lon="-4.44343333">
        <ele>-29</ele>
        <time>2018-04-23T14:54:31Z</time>
      </trkpt>
      <trkpt lat="36.68775667" lon="-4.44343567">
        <ele>-27</ele>
        <time>2018-04-23T14:54:32Z</time>
      </trkpt>
      <trkpt lat="36.68774333" lon="-4.44343633">
        <ele>-27</ele>
        <time>2018-04-23T14:54:33Z</time>
      </trkpt>
      <trkpt lat="36.68773167" lon="-4.44343967">
        <ele>-27</ele>
        <time>2018-04-23T14:54:34Z</time>
      </trkpt>
      <trkpt lat="36.68772" lon="-4.443444">
        <ele>-27</ele>
        <time>2018-04-23T14:54:35Z</time>
      </trkpt>
      <trkpt lat="36.68770833" lon="-4.44344833">
        <ele>-27</ele>
        <time>2018-04-23T14:54:36Z</time>
      </trkpt>
      <trkpt lat="36.68769667" lon="-4.443454">
        <ele>-27</ele>
        <time>2018-04-23T14:54:37Z</time>
      </trkpt>
      <trkpt lat="36.68768333" lon="-4.443461">
        <ele>-27</ele>
        <time>2018-04-23T14:54:38Z</time>
      </trkpt>
      <trkpt lat="36.68767167" lon="-4.44346767">
        <ele>-27</ele>
        <time>2018-04-23T14:54:39Z</time>
      </trkpt>
      <trkpt lat="36.68766" lon="-4.443474">
        <ele>-27</ele>
        <time>2018-04-23T14:54:40Z</time>
      </trkpt>
      <trkpt lat="36.68764333" lon="-4.44348167">
        <ele>-29</ele>
        <time>2018-04-23T14:54:41Z</time>
      </trkpt>
      <trkpt lat="36.687635" lon="-4.44348633">
        <ele>-29</ele>
        <time>2018-04-23T14:54:42Z</time>
      </trkpt>
      <trkpt lat="36.68763" lon="-4.44349067">
        <ele>-29</ele>
        <time>2018-04-23T14:54:43Z</time>
      </trkpt>
      <trkpt lat="36.68762167" lon="-4.44349733">
        <ele>-29</ele>
        <time>2018-04-23T14:54:44Z</time>
      </trkpt>
      <trkpt lat="36.68761" lon="-4.44350467">
        <ele>-29</ele>
        <time>2018-04-23T14:54:45Z</time>
      </trkpt>
      <trkpt lat="36.6876" lon="-4.44351133">
        <ele>-29</ele>
        <time>2018-04-23T14:54:46Z</time>
      </trkpt>
      <trkpt lat="36.68759" lon="-4.443518">
        <ele>-29</ele>
        <time>2018-04-23T14:54:47Z</time>
      </trkpt>
      <trkpt lat="36.68757667" lon="-4.44352567">
        <ele>-29</ele>
        <time>2018-04-23T14:54:48Z</time>
      </trkpt>
      <trkpt lat="36.68756333" lon="-4.44353367">
        <ele>-29</ele>
        <time>2018-04-23T14:54:49Z</time>
      </trkpt>
      <trkpt lat="36.68755333" lon="-4.44353967">
        <ele>-29</ele>
        <time>2018-04-23T14:54:50Z</time>
      </trkpt>
      <trkpt lat="36.687545" lon="-4.44354567">
        <ele>-29</ele>
        <time>2018-04-23T14:54:51Z</time>
      </trkpt>
      <trkpt lat="36.687535" lon="-4.443553">
        <ele>-29</ele>
        <time>2018-04-23T14:54:52Z</time>
      </trkpt>
      <trkpt lat="36.687525" lon="-4.44356067">
        <ele>-29</ele>
        <time>2018-04-23T14:54:53Z</time>
      </trkpt>
      <trkpt lat="36.68751333" lon="-4.44356933">
        <ele>-29</ele>
        <time>2018-04-23T14:54:54Z</time>
      </trkpt>
      <trkpt lat="36.687505" lon="-4.44357633">
        <ele>-29</ele>
        <time>2018-04-23T14:54:55Z</time>
      </trkpt>
      <trkpt lat="36.68749667" lon="-4.44358267">
        <ele>-29</ele>
        <time>2018-04-23T14:54:56Z</time>
      </trkpt>
      <trkpt lat="36.687485" lon="-4.44359067">
        <ele>-29</ele>
        <time>2018-04-23T14:54:57Z</time>
      </trkpt>
      <trkpt lat="36.687475" lon="-4.443597">
        <ele>-29</ele>
        <time>2018-04-23T14:54:58Z</time>
      </trkpt>
      <trkpt lat="36.68746333" lon="-4.44360433">
        <ele>-29</ele>
        <time>2018-04-23T14:54:59Z</time>
      </trkpt>
      <trkpt lat="36.687455" lon="-4.44360967">
        <ele>-29</ele>
        <time>2018-04-23T14:55:00Z</time>
      </trkpt>
      <trkpt lat="36.68744167" lon="-4.44361733">
        <ele>-29</ele>
        <time>2018-04-23T14:55:01Z</time>
      </trkpt>
      <trkpt lat="36.68742833" lon="-4.44362433">
        <ele>-29</ele>
        <time>2018-04-23T14:55:02Z</time>
      </trkpt>
      <trkpt lat="36.68741333" lon="-4.44363233">
        <ele>-29</ele>
        <time>2018-04-23T14:55:03Z</time>
      </trkpt>
      <trkpt lat="36.68740167" lon="-4.44363767">
        <ele>-29</ele>
        <time>2018-04-23T14:55:04Z</time>
      </trkpt>
      <trkpt lat="36.68738833" lon="-4.44364433">
        <ele>-29</ele>
        <time>2018-04-23T14:55:05Z</time>
      </trkpt>
      <trkpt lat="36.68737333" lon="-4.44365167">
        <ele>-29</ele>
        <time>2018-04-23T14:55:06Z</time>
      </trkpt>
      <trkpt lat="36.68736333" lon="-4.44365567">
        <ele>-29</ele>
        <time>2018-04-23T14:55:07Z</time>
      </trkpt>
      <trkpt lat="36.68735" lon="-4.443662">
        <ele>-29</ele>
        <time>2018-04-23T14:55:08Z</time>
      </trkpt>
      <trkpt lat="36.687335" lon="-4.44367033">
        <ele>-29</ele>
        <time>2018-04-23T14:55:09Z</time>
      </trkpt>
      <trkpt lat="36.68732333" lon="-4.443676">
        <ele>-29</ele>
        <time>2018-04-23T14:55:10Z</time>
      </trkpt>
      <trkpt lat="36.68731333" lon="-4.44368033">
        <ele>-29</ele>
        <time>2018-04-23T14:55:11Z</time>
      </trkpt>
      <trkpt lat="36.68730167" lon="-4.443687">
        <ele>-29</ele>
        <time>2018-04-23T14:55:12Z</time>
      </trkpt>
      <trkpt lat="36.68728833" lon="-4.44369433">
        <ele>-29</ele>
        <time>2018-04-23T14:55:13Z</time>
      </trkpt>
      <trkpt lat="36.687275" lon="-4.443702">
        <ele>-29</ele>
        <time>2018-04-23T14:55:14Z</time>
      </trkpt>
      <trkpt lat="36.68726833" lon="-4.44370567">
        <ele>-29</ele>
        <time>2018-04-23T14:55:15Z</time>
      </trkpt>
      <trkpt lat="36.68726167" lon="-4.44371033">
        <ele>-29</ele>
        <time>2018-04-23T14:55:16Z</time>
      </trkpt>
      <trkpt lat="36.68725167" lon="-4.44371633">
        <ele>-29</ele>
        <time>2018-04-23T14:55:17Z</time>
      </trkpt>
      <trkpt lat="36.68724333" lon="-4.44372233">
        <ele>-29</ele>
        <time>2018-04-23T14:55:18Z</time>
      </trkpt>
      <trkpt lat="36.68723167" lon="-4.44373033">
        <ele>-29</ele>
        <time>2018-04-23T14:55:19Z</time>
      </trkpt>
      <trkpt lat="36.68722333" lon="-4.443737">
        <ele>-29</ele>
        <time>2018-04-23T14:55:20Z</time>
      </trkpt>
      <trkpt lat="36.68721167" lon="-4.443745">
        <ele>-29</ele>
        <time>2018-04-23T14:55:21Z</time>
      </trkpt>
      <trkpt lat="36.6872" lon="-4.44375267">
        <ele>-29</ele>
        <time>2018-04-23T14:55:22Z</time>
      </trkpt>
      <trkpt lat="36.68718667" lon="-4.44376067">
        <ele>-29</ele>
        <time>2018-04-23T14:55:23Z</time>
      </trkpt>
      <trkpt lat="36.68717333" lon="-4.44376833">
        <ele>-29</ele>
        <time>2018-04-23T14:55:24Z</time>
      </trkpt>
      <trkpt lat="36.68716" lon="-4.44377633">
        <ele>-29</ele>
        <time>2018-04-23T14:55:25Z</time>
      </trkpt>
      <trkpt lat="36.68715" lon="-4.44378233">
        <ele>-29</ele>
        <time>2018-04-23T14:55:26Z</time>
      </trkpt>
      <trkpt lat="36.68713667" lon="-4.44379033">
        <ele>-29</ele>
        <time>2018-04-23T14:55:27Z</time>
      </trkpt>
      <trkpt lat="36.687125" lon="-4.44379733">
        <ele>-29</ele>
        <time>2018-04-23T14:55:28Z</time>
      </trkpt>
      <trkpt lat="36.687115" lon="-4.443803">
        <ele>-29</ele>
        <time>2018-04-23T14:55:29Z</time>
      </trkpt>
      <trkpt lat="36.68710167" lon="-4.44381">
        <ele>-29</ele>
        <time>2018-04-23T14:55:30Z</time>
      </trkpt>
      <trkpt lat="36.68709167" lon="-4.443816">
        <ele>-29</ele>
        <time>2018-04-23T14:55:31Z</time>
      </trkpt>
      <trkpt lat="36.68708167" lon="-4.443822">
        <ele>-29</ele>
        <time>2018-04-23T14:55:32Z</time>
      </trkpt>
      <trkpt lat="36.68707167" lon="-4.44382833">
        <ele>-29</ele>
        <time>2018-04-23T14:55:33Z</time>
      </trkpt>
      <trkpt lat="36.68706167" lon="-4.44383433">
        <ele>-29</ele>
        <time>2018-04-23T14:55:34Z</time>
      </trkpt>
      <trkpt lat="36.68704833" lon="-4.443842">
        <ele>-29</ele>
        <time>2018-04-23T14:55:35Z</time>
      </trkpt>
      <trkpt lat="36.68703833" lon="-4.44384767">
        <ele>-29</ele>
        <time>2018-04-23T14:55:36Z</time>
      </trkpt>
      <trkpt lat="36.687025" lon="-4.44385567">
        <ele>-29</ele>
        <time>2018-04-23T14:55:37Z</time>
      </trkpt>
      <trkpt lat="36.68701333" lon="-4.44386267">
        <ele>-29</ele>
        <time>2018-04-23T14:55:38Z</time>
      </trkpt>
      <trkpt lat="36.68700333" lon="-4.44386867">
        <ele>-29</ele>
        <time>2018-04-23T14:55:39Z</time>
      </trkpt>
      <trkpt lat="36.68699167" lon="-4.44387533">
        <ele>-29</ele>
        <time>2018-04-23T14:55:40Z</time>
      </trkpt>
      <trkpt lat="36.68698" lon="-4.44388233">
        <ele>-29</ele>
        <time>2018-04-23T14:55:41Z</time>
      </trkpt>
      <trkpt lat="36.68697" lon="-4.44388933">
        <ele>-29</ele>
        <time>2018-04-23T14:55:42Z</time>
      </trkpt>
      <trkpt lat="36.68696167" lon="-4.44389533">
        <ele>-29</ele>
        <time>2018-04-23T14:55:43Z</time>
      </trkpt>
      <trkpt lat="36.68695167" lon="-4.44390233">
        <ele>-29</ele>
        <time>2018-04-23T14:55:44Z</time>
      </trkpt>
      <trkpt lat="36.68694333" lon="-4.44390933">
        <ele>-29</ele>
        <time>2018-04-23T14:55:45Z</time>
      </trkpt>
      <trkpt lat="36.68693167" lon="-4.44392">
        <ele>-29</ele>
        <time>2018-04-23T14:55:46Z</time>
      </trkpt>
      <trkpt lat="36.68692667" lon="-4.44395667">
        <ele>-29</ele>
        <time>2018-04-23T14:55:47Z</time>
      </trkpt>
      <trkpt lat="36.686918" lon="-4.443965">
        <ele>-29</ele>
        <time>2018-04-23T14:55:48Z</time>
      </trkpt>
      <trkpt lat="36.68690633" lon="-4.44397667">
        <ele>-29</ele>
        <time>2018-04-23T14:55:49Z</time>
      </trkpt>
      <trkpt lat="36.68689867" lon="-4.44398333">
        <ele>-29</ele>
        <time>2018-04-23T14:55:50Z</time>
      </trkpt>
      <trkpt lat="36.68688833" lon="-4.443995">
        <ele>-29</ele>
        <time>2018-04-23T14:55:51Z</time>
      </trkpt>
      <trkpt lat="36.686875" lon="-4.444005">
        <ele>-29</ele>
        <time>2018-04-23T14:55:52Z</time>
      </trkpt>
      <trkpt lat="36.68686833" lon="-4.44401433">
        <ele>-29</ele>
        <time>2018-04-23T14:55:53Z</time>
      </trkpt>
      <trkpt lat="36.68685833" lon="-4.44402467">
        <ele>-29</ele>
        <time>2018-04-23T14:55:54Z</time>
      </trkpt>
      <trkpt lat="36.68684833" lon="-4.444034">
        <ele>-29</ele>
        <time>2018-04-23T14:55:55Z</time>
      </trkpt>
      <trkpt lat="36.68683667" lon="-4.44404333">
        <ele>-29</ele>
        <time>2018-04-23T14:55:56Z</time>
      </trkpt>
      <trkpt lat="36.68682" lon="-4.44405367">
        <ele>-29</ele>
        <time>2018-04-23T14:55:57Z</time>
      </trkpt>
      <trkpt lat="36.68680833" lon="-4.44406">
        <ele>-29</ele>
        <time>2018-04-23T14:55:58Z</time>
      </trkpt>
      <trkpt lat="36.686795" lon="-4.44406667">
        <ele>-29</ele>
        <time>2018-04-23T14:55:59Z</time>
      </trkpt>
      <trkpt lat="36.68678333" lon="-4.44407167">
        <ele>-29</ele>
        <time>2018-04-23T14:56:00Z</time>
      </trkpt>
      <trkpt lat="36.68677" lon="-4.44407667">
        <ele>-29</ele>
        <time>2018-04-23T14:56:01Z</time>
      </trkpt>
      <trkpt lat="36.68675833" lon="-4.44408167">
        <ele>-29</ele>
        <time>2018-04-23T14:56:02Z</time>
      </trkpt>
      <trkpt lat="36.68674667" lon="-4.44408667">
        <ele>-29</ele>
        <time>2018-04-23T14:56:03Z</time>
      </trkpt>
      <trkpt lat="36.686735" lon="-4.444093">
        <ele>-29</ele>
        <time>2018-04-23T14:56:04Z</time>
      </trkpt>
      <trkpt lat="36.68672333" lon="-4.4441">
        <ele>-29</ele>
        <time>2018-04-23T14:56:05Z</time>
      </trkpt>
      <trkpt lat="36.68671167" lon="-4.444107">
        <ele>-29</ele>
        <time>2018-04-23T14:56:06Z</time>
      </trkpt>
      <trkpt lat="36.68669667" lon="-4.444115">
        <ele>-29</ele>
        <time>2018-04-23T14:56:07Z</time>
      </trkpt>
      <trkpt lat="36.68668333" lon="-4.444122">
        <ele>-29</ele>
        <time>2018-04-23T14:56:08Z</time>
      </trkpt>
      <trkpt lat="36.68666833" lon="-4.44412933">
        <ele>-29</ele>
        <time>2018-04-23T14:56:09Z</time>
      </trkpt>
      <trkpt lat="36.68665667" lon="-4.44413467">
        <ele>-29</ele>
        <time>2018-04-23T14:56:10Z</time>
      </trkpt>
      <trkpt lat="36.686645" lon="-4.44413967">
        <ele>-29</ele>
        <time>2018-04-23T14:56:11Z</time>
      </trkpt>
      <trkpt lat="36.68663167" lon="-4.444146">
        <ele>-29</ele>
        <time>2018-04-23T14:56:12Z</time>
      </trkpt>
      <trkpt lat="36.68662167" lon="-4.44415033">
        <ele>-29</ele>
        <time>2018-04-23T14:56:13Z</time>
      </trkpt>
      <trkpt lat="36.68661167" lon="-4.444156">
        <ele>-29</ele>
        <time>2018-04-23T14:56:14Z</time>
      </trkpt>
      <trkpt lat="36.68660167" lon="-4.44416133">
        <ele>-29</ele>
        <time>2018-04-23T14:56:15Z</time>
      </trkpt>
      <trkpt lat="36.68659167" lon="-4.44416733">
        <ele>-29</ele>
        <time>2018-04-23T14:56:16Z</time>
      </trkpt>
      <trkpt lat="36.68657833" lon="-4.44417433">
        <ele>-27</ele>
        <time>2018-04-23T14:56:17Z</time>
      </trkpt>
      <trkpt lat="36.68656667" lon="-4.44418067">
        <ele>-27</ele>
        <time>2018-04-23T14:56:18Z</time>
      </trkpt>
      <trkpt lat="36.686555" lon="-4.44418733">
        <ele>-27</ele>
        <time>2018-04-23T14:56:19Z</time>
      </trkpt>
      <trkpt lat="36.68654167" lon="-4.44419333">
        <ele>-27</ele>
        <time>2018-04-23T14:56:20Z</time>
      </trkpt>
      <trkpt lat="36.68653" lon="-4.44419933">
        <ele>-27</ele>
        <time>2018-04-23T14:56:21Z</time>
      </trkpt>
      <trkpt lat="36.68651833" lon="-4.44420467">
        <ele>-27</ele>
        <time>2018-04-23T14:56:22Z</time>
      </trkpt>
      <trkpt lat="36.68650667" lon="-4.44421">
        <ele>-27</ele>
        <time>2018-04-23T14:56:23Z</time>
      </trkpt>
      <trkpt lat="36.68649333" lon="-4.444216">
        <ele>-27</ele>
        <time>2018-04-23T14:56:24Z</time>
      </trkpt>
      <trkpt lat="36.68648167" lon="-4.444222">
        <ele>-29</ele>
        <time>2018-04-23T14:56:25Z</time>
      </trkpt>
      <trkpt lat="36.68647" lon="-4.444228">
        <ele>-29</ele>
        <time>2018-04-23T14:56:26Z</time>
      </trkpt>
      <trkpt lat="36.68645833" lon="-4.44423433">
        <ele>-29</ele>
        <time>2018-04-23T14:56:27Z</time>
      </trkpt>
      <trkpt lat="36.68644833" lon="-4.44423967">
        <ele>-29</ele>
        <time>2018-04-23T14:56:28Z</time>
      </trkpt>
      <trkpt lat="36.686435" lon="-4.44424767">
        <ele>-29</ele>
        <time>2018-04-23T14:56:29Z</time>
      </trkpt>
      <trkpt lat="36.68642167" lon="-4.444255">
        <ele>-29</ele>
        <time>2018-04-23T14:56:30Z</time>
      </trkpt>
      <trkpt lat="36.68641" lon="-4.44426">
        <ele>-29</ele>
        <time>2018-04-23T14:56:31Z</time>
      </trkpt>
      <trkpt lat="36.68639667" lon="-4.444267">
        <ele>-29</ele>
        <time>2018-04-23T14:56:32Z</time>
      </trkpt>
      <trkpt lat="36.686385" lon="-4.444273">
        <ele>-29</ele>
        <time>2018-04-23T14:56:33Z</time>
      </trkpt>
      <trkpt lat="36.68637667" lon="-4.44427767">
        <ele>-29</ele>
        <time>2018-04-23T14:56:34Z</time>
      </trkpt>
      <trkpt lat="36.68636667" lon="-4.444284">
        <ele>-29</ele>
        <time>2018-04-23T14:56:35Z</time>
      </trkpt>
      <trkpt lat="36.68635667" lon="-4.44428933">
        <ele>-29</ele>
        <time>2018-04-23T14:56:36Z</time>
      </trkpt>
      <trkpt lat="36.68634667" lon="-4.444296">
        <ele>-29</ele>
        <time>2018-04-23T14:56:37Z</time>
      </trkpt>
      <trkpt lat="36.686335" lon="-4.44430333">
        <ele>-29</ele>
        <time>2018-04-23T14:56:38Z</time>
      </trkpt>
      <trkpt lat="36.68632333" lon="-4.44431">
        <ele>-29</ele>
        <time>2018-04-23T14:56:39Z</time>
      </trkpt>
      <trkpt lat="36.686315" lon="-4.444316">
        <ele>-29</ele>
        <time>2018-04-23T14:56:40Z</time>
      </trkpt>
      <trkpt lat="36.68630167" lon="-4.44432367">
        <ele>-29</ele>
        <time>2018-04-23T14:56:41Z</time>
      </trkpt>
      <trkpt lat="36.68629" lon="-4.44433167">
        <ele>-29</ele>
        <time>2018-04-23T14:56:42Z</time>
      </trkpt>
      <trkpt lat="36.68627833" lon="-4.44433833">
        <ele>-29</ele>
        <time>2018-04-23T14:56:43Z</time>
      </trkpt>
      <trkpt lat="36.68626833" lon="-4.444345">
        <ele>-29</ele>
        <time>2018-04-23T14:56:44Z</time>
      </trkpt>
      <trkpt lat="36.68626" lon="-4.44435067">
        <ele>-29</ele>
        <time>2018-04-23T14:56:45Z</time>
      </trkpt>
      <trkpt lat="36.68624833" lon="-4.44435967">
        <ele>-29</ele>
        <time>2018-04-23T14:56:46Z</time>
      </trkpt>
      <trkpt lat="36.68623667" lon="-4.44436733">
        <ele>-29</ele>
        <time>2018-04-23T14:56:47Z</time>
      </trkpt>
      <trkpt lat="36.686225" lon="-4.444375">
        <ele>-29</ele>
        <time>2018-04-23T14:56:48Z</time>
      </trkpt>
      <trkpt lat="36.68621333" lon="-4.444383">
        <ele>-29</ele>
        <time>2018-04-23T14:56:49Z</time>
      </trkpt>
      <trkpt lat="36.68620167" lon="-4.44439067">
        <ele>-29</ele>
        <time>2018-04-23T14:56:50Z</time>
      </trkpt>
      <trkpt lat="36.68619167" lon="-4.44439733">
        <ele>-27</ele>
        <time>2018-04-23T14:56:51Z</time>
      </trkpt>
      <trkpt lat="36.68618167" lon="-4.44440467">
        <ele>-27</ele>
        <time>2018-04-23T14:56:52Z</time>
      </trkpt>
      <trkpt lat="36.68616833" lon="-4.44441233">
        <ele>-27</ele>
        <time>2018-04-23T14:56:53Z</time>
      </trkpt>
      <trkpt lat="36.68615667" lon="-4.44441967">
        <ele>-27</ele>
        <time>2018-04-23T14:56:54Z</time>
      </trkpt>
      <trkpt lat="36.68614333" lon="-4.44442867">
        <ele>-27</ele>
        <time>2018-04-23T14:56:55Z</time>
      </trkpt>
      <trkpt lat="36.68613167" lon="-4.44443633">
        <ele>-29</ele>
        <time>2018-04-23T14:56:56Z</time>
      </trkpt>
      <trkpt lat="36.68612167" lon="-4.44444333">
        <ele>-29</ele>
        <time>2018-04-23T14:56:57Z</time>
      </trkpt>
      <trkpt lat="36.68610833" lon="-4.444451">
        <ele>-29</ele>
        <time>2018-04-23T14:56:58Z</time>
      </trkpt>
      <trkpt lat="36.68609333" lon="-4.44445933">
        <ele>-29</ele>
        <time>2018-04-23T14:56:59Z</time>
      </trkpt>
      <trkpt lat="36.68607833" lon="-4.444468">
        <ele>-29</ele>
        <time>2018-04-23T14:57:00Z</time>
      </trkpt>
      <trkpt lat="36.68606667" lon="-4.44447333">
        <ele>-29</ele>
        <time>2018-04-23T14:57:01Z</time>
      </trkpt>
      <trkpt lat="36.68605167" lon="-4.44448067">
        <ele>-29</ele>
        <time>2018-04-23T14:57:02Z</time>
      </trkpt>
      <trkpt lat="36.68604" lon="-4.44448433">
        <ele>-29</ele>
        <time>2018-04-23T14:57:03Z</time>
      </trkpt>
      <trkpt lat="36.68602833" lon="-4.44448967">
        <ele>-27</ele>
        <time>2018-04-23T14:57:04Z</time>
      </trkpt>
      <trkpt lat="36.68601833" lon="-4.44449233">
        <ele>-27</ele>
        <time>2018-04-23T14:57:05Z</time>
      </trkpt>
      <trkpt lat="36.68600833" lon="-4.44449633">
        <ele>-27</ele>
        <time>2018-04-23T14:57:06Z</time>
      </trkpt>
      <trkpt lat="36.68599833" lon="-4.44449867">
        <ele>-27</ele>
        <time>2018-04-23T14:57:07Z</time>
      </trkpt>
      <trkpt lat="36.68598333" lon="-4.44450433">
        <ele>-27</ele>
        <time>2018-04-23T14:57:08Z</time>
      </trkpt>
      <trkpt lat="36.68597" lon="-4.44450867">
        <ele>-27</ele>
        <time>2018-04-23T14:57:09Z</time>
      </trkpt>
      <trkpt lat="36.68595667" lon="-4.444512">
        <ele>-29</ele>
        <time>2018-04-23T14:57:10Z</time>
      </trkpt>
      <trkpt lat="36.68594667" lon="-4.444513">
        <ele>-29</ele>
        <time>2018-04-23T14:57:11Z</time>
      </trkpt>
      <trkpt lat="36.68593667" lon="-4.44451433">
        <ele>-29</ele>
        <time>2018-04-23T14:57:12Z</time>
      </trkpt>
      <trkpt lat="36.685925" lon="-4.44451633">
        <ele>-29</ele>
        <time>2018-04-23T14:57:13Z</time>
      </trkpt>
      <trkpt lat="36.68591167" lon="-4.44451833">
        <ele>-29</ele>
        <time>2018-04-23T14:57:14Z</time>
      </trkpt>
      <trkpt lat="36.6859" lon="-4.44451867">
        <ele>-29</ele>
        <time>2018-04-23T14:57:15Z</time>
      </trkpt>
      <trkpt lat="36.68588667" lon="-4.44452">
        <ele>-29</ele>
        <time>2018-04-23T14:57:16Z</time>
      </trkpt>
      <trkpt lat="36.68587333" lon="-4.44452">
        <ele>-29</ele>
        <time>2018-04-23T14:57:17Z</time>
      </trkpt>
      <trkpt lat="36.68586167" lon="-4.444521">
        <ele>-27</ele>
        <time>2018-04-23T14:57:18Z</time>
      </trkpt>
      <trkpt lat="36.68584667" lon="-4.444522">
        <ele>-27</ele>
        <time>2018-04-23T14:57:19Z</time>
      </trkpt>
      <trkpt lat="36.68583333" lon="-4.44452167">
        <ele>-27</ele>
        <time>2018-04-23T14:57:20Z</time>
      </trkpt>
      <trkpt lat="36.68582167" lon="-4.44452167">
        <ele>-27</ele>
        <time>2018-04-23T14:57:21Z</time>
      </trkpt>
      <trkpt lat="36.68581" lon="-4.44452267">
        <ele>-27</ele>
        <time>2018-04-23T14:57:22Z</time>
      </trkpt>
      <trkpt lat="36.6858" lon="-4.44450667">
        <ele>-27</ele>
        <time>2018-04-23T14:57:23Z</time>
      </trkpt>
      <trkpt lat="36.68579" lon="-4.44451333">
        <ele>-27</ele>
        <time>2018-04-23T14:57:24Z</time>
      </trkpt>
      <trkpt lat="36.68578" lon="-4.44452">
        <ele>-27</ele>
        <time>2018-04-23T14:57:25Z</time>
      </trkpt>
      <trkpt lat="36.68577333" lon="-4.44452667">
        <ele>-27</ele>
        <time>2018-04-23T14:57:26Z</time>
      </trkpt>
      <trkpt lat="36.685765" lon="-4.44453333">
        <ele>-27</ele>
        <time>2018-04-23T14:57:27Z</time>
      </trkpt>
      <trkpt lat="36.68575333" lon="-4.44454">
        <ele>-27</ele>
        <time>2018-04-23T14:57:28Z</time>
      </trkpt>
      <trkpt lat="36.68574167" lon="-4.44454733">
        <ele>-27</ele>
        <time>2018-04-23T14:57:29Z</time>
      </trkpt>
      <trkpt lat="36.68572833" lon="-4.444554">
        <ele>-27</ele>
        <time>2018-04-23T14:57:30Z</time>
      </trkpt>
      <trkpt lat="36.68572" lon="-4.44455933">
        <ele>-30</ele>
        <time>2018-04-23T14:57:31Z</time>
      </trkpt>
      <trkpt lat="36.68570833" lon="-4.44456633">
        <ele>-30</ele>
        <time>2018-04-23T14:57:32Z</time>
      </trkpt>
      <trkpt lat="36.6857" lon="-4.444572">
        <ele>-30</ele>
        <time>2018-04-23T14:57:33Z</time>
      </trkpt>
      <trkpt lat="36.68569167" lon="-4.44457833">
        <ele>-30</ele>
        <time>2018-04-23T14:57:34Z</time>
      </trkpt>
      <trkpt lat="36.68568333" lon="-4.44458567">
        <ele>-30</ele>
        <time>2018-04-23T14:57:35Z</time>
      </trkpt>
      <trkpt lat="36.685675" lon="-4.44459367">
        <ele>-30</ele>
        <time>2018-04-23T14:57:36Z</time>
      </trkpt>
      <trkpt lat="36.68566667" lon="-4.44460067">
        <ele>-30</ele>
        <time>2018-04-23T14:57:37Z</time>
      </trkpt>
      <trkpt lat="36.685655" lon="-4.44461067">
        <ele>-30</ele>
        <time>2018-04-23T14:57:38Z</time>
      </trkpt>
      <trkpt lat="36.68564333" lon="-4.44462">
        <ele>-31</ele>
        <time>2018-04-23T14:57:39Z</time>
      </trkpt>
      <trkpt lat="36.68563333" lon="-4.44462833">
        <ele>-31</ele>
        <time>2018-04-23T14:57:40Z</time>
      </trkpt>
      <trkpt lat="36.68562333" lon="-4.444636">
        <ele>-31</ele>
        <time>2018-04-23T14:57:41Z</time>
      </trkpt>
      <trkpt lat="36.68561167" lon="-4.444645">
        <ele>-31</ele>
        <time>2018-04-23T14:57:42Z</time>
      </trkpt>
      <trkpt lat="36.68560333" lon="-4.444652">
        <ele>-31</ele>
        <time>2018-04-23T14:57:43Z</time>
      </trkpt>
      <trkpt lat="36.68559667" lon="-4.44465833">
        <ele>-31</ele>
        <time>2018-04-23T14:57:46Z</time>
      </trkpt>
      <trkpt lat="36.68559" lon="-4.444665">
        <ele>-31</ele>
        <time>2018-04-23T14:57:46Z</time>
      </trkpt>
      <trkpt lat="36.68558" lon="-4.44467367">
        <ele>-31</ele>
        <time>2018-04-23T14:57:46Z</time>
      </trkpt>
      <trkpt lat="36.68557" lon="-4.44468267">
        <ele>-31</ele>
        <time>2018-04-23T14:57:47Z</time>
      </trkpt>
      <trkpt lat="36.68556167" lon="-4.44468967">
        <ele>-31</ele>
        <time>2018-04-23T14:57:48Z</time>
      </trkpt>
      <trkpt lat="36.68555667" lon="-4.44469433">
        <ele>-31</ele>
        <time>2018-04-23T14:57:49Z</time>
      </trkpt>
      <trkpt lat="36.68555167" lon="-4.44469967">
        <ele>-31</ele>
        <time>2018-04-23T14:57:50Z</time>
      </trkpt>
      <trkpt lat="36.68554333" lon="-4.44470667">
        <ele>-31</ele>
        <time>2018-04-23T14:57:51Z</time>
      </trkpt>
      <trkpt lat="36.68553333" lon="-4.44471533">
        <ele>-31</ele>
        <time>2018-04-23T14:57:52Z</time>
      </trkpt>
      <trkpt lat="36.68552167" lon="-4.44472467">
        <ele>-31</ele>
        <time>2018-04-23T14:57:53Z</time>
      </trkpt>
      <trkpt lat="36.68551" lon="-4.44473333">
        <ele>-31</ele>
        <time>2018-04-23T14:57:54Z</time>
      </trkpt>
      <trkpt lat="36.6855" lon="-4.44473967">
        <ele>-31</ele>
        <time>2018-04-23T14:57:55Z</time>
      </trkpt>
      <trkpt lat="36.68549" lon="-4.444747">
        <ele>-31</ele>
        <time>2018-04-23T14:57:56Z</time>
      </trkpt>
      <trkpt lat="36.68548" lon="-4.44475433">
        <ele>-31</ele>
        <time>2018-04-23T14:57:57Z</time>
      </trkpt>
      <trkpt lat="36.68547167" lon="-4.444761">
        <ele>-31</ele>
        <time>2018-04-23T14:57:58Z</time>
      </trkpt>
      <trkpt lat="36.68546167" lon="-4.44476833">
        <ele>-31</ele>
        <time>2018-04-23T14:57:59Z</time>
      </trkpt>
      <trkpt lat="36.68545167" lon="-4.44477567">
        <ele>-31</ele>
        <time>2018-04-23T14:58:00Z</time>
      </trkpt>
      <trkpt lat="36.68544" lon="-4.44478467">
        <ele>-31</ele>
        <time>2018-04-23T14:58:01Z</time>
      </trkpt>
      <trkpt lat="36.68543" lon="-4.444793">
        <ele>-31</ele>
        <time>2018-04-23T14:58:02Z</time>
      </trkpt>
      <trkpt lat="36.68541667" lon="-4.44480333">
        <ele>-31</ele>
        <time>2018-04-23T14:58:03Z</time>
      </trkpt>
      <trkpt lat="36.68540167" lon="-4.44481467">
        <ele>-31</ele>
        <time>2018-04-23T14:58:04Z</time>
      </trkpt>
      <trkpt lat="36.68539167" lon="-4.44482267">
        <ele>-31</ele>
        <time>2018-04-23T14:58:05Z</time>
      </trkpt>
      <trkpt lat="36.68538833" lon="-4.44483333">
        <ele>-31</ele>
        <time>2018-04-23T14:58:06Z</time>
      </trkpt>
      <trkpt lat="36.68539" lon="-4.444845">
        <ele>-31</ele>
        <time>2018-04-23T14:58:07Z</time>
      </trkpt>
      <trkpt lat="36.68539333" lon="-4.44485667">
        <ele>-29</ele>
        <time>2018-04-23T14:58:08Z</time>
      </trkpt>
      <trkpt lat="36.68539333" lon="-4.44486833">
        <ele>-29</ele>
        <time>2018-04-23T14:58:09Z</time>
      </trkpt>
      <trkpt lat="36.685395" lon="-4.44488667">
        <ele>-29</ele>
        <time>2018-04-23T14:58:10Z</time>
      </trkpt>
      <trkpt lat="36.685395" lon="-4.44490333">
        <ele>-29</ele>
        <time>2018-04-23T14:58:11Z</time>
      </trkpt>
      <trkpt lat="36.685394" lon="-4.44491833">
        <ele>-29</ele>
        <time>2018-04-23T14:58:12Z</time>
      </trkpt>
      <trkpt lat="36.68539367" lon="-4.444935">
        <ele>-32</ele>
        <time>2018-04-23T14:58:13Z</time>
      </trkpt>
      <trkpt lat="36.68539233" lon="-4.44495167">
        <ele>-32</ele>
        <time>2018-04-23T14:58:14Z</time>
      </trkpt>
      <trkpt lat="36.685392" lon="-4.44496833">
        <ele>-30</ele>
        <time>2018-04-23T14:58:15Z</time>
      </trkpt>
      <trkpt lat="36.68538933" lon="-4.444985">
        <ele>-30</ele>
        <time>2018-04-23T14:58:16Z</time>
      </trkpt>
      <trkpt lat="36.685386" lon="-4.445">
        <ele>-30</ele>
        <time>2018-04-23T14:58:17Z</time>
      </trkpt>
      <trkpt lat="36.68537833" lon="-4.445015">
        <ele>-32</ele>
        <time>2018-04-23T14:58:18Z</time>
      </trkpt>
      <trkpt lat="36.68537333" lon="-4.44503167">
        <ele>-32</ele>
        <time>2018-04-23T14:58:19Z</time>
      </trkpt>
      <trkpt lat="36.68536833" lon="-4.44504667">
        <ele>-32</ele>
        <time>2018-04-23T14:58:20Z</time>
      </trkpt>
      <trkpt lat="36.68536333" lon="-4.44506167">
        <ele>-32</ele>
        <time>2018-04-23T14:58:21Z</time>
      </trkpt>
      <trkpt lat="36.68535767" lon="-4.44507667">
        <ele>-32</ele>
        <time>2018-04-23T14:58:21Z</time>
      </trkpt>
      <trkpt lat="36.685352" lon="-4.44509">
        <ele>-30</ele>
        <time>2018-04-23T14:58:22Z</time>
      </trkpt>
      <trkpt lat="36.68534667" lon="-4.44510167">
        <ele>-30</ele>
        <time>2018-04-23T14:58:23Z</time>
      </trkpt>
      <trkpt lat="36.68533967" lon="-4.445115">
        <ele>-30</ele>
        <time>2018-04-23T14:58:24Z</time>
      </trkpt>
      <trkpt lat="36.68533333" lon="-4.44512833">
        <ele>-30</ele>
        <time>2018-04-23T14:58:25Z</time>
      </trkpt>
      <trkpt lat="36.68532667" lon="-4.44514167">
        <ele>-30</ele>
        <time>2018-04-23T14:58:26Z</time>
      </trkpt>
      <trkpt lat="36.68532067" lon="-4.44515333">
        <ele>-30</ele>
        <time>2018-04-23T14:58:27Z</time>
      </trkpt>
      <trkpt lat="36.68531333" lon="-4.44516667">
        <ele>-30</ele>
        <time>2018-04-23T14:58:28Z</time>
      </trkpt>
      <trkpt lat="36.68530667" lon="-4.44517667">
        <ele>-30</ele>
        <time>2018-04-23T14:58:29Z</time>
      </trkpt>
      <trkpt lat="36.68528833" lon="-4.445185">
        <ele>-30</ele>
        <time>2018-04-23T14:58:30Z</time>
      </trkpt>
      <trkpt lat="36.685278" lon="-4.44519333">
        <ele>-30</ele>
        <time>2018-04-23T14:58:31Z</time>
      </trkpt>
      <trkpt lat="36.68526767" lon="-4.445205">
        <ele>-30</ele>
        <time>2018-04-23T14:58:32Z</time>
      </trkpt>
      <trkpt lat="36.68525667" lon="-4.44521167">
        <ele>-30</ele>
        <time>2018-04-23T14:58:33Z</time>
      </trkpt>
      <trkpt lat="36.68524667" lon="-4.44521633">
        <ele>-30</ele>
        <time>2018-04-23T14:58:34Z</time>
      </trkpt>
      <trkpt lat="36.68523333" lon="-4.445223">
        <ele>-30</ele>
        <time>2018-04-23T14:58:35Z</time>
      </trkpt>
      <trkpt lat="36.68522" lon="-4.44522867">
        <ele>-30</ele>
        <time>2018-04-23T14:58:36Z</time>
      </trkpt>
      <trkpt lat="36.68520833" lon="-4.44523467">
        <ele>-30</ele>
        <time>2018-04-23T14:58:37Z</time>
      </trkpt>
      <trkpt lat="36.68519833" lon="-4.44524033">
        <ele>-30</ele>
        <time>2018-04-23T14:58:38Z</time>
      </trkpt>
      <trkpt lat="36.68518833" lon="-4.44524633">
        <ele>-30</ele>
        <time>2018-04-23T14:58:39Z</time>
      </trkpt>
      <trkpt lat="36.68517667" lon="-4.44525333">
        <ele>-30</ele>
        <time>2018-04-23T14:58:40Z</time>
      </trkpt>
      <trkpt lat="36.685165" lon="-4.44526067">
        <ele>-30</ele>
        <time>2018-04-23T14:58:41Z</time>
      </trkpt>
      <trkpt lat="36.68515167" lon="-4.44526833">
        <ele>-30</ele>
        <time>2018-04-23T14:58:42Z</time>
      </trkpt>
      <trkpt lat="36.68513833" lon="-4.44527467">
        <ele>-30</ele>
        <time>2018-04-23T14:58:43Z</time>
      </trkpt>
      <trkpt lat="36.68512667" lon="-4.44528">
        <ele>-30</ele>
        <time>2018-04-23T14:58:44Z</time>
      </trkpt>
      <trkpt lat="36.685115" lon="-4.44528533">
        <ele>-30</ele>
        <time>2018-04-23T14:58:45Z</time>
      </trkpt>
      <trkpt lat="36.68510167" lon="-4.44529167">
        <ele>-30</ele>
        <time>2018-04-23T14:58:46Z</time>
      </trkpt>
      <trkpt lat="36.68508667" lon="-4.44529833">
        <ele>-30</ele>
        <time>2018-04-23T14:58:47Z</time>
      </trkpt>
      <trkpt lat="36.68507667" lon="-4.445304">
        <ele>-30</ele>
        <time>2018-04-23T14:58:48Z</time>
      </trkpt>
      <trkpt lat="36.685065" lon="-4.44531">
        <ele>-30</ele>
        <time>2018-04-23T14:58:49Z</time>
      </trkpt>
      <trkpt lat="36.685055" lon="-4.44531567">
        <ele>-30</ele>
        <time>2018-04-23T14:58:50Z</time>
      </trkpt>
      <trkpt lat="36.68504333" lon="-4.44532167">
        <ele>-30</ele>
        <time>2018-04-23T14:58:51Z</time>
      </trkpt>
      <trkpt lat="36.68503333" lon="-4.44532767">
        <ele>-30</ele>
        <time>2018-04-23T14:58:52Z</time>
      </trkpt>
      <trkpt lat="36.68502167" lon="-4.44533367">
        <ele>-30</ele>
        <time>2018-04-23T14:58:53Z</time>
      </trkpt>
      <trkpt lat="36.68501167" lon="-4.445339">
        <ele>-30</ele>
        <time>2018-04-23T14:58:54Z</time>
      </trkpt>
      <trkpt lat="36.68499833" lon="-4.44534567">
        <ele>-30</ele>
        <time>2018-04-23T14:58:55Z</time>
      </trkpt>
      <trkpt lat="36.68498833" lon="-4.445351">
        <ele>-30</ele>
        <time>2018-04-23T14:58:56Z</time>
      </trkpt>
      <trkpt lat="36.68497667" lon="-4.445357">
        <ele>-30</ele>
        <time>2018-04-23T14:58:57Z</time>
      </trkpt>
      <trkpt lat="36.684965" lon="-4.445364">
        <ele>-30</ele>
        <time>2018-04-23T14:58:58Z</time>
      </trkpt>
      <trkpt lat="36.68495333" lon="-4.445371">
        <ele>-30</ele>
        <time>2018-04-23T14:58:59Z</time>
      </trkpt>
      <trkpt lat="36.68494167" lon="-4.44537767">
        <ele>-30</ele>
        <time>2018-04-23T14:59:00Z</time>
      </trkpt>
      <trkpt lat="36.68492833" lon="-4.44538567">
        <ele>-30</ele>
        <time>2018-04-23T14:59:01Z</time>
      </trkpt>
      <trkpt lat="36.68491833" lon="-4.44539133">
        <ele>-30</ele>
        <time>2018-04-23T14:59:02Z</time>
      </trkpt>
      <trkpt lat="36.68490833" lon="-4.44539733">
        <ele>-30</ele>
        <time>2018-04-23T14:59:03Z</time>
      </trkpt>
      <trkpt lat="36.68489833" lon="-4.44540367">
        <ele>-30</ele>
        <time>2018-04-23T14:59:04Z</time>
      </trkpt>
      <trkpt lat="36.68488833" lon="-4.44541">
        <ele>-30</ele>
        <time>2018-04-23T14:59:05Z</time>
      </trkpt>
      <trkpt lat="36.68487667" lon="-4.44541733">
        <ele>-30</ele>
        <time>2018-04-23T14:59:06Z</time>
      </trkpt>
      <trkpt lat="36.684865" lon="-4.445425">
        <ele>-30</ele>
        <time>2018-04-23T14:59:07Z</time>
      </trkpt>
      <trkpt lat="36.68485667" lon="-4.44543033">
        <ele>-30</ele>
        <time>2018-04-23T14:59:08Z</time>
      </trkpt>
      <trkpt lat="36.68484333" lon="-4.445439">
        <ele>-30</ele>
        <time>2018-04-23T14:59:09Z</time>
      </trkpt>
      <trkpt lat="36.684835" lon="-4.445445">
        <ele>-30</ele>
        <time>2018-04-23T14:59:10Z</time>
      </trkpt>
      <trkpt lat="36.68482333" lon="-4.44545267">
        <ele>-30</ele>
        <time>2018-04-23T14:59:11Z</time>
      </trkpt>
      <trkpt lat="36.68481333" lon="-4.44545967">
        <ele>-30</ele>
        <time>2018-04-23T14:59:12Z</time>
      </trkpt>
      <trkpt lat="36.68480333" lon="-4.44546767">
        <ele>-30</ele>
        <time>2018-04-23T14:59:13Z</time>
      </trkpt>
      <trkpt lat="36.68479667" lon="-4.44547367">
        <ele>-30</ele>
        <time>2018-04-23T14:59:14Z</time>
      </trkpt>
      <trkpt lat="36.68479" lon="-4.44548033">
        <ele>-30</ele>
        <time>2018-04-23T14:59:15Z</time>
      </trkpt>
      <trkpt lat="36.68478167" lon="-4.44552333">
        <ele>-30</ele>
        <time>2018-04-23T14:59:16Z</time>
      </trkpt>
      <trkpt lat="36.68477833" lon="-4.44553667">
        <ele>-30</ele>
        <time>2018-04-23T14:59:17Z</time>
      </trkpt>
      <trkpt lat="36.68477833" lon="-4.445555">
        <ele>-30</ele>
        <time>2018-04-23T14:59:18Z</time>
      </trkpt>
      <trkpt lat="36.68478333" lon="-4.445575">
        <ele>-30</ele>
        <time>2018-04-23T14:59:19Z</time>
      </trkpt>
      <trkpt lat="36.68478833" lon="-4.445595">
        <ele>-31</ele>
        <time>2018-04-23T14:59:20Z</time>
      </trkpt>
      <trkpt lat="36.68479833" lon="-4.44561">
        <ele>-31</ele>
        <time>2018-04-23T14:59:21Z</time>
      </trkpt>
      <trkpt lat="36.684805" lon="-4.445625">
        <ele>-31</ele>
        <time>2018-04-23T14:59:22Z</time>
      </trkpt>
      <trkpt lat="36.68481167" lon="-4.44564">
        <ele>-31</ele>
        <time>2018-04-23T14:59:23Z</time>
      </trkpt>
      <trkpt lat="36.68481667" lon="-4.445655">
        <ele>-31</ele>
        <time>2018-04-23T14:59:24Z</time>
      </trkpt>
      <trkpt lat="36.68482167" lon="-4.44566833">
        <ele>-31</ele>
        <time>2018-04-23T14:59:25Z</time>
      </trkpt>
      <trkpt lat="36.684825" lon="-4.44568167">
        <ele>-31</ele>
        <time>2018-04-23T14:59:26Z</time>
      </trkpt>
      <trkpt lat="36.68482267" lon="-4.44569333">
        <ele>-31</ele>
        <time>2018-04-23T14:59:27Z</time>
      </trkpt>
      <trkpt lat="36.68481967" lon="-4.44570833">
        <ele>-31</ele>
        <time>2018-04-23T14:59:28Z</time>
      </trkpt>
      <trkpt lat="36.68481167" lon="-4.44572333">
        <ele>-31</ele>
        <time>2018-04-23T14:59:29Z</time>
      </trkpt>
      <trkpt lat="36.68480333" lon="-4.445735">
        <ele>-31</ele>
        <time>2018-04-23T14:59:30Z</time>
      </trkpt>
      <trkpt lat="36.68479333" lon="-4.445745">
        <ele>-31</ele>
        <time>2018-04-23T14:59:31Z</time>
      </trkpt>
      <trkpt lat="36.68478333" lon="-4.44575333">
        <ele>-31</ele>
        <time>2018-04-23T14:59:32Z</time>
      </trkpt>
      <trkpt lat="36.68477333" lon="-4.44575833">
        <ele>-31</ele>
        <time>2018-04-23T14:59:33Z</time>
      </trkpt>
      <trkpt lat="36.68476167" lon="-4.445765">
        <ele>-31</ele>
        <time>2018-04-23T14:59:34Z</time>
      </trkpt>
      <trkpt lat="36.68475167" lon="-4.44577333">
        <ele>-31</ele>
        <time>2018-04-23T14:59:35Z</time>
      </trkpt>
      <trkpt lat="36.68474" lon="-4.44578">
        <ele>-31</ele>
        <time>2018-04-23T14:59:36Z</time>
      </trkpt>
      <trkpt lat="36.68472667" lon="-4.44578833">
        <ele>-31</ele>
        <time>2018-04-23T14:59:37Z</time>
      </trkpt>
      <trkpt lat="36.684715" lon="-4.445795">
        <ele>-31</ele>
        <time>2018-04-23T14:59:38Z</time>
      </trkpt>
      <trkpt lat="36.68470333" lon="-4.44580167">
        <ele>-31</ele>
        <time>2018-04-23T14:59:39Z</time>
      </trkpt>
      <trkpt lat="36.68469" lon="-4.445807">
        <ele>-31</ele>
        <time>2018-04-23T14:59:40Z</time>
      </trkpt>
      <trkpt lat="36.68467667" lon="-4.44581267">
        <ele>-31</ele>
        <time>2018-04-23T14:59:41Z</time>
      </trkpt>
      <trkpt lat="36.684665" lon="-4.44581733">
        <ele>-31</ele>
        <time>2018-04-23T14:59:42Z</time>
      </trkpt>
      <trkpt lat="36.68465333" lon="-4.44582267">
        <ele>-31</ele>
        <time>2018-04-23T14:59:43Z</time>
      </trkpt>
      <trkpt lat="36.68464" lon="-4.445829">
        <ele>-31</ele>
        <time>2018-04-23T14:59:44Z</time>
      </trkpt>
      <trkpt lat="36.68462833" lon="-4.445835">
        <ele>-31</ele>
        <time>2018-04-23T14:59:45Z</time>
      </trkpt>
      <trkpt lat="36.68461667" lon="-4.445841">
        <ele>-31</ele>
        <time>2018-04-23T14:59:46Z</time>
      </trkpt>
      <trkpt lat="36.68460167" lon="-4.44584767">
        <ele>-31</ele>
        <time>2018-04-23T14:59:47Z</time>
      </trkpt>
      <trkpt lat="36.68459167" lon="-4.44585233">
        <ele>-31</ele>
        <time>2018-04-23T14:59:48Z</time>
      </trkpt>
      <trkpt lat="36.68458" lon="-4.445859">
        <ele>-31</ele>
        <time>2018-04-23T14:59:49Z</time>
      </trkpt>
      <trkpt lat="36.68457" lon="-4.44586467">
        <ele>-31</ele>
        <time>2018-04-23T14:59:50Z</time>
      </trkpt>
      <trkpt lat="36.68455833" lon="-4.44587167">
        <ele>-31</ele>
        <time>2018-04-23T14:59:51Z</time>
      </trkpt>
      <trkpt lat="36.68455" lon="-4.44587833">
        <ele>-31</ele>
        <time>2018-04-23T14:59:52Z</time>
      </trkpt>
      <trkpt lat="36.68453833" lon="-4.445886">
        <ele>-31</ele>
        <time>2018-04-23T14:59:53Z</time>
      </trkpt>
      <trkpt lat="36.68452667" lon="-4.44589367">
        <ele>-31</ele>
        <time>2018-04-23T14:59:54Z</time>
      </trkpt>
      <trkpt lat="36.684515" lon="-4.445901">
        <ele>-31</ele>
        <time>2018-04-23T14:59:55Z</time>
      </trkpt>
      <trkpt lat="36.68450167" lon="-4.445909">
        <ele>-31</ele>
        <time>2018-04-23T14:59:56Z</time>
      </trkpt>
      <trkpt lat="36.68449" lon="-4.44591633">
        <ele>-31</ele>
        <time>2018-04-23T14:59:57Z</time>
      </trkpt>
      <trkpt lat="36.68447833" lon="-4.445924">
        <ele>-31</ele>
        <time>2018-04-23T14:59:58Z</time>
      </trkpt>
      <trkpt lat="36.68446667" lon="-4.44593133">
        <ele>-31</ele>
        <time>2018-04-23T14:59:59Z</time>
      </trkpt>
      <trkpt lat="36.684455" lon="-4.44593867">
        <ele>-31</ele>
        <time>2018-04-23T15:00:00Z</time>
      </trkpt>
      <trkpt lat="36.68444333" lon="-4.445946">
        <ele>-31</ele>
        <time>2018-04-23T15:00:01Z</time>
      </trkpt>
      <trkpt lat="36.68443333" lon="-4.44595267">
        <ele>-31</ele>
        <time>2018-04-23T15:00:02Z</time>
      </trkpt>
      <trkpt lat="36.68442667" lon="-4.44595833">
        <ele>-31</ele>
        <time>2018-04-23T15:00:03Z</time>
      </trkpt>
      <trkpt lat="36.68441833" lon="-4.44596633">
        <ele>-31</ele>
        <time>2018-04-23T15:00:04Z</time>
      </trkpt>
      <trkpt lat="36.68441667" lon="-4.44600167">
        <ele>-31</ele>
        <time>2018-04-23T15:00:05Z</time>
      </trkpt>
      <trkpt lat="36.68441833" lon="-4.44602">
        <ele>-31</ele>
        <time>2018-04-23T15:00:06Z</time>
      </trkpt>
      <trkpt lat="36.68441833" lon="-4.44603667">
        <ele>-31</ele>
        <time>2018-04-23T15:00:07Z</time>
      </trkpt>
      <trkpt lat="36.68442" lon="-4.446055">
        <ele>-31</ele>
        <time>2018-04-23T15:00:08Z</time>
      </trkpt>
      <trkpt lat="36.68442333" lon="-4.44607333">
        <ele>-31</ele>
        <time>2018-04-23T15:00:09Z</time>
      </trkpt>
      <trkpt lat="36.684425" lon="-4.44608833">
        <ele>-31</ele>
        <time>2018-04-23T15:00:10Z</time>
      </trkpt>
      <trkpt lat="36.68443" lon="-4.44610167">
        <ele>-31</ele>
        <time>2018-04-23T15:00:11Z</time>
      </trkpt>
      <trkpt lat="36.68443167" lon="-4.44611">
        <ele>-31</ele>
        <time>2018-04-23T15:00:12Z</time>
      </trkpt>
      <trkpt lat="36.68443833" lon="-4.44611333">
        <ele>-31</ele>
        <time>2018-04-23T15:00:13Z</time>
      </trkpt>
      <trkpt lat="36.68444" lon="-4.44611833">
        <ele>-31</ele>
        <time>2018-04-23T15:00:14Z</time>
      </trkpt>
      <trkpt lat="36.684439" lon="-4.44611833">
        <ele>-31</ele>
        <time>2018-04-23T15:00:15Z</time>
      </trkpt>
      <trkpt lat="36.68443767" lon="-4.44611833">
        <ele>-31</ele>
        <time>2018-04-23T15:00:16Z</time>
      </trkpt>
      <trkpt lat="36.684431" lon="-4.44612">
        <ele>-31</ele>
        <time>2018-04-23T15:00:17Z</time>
      </trkpt>
      <trkpt lat="36.684431" lon="-4.44612">
        <ele>-31</ele>
        <time>2018-04-23T15:00:18Z</time>
      </trkpt>
      <trkpt lat="36.68443533" lon="-4.44611833">
        <ele>-31</ele>
        <time>2018-04-23T15:00:19Z</time>
      </trkpt>
      <trkpt lat="36.684475" lon="-4.44621667">
        <ele>-32</ele>
        <time>2018-04-23T15:00:37Z</time>
      </trkpt>
      <trkpt lat="36.684485" lon="-4.446218">
        <ele>-32</ele>
        <time>2018-04-23T15:00:38Z</time>
      </trkpt>
      <trkpt lat="36.68449167" lon="-4.446217">
        <ele>-32</ele>
        <time>2018-04-23T15:00:39Z</time>
      </trkpt>
      <trkpt lat="36.68449167" lon="-4.44621533">
        <ele>-30</ele>
        <time>2018-04-23T15:00:40Z</time>
      </trkpt>
      <trkpt lat="36.68449167" lon="-4.44621333">
        <ele>-30</ele>
        <time>2018-04-23T15:00:41Z</time>
      </trkpt>
      <trkpt lat="36.68449" lon="-4.446205">
        <ele>-30</ele>
        <time>2018-04-23T15:00:42Z</time>
      </trkpt>
      <trkpt lat="36.68448833" lon="-4.446205">
        <ele>-30</ele>
        <time>2018-04-23T15:00:43Z</time>
      </trkpt>
      <trkpt lat="36.68448433" lon="-4.44620667">
        <ele>-30</ele>
        <time>2018-04-23T15:00:44Z</time>
      </trkpt>
      <trkpt lat="36.68452333" lon="-4.44642667">
        <ele>-30</ele>
        <time>2018-04-23T15:01:05Z</time>
      </trkpt>
      <trkpt lat="36.68451667" lon="-4.44644167">
        <ele>-30</ele>
        <time>2018-04-23T15:01:06Z</time>
      </trkpt>
      <trkpt lat="36.68451" lon="-4.44645833">
        <ele>-30</ele>
        <time>2018-04-23T15:01:07Z</time>
      </trkpt>
      <trkpt lat="36.68450167" lon="-4.44647333">
        <ele>-30</ele>
        <time>2018-04-23T15:01:08Z</time>
      </trkpt>
      <trkpt lat="36.68449167" lon="-4.446485">
        <ele>-30</ele>
        <time>2018-04-23T15:01:09Z</time>
      </trkpt>
      <trkpt lat="36.68448167" lon="-4.44649833">
        <ele>-30</ele>
        <time>2018-04-23T15:01:10Z</time>
      </trkpt>
      <trkpt lat="36.68447" lon="-4.44650833">
        <ele>-30</ele>
        <time>2018-04-23T15:01:11Z</time>
      </trkpt>
      <trkpt lat="36.684459" lon="-4.44652167">
        <ele>-30</ele>
        <time>2018-04-23T15:01:12Z</time>
      </trkpt>
      <trkpt lat="36.68445133" lon="-4.44653">
        <ele>-30</ele>
        <time>2018-04-23T15:01:13Z</time>
      </trkpt>
      <trkpt lat="36.684443" lon="-4.44654333">
        <ele>-30</ele>
        <time>2018-04-23T15:01:14Z</time>
      </trkpt>
      <trkpt lat="36.68443233" lon="-4.44655667">
        <ele>-30</ele>
        <time>2018-04-23T15:01:15Z</time>
      </trkpt>
      <trkpt lat="36.68442333" lon="-4.44657">
        <ele>-30</ele>
        <time>2018-04-23T15:01:16Z</time>
      </trkpt>
      <trkpt lat="36.68441533" lon="-4.44658">
        <ele>-30</ele>
        <time>2018-04-23T15:01:17Z</time>
      </trkpt>
      <trkpt lat="36.684405" lon="-4.44659167">
        <ele>-30</ele>
        <time>2018-04-23T15:01:18Z</time>
      </trkpt>
      <trkpt lat="36.68439" lon="-4.44660333">
        <ele>-28</ele>
        <time>2018-04-23T15:01:19Z</time>
      </trkpt>
      <trkpt lat="36.68438" lon="-4.446608">
        <ele>-28</ele>
        <time>2018-04-23T15:01:20Z</time>
      </trkpt>
      <trkpt lat="36.68436833" lon="-4.44661767">
        <ele>-28</ele>
        <time>2018-04-23T15:01:21Z</time>
      </trkpt>
      <trkpt lat="36.68435667" lon="-4.446625">
        <ele>-28</ele>
        <time>2018-04-23T15:01:22Z</time>
      </trkpt>
      <trkpt lat="36.684345" lon="-4.446632">
        <ele>-28</ele>
        <time>2018-04-23T15:01:23Z</time>
      </trkpt>
      <trkpt lat="36.68433333" lon="-4.44664033">
        <ele>-28</ele>
        <time>2018-04-23T15:01:24Z</time>
      </trkpt>
      <trkpt lat="36.68432167" lon="-4.44665">
        <ele>-28</ele>
        <time>2018-04-23T15:01:25Z</time>
      </trkpt>
      <trkpt lat="36.68430833" lon="-4.44665867">
        <ele>-28</ele>
        <time>2018-04-23T15:01:26Z</time>
      </trkpt>
      <trkpt lat="36.68429167" lon="-4.446667">
        <ele>-28</ele>
        <time>2018-04-23T15:01:27Z</time>
      </trkpt>
      <trkpt lat="36.68428167" lon="-4.44667333">
        <ele>-28</ele>
        <time>2018-04-23T15:01:28Z</time>
      </trkpt>
      <trkpt lat="36.68427333" lon="-4.44668033">
        <ele>-28</ele>
        <time>2018-04-23T15:01:29Z</time>
      </trkpt>
      <trkpt lat="36.68426667" lon="-4.44668633">
        <ele>-28</ele>
        <time>2018-04-23T15:01:30Z</time>
      </trkpt>
      <trkpt lat="36.68426833" lon="-4.44670667">
        <ele>-28</ele>
        <time>2018-04-23T15:01:31Z</time>
      </trkpt>
      <trkpt lat="36.684275" lon="-4.44672333">
        <ele>-28</ele>
        <time>2018-04-23T15:01:32Z</time>
      </trkpt>
      <trkpt lat="36.68428333" lon="-4.446735">
        <ele>-28</ele>
        <time>2018-04-23T15:01:33Z</time>
      </trkpt>
      <trkpt lat="36.68429333" lon="-4.44675333">
        <ele>-28</ele>
        <time>2018-04-23T15:01:34Z</time>
      </trkpt>
      <trkpt lat="36.68430167" lon="-4.44676667">
        <ele>-28</ele>
        <time>2018-04-23T15:01:35Z</time>
      </trkpt>
      <trkpt lat="36.68430833" lon="-4.44678167">
        <ele>-28</ele>
        <time>2018-04-23T15:01:36Z</time>
      </trkpt>
      <trkpt lat="36.684315" lon="-4.44679833">
        <ele>-30</ele>
        <time>2018-04-23T15:01:37Z</time>
      </trkpt>
      <trkpt lat="36.684325" lon="-4.44680667">
        <ele>-30</ele>
        <time>2018-04-23T15:01:38Z</time>
      </trkpt>
      <trkpt lat="36.68433167" lon="-4.44681833">
        <ele>-30</ele>
        <time>2018-04-23T15:01:39Z</time>
      </trkpt>
      <trkpt lat="36.684337" lon="-4.446835">
        <ele>-30</ele>
        <time>2018-04-23T15:01:40Z</time>
      </trkpt>
      <trkpt lat="36.68434233" lon="-4.44685167">
        <ele>-29</ele>
        <time>2018-04-23T15:01:41Z</time>
      </trkpt>
      <trkpt lat="36.68434667" lon="-4.446875">
        <ele>-29</ele>
        <time>2018-04-23T15:01:42Z</time>
      </trkpt>
      <trkpt lat="36.68435033" lon="-4.44688833">
        <ele>-29</ele>
        <time>2018-04-23T15:01:43Z</time>
      </trkpt>
      <trkpt lat="36.68435567" lon="-4.44690167">
        <ele>-29</ele>
        <time>2018-04-23T15:01:44Z</time>
      </trkpt>
      <trkpt lat="36.68436133" lon="-4.44691333">
        <ele>-29</ele>
        <time>2018-04-23T15:01:45Z</time>
      </trkpt>
      <trkpt lat="36.684368" lon="-4.44692833">
        <ele>-29</ele>
        <time>2018-04-23T15:01:46Z</time>
      </trkpt>
      <trkpt lat="36.68437533" lon="-4.44694833">
        <ele>-29</ele>
        <time>2018-04-23T15:01:47Z</time>
      </trkpt>
      <trkpt lat="36.68438167" lon="-4.44696333">
        <ele>-29</ele>
        <time>2018-04-23T15:01:48Z</time>
      </trkpt>
      <trkpt lat="36.684388" lon="-4.44698">
        <ele>-29</ele>
        <time>2018-04-23T15:01:49Z</time>
      </trkpt>
      <trkpt lat="36.68439367" lon="-4.44699667">
        <ele>-29</ele>
        <time>2018-04-23T15:01:50Z</time>
      </trkpt>
      <trkpt lat="36.68439967" lon="-4.44701333">
        <ele>-29</ele>
        <time>2018-04-23T15:01:51Z</time>
      </trkpt>
      <trkpt lat="36.684406" lon="-4.44702833">
        <ele>-29</ele>
        <time>2018-04-23T15:01:52Z</time>
      </trkpt>
      <trkpt lat="36.684412" lon="-4.44704333">
        <ele>-29</ele>
        <time>2018-04-23T15:01:53Z</time>
      </trkpt>
      <trkpt lat="36.684419" lon="-4.44706">
        <ele>-29</ele>
        <time>2018-04-23T15:01:54Z</time>
      </trkpt>
      <trkpt lat="36.684426" lon="-4.44707833">
        <ele>-29</ele>
        <time>2018-04-23T15:01:55Z</time>
      </trkpt>
      <trkpt lat="36.68443267" lon="-4.447095">
        <ele>-29</ele>
        <time>2018-04-23T15:01:56Z</time>
      </trkpt>
      <trkpt lat="36.68443933" lon="-4.44711">
        <ele>-29</ele>
        <time>2018-04-23T15:01:57Z</time>
      </trkpt>
      <trkpt lat="36.684445" lon="-4.44712167">
        <ele>-29</ele>
        <time>2018-04-23T15:01:58Z</time>
      </trkpt>
      <trkpt lat="36.684451" lon="-4.44713333">
        <ele>-29</ele>
        <time>2018-04-23T15:01:59Z</time>
      </trkpt>
      <trkpt lat="36.68445767" lon="-4.44714667">
        <ele>-29</ele>
        <time>2018-04-23T15:02:00Z</time>
      </trkpt>
      <trkpt lat="36.684464" lon="-4.44715833">
        <ele>-29</ele>
        <time>2018-04-23T15:02:01Z</time>
      </trkpt>
      <trkpt lat="36.684472" lon="-4.44717833">
        <ele>-29</ele>
        <time>2018-04-23T15:02:02Z</time>
      </trkpt>
      <trkpt lat="36.68447833" lon="-4.44719333">
        <ele>-29</ele>
        <time>2018-04-23T15:02:03Z</time>
      </trkpt>
      <trkpt lat="36.68448567" lon="-4.44721167">
        <ele>-29</ele>
        <time>2018-04-23T15:02:04Z</time>
      </trkpt>
      <trkpt lat="36.68448967" lon="-4.44722167">
        <ele>-29</ele>
        <time>2018-04-23T15:02:05Z</time>
      </trkpt>
      <trkpt lat="36.684495" lon="-4.447235">
        <ele>-29</ele>
        <time>2018-04-23T15:02:06Z</time>
      </trkpt>
      <trkpt lat="36.6845" lon="-4.44724667">
        <ele>-29</ele>
        <time>2018-04-23T15:02:07Z</time>
      </trkpt>
      <trkpt lat="36.68450567" lon="-4.44725833">
        <ele>-29</ele>
        <time>2018-04-23T15:02:08Z</time>
      </trkpt>
      <trkpt lat="36.68451033" lon="-4.44727">
        <ele>-29</ele>
        <time>2018-04-23T15:02:09Z</time>
      </trkpt>
      <trkpt lat="36.684519" lon="-4.44729">
        <ele>-29</ele>
        <time>2018-04-23T15:02:10Z</time>
      </trkpt>
      <trkpt lat="36.68452667" lon="-4.44730667">
        <ele>-29</ele>
        <time>2018-04-23T15:02:11Z</time>
      </trkpt>
      <trkpt lat="36.68453367" lon="-4.44732333">
        <ele>-29</ele>
        <time>2018-04-23T15:02:12Z</time>
      </trkpt>
      <trkpt lat="36.68454167" lon="-4.447345">
        <ele>-29</ele>
        <time>2018-04-23T15:02:13Z</time>
      </trkpt>
      <trkpt lat="36.68454633" lon="-4.44735667">
        <ele>-29</ele>
        <time>2018-04-23T15:02:14Z</time>
      </trkpt>
      <trkpt lat="36.68455167" lon="-4.44737">
        <ele>-29</ele>
        <time>2018-04-23T15:02:15Z</time>
      </trkpt>
      <trkpt lat="36.68455633" lon="-4.44738167">
        <ele>-29</ele>
        <time>2018-04-23T15:02:16Z</time>
      </trkpt>
      <trkpt lat="36.68456033" lon="-4.44739">
        <ele>-29</ele>
        <time>2018-04-23T15:02:17Z</time>
      </trkpt>
      <trkpt lat="36.684566" lon="-4.44740167">
        <ele>-29</ele>
        <time>2018-04-23T15:02:18Z</time>
      </trkpt>
      <trkpt lat="36.68457367" lon="-4.44742">
        <ele>-29</ele>
        <time>2018-04-23T15:02:19Z</time>
      </trkpt>
      <trkpt lat="36.68458233" lon="-4.44744">
        <ele>-29</ele>
        <time>2018-04-23T15:02:20Z</time>
      </trkpt>
      <trkpt lat="36.68459133" lon="-4.44746167">
        <ele>-29</ele>
        <time>2018-04-23T15:02:21Z</time>
      </trkpt>
      <trkpt lat="36.684596" lon="-4.44747667">
        <ele>-29</ele>
        <time>2018-04-23T15:02:22Z</time>
      </trkpt>
      <trkpt lat="36.68460167" lon="-4.44749167">
        <ele>-29</ele>
        <time>2018-04-23T15:02:23Z</time>
      </trkpt>
      <trkpt lat="36.68460967" lon="-4.44751167">
        <ele>-29</ele>
        <time>2018-04-23T15:02:24Z</time>
      </trkpt>
      <trkpt lat="36.68461633" lon="-4.44753167">
        <ele>-29</ele>
        <time>2018-04-23T15:02:25Z</time>
      </trkpt>
      <trkpt lat="36.68462" lon="-4.447545">
        <ele>-29</ele>
        <time>2018-04-23T15:02:26Z</time>
      </trkpt>
      <trkpt lat="36.684627" lon="-4.44756333">
        <ele>-29</ele>
        <time>2018-04-23T15:02:27Z</time>
      </trkpt>
      <trkpt lat="36.68463267" lon="-4.44758167">
        <ele>-29</ele>
        <time>2018-04-23T15:02:28Z</time>
      </trkpt>
      <trkpt lat="36.68463667" lon="-4.44759333">
        <ele>-29</ele>
        <time>2018-04-23T15:02:29Z</time>
      </trkpt>
      <trkpt lat="36.68463967" lon="-4.447605">
        <ele>-29</ele>
        <time>2018-04-23T15:02:30Z</time>
      </trkpt>
      <trkpt lat="36.68464567" lon="-4.44762">
        <ele>-29</ele>
        <time>2018-04-23T15:02:31Z</time>
      </trkpt>
      <trkpt lat="36.684651" lon="-4.44763833">
        <ele>-29</ele>
        <time>2018-04-23T15:02:32Z</time>
      </trkpt>
      <trkpt lat="36.68465433" lon="-4.44765">
        <ele>-29</ele>
        <time>2018-04-23T15:02:33Z</time>
      </trkpt>
      <trkpt lat="36.684659" lon="-4.44766167">
        <ele>-29</ele>
        <time>2018-04-23T15:02:34Z</time>
      </trkpt>
      <trkpt lat="36.684663" lon="-4.44767667">
        <ele>-29</ele>
        <time>2018-04-23T15:02:35Z</time>
      </trkpt>
      <trkpt lat="36.684668" lon="-4.44769">
        <ele>-29</ele>
        <time>2018-04-23T15:02:36Z</time>
      </trkpt>
      <trkpt lat="36.684673" lon="-4.44770667">
        <ele>-29</ele>
        <time>2018-04-23T15:02:36Z</time>
      </trkpt>
      <trkpt lat="36.68467733" lon="-4.44772167">
        <ele>-29</ele>
        <time>2018-04-23T15:02:37Z</time>
      </trkpt>
      <trkpt lat="36.68468067" lon="-4.447735">
        <ele>-29</ele>
        <time>2018-04-23T15:02:38Z</time>
      </trkpt>
      <trkpt lat="36.684685" lon="-4.44774667">
        <ele>-29</ele>
        <time>2018-04-23T15:02:39Z</time>
      </trkpt>
      <trkpt lat="36.684688" lon="-4.44775667">
        <ele>-29</ele>
        <time>2018-04-23T15:02:40Z</time>
      </trkpt>
      <trkpt lat="36.68469133" lon="-4.447765">
        <ele>-29</ele>
        <time>2018-04-23T15:02:41Z</time>
      </trkpt>
      <trkpt lat="36.684697" lon="-4.44778">
        <ele>-29</ele>
        <time>2018-04-23T15:02:42Z</time>
      </trkpt>
      <trkpt lat="36.68469967" lon="-4.44779">
        <ele>-29</ele>
        <time>2018-04-23T15:02:43Z</time>
      </trkpt>
      <trkpt lat="36.68471333" lon="-4.44779833">
        <ele>-29</ele>
        <time>2018-04-23T15:02:44Z</time>
      </trkpt>
      <trkpt lat="36.68472167" lon="-4.44781">
        <ele>-29</ele>
        <time>2018-04-23T15:02:45Z</time>
      </trkpt>
      <trkpt lat="36.68472833" lon="-4.44782133">
        <ele>-29</ele>
        <time>2018-04-23T15:02:46Z</time>
      </trkpt>
      <trkpt lat="36.684735" lon="-4.44784">
        <ele>-29</ele>
        <time>2018-04-23T15:02:47Z</time>
      </trkpt>
      <trkpt lat="36.68474167" lon="-4.44785167">
        <ele>-29</ele>
        <time>2018-04-23T15:02:48Z</time>
      </trkpt>
      <trkpt lat="36.684747" lon="-4.44786667">
        <ele>-29</ele>
        <time>2018-04-23T15:02:49Z</time>
      </trkpt>
      <trkpt lat="36.684752" lon="-4.44788167">
        <ele>-29</ele>
        <time>2018-04-23T15:02:50Z</time>
      </trkpt>
      <trkpt lat="36.684757" lon="-4.447895">
        <ele>-29</ele>
        <time>2018-04-23T15:02:51Z</time>
      </trkpt>
      <trkpt lat="36.68476167" lon="-4.447915">
        <ele>-29</ele>
        <time>2018-04-23T15:02:52Z</time>
      </trkpt>
      <trkpt lat="36.68476567" lon="-4.44793333">
        <ele>-29</ele>
        <time>2018-04-23T15:02:53Z</time>
      </trkpt>
      <trkpt lat="36.68476933" lon="-4.447955">
        <ele>-30</ele>
        <time>2018-04-23T15:02:54Z</time>
      </trkpt>
      <trkpt lat="36.684773" lon="-4.44796833">
        <ele>-30</ele>
        <time>2018-04-23T15:02:55Z</time>
      </trkpt>
      <trkpt lat="36.68477833" lon="-4.44798167">
        <ele>-30</ele>
        <time>2018-04-23T15:02:56Z</time>
      </trkpt>
      <trkpt lat="36.68478333" lon="-4.447995">
        <ele>-30</ele>
        <time>2018-04-23T15:02:57Z</time>
      </trkpt>
      <trkpt lat="36.684789" lon="-4.44801167">
        <ele>-30</ele>
        <time>2018-04-23T15:02:58Z</time>
      </trkpt>
      <trkpt lat="36.68479367" lon="-4.44802333">
        <ele>-30</ele>
        <time>2018-04-23T15:02:59Z</time>
      </trkpt>
      <trkpt lat="36.68479867" lon="-4.44803667">
        <ele>-30</ele>
        <time>2018-04-23T15:03:00Z</time>
      </trkpt>
      <trkpt lat="36.68480467" lon="-4.44805333">
        <ele>-30</ele>
        <time>2018-04-23T15:03:01Z</time>
      </trkpt>
      <trkpt lat="36.68480933" lon="-4.44806667">
        <ele>-30</ele>
        <time>2018-04-23T15:03:02Z</time>
      </trkpt>
      <trkpt lat="36.684815" lon="-4.44808">
        <ele>-30</ele>
        <time>2018-04-23T15:03:03Z</time>
      </trkpt>
      <trkpt lat="36.68482833" lon="-4.44809167">
        <ele>-30</ele>
        <time>2018-04-23T15:03:04Z</time>
      </trkpt>
      <trkpt lat="36.68483833" lon="-4.4481">
        <ele>-30</ele>
        <time>2018-04-23T15:03:05Z</time>
      </trkpt>
      <trkpt lat="36.68484333" lon="-4.44811533">
        <ele>-30</ele>
        <time>2018-04-23T15:03:06Z</time>
      </trkpt>
      <trkpt lat="36.68485167" lon="-4.448131">
        <ele>-30</ele>
        <time>2018-04-23T15:03:07Z</time>
      </trkpt>
      <trkpt lat="36.68485833" lon="-4.44814567">
        <ele>-29</ele>
        <time>2018-04-23T15:03:08Z</time>
      </trkpt>
      <trkpt lat="36.68486167" lon="-4.44816333">
        <ele>-29</ele>
        <time>2018-04-23T15:03:09Z</time>
      </trkpt>
      <trkpt lat="36.684865" lon="-4.44818">
        <ele>-29</ele>
        <time>2018-04-23T15:03:10Z</time>
      </trkpt>
      <trkpt lat="36.68487233" lon="-4.44819333">
        <ele>-29</ele>
        <time>2018-04-23T15:03:11Z</time>
      </trkpt>
      <trkpt lat="36.68487767" lon="-4.44820667">
        <ele>-29</ele>
        <time>2018-04-23T15:03:12Z</time>
      </trkpt>
      <trkpt lat="36.68488167" lon="-4.44821667">
        <ele>-29</ele>
        <time>2018-04-23T15:03:13Z</time>
      </trkpt>
      <trkpt lat="36.68488833" lon="-4.44822667">
        <ele>-29</ele>
        <time>2018-04-23T15:03:14Z</time>
      </trkpt>
      <trkpt lat="36.684895" lon="-4.44823333">
        <ele>-29</ele>
        <time>2018-04-23T15:03:15Z</time>
      </trkpt>
      <trkpt lat="36.68490333" lon="-4.44824333">
        <ele>-29</ele>
        <time>2018-04-23T15:03:16Z</time>
      </trkpt>
      <trkpt lat="36.68491" lon="-4.44825667">
        <ele>-29</ele>
        <time>2018-04-23T15:03:17Z</time>
      </trkpt>
      <trkpt lat="36.68491667" lon="-4.44826833">
        <ele>-29</ele>
        <time>2018-04-23T15:03:18Z</time>
      </trkpt>
      <trkpt lat="36.684925" lon="-4.44828">
        <ele>-29</ele>
        <time>2018-04-23T15:03:19Z</time>
      </trkpt>
      <trkpt lat="36.68493" lon="-4.448289">
        <ele>-29</ele>
        <time>2018-04-23T15:03:20Z</time>
      </trkpt>
      <trkpt lat="36.684935" lon="-4.44830033">
        <ele>-29</ele>
        <time>2018-04-23T15:03:21Z</time>
      </trkpt>
      <trkpt lat="36.68493833" lon="-4.448312">
        <ele>-29</ele>
        <time>2018-04-23T15:03:22Z</time>
      </trkpt>
      <trkpt lat="36.68494333" lon="-4.44832733">
        <ele>-29</ele>
        <time>2018-04-23T15:03:23Z</time>
      </trkpt>
      <trkpt lat="36.68494833" lon="-4.44834267">
        <ele>-29</ele>
        <time>2018-04-23T15:03:24Z</time>
      </trkpt>
      <trkpt lat="36.68495333" lon="-4.44835767">
        <ele>-29</ele>
        <time>2018-04-23T15:03:25Z</time>
      </trkpt>
      <trkpt lat="36.68495833" lon="-4.448372">
        <ele>-29</ele>
        <time>2018-04-23T15:03:26Z</time>
      </trkpt>
      <trkpt lat="36.68496667" lon="-4.44839">
        <ele>-29</ele>
        <time>2018-04-23T15:03:27Z</time>
      </trkpt>
      <trkpt lat="36.68497333" lon="-4.44840367">
        <ele>-29</ele>
        <time>2018-04-23T15:03:28Z</time>
      </trkpt>
      <trkpt lat="36.68498" lon="-4.44841733">
        <ele>-29</ele>
        <time>2018-04-23T15:03:29Z</time>
      </trkpt>
      <trkpt lat="36.68498667" lon="-4.448432">
        <ele>-29</ele>
        <time>2018-04-23T15:03:30Z</time>
      </trkpt>
      <trkpt lat="36.684995" lon="-4.44844833">
        <ele>-29</ele>
        <time>2018-04-23T15:03:31Z</time>
      </trkpt>
      <trkpt lat="36.685" lon="-4.44845933">
        <ele>-29</ele>
        <time>2018-04-23T15:03:32Z</time>
      </trkpt>
      <trkpt lat="36.68500667" lon="-4.44847533">
        <ele>-29</ele>
        <time>2018-04-23T15:03:33Z</time>
      </trkpt>
      <trkpt lat="36.68501333" lon="-4.44849167">
        <ele>-29</ele>
        <time>2018-04-23T15:03:34Z</time>
      </trkpt>
      <trkpt lat="36.68502" lon="-4.448505">
        <ele>-29</ele>
        <time>2018-04-23T15:03:35Z</time>
      </trkpt>
      <trkpt lat="36.685025" lon="-4.44852167">
        <ele>-29</ele>
        <time>2018-04-23T15:03:36Z</time>
      </trkpt>
      <trkpt lat="36.68503" lon="-4.44853833">
        <ele>-29</ele>
        <time>2018-04-23T15:03:37Z</time>
      </trkpt>
      <trkpt lat="36.685035" lon="-4.448557">
        <ele>-29</ele>
        <time>2018-04-23T15:03:38Z</time>
      </trkpt>
      <trkpt lat="36.68504" lon="-4.44857333">
        <ele>-29</ele>
        <time>2018-04-23T15:03:39Z</time>
      </trkpt>
      <trkpt lat="36.68504667" lon="-4.44858967">
        <ele>-29</ele>
        <time>2018-04-23T15:03:40Z</time>
      </trkpt>
      <trkpt lat="36.68505333" lon="-4.448601">
        <ele>-29</ele>
        <time>2018-04-23T15:03:41Z</time>
      </trkpt>
      <trkpt lat="36.685065" lon="-4.44861133">
        <ele>-29</ele>
        <time>2018-04-23T15:03:42Z</time>
      </trkpt>
      <trkpt lat="36.68507833" lon="-4.448605">
        <ele>-29</ele>
        <time>2018-04-23T15:03:43Z</time>
      </trkpt>
      <trkpt lat="36.68509167" lon="-4.44860333">
        <ele>-29</ele>
        <time>2018-04-23T15:03:44Z</time>
      </trkpt>
      <trkpt lat="36.685105" lon="-4.4486">
        <ele>-27</ele>
        <time>2018-04-23T15:03:45Z</time>
      </trkpt>
      <trkpt lat="36.68511667" lon="-4.44859667">
        <ele>-27</ele>
        <time>2018-04-23T15:03:46Z</time>
      </trkpt>
      <trkpt lat="36.68513" lon="-4.44859167">
        <ele>-27</ele>
        <time>2018-04-23T15:03:47Z</time>
      </trkpt>
      <trkpt lat="36.68513833" lon="-4.44858667">
        <ele>-27</ele>
        <time>2018-04-23T15:03:48Z</time>
      </trkpt>
      <trkpt lat="36.68514667" lon="-4.44857333">
        <ele>-27</ele>
        <time>2018-04-23T15:03:49Z</time>
      </trkpt>
      <trkpt lat="36.68515333" lon="-4.44857333">
        <ele>-27</ele>
        <time>2018-04-23T15:03:50Z</time>
      </trkpt>
      <trkpt lat="36.68515833" lon="-4.44857">
        <ele>-27</ele>
        <time>2018-04-23T15:03:51Z</time>
      </trkpt>
      <trkpt lat="36.68516833" lon="-4.44856467">
        <ele>-27</ele>
        <time>2018-04-23T15:03:52Z</time>
      </trkpt>
      <trkpt lat="36.68517667" lon="-4.44856667">
        <ele>-27</ele>
        <time>2018-04-23T15:03:53Z</time>
      </trkpt>
      <trkpt lat="36.68518333" lon="-4.448577">
        <ele>-27</ele>
        <time>2018-04-23T15:03:54Z</time>
      </trkpt>
      <trkpt lat="36.68519" lon="-4.44859833">
        <ele>-27</ele>
        <time>2018-04-23T15:03:55Z</time>
      </trkpt>
      <trkpt lat="36.685195" lon="-4.44861333">
        <ele>-27</ele>
        <time>2018-04-23T15:03:56Z</time>
      </trkpt>
      <trkpt lat="36.68520167" lon="-4.448625">
        <ele>-27</ele>
        <time>2018-04-23T15:03:57Z</time>
      </trkpt>
      <trkpt lat="36.68520833" lon="-4.44863833">
        <ele>-27</ele>
        <time>2018-04-23T15:03:58Z</time>
      </trkpt>
      <trkpt lat="36.68521333" lon="-4.44864833">
        <ele>-27</ele>
        <time>2018-04-23T15:03:59Z</time>
      </trkpt>
      <trkpt lat="36.685215" lon="-4.448665">
        <ele>-29</ele>
        <time>2018-04-23T15:04:00Z</time>
      </trkpt>
      <trkpt lat="36.685215" lon="-4.44868167">
        <ele>-26</ele>
        <time>2018-04-23T15:04:01Z</time>
      </trkpt>
      <trkpt lat="36.68521333" lon="-4.4487">
        <ele>-26</ele>
        <time>2018-04-23T15:04:02Z</time>
      </trkpt>
      <trkpt lat="36.68521333" lon="-4.44871833">
        <ele>-26</ele>
        <time>2018-04-23T15:04:03Z</time>
      </trkpt>
      <trkpt lat="36.68521133" lon="-4.44873667">
        <ele>-26</ele>
        <time>2018-04-23T15:04:04Z</time>
      </trkpt>
      <trkpt lat="36.685214" lon="-4.44875">
        <ele>-26</ele>
        <time>2018-04-23T15:04:05Z</time>
      </trkpt>
      <trkpt lat="36.68521667" lon="-4.44876333">
        <ele>-26</ele>
        <time>2018-04-23T15:04:06Z</time>
      </trkpt>
      <trkpt lat="36.68522067" lon="-4.44878">
        <ele>-26</ele>
        <time>2018-04-23T15:04:07Z</time>
      </trkpt>
      <trkpt lat="36.68522533" lon="-4.44879167">
        <ele>-26</ele>
        <time>2018-04-23T15:04:08Z</time>
      </trkpt>
      <trkpt lat="36.68523067" lon="-4.44880833">
        <ele>-26</ele>
        <time>2018-04-23T15:04:09Z</time>
      </trkpt>
      <trkpt lat="36.68524167" lon="-4.44882167">
        <ele>-26</ele>
        <time>2018-04-23T15:04:10Z</time>
      </trkpt>
      <trkpt lat="36.68525" lon="-4.44883333">
        <ele>-26</ele>
        <time>2018-04-23T15:04:11Z</time>
      </trkpt>
      <trkpt lat="36.68525667" lon="-4.448848">
        <ele>-26</ele>
        <time>2018-04-23T15:04:12Z</time>
      </trkpt>
      <trkpt lat="36.68526333" lon="-4.44886333">
        <ele>-26</ele>
        <time>2018-04-23T15:04:13Z</time>
      </trkpt>
      <trkpt lat="36.68526667" lon="-4.44887833">
        <ele>-26</ele>
        <time>2018-04-23T15:04:14Z</time>
      </trkpt>
      <trkpt lat="36.68527133" lon="-4.448895">
        <ele>-26</ele>
        <time>2018-04-23T15:04:15Z</time>
      </trkpt>
      <trkpt lat="36.68527833" lon="-4.44890667">
        <ele>-26</ele>
        <time>2018-04-23T15:04:16Z</time>
      </trkpt>
      <trkpt lat="36.68529" lon="-4.44891667">
        <ele>-26</ele>
        <time>2018-04-23T15:04:17Z</time>
      </trkpt>
      <trkpt lat="36.6853" lon="-4.44892767">
        <ele>-26</ele>
        <time>2018-04-23T15:04:18Z</time>
      </trkpt>
      <trkpt lat="36.68530833" lon="-4.44893867">
        <ele>-26</ele>
        <time>2018-04-23T15:04:19Z</time>
      </trkpt>
      <trkpt lat="36.68531667" lon="-4.448951">
        <ele>-26</ele>
        <time>2018-04-23T15:04:20Z</time>
      </trkpt>
      <trkpt lat="36.685325" lon="-4.44896433">
        <ele>-26</ele>
        <time>2018-04-23T15:04:21Z</time>
      </trkpt>
      <trkpt lat="36.68533" lon="-4.44897633">
        <ele>-26</ele>
        <time>2018-04-23T15:04:22Z</time>
      </trkpt>
      <trkpt lat="36.68533667" lon="-4.44899067">
        <ele>-26</ele>
        <time>2018-04-23T15:04:23Z</time>
      </trkpt>
      <trkpt lat="36.685345" lon="-4.449005">
        <ele>-26</ele>
        <time>2018-04-23T15:04:24Z</time>
      </trkpt>
      <trkpt lat="36.68535167" lon="-4.44901767">
        <ele>-26</ele>
        <time>2018-04-23T15:04:25Z</time>
      </trkpt>
      <trkpt lat="36.68536" lon="-4.449032">
        <ele>-26</ele>
        <time>2018-04-23T15:04:26Z</time>
      </trkpt>
      <trkpt lat="36.68536667" lon="-4.44904433">
        <ele>-26</ele>
        <time>2018-04-23T15:04:27Z</time>
      </trkpt>
      <trkpt lat="36.68537167" lon="-4.449056">
        <ele>-26</ele>
        <time>2018-04-23T15:04:28Z</time>
      </trkpt>
      <trkpt lat="36.685375" lon="-4.44906567">
        <ele>-26</ele>
        <time>2018-04-23T15:04:29Z</time>
      </trkpt>
      <trkpt lat="36.68537833" lon="-4.44907633">
        <ele>-26</ele>
        <time>2018-04-23T15:04:30Z</time>
      </trkpt>
      <trkpt lat="36.68538167" lon="-4.449087">
        <ele>-29</ele>
        <time>2018-04-23T15:04:31Z</time>
      </trkpt>
      <trkpt lat="36.68538667" lon="-4.44910167">
        <ele>-29</ele>
        <time>2018-04-23T15:04:32Z</time>
      </trkpt>
      <trkpt lat="36.68539167" lon="-4.44911567">
        <ele>-29</ele>
        <time>2018-04-23T15:04:33Z</time>
      </trkpt>
      <trkpt lat="36.68539667" lon="-4.44913067">
        <ele>-29</ele>
        <time>2018-04-23T15:04:34Z</time>
      </trkpt>
      <trkpt lat="36.68540667" lon="-4.449154">
        <ele>-29</ele>
        <time>2018-04-23T15:04:35Z</time>
      </trkpt>
      <trkpt lat="36.685415" lon="-4.449173">
        <ele>-29</ele>
        <time>2018-04-23T15:04:36Z</time>
      </trkpt>
      <trkpt lat="36.68542167" lon="-4.44918767">
        <ele>-29</ele>
        <time>2018-04-23T15:04:37Z</time>
      </trkpt>
      <trkpt lat="36.685425" lon="-4.44919667">
        <ele>-29</ele>
        <time>2018-04-23T15:04:38Z</time>
      </trkpt>
      <trkpt lat="36.68542833" lon="-4.449208">
        <ele>-26</ele>
        <time>2018-04-23T15:04:39Z</time>
      </trkpt>
      <trkpt lat="36.68543" lon="-4.449215">
        <ele>-26</ele>
        <time>2018-04-23T15:04:40Z</time>
      </trkpt>
      <trkpt lat="36.68543333" lon="-4.44922767">
        <ele>-26</ele>
        <time>2018-04-23T15:04:41Z</time>
      </trkpt>
      <trkpt lat="36.68543833" lon="-4.44924333">
        <ele>-26</ele>
        <time>2018-04-23T15:04:42Z</time>
      </trkpt>
      <trkpt lat="36.68544167" lon="-4.44925533">
        <ele>-26</ele>
        <time>2018-04-23T15:04:43Z</time>
      </trkpt>
      <trkpt lat="36.68544667" lon="-4.44927133">
        <ele>-26</ele>
        <time>2018-04-23T15:04:44Z</time>
      </trkpt>
      <trkpt lat="36.68545333" lon="-4.44932">
        <ele>-26</ele>
        <time>2018-04-23T15:04:45Z</time>
      </trkpt>
      <trkpt lat="36.685458" lon="-4.44933667">
        <ele>-26</ele>
        <time>2018-04-23T15:04:46Z</time>
      </trkpt>
      <trkpt lat="36.68546333" lon="-4.44935333">
        <ele>-26</ele>
        <time>2018-04-23T15:04:47Z</time>
      </trkpt>
      <trkpt lat="36.68546667" lon="-4.44937">
        <ele>-26</ele>
        <time>2018-04-23T15:04:48Z</time>
      </trkpt>
      <trkpt lat="36.68547167" lon="-4.44938733">
        <ele>-26</ele>
        <time>2018-04-23T15:04:49Z</time>
      </trkpt>
      <trkpt lat="36.68547667" lon="-4.44940167">
        <ele>-26</ele>
        <time>2018-04-23T15:04:50Z</time>
      </trkpt>
      <trkpt lat="36.68548167" lon="-4.44941667">
        <ele>-26</ele>
        <time>2018-04-23T15:04:51Z</time>
      </trkpt>
      <trkpt lat="36.68548767" lon="-4.44943">
        <ele>-26</ele>
        <time>2018-04-23T15:04:52Z</time>
      </trkpt>
      <trkpt lat="36.68549333" lon="-4.449445">
        <ele>-26</ele>
        <time>2018-04-23T15:04:53Z</time>
      </trkpt>
      <trkpt lat="36.68549667" lon="-4.44945967">
        <ele>-26</ele>
        <time>2018-04-23T15:04:54Z</time>
      </trkpt>
      <trkpt lat="36.68549833" lon="-4.44947433">
        <ele>-26</ele>
        <time>2018-04-23T15:04:55Z</time>
      </trkpt>
      <trkpt lat="36.68550333" lon="-4.44949233">
        <ele>-26</ele>
        <time>2018-04-23T15:04:56Z</time>
      </trkpt>
      <trkpt lat="36.68550667" lon="-4.44950333">
        <ele>-26</ele>
        <time>2018-04-23T15:04:57Z</time>
      </trkpt>
      <trkpt lat="36.68551333" lon="-4.44952133">
        <ele>-26</ele>
        <time>2018-04-23T15:04:58Z</time>
      </trkpt>
      <trkpt lat="36.68552167" lon="-4.44953633">
        <ele>-26</ele>
        <time>2018-04-23T15:04:59Z</time>
      </trkpt>
      <trkpt lat="36.68552667" lon="-4.44954733">
        <ele>-26</ele>
        <time>2018-04-23T15:05:00Z</time>
      </trkpt>
      <trkpt lat="36.68553167" lon="-4.449558">
        <ele>-26</ele>
        <time>2018-04-23T15:05:01Z</time>
      </trkpt>
      <trkpt lat="36.68553667" lon="-4.44956833">
        <ele>-26</ele>
        <time>2018-04-23T15:05:02Z</time>
      </trkpt>
      <trkpt lat="36.68554167" lon="-4.449579">
        <ele>-26</ele>
        <time>2018-04-23T15:05:03Z</time>
      </trkpt>
      <trkpt lat="36.685545" lon="-4.44958767">
        <ele>-26</ele>
        <time>2018-04-23T15:05:04Z</time>
      </trkpt>
      <trkpt lat="36.68555" lon="-4.44959933">
        <ele>-26</ele>
        <time>2018-04-23T15:05:05Z</time>
      </trkpt>
      <trkpt lat="36.685555" lon="-4.44961367">
        <ele>-26</ele>
        <time>2018-04-23T15:05:06Z</time>
      </trkpt>
      <trkpt lat="36.68556167" lon="-4.44962933">
        <ele>-26</ele>
        <time>2018-04-23T15:05:07Z</time>
      </trkpt>
      <trkpt lat="36.68556833" lon="-4.44964467">
        <ele>-26</ele>
        <time>2018-04-23T15:05:08Z</time>
      </trkpt>
      <trkpt lat="36.685575" lon="-4.44965967">
        <ele>-26</ele>
        <time>2018-04-23T15:05:09Z</time>
      </trkpt>
      <trkpt lat="36.685585" lon="-4.449679">
        <ele>-26</ele>
        <time>2018-04-23T15:05:10Z</time>
      </trkpt>
      <trkpt lat="36.68559167" lon="-4.44969067">
        <ele>-26</ele>
        <time>2018-04-23T15:05:11Z</time>
      </trkpt>
      <trkpt lat="36.68559667" lon="-4.44969967">
        <ele>-26</ele>
        <time>2018-04-23T15:05:12Z</time>
      </trkpt>
      <trkpt lat="36.68560333" lon="-4.44971267">
        <ele>-26</ele>
        <time>2018-04-23T15:05:13Z</time>
      </trkpt>
      <trkpt lat="36.68560833" lon="-4.44972367">
        <ele>-26</ele>
        <time>2018-04-23T15:05:14Z</time>
      </trkpt>
      <trkpt lat="36.68561333" lon="-4.449734">
        <ele>-26</ele>
        <time>2018-04-23T15:05:15Z</time>
      </trkpt>
      <trkpt lat="36.68562" lon="-4.44974867">
        <ele>-26</ele>
        <time>2018-04-23T15:05:16Z</time>
      </trkpt>
      <trkpt lat="36.685625" lon="-4.44975967">
        <ele>-26</ele>
        <time>2018-04-23T15:05:17Z</time>
      </trkpt>
      <trkpt lat="36.68563167" lon="-4.449774">
        <ele>-26</ele>
        <time>2018-04-23T15:05:18Z</time>
      </trkpt>
      <trkpt lat="36.68564167" lon="-4.449795">
        <ele>-26</ele>
        <time>2018-04-23T15:05:19Z</time>
      </trkpt>
      <trkpt lat="36.68564667" lon="-4.449806">
        <ele>-26</ele>
        <time>2018-04-23T15:05:20Z</time>
      </trkpt>
      <trkpt lat="36.68565" lon="-4.44981467">
        <ele>-26</ele>
        <time>2018-04-23T15:05:21Z</time>
      </trkpt>
      <trkpt lat="36.68565167" lon="-4.44982067">
        <ele>-26</ele>
        <time>2018-04-23T15:05:22Z</time>
      </trkpt>
      <trkpt lat="36.685655" lon="-4.44983267">
        <ele>-26</ele>
        <time>2018-04-23T15:05:23Z</time>
      </trkpt>
      <trkpt lat="36.68565667" lon="-4.44984067">
        <ele>-26</ele>
        <time>2018-04-23T15:05:24Z</time>
      </trkpt>
      <trkpt lat="36.68566333" lon="-4.44986067">
        <ele>-26</ele>
        <time>2018-04-23T15:05:25Z</time>
      </trkpt>
      <trkpt lat="36.68567167" lon="-4.449884">
        <ele>-26</ele>
        <time>2018-04-23T15:05:26Z</time>
      </trkpt>
      <trkpt lat="36.68567833" lon="-4.449903">
        <ele>-26</ele>
        <time>2018-04-23T15:05:27Z</time>
      </trkpt>
      <trkpt lat="36.68568" lon="-4.44991133">
        <ele>-26</ele>
        <time>2018-04-23T15:05:28Z</time>
      </trkpt>
      <trkpt lat="36.68568167" lon="-4.44991967">
        <ele>-26</ele>
        <time>2018-04-23T15:05:29Z</time>
      </trkpt>
      <trkpt lat="36.685685" lon="-4.44993267">
        <ele>-26</ele>
        <time>2018-04-23T15:05:30Z</time>
      </trkpt>
      <trkpt lat="36.68569" lon="-4.44995067">
        <ele>-26</ele>
        <time>2018-04-23T15:05:31Z</time>
      </trkpt>
      <trkpt lat="36.68570167" lon="-4.44998233">
        <ele>-26</ele>
        <time>2018-04-23T15:05:32Z</time>
      </trkpt>
      <trkpt lat="36.68571167" lon="-4.45002">
        <ele>-24</ele>
        <time>2018-04-23T15:05:33Z</time>
      </trkpt>
      <trkpt lat="36.68572167" lon="-4.45003167">
        <ele>-24</ele>
        <time>2018-04-23T15:05:34Z</time>
      </trkpt>
      <trkpt lat="36.68572333" lon="-4.45005533">
        <ele>-24</ele>
        <time>2018-04-23T15:05:35Z</time>
      </trkpt>
      <trkpt lat="36.685725" lon="-4.45007067">
        <ele>-24</ele>
        <time>2018-04-23T15:05:36Z</time>
      </trkpt>
      <trkpt lat="36.68573" lon="-4.45009233">
        <ele>-24</ele>
        <time>2018-04-23T15:05:37Z</time>
      </trkpt>
      <trkpt lat="36.685735" lon="-4.45011267">
        <ele>-24</ele>
        <time>2018-04-23T15:05:38Z</time>
      </trkpt>
      <trkpt lat="36.68573667" lon="-4.450127">
        <ele>-24</ele>
        <time>2018-04-23T15:05:39Z</time>
      </trkpt>
      <trkpt lat="36.68573833" lon="-4.45015167">
        <ele>-24</ele>
        <time>2018-04-23T15:05:40Z</time>
      </trkpt>
      <trkpt lat="36.68574167" lon="-4.45017">
        <ele>-24</ele>
        <time>2018-04-23T15:05:41Z</time>
      </trkpt>
      <trkpt lat="36.68574333" lon="-4.450192">
        <ele>-24</ele>
        <time>2018-04-23T15:05:42Z</time>
      </trkpt>
      <trkpt lat="36.685745" lon="-4.45021333">
        <ele>-24</ele>
        <time>2018-04-23T15:05:43Z</time>
      </trkpt>
      <trkpt lat="36.68574667" lon="-4.45022833">
        <ele>-24</ele>
        <time>2018-04-23T15:05:44Z</time>
      </trkpt>
      <trkpt lat="36.685751" lon="-4.450245">
        <ele>-24</ele>
        <time>2018-04-23T15:05:45Z</time>
      </trkpt>
      <trkpt lat="36.685757" lon="-4.45026">
        <ele>-24</ele>
        <time>2018-04-23T15:05:46Z</time>
      </trkpt>
      <trkpt lat="36.68576167" lon="-4.45027667">
        <ele>-24</ele>
        <time>2018-04-23T15:05:47Z</time>
      </trkpt>
      <trkpt lat="36.68576667" lon="-4.45029533">
        <ele>-24</ele>
        <time>2018-04-23T15:05:48Z</time>
      </trkpt>
      <trkpt lat="36.68576833" lon="-4.45031833">
        <ele>-24</ele>
        <time>2018-04-23T15:05:49Z</time>
      </trkpt>
      <trkpt lat="36.68576833" lon="-4.45033833">
        <ele>-24</ele>
        <time>2018-04-23T15:05:50Z</time>
      </trkpt>
      <trkpt lat="36.68576667" lon="-4.45036">
        <ele>-24</ele>
        <time>2018-04-23T15:05:51Z</time>
      </trkpt>
      <trkpt lat="36.68576833" lon="-4.45037833">
        <ele>-26</ele>
        <time>2018-04-23T15:05:52Z</time>
      </trkpt>
      <trkpt lat="36.68576833" lon="-4.45040333">
        <ele>-26</ele>
        <time>2018-04-23T15:05:53Z</time>
      </trkpt>
      <trkpt lat="36.68576967" lon="-4.45042833">
        <ele>-26</ele>
        <time>2018-04-23T15:05:54Z</time>
      </trkpt>
      <trkpt lat="36.68577133" lon="-4.45045167">
        <ele>-26</ele>
        <time>2018-04-23T15:05:55Z</time>
      </trkpt>
      <trkpt lat="36.685771" lon="-4.450475">
        <ele>-26</ele>
        <time>2018-04-23T15:05:56Z</time>
      </trkpt>
      <trkpt lat="36.68577067" lon="-4.45049833">
        <ele>-26</ele>
        <time>2018-04-23T15:05:57Z</time>
      </trkpt>
      <trkpt lat="36.68577133" lon="-4.45052167">
        <ele>-26</ele>
        <time>2018-04-23T15:05:58Z</time>
      </trkpt>
      <trkpt lat="36.68577333" lon="-4.45053667">
        <ele>-26</ele>
        <time>2018-04-23T15:05:59Z</time>
      </trkpt>
      <trkpt lat="36.685775" lon="-4.450555">
        <ele>-26</ele>
        <time>2018-04-23T15:06:00Z</time>
      </trkpt>
      <trkpt lat="36.68577567" lon="-4.45058167">
        <ele>-26</ele>
        <time>2018-04-23T15:06:01Z</time>
      </trkpt>
      <trkpt lat="36.68577533" lon="-4.45060833">
        <ele>-26</ele>
        <time>2018-04-23T15:06:02Z</time>
      </trkpt>
      <trkpt lat="36.68577467" lon="-4.450635">
        <ele>-26</ele>
        <time>2018-04-23T15:06:03Z</time>
      </trkpt>
      <trkpt lat="36.68577433" lon="-4.45065833">
        <ele>-26</ele>
        <time>2018-04-23T15:06:04Z</time>
      </trkpt>
      <trkpt lat="36.68577567" lon="-4.45068">
        <ele>-26</ele>
        <time>2018-04-23T15:06:05Z</time>
      </trkpt>
      <trkpt lat="36.68577767" lon="-4.45069333">
        <ele>-26</ele>
        <time>2018-04-23T15:06:06Z</time>
      </trkpt>
      <trkpt lat="36.68579333" lon="-4.45070833">
        <ele>-26</ele>
        <time>2018-04-23T15:06:07Z</time>
      </trkpt>
      <trkpt lat="36.68580333" lon="-4.45072">
        <ele>-26</ele>
        <time>2018-04-23T15:06:08Z</time>
      </trkpt>
      <trkpt lat="36.685815" lon="-4.45072833">
        <ele>-26</ele>
        <time>2018-04-23T15:06:09Z</time>
      </trkpt>
      <trkpt lat="36.68583" lon="-4.45073167">
        <ele>-26</ele>
        <time>2018-04-23T15:06:10Z</time>
      </trkpt>
      <trkpt lat="36.68585" lon="-4.45072833">
        <ele>-26</ele>
        <time>2018-04-23T15:06:11Z</time>
      </trkpt>
      <trkpt lat="36.685865" lon="-4.45072833">
        <ele>-26</ele>
        <time>2018-04-23T15:06:12Z</time>
      </trkpt>
      <trkpt lat="36.68587833" lon="-4.450733">
        <ele>-26</ele>
        <time>2018-04-23T15:06:13Z</time>
      </trkpt>
      <trkpt lat="36.68588667" lon="-4.45074167">
        <ele>-26</ele>
        <time>2018-04-23T15:06:14Z</time>
      </trkpt>
      <trkpt lat="36.6859" lon="-4.45075">
        <ele>-26</ele>
        <time>2018-04-23T15:06:15Z</time>
      </trkpt>
      <trkpt lat="36.68590667" lon="-4.45075733">
        <ele>-26</ele>
        <time>2018-04-23T15:06:16Z</time>
      </trkpt>
      <trkpt lat="36.68591" lon="-4.45076467">
        <ele>-26</ele>
        <time>2018-04-23T15:06:17Z</time>
      </trkpt>
      <trkpt lat="36.68590833" lon="-4.45076967">
        <ele>-26</ele>
        <time>2018-04-23T15:06:18Z</time>
      </trkpt>
      <trkpt lat="36.685905" lon="-4.45081">
        <ele>-26</ele>
        <time>2018-04-23T15:06:19Z</time>
      </trkpt>
      <trkpt lat="36.68590167" lon="-4.45083">
        <ele>-26</ele>
        <time>2018-04-23T15:06:20Z</time>
      </trkpt>
      <trkpt lat="36.6859" lon="-4.45085">
        <ele>-26</ele>
        <time>2018-04-23T15:06:21Z</time>
      </trkpt>
      <trkpt lat="36.68590333" lon="-4.450865">
        <ele>-26</ele>
        <time>2018-04-23T15:06:22Z</time>
      </trkpt>
      <trkpt lat="36.68590533" lon="-4.450885">
        <ele>-25</ele>
        <time>2018-04-23T15:06:23Z</time>
      </trkpt>
      <trkpt lat="36.685909" lon="-4.45090333">
        <ele>-25</ele>
        <time>2018-04-23T15:06:24Z</time>
      </trkpt>
      <trkpt lat="36.68591533" lon="-4.450915">
        <ele>-25</ele>
        <time>2018-04-23T15:06:25Z</time>
      </trkpt>
      <trkpt lat="36.68592" lon="-4.450925">
        <ele>-25</ele>
        <time>2018-04-23T15:06:26Z</time>
      </trkpt>
      <trkpt lat="36.68592533" lon="-4.45093833">
        <ele>-25</ele>
        <time>2018-04-23T15:06:27Z</time>
      </trkpt>
      <trkpt lat="36.68593033" lon="-4.45095333">
        <ele>-25</ele>
        <time>2018-04-23T15:06:28Z</time>
      </trkpt>
      <trkpt lat="36.685935" lon="-4.45096833">
        <ele>-25</ele>
        <time>2018-04-23T15:06:29Z</time>
      </trkpt>
      <trkpt lat="36.68593933" lon="-4.45098667">
        <ele>-25</ele>
        <time>2018-04-23T15:06:30Z</time>
      </trkpt>
      <trkpt lat="36.68594233" lon="-4.45100167">
        <ele>-25</ele>
        <time>2018-04-23T15:06:31Z</time>
      </trkpt>
      <trkpt lat="36.68594567" lon="-4.45102">
        <ele>-25</ele>
        <time>2018-04-23T15:06:32Z</time>
      </trkpt>
      <trkpt lat="36.68594933" lon="-4.45103833">
        <ele>-25</ele>
        <time>2018-04-23T15:06:33Z</time>
      </trkpt>
      <trkpt lat="36.68595167" lon="-4.45105167">
        <ele>-25</ele>
        <time>2018-04-23T15:06:34Z</time>
      </trkpt>
      <trkpt lat="36.68595633" lon="-4.45106">
        <ele>-25</ele>
        <time>2018-04-23T15:06:35Z</time>
      </trkpt>
      <trkpt lat="36.68597167" lon="-4.45107">
        <ele>-25</ele>
        <time>2018-04-23T15:06:36Z</time>
      </trkpt>
      <trkpt lat="36.68597667" lon="-4.45108533">
        <ele>-25</ele>
        <time>2018-04-23T15:06:37Z</time>
      </trkpt>
      <trkpt lat="36.68598667" lon="-4.45109633">
        <ele>-25</ele>
        <time>2018-04-23T15:06:38Z</time>
      </trkpt>
      <trkpt lat="36.68599667" lon="-4.451108">
        <ele>-25</ele>
        <time>2018-04-23T15:06:39Z</time>
      </trkpt>
      <trkpt lat="36.68600333" lon="-4.45112333">
        <ele>-25</ele>
        <time>2018-04-23T15:06:40Z</time>
      </trkpt>
      <trkpt lat="36.686008" lon="-4.45114">
        <ele>-25</ele>
        <time>2018-04-23T15:06:41Z</time>
      </trkpt>
      <trkpt lat="36.68601333" lon="-4.45115667">
        <ele>-25</ele>
        <time>2018-04-23T15:06:42Z</time>
      </trkpt>
      <trkpt lat="36.686019" lon="-4.45117167">
        <ele>-25</ele>
        <time>2018-04-23T15:06:43Z</time>
      </trkpt>
      <trkpt lat="36.68602567" lon="-4.45118667">
        <ele>-25</ele>
        <time>2018-04-23T15:06:44Z</time>
      </trkpt>
      <trkpt lat="36.68603067" lon="-4.45120333">
        <ele>-25</ele>
        <time>2018-04-23T15:06:45Z</time>
      </trkpt>
      <trkpt lat="36.686034" lon="-4.45122667">
        <ele>-25</ele>
        <time>2018-04-23T15:06:46Z</time>
      </trkpt>
      <trkpt lat="36.68603767" lon="-4.45124833">
        <ele>-23</ele>
        <time>2018-04-23T15:06:47Z</time>
      </trkpt>
      <trkpt lat="36.68604067" lon="-4.45125833">
        <ele>-23</ele>
        <time>2018-04-23T15:06:48Z</time>
      </trkpt>
      <trkpt lat="36.68604567" lon="-4.451275">
        <ele>-23</ele>
        <time>2018-04-23T15:06:49Z</time>
      </trkpt>
      <trkpt lat="36.68605033" lon="-4.45129167">
        <ele>-23</ele>
        <time>2018-04-23T15:06:50Z</time>
      </trkpt>
      <trkpt lat="36.68605467" lon="-4.45130833">
        <ele>-23</ele>
        <time>2018-04-23T15:06:51Z</time>
      </trkpt>
      <trkpt lat="36.68605833" lon="-4.45132333">
        <ele>-23</ele>
        <time>2018-04-23T15:06:51Z</time>
      </trkpt>
      <trkpt lat="36.686063" lon="-4.45134">
        <ele>-23</ele>
        <time>2018-04-23T15:06:52Z</time>
      </trkpt>
      <trkpt lat="36.686068" lon="-4.45135833">
        <ele>-23</ele>
        <time>2018-04-23T15:06:53Z</time>
      </trkpt>
      <trkpt lat="36.686073" lon="-4.45137833">
        <ele>-23</ele>
        <time>2018-04-23T15:06:54Z</time>
      </trkpt>
      <trkpt lat="36.686078" lon="-4.45139333">
        <ele>-23</ele>
        <time>2018-04-23T15:06:55Z</time>
      </trkpt>
      <trkpt lat="36.686083" lon="-4.45141">
        <ele>-23</ele>
        <time>2018-04-23T15:06:56Z</time>
      </trkpt>
      <trkpt lat="36.68608733" lon="-4.45142">
        <ele>-23</ele>
        <time>2018-04-23T15:06:57Z</time>
      </trkpt>
      <trkpt lat="36.68609167" lon="-4.45143167">
        <ele>-23</ele>
        <time>2018-04-23T15:06:58Z</time>
      </trkpt>
      <trkpt lat="36.68609633" lon="-4.45144167">
        <ele>-23</ele>
        <time>2018-04-23T15:06:59Z</time>
      </trkpt>
      <trkpt lat="36.68610333" lon="-4.45145667">
        <ele>-23</ele>
        <time>2018-04-23T15:07:00Z</time>
      </trkpt>
      <trkpt lat="36.686109" lon="-4.45147">
        <ele>-23</ele>
        <time>2018-04-23T15:07:01Z</time>
      </trkpt>
      <trkpt lat="36.686113" lon="-4.45147667">
        <ele>-23</ele>
        <time>2018-04-23T15:07:02Z</time>
      </trkpt>
      <trkpt lat="36.68612" lon="-4.45149167">
        <ele>-23</ele>
        <time>2018-04-23T15:07:03Z</time>
      </trkpt>
      <trkpt lat="36.68612833" lon="-4.45151167">
        <ele>-23</ele>
        <time>2018-04-23T15:07:04Z</time>
      </trkpt>
      <trkpt lat="36.68613467" lon="-4.45152333">
        <ele>-23</ele>
        <time>2018-04-23T15:07:05Z</time>
      </trkpt>
      <trkpt lat="36.68614067" lon="-4.451535">
        <ele>-23</ele>
        <time>2018-04-23T15:07:06Z</time>
      </trkpt>
      <trkpt lat="36.68614933" lon="-4.45155333">
        <ele>-23</ele>
        <time>2018-04-23T15:07:07Z</time>
      </trkpt>
      <trkpt lat="36.686156" lon="-4.45156833">
        <ele>-23</ele>
        <time>2018-04-23T15:07:08Z</time>
      </trkpt>
      <trkpt lat="36.68616367" lon="-4.45158667">
        <ele>-23</ele>
        <time>2018-04-23T15:07:09Z</time>
      </trkpt>
      <trkpt lat="36.68616933" lon="-4.45159833">
        <ele>-23</ele>
        <time>2018-04-23T15:07:10Z</time>
      </trkpt>
      <trkpt lat="36.686176" lon="-4.45161333">
        <ele>-23</ele>
        <time>2018-04-23T15:07:11Z</time>
      </trkpt>
      <trkpt lat="36.68618067" lon="-4.451625">
        <ele>-23</ele>
        <time>2018-04-23T15:07:12Z</time>
      </trkpt>
      <trkpt lat="36.686187" lon="-4.45163833">
        <ele>-23</ele>
        <time>2018-04-23T15:07:13Z</time>
      </trkpt>
      <trkpt lat="36.686195" lon="-4.45165333">
        <ele>-23</ele>
        <time>2018-04-23T15:07:14Z</time>
      </trkpt>
      <trkpt lat="36.686201" lon="-4.451665">
        <ele>-23</ele>
        <time>2018-04-23T15:07:15Z</time>
      </trkpt>
      <trkpt lat="36.68620633" lon="-4.451675">
        <ele>-22</ele>
        <time>2018-04-23T15:07:16Z</time>
      </trkpt>
      <trkpt lat="36.686212" lon="-4.451685">
        <ele>-22</ele>
        <time>2018-04-23T15:07:17Z</time>
      </trkpt>
      <trkpt lat="36.68624333" lon="-4.45169333">
        <ele>-22</ele>
        <time>2018-04-23T15:07:18Z</time>
      </trkpt>
      <trkpt lat="36.68625" lon="-4.45170333">
        <ele>-22</ele>
        <time>2018-04-23T15:07:19Z</time>
      </trkpt>
      <trkpt lat="36.686255" lon="-4.45171567">
        <ele>-22</ele>
        <time>2018-04-23T15:07:20Z</time>
      </trkpt>
      <trkpt lat="36.68626167" lon="-4.45172867">
        <ele>-22</ele>
        <time>2018-04-23T15:07:21Z</time>
      </trkpt>
      <trkpt lat="36.68626667" lon="-4.45173933">
        <ele>-22</ele>
        <time>2018-04-23T15:07:22Z</time>
      </trkpt>
      <trkpt lat="36.686275" lon="-4.451754">
        <ele>-22</ele>
        <time>2018-04-23T15:07:23Z</time>
      </trkpt>
      <trkpt lat="36.68628167" lon="-4.45176867">
        <ele>-22</ele>
        <time>2018-04-23T15:07:24Z</time>
      </trkpt>
      <trkpt lat="36.68628833" lon="-4.45178333">
        <ele>-22</ele>
        <time>2018-04-23T15:07:25Z</time>
      </trkpt>
      <trkpt lat="36.686295" lon="-4.45180167">
        <ele>-22</ele>
        <time>2018-04-23T15:07:26Z</time>
      </trkpt>
      <trkpt lat="36.68630167" lon="-4.45181833">
        <ele>-22</ele>
        <time>2018-04-23T15:07:27Z</time>
      </trkpt>
      <trkpt lat="36.68630833" lon="-4.451835">
        <ele>-22</ele>
        <time>2018-04-23T15:07:28Z</time>
      </trkpt>
      <trkpt lat="36.68631667" lon="-4.45184333">
        <ele>-24</ele>
        <time>2018-04-23T15:07:29Z</time>
      </trkpt>
      <trkpt lat="36.68632833" lon="-4.45184667">
        <ele>-24</ele>
        <time>2018-04-23T15:07:30Z</time>
      </trkpt>
      <trkpt lat="36.68633833" lon="-4.451854">
        <ele>-24</ele>
        <time>2018-04-23T15:07:31Z</time>
      </trkpt>
      <trkpt lat="36.68635" lon="-4.45185633">
        <ele>-24</ele>
        <time>2018-04-23T15:07:32Z</time>
      </trkpt>
      <trkpt lat="36.68636" lon="-4.451858">
        <ele>-24</ele>
        <time>2018-04-23T15:07:33Z</time>
      </trkpt>
      <trkpt lat="36.68636833" lon="-4.45185833">
        <ele>-24</ele>
        <time>2018-04-23T15:07:34Z</time>
      </trkpt>
      <trkpt lat="36.686375" lon="-4.451873">
        <ele>-24</ele>
        <time>2018-04-23T15:07:35Z</time>
      </trkpt>
      <trkpt lat="36.68638167" lon="-4.45188933">
        <ele>-24</ele>
        <time>2018-04-23T15:07:36Z</time>
      </trkpt>
      <trkpt lat="36.68639167" lon="-4.45190033">
        <ele>-24</ele>
        <time>2018-04-23T15:07:37Z</time>
      </trkpt>
      <trkpt lat="36.6864" lon="-4.45191367">
        <ele>-25</ele>
        <time>2018-04-23T15:07:38Z</time>
      </trkpt>
      <trkpt lat="36.68640833" lon="-4.45192433">
        <ele>-25</ele>
        <time>2018-04-23T15:07:39Z</time>
      </trkpt>
      <trkpt lat="36.68641667" lon="-4.45193533">
        <ele>-25</ele>
        <time>2018-04-23T15:07:40Z</time>
      </trkpt>
      <trkpt lat="36.68642333" lon="-4.45194467">
        <ele>-25</ele>
        <time>2018-04-23T15:07:41Z</time>
      </trkpt>
      <trkpt lat="36.68642833" lon="-4.45195233">
        <ele>-25</ele>
        <time>2018-04-23T15:07:42Z</time>
      </trkpt>
      <trkpt lat="36.68643833" lon="-4.45196767">
        <ele>-25</ele>
        <time>2018-04-23T15:07:43Z</time>
      </trkpt>
      <trkpt lat="36.686445" lon="-4.45197867">
        <ele>-21</ele>
        <time>2018-04-23T15:07:44Z</time>
      </trkpt>
      <trkpt lat="36.68645167" lon="-4.45198967">
        <ele>-21</ele>
        <time>2018-04-23T15:07:45Z</time>
      </trkpt>
      <trkpt lat="36.68645833" lon="-4.452002">
        <ele>-23</ele>
        <time>2018-04-23T15:07:46Z</time>
      </trkpt>
      <trkpt lat="36.68646667" lon="-4.45201667">
        <ele>-23</ele>
        <time>2018-04-23T15:07:47Z</time>
      </trkpt>
      <trkpt lat="36.68647833" lon="-4.45203433">
        <ele>-23</ele>
        <time>2018-04-23T15:07:48Z</time>
      </trkpt>
      <trkpt lat="36.68649" lon="-4.45205">
        <ele>-23</ele>
        <time>2018-04-23T15:07:49Z</time>
      </trkpt>
      <trkpt lat="36.68650167" lon="-4.45206433">
        <ele>-23</ele>
        <time>2018-04-23T15:07:50Z</time>
      </trkpt>
      <trkpt lat="36.68651167" lon="-4.452076">
        <ele>-23</ele>
        <time>2018-04-23T15:07:51Z</time>
      </trkpt>
      <trkpt lat="36.68652333" lon="-4.45208833">
        <ele>-23</ele>
        <time>2018-04-23T15:07:52Z</time>
      </trkpt>
      <trkpt lat="36.68653333" lon="-4.452097">
        <ele>-23</ele>
        <time>2018-04-23T15:07:53Z</time>
      </trkpt>
      <trkpt lat="36.686545" lon="-4.452107">
        <ele>-23</ele>
        <time>2018-04-23T15:07:54Z</time>
      </trkpt>
      <trkpt lat="36.68655333" lon="-4.452114">
        <ele>-31</ele>
        <time>2018-04-23T15:07:55Z</time>
      </trkpt>
      <trkpt lat="36.68656667" lon="-4.45212667">
        <ele>-31</ele>
        <time>2018-04-23T15:07:56Z</time>
      </trkpt>
      <trkpt lat="36.68657667" lon="-4.452134">
        <ele>-31</ele>
        <time>2018-04-23T15:07:57Z</time>
      </trkpt>
      <trkpt lat="36.686585" lon="-4.45214">
        <ele>-31</ele>
        <time>2018-04-23T15:07:58Z</time>
      </trkpt>
      <trkpt lat="36.686595" lon="-4.452149">
        <ele>-21</ele>
        <time>2018-04-23T15:07:59Z</time>
      </trkpt>
      <trkpt lat="36.68660167" lon="-4.452154">
        <ele>-21</ele>
        <time>2018-04-23T15:08:00Z</time>
      </trkpt>
      <trkpt lat="36.68661167" lon="-4.452163">
        <ele>-23</ele>
        <time>2018-04-23T15:08:01Z</time>
      </trkpt>
      <trkpt lat="36.68661833" lon="-4.45217">
        <ele>-23</ele>
        <time>2018-04-23T15:08:02Z</time>
      </trkpt>
      <trkpt lat="36.68662667" lon="-4.45217933">
        <ele>-23</ele>
        <time>2018-04-23T15:08:03Z</time>
      </trkpt>
      <trkpt lat="36.68663333" lon="-4.45218733">
        <ele>-23</ele>
        <time>2018-04-23T15:08:04Z</time>
      </trkpt>
      <trkpt lat="36.68664333" lon="-4.452198">
        <ele>-23</ele>
        <time>2018-04-23T15:08:05Z</time>
      </trkpt>
      <trkpt lat="36.68665333" lon="-4.45220933">
        <ele>-23</ele>
        <time>2018-04-23T15:08:06Z</time>
      </trkpt>
      <trkpt lat="36.686665" lon="-4.45222267">
        <ele>-23</ele>
        <time>2018-04-23T15:08:07Z</time>
      </trkpt>
      <trkpt lat="36.68667333" lon="-4.45223133">
        <ele>-23</ele>
        <time>2018-04-23T15:08:08Z</time>
      </trkpt>
      <trkpt lat="36.686685" lon="-4.45224367">
        <ele>-23</ele>
        <time>2018-04-23T15:08:09Z</time>
      </trkpt>
      <trkpt lat="36.686695" lon="-4.45225433">
        <ele>-23</ele>
        <time>2018-04-23T15:08:10Z</time>
      </trkpt>
      <trkpt lat="36.686705" lon="-4.452264">
        <ele>-23</ele>
        <time>2018-04-23T15:08:11Z</time>
      </trkpt>
      <trkpt lat="36.68671333" lon="-4.45227233">
        <ele>-23</ele>
        <time>2018-04-23T15:08:12Z</time>
      </trkpt>
      <trkpt lat="36.68672167" lon="-4.452281">
        <ele>-23</ele>
        <time>2018-04-23T15:08:13Z</time>
      </trkpt>
      <trkpt lat="36.68673167" lon="-4.45229233">
        <ele>-23</ele>
        <time>2018-04-23T15:08:14Z</time>
      </trkpt>
      <trkpt lat="36.68674167" lon="-4.45230367">
        <ele>-23</ele>
        <time>2018-04-23T15:08:15Z</time>
      </trkpt>
      <trkpt lat="36.68674833" lon="-4.45231133">
        <ele>-23</ele>
        <time>2018-04-23T15:08:16Z</time>
      </trkpt>
      <trkpt lat="36.68675833" lon="-4.45232233">
        <ele>-25</ele>
        <time>2018-04-23T15:08:17Z</time>
      </trkpt>
      <trkpt lat="36.68677" lon="-4.45233433">
        <ele>-25</ele>
        <time>2018-04-23T15:08:18Z</time>
      </trkpt>
      <trkpt lat="36.68678" lon="-4.452325">
        <ele>-25</ele>
        <time>2018-04-23T15:08:19Z</time>
      </trkpt>
      <trkpt lat="36.68678833" lon="-4.45232833">
        <ele>-25</ele>
        <time>2018-04-23T15:08:20Z</time>
      </trkpt>
      <trkpt lat="36.6868" lon="-4.45233">
        <ele>-25</ele>
        <time>2018-04-23T15:08:21Z</time>
      </trkpt>
      <trkpt lat="36.68681" lon="-4.45233">
        <ele>-25</ele>
        <time>2018-04-23T15:08:22Z</time>
      </trkpt>
      <trkpt lat="36.68681667" lon="-4.452335">
        <ele>-25</ele>
        <time>2018-04-23T15:08:23Z</time>
      </trkpt>
      <trkpt lat="36.68682333" lon="-4.45234233">
        <ele>-25</ele>
        <time>2018-04-23T15:08:24Z</time>
      </trkpt>
      <trkpt lat="36.68683333" lon="-4.452355">
        <ele>-25</ele>
        <time>2018-04-23T15:08:25Z</time>
      </trkpt>
      <trkpt lat="36.68684333" lon="-4.45236633">
        <ele>-25</ele>
        <time>2018-04-23T15:08:26Z</time>
      </trkpt>
      <trkpt lat="36.68685333" lon="-4.45237667">
        <ele>-25</ele>
        <time>2018-04-23T15:08:27Z</time>
      </trkpt>
      <trkpt lat="36.686865" lon="-4.452384">
        <ele>-25</ele>
        <time>2018-04-23T15:08:28Z</time>
      </trkpt>
      <trkpt lat="36.68687833" lon="-4.45238733">
        <ele>-25</ele>
        <time>2018-04-23T15:08:29Z</time>
      </trkpt>
      <trkpt lat="36.68689167" lon="-4.45239133">
        <ele>-25</ele>
        <time>2018-04-23T15:08:30Z</time>
      </trkpt>
      <trkpt lat="36.686905" lon="-4.45238833">
        <ele>-25</ele>
        <time>2018-04-23T15:08:31Z</time>
      </trkpt>
      <trkpt lat="36.68691667" lon="-4.45239667">
        <ele>-25</ele>
        <time>2018-04-23T15:08:32Z</time>
      </trkpt>
      <trkpt lat="36.68693167" lon="-4.45240667">
        <ele>-25</ele>
        <time>2018-04-23T15:08:33Z</time>
      </trkpt>
      <trkpt lat="36.68694667" lon="-4.45240933">
        <ele>-25</ele>
        <time>2018-04-23T15:08:34Z</time>
      </trkpt>
      <trkpt lat="36.68696167" lon="-4.45241133">
        <ele>-25</ele>
        <time>2018-04-23T15:08:35Z</time>
      </trkpt>
      <trkpt lat="36.686975" lon="-4.45241533">
        <ele>-25</ele>
        <time>2018-04-23T15:08:36Z</time>
      </trkpt>
      <trkpt lat="36.68698833" lon="-4.45242033">
        <ele>-25</ele>
        <time>2018-04-23T15:08:37Z</time>
      </trkpt>
      <trkpt lat="36.68700333" lon="-4.45242667">
        <ele>-25</ele>
        <time>2018-04-23T15:08:38Z</time>
      </trkpt>
      <trkpt lat="36.68701833" lon="-4.45243267">
        <ele>-25</ele>
        <time>2018-04-23T15:08:39Z</time>
      </trkpt>
      <trkpt lat="36.68703167" lon="-4.45243767">
        <ele>-25</ele>
        <time>2018-04-23T15:08:40Z</time>
      </trkpt>
      <trkpt lat="36.687045" lon="-4.452441">
        <ele>-25</ele>
        <time>2018-04-23T15:08:41Z</time>
      </trkpt>
      <trkpt lat="36.68705667" lon="-4.452446">
        <ele>-25</ele>
        <time>2018-04-23T15:08:42Z</time>
      </trkpt>
      <trkpt lat="36.68707" lon="-4.45245167">
        <ele>-25</ele>
        <time>2018-04-23T15:08:43Z</time>
      </trkpt>
      <trkpt lat="36.687085" lon="-4.452458">
        <ele>-25</ele>
        <time>2018-04-23T15:08:44Z</time>
      </trkpt>
      <trkpt lat="36.68709667" lon="-4.45246367">
        <ele>-25</ele>
        <time>2018-04-23T15:08:45Z</time>
      </trkpt>
      <trkpt lat="36.68711" lon="-4.45247133">
        <ele>-25</ele>
        <time>2018-04-23T15:08:46Z</time>
      </trkpt>
      <trkpt lat="36.68712" lon="-4.452479">
        <ele>-25</ele>
        <time>2018-04-23T15:08:47Z</time>
      </trkpt>
      <trkpt lat="36.68713333" lon="-4.45251">
        <ele>-25</ele>
        <time>2018-04-23T15:08:48Z</time>
      </trkpt>
      <trkpt lat="36.68714" lon="-4.452525">
        <ele>-25</ele>
        <time>2018-04-23T15:08:49Z</time>
      </trkpt>
      <trkpt lat="36.68714833" lon="-4.45254333">
        <ele>-25</ele>
        <time>2018-04-23T15:08:50Z</time>
      </trkpt>
      <trkpt lat="36.68715667" lon="-4.45255833">
        <ele>-25</ele>
        <time>2018-04-23T15:08:51Z</time>
      </trkpt>
      <trkpt lat="36.68716667" lon="-4.45257267">
        <ele>-25</ele>
        <time>2018-04-23T15:08:52Z</time>
      </trkpt>
      <trkpt lat="36.687175" lon="-4.45258833">
        <ele>-25</ele>
        <time>2018-04-23T15:08:53Z</time>
      </trkpt>
      <trkpt lat="36.68718333" lon="-4.452605">
        <ele>-25</ele>
        <time>2018-04-23T15:08:54Z</time>
      </trkpt>
      <trkpt lat="36.68719333" lon="-4.452619">
        <ele>-25</ele>
        <time>2018-04-23T15:08:55Z</time>
      </trkpt>
      <trkpt lat="36.687205" lon="-4.45263133">
        <ele>-25</ele>
        <time>2018-04-23T15:08:56Z</time>
      </trkpt>
      <trkpt lat="36.687215" lon="-4.45264267">
        <ele>-25</ele>
        <time>2018-04-23T15:08:57Z</time>
      </trkpt>
      <trkpt lat="36.687225" lon="-4.45265667">
        <ele>-25</ele>
        <time>2018-04-23T15:08:58Z</time>
      </trkpt>
      <trkpt lat="36.68723667" lon="-4.45267233">
        <ele>-25</ele>
        <time>2018-04-23T15:08:59Z</time>
      </trkpt>
      <trkpt lat="36.68724667" lon="-4.452682">
        <ele>-25</ele>
        <time>2018-04-23T15:09:00Z</time>
      </trkpt>
      <trkpt lat="36.68725833" lon="-4.45269033">
        <ele>-25</ele>
        <time>2018-04-23T15:09:01Z</time>
      </trkpt>
      <trkpt lat="36.687265" lon="-4.45267333">
        <ele>-25</ele>
        <time>2018-04-23T15:09:02Z</time>
      </trkpt>
      <trkpt lat="36.68727" lon="-4.45267167">
        <ele>-23</ele>
        <time>2018-04-23T15:09:03Z</time>
      </trkpt>
      <trkpt lat="36.68727667" lon="-4.452665">
        <ele>-23</ele>
        <time>2018-04-23T15:09:04Z</time>
      </trkpt>
      <trkpt lat="36.68728167" lon="-4.45266167">
        <ele>-21</ele>
        <time>2018-04-23T15:09:05Z</time>
      </trkpt>
      <trkpt lat="36.68728833" lon="-4.452658">
        <ele>-21</ele>
        <time>2018-04-23T15:09:06Z</time>
      </trkpt>
      <trkpt lat="36.68729" lon="-4.45265667">
        <ele>-21</ele>
        <time>2018-04-23T15:09:07Z</time>
      </trkpt>
      <trkpt lat="36.687295" lon="-4.45265267">
        <ele>-21</ele>
        <time>2018-04-23T15:09:08Z</time>
      </trkpt>
      <trkpt lat="36.68730667" lon="-4.45264367">
        <ele>-21</ele>
        <time>2018-04-23T15:09:09Z</time>
      </trkpt>
      <trkpt lat="36.68732" lon="-4.45263467">
        <ele>-21</ele>
        <time>2018-04-23T15:09:10Z</time>
      </trkpt>
      <trkpt lat="36.68733333" lon="-4.45262767">
        <ele>-21</ele>
        <time>2018-04-23T15:09:11Z</time>
      </trkpt>
      <trkpt lat="36.687345" lon="-4.45262267">
        <ele>-21</ele>
        <time>2018-04-23T15:09:12Z</time>
      </trkpt>
      <trkpt lat="36.68735667" lon="-4.45261933">
        <ele>-21</ele>
        <time>2018-04-23T15:09:13Z</time>
      </trkpt>
      <trkpt lat="36.68736667" lon="-4.45261733">
        <ele>-21</ele>
        <time>2018-04-23T15:09:14Z</time>
      </trkpt>
      <trkpt lat="36.68737667" lon="-4.45261567">
        <ele>-21</ele>
        <time>2018-04-23T15:09:15Z</time>
      </trkpt>
      <trkpt lat="36.68738833" lon="-4.45261333">
        <ele>-21</ele>
        <time>2018-04-23T15:09:16Z</time>
      </trkpt>
      <trkpt lat="36.6874" lon="-4.45260967">
        <ele>-21</ele>
        <time>2018-04-23T15:09:17Z</time>
      </trkpt>
      <trkpt lat="36.68741" lon="-4.45260567">
        <ele>-21</ele>
        <time>2018-04-23T15:09:18Z</time>
      </trkpt>
      <trkpt lat="36.68742167" lon="-4.452601">
        <ele>-21</ele>
        <time>2018-04-23T15:09:19Z</time>
      </trkpt>
      <trkpt lat="36.68743167" lon="-4.452596">
        <ele>-21</ele>
        <time>2018-04-23T15:09:20Z</time>
      </trkpt>
      <trkpt lat="36.68744333" lon="-4.45258967">
        <ele>-21</ele>
        <time>2018-04-23T15:09:21Z</time>
      </trkpt>
      <trkpt lat="36.68745167" lon="-4.45258533">
        <ele>-21</ele>
        <time>2018-04-23T15:09:22Z</time>
      </trkpt>
      <trkpt lat="36.68746167" lon="-4.45258033">
        <ele>-21</ele>
        <time>2018-04-23T15:09:23Z</time>
      </trkpt>
      <trkpt lat="36.68747167" lon="-4.45257667">
        <ele>-21</ele>
        <time>2018-04-23T15:09:24Z</time>
      </trkpt>
      <trkpt lat="36.687485" lon="-4.45257267">
        <ele>-21</ele>
        <time>2018-04-23T15:09:25Z</time>
      </trkpt>
      <trkpt lat="36.68749833" lon="-4.45258833">
        <ele>-21</ele>
        <time>2018-04-23T15:09:26Z</time>
      </trkpt>
      <trkpt lat="36.68750333" lon="-4.45259667">
        <ele>-23</ele>
        <time>2018-04-23T15:09:27Z</time>
      </trkpt>
      <trkpt lat="36.68751167" lon="-4.452605">
        <ele>-23</ele>
        <time>2018-04-23T15:09:28Z</time>
      </trkpt>
      <trkpt lat="36.68752" lon="-4.45261">
        <ele>-23</ele>
        <time>2018-04-23T15:09:29Z</time>
      </trkpt>
      <trkpt lat="36.68752833" lon="-4.452616">
        <ele>-23</ele>
        <time>2018-04-23T15:09:30Z</time>
      </trkpt>
      <trkpt lat="36.68754167" lon="-4.45261867">
        <ele>-23</ele>
        <time>2018-04-23T15:09:31Z</time>
      </trkpt>
      <trkpt lat="36.68755333" lon="-4.45262233">
        <ele>-23</ele>
        <time>2018-04-23T15:09:32Z</time>
      </trkpt>
      <trkpt lat="36.68756667" lon="-4.45262467">
        <ele>-23</ele>
        <time>2018-04-23T15:09:33Z</time>
      </trkpt>
      <trkpt lat="36.68758333" lon="-4.45262667">
        <ele>-23</ele>
        <time>2018-04-23T15:09:34Z</time>
      </trkpt>
      <trkpt lat="36.68759833" lon="-4.45262667">
        <ele>-23</ele>
        <time>2018-04-23T15:09:35Z</time>
      </trkpt>
      <trkpt lat="36.68761333" lon="-4.452624">
        <ele>-23</ele>
        <time>2018-04-23T15:09:36Z</time>
      </trkpt>
      <trkpt lat="36.68763" lon="-4.45261333">
        <ele>-23</ele>
        <time>2018-04-23T15:09:37Z</time>
      </trkpt>
      <trkpt lat="36.687645" lon="-4.452608">
        <ele>-23</ele>
        <time>2018-04-23T15:09:38Z</time>
      </trkpt>
      <trkpt lat="36.68766" lon="-4.45260333">
        <ele>-23</ele>
        <time>2018-04-23T15:09:39Z</time>
      </trkpt>
      <trkpt lat="36.68767167" lon="-4.45259867">
        <ele>-23</ele>
        <time>2018-04-23T15:09:40Z</time>
      </trkpt>
      <trkpt lat="36.68768167" lon="-4.452596">
        <ele>-23</ele>
        <time>2018-04-23T15:09:41Z</time>
      </trkpt>
      <trkpt lat="36.68769167" lon="-4.45259433">
        <ele>-23</ele>
        <time>2018-04-23T15:09:42Z</time>
      </trkpt>
      <trkpt lat="36.68769833" lon="-4.45259467">
        <ele>-23</ele>
        <time>2018-04-23T15:09:43Z</time>
      </trkpt>
      <trkpt lat="36.68770167" lon="-4.45259533">
        <ele>-23</ele>
        <time>2018-04-23T15:09:44Z</time>
      </trkpt>
      <trkpt lat="36.68770667" lon="-4.45259467">
        <ele>-23</ele>
        <time>2018-04-23T15:09:45Z</time>
      </trkpt>
      <trkpt lat="36.68771167" lon="-4.45258833">
        <ele>-23</ele>
        <time>2018-04-23T15:09:46Z</time>
      </trkpt>
      <trkpt lat="36.68771967" lon="-4.45257833">
        <ele>-23</ele>
        <time>2018-04-23T15:09:47Z</time>
      </trkpt>
      <trkpt lat="36.687728" lon="-4.45257">
        <ele>-23</ele>
        <time>2018-04-23T15:09:48Z</time>
      </trkpt>
      <trkpt lat="36.68774167" lon="-4.45256333">
        <ele>-23</ele>
        <time>2018-04-23T15:09:49Z</time>
      </trkpt>
      <trkpt lat="36.68775333" lon="-4.45255333">
        <ele>-23</ele>
        <time>2018-04-23T15:09:50Z</time>
      </trkpt>
      <trkpt lat="36.68776667" lon="-4.452543">
        <ele>-23</ele>
        <time>2018-04-23T15:09:51Z</time>
      </trkpt>
      <trkpt lat="36.68778167" lon="-4.45253267">
        <ele>-23</ele>
        <time>2018-04-23T15:09:52Z</time>
      </trkpt>
      <trkpt lat="36.68780167" lon="-4.452525">
        <ele>-23</ele>
        <time>2018-04-23T15:09:53Z</time>
      </trkpt>
      <trkpt lat="36.68781333" lon="-4.45251967">
        <ele>-23</ele>
        <time>2018-04-23T15:09:54Z</time>
      </trkpt>
      <trkpt lat="36.68782" lon="-4.45251333">
        <ele>-23</ele>
        <time>2018-04-23T15:09:55Z</time>
      </trkpt>
      <trkpt lat="36.68783667" lon="-4.45251">
        <ele>-23</ele>
        <time>2018-04-23T15:09:56Z</time>
      </trkpt>
      <trkpt lat="36.68784667" lon="-4.45250667">
        <ele>-23</ele>
        <time>2018-04-23T15:09:57Z</time>
      </trkpt>
      <trkpt lat="36.687855" lon="-4.4525">
        <ele>-23</ele>
        <time>2018-04-23T15:09:58Z</time>
      </trkpt>
      <trkpt lat="36.687863" lon="-4.45248833">
        <ele>-23</ele>
        <time>2018-04-23T15:09:59Z</time>
      </trkpt>
      <trkpt lat="36.68787533" lon="-4.45248167">
        <ele>-23</ele>
        <time>2018-04-23T15:10:00Z</time>
      </trkpt>
      <trkpt lat="36.68789167" lon="-4.452475">
        <ele>-23</ele>
        <time>2018-04-23T15:10:01Z</time>
      </trkpt>
      <trkpt lat="36.68790167" lon="-4.45246667">
        <ele>-23</ele>
        <time>2018-04-23T15:10:02Z</time>
      </trkpt>
      <trkpt lat="36.68791833" lon="-4.45245767">
        <ele>-23</ele>
        <time>2018-04-23T15:10:03Z</time>
      </trkpt>
      <trkpt lat="36.68792333" lon="-4.45244833">
        <ele>-23</ele>
        <time>2018-04-23T15:10:04Z</time>
      </trkpt>
      <trkpt lat="36.68793167" lon="-4.45243667">
        <ele>-23</ele>
        <time>2018-04-23T15:10:05Z</time>
      </trkpt>
      <trkpt lat="36.68793833" lon="-4.45243">
        <ele>-23</ele>
        <time>2018-04-23T15:10:06Z</time>
      </trkpt>
      <trkpt lat="36.68794633" lon="-4.452425">
        <ele>-23</ele>
        <time>2018-04-23T15:10:07Z</time>
      </trkpt>
      <trkpt lat="36.687957" lon="-4.452415">
        <ele>-23</ele>
        <time>2018-04-23T15:10:08Z</time>
      </trkpt>
      <trkpt lat="36.68796567" lon="-4.45240833">
        <ele>-23</ele>
        <time>2018-04-23T15:10:09Z</time>
      </trkpt>
      <trkpt lat="36.68797533" lon="-4.45239833">
        <ele>-23</ele>
        <time>2018-04-23T15:10:10Z</time>
      </trkpt>
      <trkpt lat="36.68798" lon="-4.45239">
        <ele>-23</ele>
        <time>2018-04-23T15:10:11Z</time>
      </trkpt>
      <trkpt lat="36.687985" lon="-4.45238333">
        <ele>-23</ele>
        <time>2018-04-23T15:10:12Z</time>
      </trkpt>
      <trkpt lat="36.68799133" lon="-4.45237667">
        <ele>-23</ele>
        <time>2018-04-23T15:10:13Z</time>
      </trkpt>
      <trkpt lat="36.68799633" lon="-4.45237333">
        <ele>-23</ele>
        <time>2018-04-23T15:10:14Z</time>
      </trkpt>
      <trkpt lat="36.68800067" lon="-4.45237167">
        <ele>-23</ele>
        <time>2018-04-23T15:10:15Z</time>
      </trkpt>
      <trkpt lat="36.688009" lon="-4.45236667">
        <ele>-23</ele>
        <time>2018-04-23T15:10:16Z</time>
      </trkpt>
      <trkpt lat="36.68802733" lon="-4.45235">
        <ele>-23</ele>
        <time>2018-04-23T15:10:17Z</time>
      </trkpt>
      <trkpt lat="36.68803933" lon="-4.45233667">
        <ele>-23</ele>
        <time>2018-04-23T15:10:18Z</time>
      </trkpt>
      <trkpt lat="36.688045" lon="-4.45232667">
        <ele>-23</ele>
        <time>2018-04-23T15:10:19Z</time>
      </trkpt>
      <trkpt lat="36.68805" lon="-4.45231667">
        <ele>-23</ele>
        <time>2018-04-23T15:10:20Z</time>
      </trkpt>
      <trkpt lat="36.688055" lon="-4.45231">
        <ele>-21</ele>
        <time>2018-04-23T15:10:21Z</time>
      </trkpt>
      <trkpt lat="36.68806133" lon="-4.45230667">
        <ele>-21</ele>
        <time>2018-04-23T15:10:22Z</time>
      </trkpt>
      <trkpt lat="36.68807233" lon="-4.45230167">
        <ele>-21</ele>
        <time>2018-04-23T15:10:23Z</time>
      </trkpt>
      <trkpt lat="36.68808667" lon="-4.45229833">
        <ele>-21</ele>
        <time>2018-04-23T15:10:24Z</time>
      </trkpt>
      <trkpt lat="36.6881" lon="-4.45228667">
        <ele>-21</ele>
        <time>2018-04-23T15:10:25Z</time>
      </trkpt>
      <trkpt lat="36.68811167" lon="-4.45228167">
        <ele>-21</ele>
        <time>2018-04-23T15:10:26Z</time>
      </trkpt>
      <trkpt lat="36.68813167" lon="-4.45227667">
        <ele>-21</ele>
        <time>2018-04-23T15:10:27Z</time>
      </trkpt>
      <trkpt lat="36.68814833" lon="-4.45227">
        <ele>-21</ele>
        <time>2018-04-23T15:10:28Z</time>
      </trkpt>
      <trkpt lat="36.688155" lon="-4.45226">
        <ele>-21</ele>
        <time>2018-04-23T15:10:29Z</time>
      </trkpt>
      <trkpt lat="36.68816633" lon="-4.45225167">
        <ele>-21</ele>
        <time>2018-04-23T15:10:30Z</time>
      </trkpt>
      <trkpt lat="36.68818167" lon="-4.45225">
        <ele>-21</ele>
        <time>2018-04-23T15:10:31Z</time>
      </trkpt>
      <trkpt lat="36.68819333" lon="-4.45224333">
        <ele>-21</ele>
        <time>2018-04-23T15:10:32Z</time>
      </trkpt>
      <trkpt lat="36.688205" lon="-4.45223667">
        <ele>-21</ele>
        <time>2018-04-23T15:10:33Z</time>
      </trkpt>
      <trkpt lat="36.688215" lon="-4.452229">
        <ele>-21</ele>
        <time>2018-04-23T15:10:34Z</time>
      </trkpt>
      <trkpt lat="36.68822" lon="-4.45221833">
        <ele>-21</ele>
        <time>2018-04-23T15:10:35Z</time>
      </trkpt>
      <trkpt lat="36.688228" lon="-4.45221">
        <ele>-21</ele>
        <time>2018-04-23T15:10:36Z</time>
      </trkpt>
      <trkpt lat="36.688238" lon="-4.45219833">
        <ele>-21</ele>
        <time>2018-04-23T15:10:37Z</time>
      </trkpt>
      <trkpt lat="36.68825833" lon="-4.45218667">
        <ele>-21</ele>
        <time>2018-04-23T15:10:38Z</time>
      </trkpt>
      <trkpt lat="36.68826833" lon="-4.45218133">
        <ele>-21</ele>
        <time>2018-04-23T15:10:39Z</time>
      </trkpt>
      <trkpt lat="36.68828333" lon="-4.45217833">
        <ele>-21</ele>
        <time>2018-04-23T15:10:40Z</time>
      </trkpt>
      <trkpt lat="36.688295" lon="-4.452175">
        <ele>-21</ele>
        <time>2018-04-23T15:10:41Z</time>
      </trkpt>
      <trkpt lat="36.68830833" lon="-4.45217167">
        <ele>-21</ele>
        <time>2018-04-23T15:10:42Z</time>
      </trkpt>
      <trkpt lat="36.68832167" lon="-4.45217367">
        <ele>-21</ele>
        <time>2018-04-23T15:10:43Z</time>
      </trkpt>
      <trkpt lat="36.68833" lon="-4.45217533">
        <ele>-21</ele>
        <time>2018-04-23T15:10:44Z</time>
      </trkpt>
      <trkpt lat="36.68833833" lon="-4.452174">
        <ele>-21</ele>
        <time>2018-04-23T15:10:45Z</time>
      </trkpt>
      <trkpt lat="36.68834833" lon="-4.45216833">
        <ele>-21</ele>
        <time>2018-04-23T15:10:46Z</time>
      </trkpt>
      <trkpt lat="36.68836833" lon="-4.452161">
        <ele>-21</ele>
        <time>2018-04-23T15:10:47Z</time>
      </trkpt>
      <trkpt lat="36.688385" lon="-4.45215433">
        <ele>-21</ele>
        <time>2018-04-23T15:10:48Z</time>
      </trkpt>
      <trkpt lat="36.68840667" lon="-4.45214633">
        <ele>-21</ele>
        <time>2018-04-23T15:10:49Z</time>
      </trkpt>
      <trkpt lat="36.688425" lon="-4.45213933">
        <ele>-21</ele>
        <time>2018-04-23T15:10:50Z</time>
      </trkpt>
      <trkpt lat="36.688445" lon="-4.45213233">
        <ele>-21</ele>
        <time>2018-04-23T15:10:51Z</time>
      </trkpt>
      <trkpt lat="36.68846333" lon="-4.452127">
        <ele>-21</ele>
        <time>2018-04-23T15:10:52Z</time>
      </trkpt>
      <trkpt lat="36.68848" lon="-4.45212333">
        <ele>-21</ele>
        <time>2018-04-23T15:10:53Z</time>
      </trkpt>
      <trkpt lat="36.688495" lon="-4.45212033">
        <ele>-21</ele>
        <time>2018-04-23T15:10:54Z</time>
      </trkpt>
      <trkpt lat="36.68851167" lon="-4.45211733">
        <ele>-21</ele>
        <time>2018-04-23T15:10:55Z</time>
      </trkpt>
      <trkpt lat="36.68853" lon="-4.45211533">
        <ele>-21</ele>
        <time>2018-04-23T15:10:56Z</time>
      </trkpt>
      <trkpt lat="36.68854667" lon="-4.45211533">
        <ele>-21</ele>
        <time>2018-04-23T15:10:57Z</time>
      </trkpt>
      <trkpt lat="36.68856167" lon="-4.452135">
        <ele>-21</ele>
        <time>2018-04-23T15:10:58Z</time>
      </trkpt>
      <trkpt lat="36.68857833" lon="-4.45213833">
        <ele>-21</ele>
        <time>2018-04-23T15:10:59Z</time>
      </trkpt>
      <trkpt lat="36.68859667" lon="-4.45213867">
        <ele>-21</ele>
        <time>2018-04-23T15:11:00Z</time>
      </trkpt>
      <trkpt lat="36.688615" lon="-4.45213667">
        <ele>-21</ele>
        <time>2018-04-23T15:11:01Z</time>
      </trkpt>
      <trkpt lat="36.68862833" lon="-4.452132">
        <ele>-21</ele>
        <time>2018-04-23T15:11:02Z</time>
      </trkpt>
      <trkpt lat="36.68864833" lon="-4.45212">
        <ele>-21</ele>
        <time>2018-04-23T15:11:03Z</time>
      </trkpt>
      <trkpt lat="36.688665" lon="-4.45211333">
        <ele>-21</ele>
        <time>2018-04-23T15:11:04Z</time>
      </trkpt>
      <trkpt lat="36.68868333" lon="-4.45210333">
        <ele>-21</ele>
        <time>2018-04-23T15:11:05Z</time>
      </trkpt>
      <trkpt lat="36.68869667" lon="-4.45209467">
        <ele>-21</ele>
        <time>2018-04-23T15:11:06Z</time>
      </trkpt>
      <trkpt lat="36.68871167" lon="-4.45208567">
        <ele>-21</ele>
        <time>2018-04-23T15:11:06Z</time>
      </trkpt>
      <trkpt lat="36.68872667" lon="-4.45207633">
        <ele>-21</ele>
        <time>2018-04-23T15:11:07Z</time>
      </trkpt>
      <trkpt lat="36.68874167" lon="-4.45206967">
        <ele>-21</ele>
        <time>2018-04-23T15:11:08Z</time>
      </trkpt>
      <trkpt lat="36.68875667" lon="-4.452063">
        <ele>-21</ele>
        <time>2018-04-23T15:11:09Z</time>
      </trkpt>
      <trkpt lat="36.68876667" lon="-4.45205667">
        <ele>-21</ele>
        <time>2018-04-23T15:11:10Z</time>
      </trkpt>
      <trkpt lat="36.68877667" lon="-4.45205">
        <ele>-21</ele>
        <time>2018-04-23T15:11:11Z</time>
      </trkpt>
      <trkpt lat="36.68878833" lon="-4.45204167">
        <ele>-21</ele>
        <time>2018-04-23T15:11:12Z</time>
      </trkpt>
      <trkpt lat="36.68879667" lon="-4.45203233">
        <ele>-21</ele>
        <time>2018-04-23T15:11:13Z</time>
      </trkpt>
      <trkpt lat="36.68880667" lon="-4.452022">
        <ele>-21</ele>
        <time>2018-04-23T15:11:14Z</time>
      </trkpt>
      <trkpt lat="36.68881833" lon="-4.452011">
        <ele>-21</ele>
        <time>2018-04-23T15:11:15Z</time>
      </trkpt>
      <trkpt lat="36.68882667" lon="-4.452002">
        <ele>-21</ele>
        <time>2018-04-23T15:11:16Z</time>
      </trkpt>
      <trkpt lat="36.68883167" lon="-4.45199433">
        <ele>-21</ele>
        <time>2018-04-23T15:11:17Z</time>
      </trkpt>
      <trkpt lat="36.68883333" lon="-4.45199033">
        <ele>-21</ele>
        <time>2018-04-23T15:11:18Z</time>
      </trkpt>
      <trkpt lat="36.688835" lon="-4.45198567">
        <ele>-21</ele>
        <time>2018-04-23T15:11:19Z</time>
      </trkpt>
      <trkpt lat="36.688845" lon="-4.45197">
        <ele>-21</ele>
        <time>2018-04-23T15:11:20Z</time>
      </trkpt>
      <trkpt lat="36.68885333" lon="-4.45197333">
        <ele>-21</ele>
        <time>2018-04-23T15:11:21Z</time>
      </trkpt>
      <trkpt lat="36.68886667" lon="-4.451977">
        <ele>-21</ele>
        <time>2018-04-23T15:11:22Z</time>
      </trkpt>
      <trkpt lat="36.68888167" lon="-4.45198167">
        <ele>-21</ele>
        <time>2018-04-23T15:11:23Z</time>
      </trkpt>
      <trkpt lat="36.68888333" lon="-4.451981">
        <ele>-21</ele>
        <time>2018-04-23T15:11:24Z</time>
      </trkpt>
      <trkpt lat="36.68888167" lon="-4.45198067">
        <ele>-20</ele>
        <time>2018-04-23T15:11:25Z</time>
      </trkpt>
      <trkpt lat="36.68888667" lon="-4.45198333">
        <ele>-20</ele>
        <time>2018-04-23T15:11:26Z</time>
      </trkpt>
      <trkpt lat="36.68889" lon="-4.45198367">
        <ele>-20</ele>
        <time>2018-04-23T15:11:27Z</time>
      </trkpt>
      <trkpt lat="36.68888" lon="-4.451984">
        <ele>-20</ele>
        <time>2018-04-23T15:11:28Z</time>
      </trkpt>
      <trkpt lat="36.68888" lon="-4.451988">
        <ele>-20</ele>
        <time>2018-04-23T15:11:29Z</time>
      </trkpt>
      <trkpt lat="36.688885" lon="-4.45199533">
        <ele>-20</ele>
        <time>2018-04-23T15:11:30Z</time>
      </trkpt>
      <trkpt lat="36.68889667" lon="-4.45201233">
        <ele>-20</ele>
        <time>2018-04-23T15:11:31Z</time>
      </trkpt>
      <trkpt lat="36.68892" lon="-4.45205833">
        <ele>-20</ele>
        <time>2018-04-23T15:11:32Z</time>
      </trkpt>
      <trkpt lat="36.68896" lon="-4.452063">
        <ele>-20</ele>
        <time>2018-04-23T15:11:33Z</time>
      </trkpt>
      <trkpt lat="36.689" lon="-4.452071">
        <ele>-20</ele>
        <time>2018-04-23T15:11:34Z</time>
      </trkpt>
      <trkpt lat="36.68902" lon="-4.45208033">
        <ele>-20</ele>
        <time>2018-04-23T15:11:35Z</time>
      </trkpt>
      <trkpt lat="36.68898833" lon="-4.45208">
        <ele>-20</ele>
        <time>2018-04-23T15:11:36Z</time>
      </trkpt>
      <trkpt lat="36.68897333" lon="-4.45208167">
        <ele>-20</ele>
        <time>2018-04-23T15:11:37Z</time>
      </trkpt>
      <trkpt lat="36.68898667" lon="-4.45209067">
        <ele>-20</ele>
        <time>2018-04-23T15:11:38Z</time>
      </trkpt>
      <trkpt lat="36.68900833" lon="-4.45210333">
        <ele>-20</ele>
        <time>2018-04-23T15:11:39Z</time>
      </trkpt>
      <trkpt lat="36.68901667" lon="-4.45211267">
        <ele>-20</ele>
        <time>2018-04-23T15:11:40Z</time>
      </trkpt>
      <trkpt lat="36.68902667" lon="-4.45212233">
        <ele>-20</ele>
        <time>2018-04-23T15:11:41Z</time>
      </trkpt>
      <trkpt lat="36.68905333" lon="-4.45214333">
        <ele>-20</ele>
        <time>2018-04-23T15:11:42Z</time>
      </trkpt>
      <trkpt lat="36.68907" lon="-4.45215867">
        <ele>-20</ele>
        <time>2018-04-23T15:11:43Z</time>
      </trkpt>
      <trkpt lat="36.68909667" lon="-4.452177">
        <ele>-20</ele>
        <time>2018-04-23T15:11:44Z</time>
      </trkpt>
      <trkpt lat="36.689105" lon="-4.452184">
        <ele>-22</ele>
        <time>2018-04-23T15:11:45Z</time>
      </trkpt>
      <trkpt lat="36.68911" lon="-4.45218867">
        <ele>-22</ele>
        <time>2018-04-23T15:11:46Z</time>
      </trkpt>
      <trkpt lat="36.68911167" lon="-4.45219067">
        <ele>-22</ele>
        <time>2018-04-23T15:11:47Z</time>
      </trkpt>
      <trkpt lat="36.6891" lon="-4.45218367">
        <ele>-22</ele>
        <time>2018-04-23T15:11:48Z</time>
      </trkpt>
      <trkpt lat="36.68909333" lon="-4.45218">
        <ele>-20</ele>
        <time>2018-04-23T15:11:49Z</time>
      </trkpt>
      <trkpt lat="36.68910833" lon="-4.45219167">
        <ele>-20</ele>
        <time>2018-04-23T15:11:50Z</time>
      </trkpt>
      <trkpt lat="36.689115" lon="-4.452197">
        <ele>-20</ele>
        <time>2018-04-23T15:11:51Z</time>
      </trkpt>
      <trkpt lat="36.68912" lon="-4.45220167">
        <ele>-20</ele>
        <time>2018-04-23T15:11:52Z</time>
      </trkpt>
    </trkseg>
  </trk>
</gpx>
